Wetterdaten: Donnerstag, 07.11.2019
Datum Zeit Temp. A. Feuchte A. Luftdruck Regen Wind Richtung Richtung Sonnenschein ET UV Solar Taupunkt Windchill Windböen
07.11.2019 00:00 2,0 °C 92 % 1006,4 hPa 0,0 mm 0,0 km/h (0 Bft) S 169 ° 0 min 0,000 mm 0,0 UV-I 0 W/m² 0,8 °C 2,0 °C 0,0 km/h (0 Bft)
07.11.2019 00:01 2,0 °C 92 % 1006,4 hPa 0,0 mm 0,0 km/h (0 Bft) S 169 ° 0 min 0,000 mm 0,0 UV-I 0 W/m² 0,8 °C 2,0 °C 0,0 km/h (0 Bft)
07.11.2019 00:02 2,0 °C 92 % 1006,4 hPa 0,0 mm 0,0 km/h (0 Bft) S 169 ° 0 min 0,000 mm 0,0 UV-I 0 W/m² 0,8 °C 2,0 °C 0,0 km/h (0 Bft)
07.11.2019 00:03 2,0 °C 92 % 1006,4 hPa 0,0 mm 0,0 km/h (0 Bft) S 169 ° 0 min 0,000 mm 0,0 UV-I 0 W/m² 0,8 °C 2,0 °C 0,0 km/h (0 Bft)
07.11.2019 00:04 2,0 °C 92 % 1006,4 hPa 0,0 mm 0,0 km/h (0 Bft) S 169 ° 0 min 0,000 mm 0,0 UV-I 0 W/m² 0,8 °C 2,0 °C 0,0 km/h (0 Bft)
07.11.2019 00:05 1,9 °C 93 % 1006,4 hPa 0,0 mm 0,0 km/h (0 Bft) S 169 ° 0 min 0,000 mm 0,0 UV-I 0 W/m² 0,9 °C 1,9 °C 0,0 km/h (0 Bft)
07.11.2019 00:06 1,9 °C 93 % 1006,4 hPa 0,0 mm 0,0 km/h (0 Bft) S 169 ° 0 min 0,000 mm 0,0 UV-I 0 W/m² 0,9 °C 1,9 °C 0,0 km/h (0 Bft)
07.11.2019 00:07 1,9 °C 93 % 1006,4 hPa 0,0 mm 0,0 km/h (0 Bft) S 169 ° 0 min 0,000 mm 0,0 UV-I 0 W/m² 0,9 °C 1,9 °C 0,0 km/h (0 Bft)
07.11.2019 00:08 1,9 °C 93 % 1006,4 hPa 0,0 mm 0,0 km/h (0 Bft) S 169 ° 0 min 0,000 mm 0,0 UV-I 0 W/m² 0,9 °C 1,9 °C 0,0 km/h (0 Bft)
07.11.2019 00:09 1,9 °C 93 % 1006,4 hPa 0,0 mm 1,5 km/h (1 Bft) S-SW 202 ° 0 min 0,000 mm 0,0 UV-I 0 W/m² 0,9 °C 1,9 °C 4,8 km/h (1 Bft)
07.11.2019 00:10 1,9 °C 93 % 1006,4 hPa 0,0 mm 1,0 km/h (0 Bft) S-SW 202 ° 0 min 0,000 mm 0,0 UV-I 0 W/m² 0,9 °C 1,9 °C 3,2 km/h (1 Bft)
07.11.2019 00:11 1,9 °C 92 % 1006,4 hPa 0,0 mm 0,0 km/h (0 Bft) S-SW 202 ° 0 min 0,000 mm 0,0 UV-I 0 W/m² 0,7 °C 1,9 °C 0,0 km/h (0 Bft)
07.11.2019 00:12 1,9 °C 92 % 1006,4 hPa 0,0 mm 0,0 km/h (0 Bft) S-SW 202 ° 0 min 0,000 mm 0,0 UV-I 0 W/m² 0,7 °C 1,9 °C 0,0 km/h (0 Bft)
07.11.2019 00:13 1,9 °C 92 % 1006,5 hPa 0,0 mm 0,0 km/h (0 Bft) S-SW 202 ° 0 min 0,000 mm 0,0 UV-I 0 W/m² 0,7 °C 1,9 °C 0,0 km/h (0 Bft)
07.11.2019 00:14 1,9 °C 92 % 1006,4 hPa 0,0 mm 0,0 km/h (0 Bft) S-SW 202 ° 0 min 0,000 mm 0,0 UV-I 0 W/m² 0,7 °C 1,9 °C 0,0 km/h (0 Bft)
07.11.2019 00:15 1,8 °C 92 % 1006,4 hPa 0,0 mm 0,0 km/h (0 Bft) S-SW 202 ° 0 min 0,000 mm 0,0 UV-I 0 W/m² 0,6 °C 1,8 °C 0,0 km/h (0 Bft)
07.11.2019 00:16 1,8 °C 92 % 1006,4 hPa 0,0 mm 0,0 km/h (0 Bft) S-SW 202 ° 0 min 0,000 mm 0,0 UV-I 0 W/m² 0,6 °C 1,8 °C 0,0 km/h (0 Bft)
07.11.2019 00:17 1,8 °C 92 % 1006,4 hPa 0,0 mm 0,0 km/h (0 Bft) S-SW 202 ° 0 min 0,000 mm 0,0 UV-I 0 W/m² 0,6 °C 1,8 °C 0,0 km/h (0 Bft)
07.11.2019 00:18 1,8 °C 92 % 1006,3 hPa 0,0 mm 0,0 km/h (0 Bft) S-SW 202 ° 0 min 0,000 mm 0,0 UV-I 0 W/m² 0,6 °C 1,8 °C 0,0 km/h (0 Bft)
07.11.2019 00:19 1,8 °C 92 % 1006,3 hPa 0,0 mm 0,0 km/h (0 Bft) S-SW 202 ° 0 min 0,000 mm 0,0 UV-I 0 W/m² 0,6 °C 1,8 °C 0,0 km/h (0 Bft)
07.11.2019 00:20 1,7 °C 92 % 1006,4 hPa 0,0 mm 0,1 km/h (0 Bft) S-SW 202 ° 0 min 0,000 mm 0,0 UV-I 0 W/m² 0,5 °C 1,7 °C 1,6 km/h (1 Bft)
07.11.2019 00:21 1,8 °C 92 % 1006,4 hPa 0,0 mm 0,8 km/h (0 Bft) S-SW 202 ° 0 min 0,000 mm 0,0 UV-I 0 W/m² 0,6 °C 1,8 °C 3,2 km/h (1 Bft)
07.11.2019 00:22 1,7 °C 92 % 1006,3 hPa 0,0 mm 0,7 km/h (0 Bft) S-SW 202 ° 0 min 0,000 mm 0,0 UV-I 0 W/m² 0,5 °C 1,7 °C 3,2 km/h (1 Bft)
07.11.2019 00:23 1,7 °C 92 % 1006,3 hPa 0,0 mm 2,1 km/h (1 Bft) S-SW 202 ° 0 min 0,000 mm 0,0 UV-I 0 W/m² 0,5 °C 1,7 °C 3,2 km/h (1 Bft)
07.11.2019 00:24 1,7 °C 92 % 1006,4 hPa 0,0 mm 0,9 km/h (0 Bft) S-SW 202 ° 0 min 0,000 mm 0,0 UV-I 0 W/m² 0,5 °C 1,7 °C 3,2 km/h (1 Bft)
07.11.2019 00:25 1,7 °C 93 % 1006,4 hPa 0,0 mm 1,6 km/h (1 Bft) S-SW 202 ° 0 min 0,000 mm 0,0 UV-I 0 W/m² 0,7 °C 1,7 °C 3,2 km/h (1 Bft)
07.11.2019 00:26 1,7 °C 93 % 1006,4 hPa 0,0 mm 0,0 km/h (0 Bft) S-SW 202 ° 0 min 0,000 mm 0,0 UV-I 0 W/m² 0,7 °C 1,7 °C 0,0 km/h (0 Bft)
07.11.2019 00:27 1,7 °C 93 % 1006,3 hPa 0,0 mm 1,4 km/h (1 Bft) S-SW 202 ° 0 min 0,000 mm 0,0 UV-I 0 W/m² 0,7 °C 1,7 °C 3,2 km/h (1 Bft)
07.11.2019 00:28 1,6 °C 93 % 1006,3 hPa 0,0 mm 3,0 km/h (1 Bft) S-SW 202 ° 0 min 0,000 mm 0,0 UV-I 0 W/m² 0,6 °C 1,6 °C 3,2 km/h (1 Bft)
07.11.2019 00:29 1,6 °C 93 % 1006,3 hPa 0,0 mm 1,8 km/h (1 Bft) S-SW 202 ° 0 min 0,000 mm 0,0 UV-I 0 W/m² 0,6 °C 1,6 °C 3,2 km/h (1 Bft)
07.11.2019 00:30 1,6 °C 93 % 1006,3 hPa 0,0 mm 2,4 km/h (1 Bft) S-SW 202 ° 0 min 0,000 mm 0,0 UV-I 0 W/m² 0,6 °C 1,6 °C 3,2 km/h (1 Bft)
07.11.2019 00:31 1,6 °C 93 % 1006,3 hPa 0,0 mm 3,1 km/h (1 Bft) S-SW 202 ° 0 min 0,000 mm 0,0 UV-I 0 W/m² 0,6 °C 1,6 °C 4,8 km/h (1 Bft)
07.11.2019 00:32 1,6 °C 93 % 1006,3 hPa 0,0 mm 0,3 km/h (0 Bft) S-SW 202 ° 0 min 0,000 mm 0,0 UV-I 0 W/m² 0,6 °C 1,6 °C 1,6 km/h (1 Bft)
07.11.2019 00:33 1,6 °C 93 % 1006,3 hPa 0,0 mm 0,0 km/h (0 Bft) S-SW 202 ° 0 min 0,000 mm 0,0 UV-I 0 W/m² 0,6 °C 1,6 °C 0,0 km/h (0 Bft)
07.11.2019 00:34 1,6 °C 93 % 1006,2 hPa 0,0 mm 0,0 km/h (0 Bft) S-SW 202 ° 0 min 0,000 mm 0,0 UV-I 0 W/m² 0,6 °C 1,6 °C 0,0 km/h (0 Bft)
07.11.2019 00:35 1,6 °C 93 % 1006,2 hPa 0,0 mm 0,0 km/h (0 Bft) S-SW 202 ° 0 min 0,000 mm 0,0 UV-I 0 W/m² 0,6 °C 1,6 °C 0,0 km/h (0 Bft)
07.11.2019 00:36 1,6 °C 93 % 1006,2 hPa 0,0 mm 0,0 km/h (0 Bft) S-SW 202 ° 0 min 0,000 mm 0,0 UV-I 0 W/m² 0,6 °C 1,6 °C 0,0 km/h (0 Bft)
07.11.2019 00:37 1,6 °C 93 % 1006,2 hPa 0,0 mm 0,1 km/h (0 Bft) S-SW 202 ° 0 min 0,000 mm 0,0 UV-I 0 W/m² 0,6 °C 1,6 °C 1,6 km/h (1 Bft)
07.11.2019 00:38 1,6 °C 93 % 1006,2 hPa 0,0 mm 1,1 km/h (1 Bft) S-SW 202 ° 0 min 0,000 mm 0,0 UV-I 0 W/m² 0,6 °C 1,6 °C 3,2 km/h (1 Bft)
07.11.2019 00:39 1,6 °C 93 % 1006,2 hPa 0,0 mm 0,2 km/h (0 Bft) S-SW 202 ° 0 min 0,000 mm 0,0 UV-I 0 W/m² 0,6 °C 1,6 °C 1,6 km/h (1 Bft)
07.11.2019 00:40 1,6 °C 93 % 1006,2 hPa 0,0 mm 0,0 km/h (0 Bft) S-SW 202 ° 0 min 0,000 mm 0,0 UV-I 0 W/m² 0,6 °C 1,6 °C 0,0 km/h (0 Bft)
07.11.2019 00:41 1,6 °C 93 % 1006,2 hPa 0,0 mm 1,5 km/h (1 Bft) S-SW 202 ° 0 min 0,000 mm 0,0 UV-I 0 W/m² 0,6 °C 1,6 °C 6,4 km/h (2 Bft)
07.11.2019 00:42 1,6 °C 93 % 1006,2 hPa 0,0 mm 2,4 km/h (1 Bft) S-SW 202 ° 0 min 0,000 mm 0,0 UV-I 0 W/m² 0,6 °C 1,6 °C 4,8 km/h (1 Bft)
07.11.2019 00:43 1,6 °C 93 % 1006,2 hPa 0,0 mm 0,0 km/h (0 Bft) S-SW 202 ° 0 min 0,000 mm 0,0 UV-I 0 W/m² 0,6 °C 1,6 °C 0,0 km/h (0 Bft)
07.11.2019 00:44 1,6 °C 93 % 1006,2 hPa 0,0 mm 0,0 km/h (0 Bft) S-SW 202 ° 0 min 0,000 mm 0,0 UV-I 0 W/m² 0,6 °C 1,6 °C 0,0 km/h (0 Bft)
07.11.2019 00:45 1,6 °C 93 % 1006,1 hPa 0,0 mm 0,0 km/h (0 Bft) S-SW 202 ° 0 min 0,000 mm 0,0 UV-I 0 W/m² 0,6 °C 1,6 °C 0,0 km/h (0 Bft)
07.11.2019 00:46 1,6 °C 93 % 1006,1 hPa 0,0 mm 0,0 km/h (0 Bft) S-SW 202 ° 0 min 0,000 mm 0,0 UV-I 0 W/m² 0,6 °C 1,6 °C 0,0 km/h (0 Bft)
07.11.2019 00:47 1,6 °C 93 % 1006,1 hPa 0,0 mm 0,0 km/h (0 Bft) S-SW 202 ° 0 min 0,000 mm 0,0 UV-I 0 W/m² 0,6 °C 1,6 °C 0,0 km/h (0 Bft)
07.11.2019 00:48 1,6 °C 93 % 1006,1 hPa 0,0 mm 0,0 km/h (0 Bft) S-SW 202 ° 0 min 0,000 mm 0,0 UV-I 0 W/m² 0,6 °C 1,6 °C 0,0 km/h (0 Bft)
07.11.2019 00:49 1,5 °C 93 % 1006,1 hPa 0,0 mm 0,0 km/h (0 Bft) S-SW 202 ° 0 min 0,000 mm 0,0 UV-I 0 W/m² 0,5 °C 1,5 °C 0,0 km/h (0 Bft)
07.11.2019 00:50 1,5 °C 93 % 1006,1 hPa 0,0 mm 0,0 km/h (0 Bft) S-SW 202 ° 0 min 0,000 mm 0,0 UV-I 0 W/m² 0,5 °C 1,5 °C 0,0 km/h (0 Bft)
07.11.2019 00:51 1,5 °C 93 % 1006,1 hPa 0,0 mm 0,0 km/h (0 Bft) S-SW 202 ° 0 min 0,000 mm 0,0 UV-I 0 W/m² 0,5 °C 1,5 °C 0,0 km/h (0 Bft)
07.11.2019 00:52 1,5 °C 93 % 1006,1 hPa 0,0 mm 0,0 km/h (0 Bft) S-SW 202 ° 0 min 0,000 mm 0,0 UV-I 0 W/m² 0,5 °C 1,5 °C 0,0 km/h (0 Bft)
07.11.2019 00:53 1,5 °C 93 % 1006,1 hPa 0,0 mm 0,0 km/h (0 Bft) S-SW 202 ° 0 min 0,000 mm 0,0 UV-I 0 W/m² 0,5 °C 1,5 °C 0,0 km/h (0 Bft)
07.11.2019 00:54 1,4 °C 93 % 1006,1 hPa 0,0 mm 0,0 km/h (0 Bft) S-SW 202 ° 0 min 0,000 mm 0,0 UV-I 0 W/m² 0,4 °C 1,4 °C 0,0 km/h (0 Bft)
07.11.2019 00:55 1,4 °C 93 % 1006,1 hPa 0,0 mm 0,0 km/h (0 Bft) S-SW 202 ° 0 min 0,000 mm 0,0 UV-I 0 W/m² 0,4 °C 1,4 °C 0,0 km/h (0 Bft)
07.11.2019 00:56 1,4 °C 93 % 1006,1 hPa 0,0 mm 0,0 km/h (0 Bft) S-SW 202 ° 0 min 0,000 mm 0,0 UV-I 0 W/m² 0,4 °C 1,4 °C 0,0 km/h (0 Bft)
07.11.2019 00:57 1,4 °C 93 % 1006,1 hPa 0,0 mm 0,0 km/h (0 Bft) S-SW 202 ° 0 min 0,000 mm 0,0 UV-I 0 W/m² 0,4 °C 1,4 °C 0,0 km/h (0 Bft)
07.11.2019 00:58 1,4 °C 93 % 1006,1 hPa 0,0 mm 0,0 km/h (0 Bft) S-SW 202 ° 0 min 0,000 mm 0,0 UV-I 0 W/m² 0,4 °C 1,4 °C 0,0 km/h (0 Bft)
07.11.2019 00:59 1,4 °C 93 % 1006,0 hPa 0,0 mm 0,0 km/h (0 Bft) S-SW 202 ° 0 min 0,000 mm 0,0 UV-I 0 W/m² 0,4 °C 1,4 °C 0,0 km/h (0 Bft)
07.11.2019 01:00 1,3 °C 93 % 1006,0 hPa 0,0 mm 0,0 km/h (0 Bft) S-SW 202 ° 0 min 0,000 mm 0,0 UV-I 0 W/m² 0,3 °C 1,3 °C 0,0 km/h (0 Bft)
07.11.2019 01:01 1,3 °C 93 % 1006,0 hPa 0,0 mm 0,0 km/h (0 Bft) S-SW 202 ° 0 min 0,000 mm 0,0 UV-I 0 W/m² 0,3 °C 1,3 °C 0,0 km/h (0 Bft)
07.11.2019 01:02 1,3 °C 93 % 1006,0 hPa 0,0 mm 0,0 km/h (0 Bft) S-SW 202 ° 0 min 0,000 mm 0,0 UV-I 0 W/m² 0,3 °C 1,3 °C 0,0 km/h (0 Bft)
07.11.2019 01:03 1,3 °C 93 % 1006,0 hPa 0,0 mm 0,0 km/h (0 Bft) S-SW 202 ° 0 min 0,000 mm 0,0 UV-I 0 W/m² 0,3 °C 1,3 °C 0,0 km/h (0 Bft)
07.11.2019 01:04 1,3 °C 93 % 1005,9 hPa 0,0 mm 0,0 km/h (0 Bft) S-SW 202 ° 0 min 0,000 mm 0,0 UV-I 0 W/m² 0,3 °C 1,3 °C 0,0 km/h (0 Bft)
07.11.2019 01:05 1,3 °C 93 % 1005,9 hPa 0,0 mm 0,0 km/h (0 Bft) S-SW 202 ° 0 min 0,000 mm 0,0 UV-I 0 W/m² 0,3 °C 1,3 °C 0,0 km/h (0 Bft)
07.11.2019 01:06 1,3 °C 93 % 1005,9 hPa 0,0 mm 0,0 km/h (0 Bft) S-SW 202 ° 0 min 0,000 mm 0,0 UV-I 0 W/m² 0,3 °C 1,3 °C 0,0 km/h (0 Bft)
07.11.2019 01:07 1,3 °C 93 % 1005,8 hPa 0,0 mm 0,0 km/h (0 Bft) S-SW 202 ° 0 min 0,000 mm 0,0 UV-I 0 W/m² 0,3 °C 1,3 °C 0,0 km/h (0 Bft)
07.11.2019 01:08 1,2 °C 93 % 1005,8 hPa 0,0 mm 0,0 km/h (0 Bft) S-SW 202 ° 0 min 0,000 mm 0,0 UV-I 0 W/m² 0,2 °C 1,2 °C 0,0 km/h (0 Bft)
07.11.2019 01:09 1,2 °C 93 % 1005,8 hPa 0,0 mm 0,0 km/h (0 Bft) S-SW 202 ° 0 min 0,000 mm 0,0 UV-I 0 W/m² 0,2 °C 1,2 °C 0,0 km/h (0 Bft)
07.11.2019 01:10 1,2 °C 92 % 1005,9 hPa 0,0 mm 0,0 km/h (0 Bft) S-SW 202 ° 0 min 0,000 mm 0,0 UV-I 0 W/m² 0,0 °C 1,2 °C 0,0 km/h (0 Bft)
07.11.2019 01:11 1,1 °C 93 % 1005,8 hPa 0,0 mm 0,0 km/h (0 Bft) S-SW 202 ° 0 min 0,000 mm 0,0 UV-I 0 W/m² 0,1 °C 1,1 °C 0,0 km/h (0 Bft)
07.11.2019 01:12 1,1 °C 92 % 1005,9 hPa 0,0 mm 0,0 km/h (0 Bft) S-SW 202 ° 0 min 0,000 mm 0,0 UV-I 0 W/m² -0,1 °C 1,1 °C 0,0 km/h (0 Bft)
07.11.2019 01:13 1,1 °C 92 % 1005,9 hPa 0,0 mm 0,0 km/h (0 Bft) S-SW 202 ° 0 min 0,000 mm 0,0 UV-I 0 W/m² -0,1 °C 1,1 °C 0,0 km/h (0 Bft)
07.11.2019 01:14 1,1 °C 92 % 1005,9 hPa 0,0 mm 0,0 km/h (0 Bft) S-SW 202 ° 0 min 0,000 mm 0,0 UV-I 0 W/m² -0,1 °C 1,1 °C 0,0 km/h (0 Bft)
07.11.2019 01:15 1,0 °C 93 % 1005,9 hPa 0,0 mm 0,0 km/h (0 Bft) S-SW 202 ° 0 min 0,000 mm 0,0 UV-I 0 W/m² -0,0 °C 1,0 °C 0,0 km/h (0 Bft)
07.11.2019 01:16 1,0 °C 93 % 1005,8 hPa 0,0 mm 0,0 km/h (0 Bft) S-SW 202 ° 0 min 0,000 mm 0,0 UV-I 0 W/m² -0,0 °C 1,0 °C 0,0 km/h (0 Bft)
07.11.2019 01:17 0,9 °C 93 % 1005,8 hPa 0,0 mm 0,0 km/h (0 Bft) S-SW 202 ° 0 min 0,000 mm 0,0 UV-I 0 W/m² -0,1 °C 0,9 °C 0,0 km/h (0 Bft)
07.11.2019 01:18 0,9 °C 92 % 1005,7 hPa 0,0 mm 0,0 km/h (0 Bft) S-SW 202 ° 0 min 0,000 mm 0,0 UV-I 0 W/m² -0,2 °C 0,9 °C 0,0 km/h (0 Bft)
07.11.2019 01:19 0,9 °C 92 % 1005,7 hPa 0,0 mm 0,0 km/h (0 Bft) S-SW 202 ° 0 min 0,000 mm 0,0 UV-I 0 W/m² -0,2 °C 0,9 °C 0,0 km/h (0 Bft)
07.11.2019 01:20 0,9 °C 92 % 1005,7 hPa 0,0 mm 0,0 km/h (0 Bft) S-SW 202 ° 0 min 0,000 mm 0,0 UV-I 0 W/m² -0,2 °C 0,9 °C 0,0 km/h (0 Bft)
07.11.2019 01:21 0,9 °C 92 % 1005,7 hPa 0,0 mm 0,0 km/h (0 Bft) S-SW 202 ° 0 min 0,000 mm 0,0 UV-I 0 W/m² -0,2 °C 0,9 °C 0,0 km/h (0 Bft)
07.11.2019 01:22 0,8 °C 92 % 1005,7 hPa 0,0 mm 0,0 km/h (0 Bft) S-SW 202 ° 0 min 0,000 mm 0,0 UV-I 0 W/m² -0,3 °C 0,8 °C 0,0 km/h (0 Bft)
07.11.2019 01:23 0,8 °C 92 % 1005,7 hPa 0,0 mm 0,0 km/h (0 Bft) S-SW 202 ° 0 min 0,000 mm 0,0 UV-I 0 W/m² -0,3 °C 0,8 °C 0,0 km/h (0 Bft)
07.11.2019 01:24 0,8 °C 92 % 1005,6 hPa 0,0 mm 0,0 km/h (0 Bft) S-SW 202 ° 0 min 0,000 mm 0,0 UV-I 0 W/m² -0,3 °C 0,8 °C 0,0 km/h (0 Bft)
07.11.2019 01:25 0,8 °C 92 % 1005,6 hPa 0,0 mm 0,0 km/h (0 Bft) S-SW 202 ° 0 min 0,000 mm 0,0 UV-I 0 W/m² -0,3 °C 0,8 °C 0,0 km/h (0 Bft)
07.11.2019 01:26 0,8 °C 92 % 1005,6 hPa 0,0 mm 0,0 km/h (0 Bft) S-SW 202 ° 0 min 0,000 mm 0,0 UV-I 0 W/m² -0,3 °C 0,8 °C 0,0 km/h (0 Bft)
07.11.2019 01:27 0,8 °C 92 % 1005,7 hPa 0,0 mm 0,0 km/h (0 Bft) S-SW 202 ° 0 min 0,000 mm 0,0 UV-I 0 W/m² -0,3 °C 0,8 °C 0,0 km/h (0 Bft)
07.11.2019 01:28 0,7 °C 92 % 1005,5 hPa 0,0 mm 0,0 km/h (0 Bft) S-SW 202 ° 0 min 0,000 mm 0,0 UV-I 0 W/m² -0,4 °C 0,7 °C 0,0 km/h (0 Bft)
07.11.2019 01:29 0,7 °C 92 % 1005,5 hPa 0,0 mm 0,0 km/h (0 Bft) S-SW 202 ° 0 min 0,000 mm 0,0 UV-I 0 W/m² -0,4 °C 0,7 °C 0,0 km/h (0 Bft)
07.11.2019 01:30 0,7 °C 92 % 1005,6 hPa 0,0 mm 0,0 km/h (0 Bft) S-SW 202 ° 0 min 0,000 mm 0,0 UV-I 0 W/m² -0,4 °C 0,7 °C 0,0 km/h (0 Bft)
07.11.2019 01:31 0,7 °C 93 % 1005,6 hPa 0,0 mm 0,0 km/h (0 Bft) S-SW 202 ° 0 min 0,000 mm 0,0 UV-I 0 W/m² -0,3 °C 0,7 °C 0,0 km/h (0 Bft)
07.11.2019 01:32 0,7 °C 93 % 1005,6 hPa 0,0 mm 0,0 km/h (0 Bft) S-SW 202 ° 0 min 0,000 mm 0,0 UV-I 0 W/m² -0,3 °C 0,7 °C 0,0 km/h (0 Bft)
07.11.2019 01:33 0,7 °C 93 % 1005,6 hPa 0,0 mm 0,0 km/h (0 Bft) S-SW 202 ° 0 min 0,000 mm 0,0 UV-I 0 W/m² -0,3 °C 0,7 °C 0,0 km/h (0 Bft)
07.11.2019 01:34 0,7 °C 93 % 1005,6 hPa 0,0 mm 0,0 km/h (0 Bft) S-SW 202 ° 0 min 0,000 mm 0,0 UV-I 0 W/m² -0,3 °C 0,7 °C 0,0 km/h (0 Bft)
07.11.2019 01:35 0,7 °C 93 % 1005,6 hPa 0,0 mm 0,0 km/h (0 Bft) S-SW 202 ° 0 min 0,000 mm 0,0 UV-I 0 W/m² -0,3 °C 0,7 °C 0,0 km/h (0 Bft)
07.11.2019 01:36 0,7 °C 93 % 1005,6 hPa 0,0 mm 0,0 km/h (0 Bft) S-SW 202 ° 0 min 0,000 mm 0,0 UV-I 0 W/m² -0,3 °C 0,7 °C 0,0 km/h (0 Bft)
07.11.2019 01:37 0,6 °C 93 % 1005,6 hPa 0,0 mm 0,0 km/h (0 Bft) S-SW 202 ° 0 min 0,000 mm 0,0 UV-I 0 W/m² -0,4 °C 0,6 °C 0,0 km/h (0 Bft)
07.11.2019 01:38 0,6 °C 93 % 1005,6 hPa 0,0 mm 0,0 km/h (0 Bft) S-SW 202 ° 0 min 0,000 mm 0,0 UV-I 0 W/m² -0,4 °C 0,6 °C 0,0 km/h (0 Bft)
07.11.2019 01:39 0,6 °C 93 % 1005,6 hPa 0,0 mm 2,0 km/h (1 Bft) SW 236 ° 0 min 0,000 mm 0,0 UV-I 0 W/m² -0,4 °C 0,6 °C 4,8 km/h (1 Bft)
07.11.2019 01:40 0,6 °C 93 % 1005,6 hPa 0,0 mm 0,0 km/h (0 Bft) SW 236 ° 0 min 0,000 mm 0,0 UV-I 0 W/m² -0,4 °C 0,6 °C 0,0 km/h (0 Bft)
07.11.2019 01:41 0,6 °C 93 % 1005,5 hPa 0,0 mm 0,0 km/h (0 Bft) SW 236 ° 0 min 0,000 mm 0,0 UV-I 0 W/m² -0,4 °C 0,6 °C 0,0 km/h (0 Bft)
07.11.2019 01:42 0,6 °C 93 % 1005,5 hPa 0,0 mm 0,5 km/h (0 Bft) W-SW 240 ° 0 min 0,000 mm 0,0 UV-I 0 W/m² -0,4 °C 0,6 °C 4,8 km/h (1 Bft)
07.11.2019 01:43 0,6 °C 93 % 1005,5 hPa 0,0 mm 0,9 km/h (0 Bft) W-SW 240 ° 0 min 0,000 mm 0,0 UV-I 0 W/m² -0,4 °C 0,6 °C 4,8 km/h (1 Bft)
07.11.2019 01:44 0,6 °C 93 % 1005,6 hPa 0,0 mm 0,0 km/h (0 Bft) W-SW 240 ° 0 min 0,000 mm 0,0 UV-I 0 W/m² -0,4 °C 0,6 °C 0,0 km/h (0 Bft)
07.11.2019 01:45 0,6 °C 93 % 1005,5 hPa 0,0 mm 0,0 km/h (0 Bft) W-SW 240 ° 0 min 0,000 mm 0,0 UV-I 0 W/m² -0,4 °C 0,6 °C 0,0 km/h (0 Bft)
07.11.2019 01:46 0,6 °C 93 % 1005,5 hPa 0,0 mm 0,0 km/h (0 Bft) W-SW 240 ° 0 min 0,000 mm 0,0 UV-I 0 W/m² -0,4 °C 0,6 °C 0,0 km/h (0 Bft)
07.11.2019 01:47 0,6 °C 93 % 1005,6 hPa 0,0 mm 0,0 km/h (0 Bft) W-SW 240 ° 0 min 0,000 mm 0,0 UV-I 0 W/m² -0,4 °C 0,6 °C 0,0 km/h (0 Bft)
07.11.2019 01:48 0,6 °C 93 % 1005,6 hPa 0,0 mm 0,0 km/h (0 Bft) W-SW 240 ° 0 min 0,000 mm 0,0 UV-I 0 W/m² -0,4 °C 0,6 °C 0,0 km/h (0 Bft)
07.11.2019 01:49 0,6 °C 93 % 1005,6 hPa 0,0 mm 0,0 km/h (0 Bft) W-SW 240 ° 0 min 0,000 mm 0,0 UV-I 0 W/m² -0,4 °C 0,6 °C 0,0 km/h (0 Bft)
07.11.2019 01:50 0,6 °C 93 % 1005,6 hPa 0,0 mm 0,0 km/h (0 Bft) W-SW 240 ° 0 min 0,000 mm 0,0 UV-I 0 W/m² -0,4 °C 0,6 °C 0,0 km/h (0 Bft)
07.11.2019 01:51 0,6 °C 93 % 1005,6 hPa 0,0 mm 0,2 km/h (0 Bft) W-SW 240 ° 0 min 0,000 mm 0,0 UV-I 0 W/m² -0,4 °C 0,6 °C 3,2 km/h (1 Bft)
07.11.2019 01:52 0,6 °C 93 % 1005,6 hPa 0,0 mm 0,9 km/h (0 Bft) W-SW 240 ° 0 min 0,000 mm 0,0 UV-I 0 W/m² -0,4 °C 0,6 °C 1,6 km/h (1 Bft)
07.11.2019 01:53 0,6 °C 93 % 1005,6 hPa 0,0 mm 0,0 km/h (0 Bft) W-SW 240 ° 0 min 0,000 mm 0,0 UV-I 0 W/m² -0,4 °C 0,6 °C 0,0 km/h (0 Bft)
07.11.2019 01:54 0,6 °C 93 % 1005,6 hPa 0,0 mm 0,3 km/h (0 Bft) W-SW 240 ° 0 min 0,000 mm 0,0 UV-I 0 W/m² -0,4 °C 0,6 °C 1,6 km/h (1 Bft)
07.11.2019 01:55 0,6 °C 93 % 1005,6 hPa 0,0 mm 1,1 km/h (1 Bft) W-SW 240 ° 0 min 0,000 mm 0,0 UV-I 0 W/m² -0,4 °C 0,6 °C 4,8 km/h (1 Bft)
07.11.2019 01:56 0,6 °C 93 % 1005,6 hPa 0,0 mm 1,7 km/h (1 Bft) W-SW 240 ° 0 min 0,000 mm 0,0 UV-I 0 W/m² -0,4 °C 0,6 °C 4,8 km/h (1 Bft)
07.11.2019 01:57 0,6 °C 93 % 1005,6 hPa 0,0 mm 0,0 km/h (0 Bft) W-SW 240 ° 0 min 0,000 mm 0,0 UV-I 0 W/m² -0,4 °C 0,6 °C 0,0 km/h (0 Bft)
07.11.2019 01:58 0,6 °C 93 % 1005,6 hPa 0,0 mm 0,0 km/h (0 Bft) W-SW 240 ° 0 min 0,000 mm 0,0 UV-I 0 W/m² -0,4 °C 0,6 °C 0,0 km/h (0 Bft)
07.11.2019 01:59 0,6 °C 93 % 1005,6 hPa 0,0 mm 0,0 km/h (0 Bft) W-SW 240 ° 0 min 0,000 mm 0,0 UV-I 0 W/m² -0,4 °C 0,6 °C 0,0 km/h (0 Bft)
07.11.2019 02:00 0,6 °C 93 % 1005,6 hPa 0,0 mm 0,0 km/h (0 Bft) W-SW 240 ° 0 min 0,000 mm 0,0 UV-I 0 W/m² -0,4 °C 0,6 °C 0,0 km/h (0 Bft)
07.11.2019 02:01 0,6 °C 93 % 1005,5 hPa 0,0 mm 0,0 km/h (0 Bft) W-SW 240 ° 0 min 0,000 mm 0,0 UV-I 0 W/m² -0,4 °C 0,6 °C 0,0 km/h (0 Bft)
07.11.2019 02:02 0,6 °C 93 % 1005,5 hPa 0,0 mm 0,0 km/h (0 Bft) W-SW 240 ° 0 min 0,000 mm 0,0 UV-I 0 W/m² -0,4 °C 0,6 °C 0,0 km/h (0 Bft)
07.11.2019 02:03 0,6 °C 93 % 1005,5 hPa 0,0 mm 0,0 km/h (0 Bft) W-SW 240 ° 0 min 0,000 mm 0,0 UV-I 0 W/m² -0,4 °C 0,6 °C 0,0 km/h (0 Bft)
07.11.2019 02:04 0,6 °C 93 % 1005,5 hPa 0,0 mm 0,0 km/h (0 Bft) W-SW 240 ° 0 min 0,000 mm 0,0 UV-I 0 W/m² -0,4 °C 0,6 °C 0,0 km/h (0 Bft)
07.11.2019 02:05 0,6 °C 93 % 1005,5 hPa 0,0 mm 0,0 km/h (0 Bft) W-SW 240 ° 0 min 0,000 mm 0,0 UV-I 0 W/m² -0,4 °C 0,6 °C 0,0 km/h (0 Bft)
07.11.2019 02:06 0,6 °C 93 % 1005,5 hPa 0,0 mm 0,0 km/h (0 Bft) W-SW 240 ° 0 min 0,000 mm 0,0 UV-I 0 W/m² -0,4 °C 0,6 °C 0,0 km/h (0 Bft)
07.11.2019 02:07 0,6 °C 93 % 1005,5 hPa 0,0 mm 0,0 km/h (0 Bft) W-SW 240 ° 0 min 0,000 mm 0,0 UV-I 0 W/m² -0,4 °C 0,6 °C 0,0 km/h (0 Bft)
07.11.2019 02:08 0,6 °C 93 % 1005,5 hPa 0,0 mm 0,0 km/h (0 Bft) W-SW 240 ° 0 min 0,000 mm 0,0 UV-I 0 W/m² -0,4 °C 0,6 °C 0,0 km/h (0 Bft)
07.11.2019 02:09 0,5 °C 93 % 1005,5 hPa 0,0 mm 0,0 km/h (0 Bft) W-SW 240 ° 0 min 0,000 mm 0,0 UV-I 0 W/m² -0,5 °C 0,5 °C 0,0 km/h (0 Bft)
07.11.2019 02:10 0,6 °C 93 % 1005,5 hPa 0,0 mm 0,0 km/h (0 Bft) W-SW 240 ° 0 min 0,000 mm 0,0 UV-I 0 W/m² -0,4 °C 0,6 °C 0,0 km/h (0 Bft)
07.11.2019 02:11 0,6 °C 93 % 1005,5 hPa 0,0 mm 0,0 km/h (0 Bft) W-SW 240 ° 0 min 0,000 mm 0,0 UV-I 0 W/m² -0,4 °C 0,6 °C 0,0 km/h (0 Bft)
07.11.2019 02:12 0,6 °C 93 % 1005,4 hPa 0,0 mm 0,0 km/h (0 Bft) W-SW 240 ° 0 min 0,000 mm 0,0 UV-I 0 W/m² -0,4 °C 0,6 °C 0,0 km/h (0 Bft)
07.11.2019 02:13 0,6 °C 93 % 1005,4 hPa 0,0 mm 0,0 km/h (0 Bft) W-SW 240 ° 0 min 0,000 mm 0,0 UV-I 0 W/m² -0,4 °C 0,6 °C 0,0 km/h (0 Bft)
07.11.2019 02:14 0,6 °C 93 % 1005,4 hPa 0,0 mm 0,0 km/h (0 Bft) W-SW 240 ° 0 min 0,000 mm 0,0 UV-I 0 W/m² -0,4 °C 0,6 °C 0,0 km/h (0 Bft)
07.11.2019 02:15 0,5 °C 93 % 1005,4 hPa 0,0 mm 0,0 km/h (0 Bft) W-SW 240 ° 0 min 0,000 mm 0,0 UV-I 0 W/m² -0,5 °C 0,5 °C 0,0 km/h (0 Bft)
07.11.2019 02:16 0,5 °C 93 % 1005,4 hPa 0,0 mm 0,0 km/h (0 Bft) W-SW 240 ° 0 min 0,000 mm 0,0 UV-I 0 W/m² -0,5 °C 0,5 °C 0,0 km/h (0 Bft)
07.11.2019 02:17 0,5 °C 93 % 1005,4 hPa 0,0 mm 0,0 km/h (0 Bft) W-SW 240 ° 0 min 0,000 mm 0,0 UV-I 0 W/m² -0,5 °C 0,5 °C 0,0 km/h (0 Bft)
07.11.2019 02:18 0,6 °C 93 % 1005,4 hPa 0,0 mm 0,0 km/h (0 Bft) W-SW 240 ° 0 min 0,000 mm 0,0 UV-I 0 W/m² -0,4 °C 0,6 °C 0,0 km/h (0 Bft)
07.11.2019 02:19 0,5 °C 93 % 1005,4 hPa 0,0 mm 0,0 km/h (0 Bft) W-SW 240 ° 0 min 0,000 mm 0,0 UV-I 0 W/m² -0,5 °C 0,5 °C 0,0 km/h (0 Bft)
07.11.2019 02:20 0,6 °C 93 % 1005,4 hPa 0,0 mm 0,0 km/h (0 Bft) W-SW 240 ° 0 min 0,000 mm 0,0 UV-I 0 W/m² -0,4 °C 0,6 °C 0,0 km/h (0 Bft)
07.11.2019 02:21 0,5 °C 93 % 1005,4 hPa 0,0 mm 0,0 km/h (0 Bft) W-SW 240 ° 0 min 0,000 mm 0,0 UV-I 0 W/m² -0,5 °C 0,5 °C 0,0 km/h (0 Bft)
07.11.2019 02:22 0,5 °C 93 % 1005,4 hPa 0,0 mm 0,0 km/h (0 Bft) W-SW 240 ° 0 min 0,000 mm 0,0 UV-I 0 W/m² -0,5 °C 0,5 °C 0,0 km/h (0 Bft)
07.11.2019 02:23 0,5 °C 93 % 1005,4 hPa 0,0 mm 2,2 km/h (1 Bft) W-SW 240 ° 0 min 0,000 mm 0,0 UV-I 0 W/m² -0,5 °C 0,5 °C 4,8 km/h (1 Bft)
07.11.2019 02:24 0,5 °C 93 % 1005,4 hPa 0,0 mm 1,4 km/h (1 Bft) W-SW 240 ° 0 min 0,000 mm 0,0 UV-I 0 W/m² -0,5 °C 0,5 °C 3,2 km/h (1 Bft)
07.11.2019 02:25 0,5 °C 93 % 1005,4 hPa 0,0 mm 0,0 km/h (0 Bft) W-SW 240 ° 0 min 0,000 mm 0,0 UV-I 0 W/m² -0,5 °C 0,5 °C 0,0 km/h (0 Bft)
07.11.2019 02:26 0,4 °C 93 % 1005,4 hPa 0,0 mm 0,0 km/h (0 Bft) W-SW 240 ° 0 min 0,000 mm 0,0 UV-I 0 W/m² -0,6 °C 0,4 °C 0,0 km/h (0 Bft)
07.11.2019 02:27 0,5 °C 93 % 1005,4 hPa 0,0 mm 0,0 km/h (0 Bft) W-SW 240 ° 0 min 0,000 mm 0,0 UV-I 0 W/m² -0,5 °C 0,5 °C 0,0 km/h (0 Bft)
07.11.2019 02:28 0,4 °C 93 % 1005,4 hPa 0,0 mm 0,0 km/h (0 Bft) W-SW 240 ° 0 min 0,000 mm 0,0 UV-I 0 W/m² -0,6 °C 0,4 °C 0,0 km/h (0 Bft)
07.11.2019 02:29 0,4 °C 93 % 1005,4 hPa 0,0 mm 0,0 km/h (0 Bft) W-SW 240 ° 0 min 0,000 mm 0,0 UV-I 0 W/m² -0,6 °C 0,4 °C 0,0 km/h (0 Bft)
07.11.2019 02:30 0,4 °C 93 % 1005,4 hPa 0,0 mm 0,0 km/h (0 Bft) W-SW 240 ° 0 min 0,000 mm 0,0 UV-I 0 W/m² -0,6 °C 0,4 °C 0,0 km/h (0 Bft)
07.11.2019 02:31 0,4 °C 93 % 1005,4 hPa 0,0 mm 0,0 km/h (0 Bft) W-SW 240 ° 0 min 0,000 mm 0,0 UV-I 0 W/m² -0,6 °C 0,4 °C 0,0 km/h (0 Bft)
07.11.2019 02:32 0,4 °C 93 % 1005,4 hPa 0,0 mm 0,0 km/h (0 Bft) W-SW 240 ° 0 min 0,000 mm 0,0 UV-I 0 W/m² -0,6 °C 0,4 °C 0,0 km/h (0 Bft)
07.11.2019 02:33 0,4 °C 93 % 1005,4 hPa 0,0 mm 0,0 km/h (0 Bft) W-SW 240 ° 0 min 0,000 mm 0,0 UV-I 0 W/m² -0,6 °C 0,4 °C 0,0 km/h (0 Bft)
07.11.2019 02:34 0,4 °C 93 % 1005,4 hPa 0,0 mm 0,0 km/h (0 Bft) W-SW 240 ° 0 min 0,000 mm 0,0 UV-I 0 W/m² -0,6 °C 0,4 °C 0,0 km/h (0 Bft)
07.11.2019 02:35 0,4 °C 93 % 1005,4 hPa 0,0 mm 0,0 km/h (0 Bft) W-SW 240 ° 0 min 0,000 mm 0,0 UV-I 0 W/m² -0,6 °C 0,4 °C 0,0 km/h (0 Bft)
07.11.2019 02:36 0,4 °C 93 % 1005,3 hPa 0,0 mm 0,0 km/h (0 Bft) W-SW 240 ° 0 min 0,000 mm 0,0 UV-I 0 W/m² -0,6 °C 0,4 °C 0,0 km/h (0 Bft)
07.11.2019 02:37 0,4 °C 93 % 1005,3 hPa 0,0 mm 0,0 km/h (0 Bft) W-SW 240 ° 0 min 0,000 mm 0,0 UV-I 0 W/m² -0,6 °C 0,4 °C 0,0 km/h (0 Bft)
07.11.2019 02:38 0,4 °C 93 % 1005,4 hPa 0,0 mm 0,0 km/h (0 Bft) W-SW 240 ° 0 min 0,000 mm 0,0 UV-I 0 W/m² -0,6 °C 0,4 °C 0,0 km/h (0 Bft)
07.11.2019 02:39 0,4 °C 93 % 1005,3 hPa 0,0 mm 0,0 km/h (0 Bft) W-SW 240 ° 0 min 0,000 mm 0,0 UV-I 0 W/m² -0,6 °C 0,4 °C 0,0 km/h (0 Bft)
07.11.2019 02:40 0,4 °C 93 % 1005,3 hPa 0,0 mm 0,0 km/h (0 Bft) W-SW 240 ° 0 min 0,000 mm 0,0 UV-I 0 W/m² -0,6 °C 0,4 °C 0,0 km/h (0 Bft)
07.11.2019 02:41 0,4 °C 93 % 1005,3 hPa 0,0 mm 0,0 km/h (0 Bft) W-SW 240 ° 0 min 0,000 mm 0,0 UV-I 0 W/m² -0,6 °C 0,4 °C 0,0 km/h (0 Bft)
07.11.2019 02:42 0,4 °C 93 % 1005,3 hPa 0,0 mm 0,0 km/h (0 Bft) W-SW 240 ° 0 min 0,000 mm 0,0 UV-I 0 W/m² -0,6 °C 0,4 °C 0,0 km/h (0 Bft)
07.11.2019 02:43 0,4 °C 93 % 1005,3 hPa 0,0 mm 0,0 km/h (0 Bft) W-SW 240 ° 0 min 0,000 mm 0,0 UV-I 0 W/m² -0,6 °C 0,4 °C 0,0 km/h (0 Bft)
07.11.2019 02:44 0,4 °C 93 % 1005,2 hPa 0,0 mm 0,0 km/h (0 Bft) W-SW 240 ° 0 min 0,000 mm 0,0 UV-I 0 W/m² -0,6 °C 0,4 °C 0,0 km/h (0 Bft)
07.11.2019 02:45 0,4 °C 93 % 1005,3 hPa 0,0 mm 0,0 km/h (0 Bft) W-SW 240 ° 0 min 0,000 mm 0,0 UV-I 0 W/m² -0,6 °C 0,4 °C 0,0 km/h (0 Bft)
07.11.2019 02:46 0,4 °C 93 % 1005,2 hPa 0,0 mm 0,0 km/h (0 Bft) W-SW 240 ° 0 min 0,000 mm 0,0 UV-I 0 W/m² -0,6 °C 0,4 °C 0,0 km/h (0 Bft)
07.11.2019 02:47 0,3 °C 93 % 1005,2 hPa 0,0 mm 0,7 km/h (0 Bft) W-SW 240 ° 0 min 0,000 mm 0,0 UV-I 0 W/m² -0,7 °C 0,3 °C 3,2 km/h (1 Bft)
07.11.2019 02:48 0,3 °C 93 % 1005,2 hPa 0,0 mm 0,1 km/h (0 Bft) W-SW 240 ° 0 min 0,000 mm 0,0 UV-I 0 W/m² -0,7 °C 0,3 °C 1,6 km/h (1 Bft)
07.11.2019 02:49 0,3 °C 93 % 1005,1 hPa 0,0 mm 0,3 km/h (0 Bft) W-SW 240 ° 0 min 0,000 mm 0,0 UV-I 0 W/m² -0,7 °C 0,3 °C 1,6 km/h (1 Bft)
07.11.2019 02:50 0,3 °C 93 % 1005,1 hPa 0,0 mm 0,5 km/h (0 Bft) W-SW 240 ° 0 min 0,000 mm 0,0 UV-I 0 W/m² -0,7 °C 0,3 °C 1,6 km/h (1 Bft)
07.11.2019 02:51 0,3 °C 93 % 1005,1 hPa 0,0 mm 1,9 km/h (1 Bft) W-SW 240 ° 0 min 0,000 mm 0,0 UV-I 0 W/m² -0,7 °C 0,3 °C 4,8 km/h (1 Bft)
07.11.2019 02:52 0,3 °C 93 % 1005,1 hPa 0,0 mm 0,2 km/h (0 Bft) W-SW 240 ° 0 min 0,000 mm 0,0 UV-I 0 W/m² -0,7 °C 0,3 °C 1,6 km/h (1 Bft)
07.11.2019 02:53 0,3 °C 93 % 1005,1 hPa 0,0 mm 0,0 km/h (0 Bft) W-SW 240 ° 0 min 0,000 mm 0,0 UV-I 0 W/m² -0,7 °C 0,3 °C 0,0 km/h (0 Bft)
07.11.2019 02:54 0,3 °C 93 % 1005,1 hPa 0,0 mm 0,0 km/h (0 Bft) W-SW 240 ° 0 min 0,000 mm 0,0 UV-I 0 W/m² -0,7 °C 0,3 °C 0,0 km/h (0 Bft)
07.11.2019 02:55 0,3 °C 93 % 1005,1 hPa 0,0 mm 0,0 km/h (0 Bft) W-SW 240 ° 0 min 0,000 mm 0,0 UV-I 0 W/m² -0,7 °C 0,3 °C 0,0 km/h (0 Bft)
07.11.2019 02:56 0,2 °C 93 % 1005,0 hPa 0,0 mm 0,0 km/h (0 Bft) W-SW 240 ° 0 min 0,000 mm 0,0 UV-I 0 W/m² -0,8 °C 0,2 °C 0,0 km/h (0 Bft)
07.11.2019 02:57 0,2 °C 93 % 1005,0 hPa 0,0 mm 0,0 km/h (0 Bft) W-SW 240 ° 0 min 0,000 mm 0,0 UV-I 0 W/m² -0,8 °C 0,2 °C 0,0 km/h (0 Bft)
07.11.2019 02:58 0,2 °C 93 % 1005,0 hPa 0,0 mm 0,0 km/h (0 Bft) W-SW 240 ° 0 min 0,000 mm 0,0 UV-I 0 W/m² -0,8 °C 0,2 °C 0,0 km/h (0 Bft)
07.11.2019 02:59 0,2 °C 93 % 1005,0 hPa 0,0 mm 0,0 km/h (0 Bft) W-SW 240 ° 0 min 0,000 mm 0,0 UV-I 0 W/m² -0,8 °C 0,2 °C 0,0 km/h (0 Bft)
07.11.2019 03:00 0,2 °C 93 % 1005,1 hPa 0,0 mm 0,0 km/h (0 Bft) W-SW 240 ° 0 min 0,000 mm 0,0 UV-I 0 W/m² -0,8 °C 0,2 °C 0,0 km/h (0 Bft)
07.11.2019 03:01 0,2 °C 93 % 1005,0 hPa 0,0 mm 0,0 km/h (0 Bft) W-SW 240 ° 0 min 0,000 mm 0,0 UV-I 0 W/m² -0,8 °C 0,2 °C 0,0 km/h (0 Bft)
07.11.2019 03:02 0,2 °C 93 % 1005,0 hPa 0,0 mm 0,9 km/h (0 Bft) W-SW 240 ° 0 min 0,000 mm 0,0 UV-I 0 W/m² -0,8 °C 0,2 °C 1,6 km/h (1 Bft)
07.11.2019 03:03 0,2 °C 93 % 1005,0 hPa 0,0 mm 0,6 km/h (0 Bft) W-SW 240 ° 0 min 0,000 mm 0,0 UV-I 0 W/m² -0,8 °C 0,2 °C 1,6 km/h (1 Bft)
07.11.2019 03:04 0,2 °C 93 % 1004,9 hPa 0,0 mm 1,7 km/h (1 Bft) W-SW 240 ° 0 min 0,000 mm 0,0 UV-I 0 W/m² -0,8 °C 0,2 °C 4,8 km/h (1 Bft)
07.11.2019 03:05 0,2 °C 93 % 1004,9 hPa 0,0 mm 0,5 km/h (0 Bft) W-SW 240 ° 0 min 0,000 mm 0,0 UV-I 0 W/m² -0,8 °C 0,2 °C 1,6 km/h (1 Bft)
07.11.2019 03:06 0,2 °C 93 % 1004,9 hPa 0,0 mm 0,7 km/h (0 Bft) W-SW 240 ° 0 min 0,000 mm 0,0 UV-I 0 W/m² -0,8 °C 0,2 °C 3,2 km/h (1 Bft)
07.11.2019 03:07 0,2 °C 93 % 1004,9 hPa 0,0 mm 0,1 km/h (0 Bft) W-SW 240 ° 0 min 0,000 mm 0,0 UV-I 0 W/m² -0,8 °C 0,2 °C 1,6 km/h (1 Bft)
07.11.2019 03:08 0,2 °C 93 % 1004,9 hPa 0,0 mm 0,0 km/h (0 Bft) W-SW 240 ° 0 min 0,000 mm 0,0 UV-I 0 W/m² -0,8 °C 0,2 °C 0,0 km/h (0 Bft)
07.11.2019 03:09 0,2 °C 93 % 1004,8 hPa 0,0 mm 0,2 km/h (0 Bft) W-SW 240 ° 0 min 0,000 mm 0,0 UV-I 0 W/m² -0,8 °C 0,2 °C 1,6 km/h (1 Bft)
07.11.2019 03:10 0,2 °C 93 % 1004,8 hPa 0,0 mm 0,3 km/h (0 Bft) W-SW 240 ° 0 min 0,000 mm 0,0 UV-I 0 W/m² -0,8 °C 0,2 °C 1,6 km/h (1 Bft)
07.11.2019 03:11 0,1 °C 93 % 1004,8 hPa 0,0 mm 0,0 km/h (0 Bft) W-SW 240 ° 0 min 0,000 mm 0,0 UV-I 0 W/m² -0,9 °C 0,1 °C 0,0 km/h (0 Bft)
07.11.2019 03:12 0,1 °C 93 % 1004,8 hPa 0,0 mm 0,0 km/h (0 Bft) W-SW 240 ° 0 min 0,000 mm 0,0 UV-I 0 W/m² -0,9 °C 0,1 °C 0,0 km/h (0 Bft)
07.11.2019 03:13 0,1 °C 93 % 1004,8 hPa 0,0 mm 0,0 km/h (0 Bft) W-SW 240 ° 0 min 0,000 mm 0,0 UV-I 0 W/m² -0,9 °C 0,1 °C 0,0 km/h (0 Bft)
07.11.2019 03:14 0,1 °C 93 % 1004,8 hPa 0,0 mm 0,0 km/h (0 Bft) W-SW 240 ° 0 min 0,000 mm 0,0 UV-I 0 W/m² -0,9 °C 0,1 °C 0,0 km/h (0 Bft)
07.11.2019 03:15 0,1 °C 93 % 1004,8 hPa 0,0 mm 0,5 km/h (0 Bft) W-SW 240 ° 0 min 0,000 mm 0,0 UV-I 0 W/m² -0,9 °C 0,1 °C 1,6 km/h (1 Bft)
07.11.2019 03:16 0,1 °C 93 % 1004,8 hPa 0,0 mm 1,3 km/h (1 Bft) W-SW 240 ° 0 min 0,000 mm 0,0 UV-I 0 W/m² -0,9 °C 0,1 °C 3,2 km/h (1 Bft)
07.11.2019 03:17 0,1 °C 93 % 1004,8 hPa 0,0 mm 0,0 km/h (0 Bft) W-SW 240 ° 0 min 0,000 mm 0,0 UV-I 0 W/m² -0,9 °C 0,1 °C 0,0 km/h (0 Bft)
07.11.2019 03:18 0,1 °C 93 % 1004,8 hPa 0,0 mm 0,0 km/h (0 Bft) W-SW 240 ° 0 min 0,000 mm 0,0 UV-I 0 W/m² -0,9 °C 0,1 °C 0,0 km/h (0 Bft)
07.11.2019 03:19 0,1 °C 93 % 1004,8 hPa 0,0 mm 0,0 km/h (0 Bft) W-SW 240 ° 0 min 0,000 mm 0,0 UV-I 0 W/m² -0,9 °C 0,1 °C 0,0 km/h (0 Bft)
07.11.2019 03:20 0,1 °C 93 % 1004,8 hPa 0,0 mm 0,0 km/h (0 Bft) W-SW 240 ° 0 min 0,000 mm 0,0 UV-I 0 W/m² -0,9 °C 0,1 °C 0,0 km/h (0 Bft)
07.11.2019 03:21 0,1 °C 93 % 1004,8 hPa 0,0 mm 0,0 km/h (0 Bft) W-SW 240 ° 0 min 0,000 mm 0,0 UV-I 0 W/m² -0,9 °C 0,1 °C 0,0 km/h (0 Bft)
07.11.2019 03:22 0,1 °C 93 % 1004,7 hPa 0,0 mm 0,0 km/h (0 Bft) W-SW 240 ° 0 min 0,000 mm 0,0 UV-I 0 W/m² -0,9 °C 0,1 °C 0,0 km/h (0 Bft)
07.11.2019 03:23 0,1 °C 93 % 1004,7 hPa 0,0 mm 0,0 km/h (0 Bft) W-SW 240 ° 0 min 0,000 mm 0,0 UV-I 0 W/m² -0,9 °C 0,1 °C 0,0 km/h (0 Bft)
07.11.2019 03:24 0,1 °C 93 % 1004,7 hPa 0,0 mm 0,0 km/h (0 Bft) W-SW 240 ° 0 min 0,000 mm 0,0 UV-I 0 W/m² -0,9 °C 0,1 °C 0,0 km/h (0 Bft)
07.11.2019 03:25 0,2 °C 93 % 1004,7 hPa 0,0 mm 0,0 km/h (0 Bft) W-SW 240 ° 0 min 0,000 mm 0,0 UV-I 0 W/m² -0,8 °C 0,2 °C 0,0 km/h (0 Bft)
07.11.2019 03:26 0,2 °C 93 % 1004,7 hPa 0,0 mm 0,0 km/h (0 Bft) W-SW 240 ° 0 min 0,000 mm 0,0 UV-I 0 W/m² -0,8 °C 0,2 °C 0,0 km/h (0 Bft)
07.11.2019 03:27 0,2 °C 94 % 1004,7 hPa 0,0 mm 0,0 km/h (0 Bft) W-SW 240 ° 0 min 0,000 mm 0,0 UV-I 0 W/m² -0,6 °C 0,2 °C 0,0 km/h (0 Bft)
07.11.2019 03:28 0,2 °C 94 % 1004,7 hPa 0,0 mm 0,0 km/h (0 Bft) W-SW 240 ° 0 min 0,000 mm 0,0 UV-I 0 W/m² -0,6 °C 0,2 °C 0,0 km/h (0 Bft)
07.11.2019 03:29 0,2 °C 93 % 1004,7 hPa 0,0 mm 0,0 km/h (0 Bft) W-SW 240 ° 0 min 0,000 mm 0,0 UV-I 0 W/m² -0,8 °C 0,2 °C 0,0 km/h (0 Bft)
07.11.2019 03:30 0,2 °C 94 % 1004,7 hPa 0,0 mm 1,0 km/h (0 Bft) W-SW 240 ° 0 min 0,000 mm 0,0 UV-I 0 W/m² -0,6 °C 0,2 °C 3,2 km/h (1 Bft)
07.11.2019 03:31 0,2 °C 94 % 1004,7 hPa 0,0 mm 0,0 km/h (0 Bft) W-SW 240 ° 0 min 0,000 mm 0,0 UV-I 0 W/m² -0,6 °C 0,2 °C 0,0 km/h (0 Bft)
07.11.2019 03:32 0,2 °C 93 % 1004,6 hPa 0,0 mm 2,0 km/h (1 Bft) W-SW 240 ° 0 min 0,000 mm 0,0 UV-I 0 W/m² -0,8 °C 0,2 °C 4,8 km/h (1 Bft)
07.11.2019 03:33 0,2 °C 94 % 1004,6 hPa 0,0 mm 0,0 km/h (0 Bft) W-SW 240 ° 0 min 0,000 mm 0,0 UV-I 0 W/m² -0,6 °C 0,2 °C 0,0 km/h (0 Bft)
07.11.2019 03:34 0,2 °C 94 % 1004,6 hPa 0,0 mm 0,1 km/h (0 Bft) W-SW 240 ° 0 min 0,000 mm 0,0 UV-I 0 W/m² -0,6 °C 0,2 °C 1,6 km/h (1 Bft)
07.11.2019 03:35 0,2 °C 93 % 1004,5 hPa 0,0 mm 0,0 km/h (0 Bft) W-SW 240 ° 0 min 0,000 mm 0,0 UV-I 0 W/m² -0,8 °C 0,2 °C 0,0 km/h (0 Bft)
07.11.2019 03:36 0,2 °C 94 % 1004,5 hPa 0,0 mm 0,0 km/h (0 Bft) W-SW 240 ° 0 min 0,000 mm 0,0 UV-I 0 W/m² -0,6 °C 0,2 °C 0,0 km/h (0 Bft)
07.11.2019 03:37 0,2 °C 94 % 1004,6 hPa 0,0 mm 0,0 km/h (0 Bft) W-SW 240 ° 0 min 0,000 mm 0,0 UV-I 0 W/m² -0,6 °C 0,2 °C 0,0 km/h (0 Bft)
07.11.2019 03:38 0,2 °C 93 % 1004,6 hPa 0,0 mm 0,0 km/h (0 Bft) W-SW 240 ° 0 min 0,000 mm 0,0 UV-I 0 W/m² -0,8 °C 0,2 °C 0,0 km/h (0 Bft)
07.11.2019 03:39 0,2 °C 93 % 1004,6 hPa 0,0 mm 0,0 km/h (0 Bft) W-SW 240 ° 0 min 0,000 mm 0,0 UV-I 0 W/m² -0,8 °C 0,2 °C 0,0 km/h (0 Bft)
07.11.2019 03:40 0,1 °C 93 % 1004,6 hPa 0,0 mm 0,9 km/h (0 Bft) W-SW 240 ° 0 min 0,000 mm 0,0 UV-I 0 W/m² -0,9 °C 0,1 °C 4,8 km/h (1 Bft)
07.11.2019 03:41 0,1 °C 93 % 1004,6 hPa 0,0 mm 0,6 km/h (0 Bft) W-SW 240 ° 0 min 0,000 mm 0,0 UV-I 0 W/m² -0,9 °C 0,1 °C 3,2 km/h (1 Bft)
07.11.2019 03:42 0,1 °C 93 % 1004,5 hPa 0,0 mm 0,0 km/h (0 Bft) W-SW 240 ° 0 min 0,000 mm 0,0 UV-I 0 W/m² -0,9 °C 0,1 °C 0,0 km/h (0 Bft)
07.11.2019 03:43 0,1 °C 93 % 1004,5 hPa 0,0 mm 0,0 km/h (0 Bft) W-SW 240 ° 0 min 0,000 mm 0,0 UV-I 0 W/m² -0,9 °C 0,1 °C 0,0 km/h (0 Bft)
07.11.2019 03:44 0,1 °C 93 % 1004,5 hPa 0,0 mm 1,3 km/h (1 Bft) W-SW 241 ° 0 min 0,000 mm 0,0 UV-I 0 W/m² -0,9 °C 0,1 °C 4,8 km/h (1 Bft)
07.11.2019 03:45 0,0 °C 93 % 1004,5 hPa 0,0 mm 1,0 km/h (0 Bft) W-SW 241 ° 0 min 0,000 mm 0,0 UV-I 0 W/m² -1,0 °C 0,0 °C 4,8 km/h (1 Bft)
07.11.2019 03:46 0,1 °C 93 % 1004,5 hPa 0,0 mm 0,0 km/h (0 Bft) W-SW 241 ° 0 min 0,000 mm 0,0 UV-I 0 W/m² -0,9 °C 0,1 °C 0,0 km/h (0 Bft)
07.11.2019 03:47 0,0 °C 93 % 1004,5 hPa 0,0 mm 1,3 km/h (1 Bft) W-SW 241 ° 0 min 0,000 mm 0,0 UV-I 0 W/m² -1,0 °C 0,0 °C 4,8 km/h (1 Bft)
07.11.2019 03:48 0,0 °C 93 % 1004,5 hPa 0,0 mm 1,2 km/h (1 Bft) W-SW 241 ° 0 min 0,000 mm 0,0 UV-I 0 W/m² -1,0 °C 0,0 °C 3,2 km/h (1 Bft)
07.11.2019 03:49 0,0 °C 93 % 1004,5 hPa 0,0 mm 0,2 km/h (0 Bft) W-SW 241 ° 0 min 0,000 mm 0,0 UV-I 0 W/m² -1,0 °C 0,0 °C 1,6 km/h (1 Bft)
07.11.2019 03:50 0,0 °C 93 % 1004,4 hPa 0,0 mm 0,0 km/h (0 Bft) W-SW 241 ° 0 min 0,000 mm 0,0 UV-I 0 W/m² -1,0 °C 0,0 °C 0,0 km/h (0 Bft)
07.11.2019 03:51 0,0 °C 93 % 1004,5 hPa 0,0 mm 0,0 km/h (0 Bft) W-SW 241 ° 0 min 0,000 mm 0,0 UV-I 0 W/m² -1,0 °C 0,0 °C 0,0 km/h (0 Bft)
07.11.2019 03:52 0,0 °C 93 % 1004,4 hPa 0,0 mm 0,0 km/h (0 Bft) W-SW 241 ° 0 min 0,000 mm 0,0 UV-I 0 W/m² -1,0 °C 0,0 °C 0,0 km/h (0 Bft)
07.11.2019 03:53 0,0 °C 94 % 1004,4 hPa 0,0 mm 0,0 km/h (0 Bft) W-SW 241 ° 0 min 0,000 mm 0,0 UV-I 0 W/m² -0,8 °C 0,0 °C 0,0 km/h (0 Bft)
07.11.2019 03:54 0,0 °C 94 % 1004,4 hPa 0,0 mm 0,0 km/h (0 Bft) W-SW 241 ° 0 min 0,000 mm 0,0 UV-I 0 W/m² -0,8 °C 0,0 °C 0,0 km/h (0 Bft)
07.11.2019 03:55 0,0 °C 94 % 1004,4 hPa 0,0 mm 0,0 km/h (0 Bft) W-SW 241 ° 0 min 0,000 mm 0,0 UV-I 0 W/m² -0,8 °C 0,0 °C 0,0 km/h (0 Bft)
07.11.2019 03:56 0,0 °C 94 % 1004,5 hPa 0,0 mm 0,0 km/h (0 Bft) W-SW 241 ° 0 min 0,000 mm 0,0 UV-I 0 W/m² -0,8 °C 0,0 °C 0,0 km/h (0 Bft)
07.11.2019 03:57 0,0 °C 94 % 1004,5 hPa 0,0 mm 0,0 km/h (0 Bft) W-SW 241 ° 0 min 0,000 mm 0,0 UV-I 0 W/m² -0,8 °C 0,0 °C 0,0 km/h (0 Bft)
07.11.2019 03:58 0,0 °C 94 % 1004,5 hPa 0,0 mm 0,0 km/h (0 Bft) W-SW 241 ° 0 min 0,000 mm 0,0 UV-I 0 W/m² -0,8 °C 0,0 °C 0,0 km/h (0 Bft)
07.11.2019 03:59 0,0 °C 94 % 1004,4 hPa 0,0 mm 2,1 km/h (1 Bft) W-SW 241 ° 0 min 0,000 mm 0,0 UV-I 0 W/m² -0,8 °C 0,0 °C 4,8 km/h (1 Bft)
07.11.2019 04:00 0,0 °C 94 % 1004,4 hPa 0,0 mm 0,6 km/h (0 Bft) W-SW 241 ° 0 min 0,000 mm 0,0 UV-I 0 W/m² -0,8 °C 0,0 °C 1,6 km/h (1 Bft)
07.11.2019 04:01 0,0 °C 94 % 1004,4 hPa 0,0 mm 0,0 km/h (0 Bft) W-SW 241 ° 0 min 0,000 mm 0,0 UV-I 0 W/m² -0,8 °C 0,0 °C 0,0 km/h (0 Bft)
07.11.2019 04:02 -0,1 °C 94 % 1004,4 hPa 0,0 mm 0,0 km/h (0 Bft) W-SW 241 ° 0 min 0,000 mm 0,0 UV-I 0 W/m² -0,9 °C -0,1 °C 0,0 km/h (0 Bft)
07.11.2019 04:03 -0,1 °C 94 % 1004,4 hPa 0,0 mm 0,0 km/h (0 Bft) W-SW 241 ° 0 min 0,000 mm 0,0 UV-I 0 W/m² -0,9 °C -0,1 °C 0,0 km/h (0 Bft)
07.11.2019 04:04 -0,1 °C 94 % 1004,3 hPa 0,0 mm 1,1 km/h (1 Bft) W-SW 241 ° 0 min 0,000 mm 0,0 UV-I 0 W/m² -0,9 °C -0,1 °C 4,8 km/h (1 Bft)
07.11.2019 04:05 -0,1 °C 94 % 1004,3 hPa 0,0 mm 0,0 km/h (0 Bft) W-SW 241 ° 0 min 0,000 mm 0,0 UV-I 0 W/m² -0,9 °C -0,1 °C 0,0 km/h (0 Bft)
07.11.2019 04:06 -0,1 °C 94 % 1004,3 hPa 0,0 mm 0,0 km/h (0 Bft) W-SW 241 ° 0 min 0,000 mm 0,0 UV-I 0 W/m² -0,9 °C -0,1 °C 0,0 km/h (0 Bft)
07.11.2019 04:07 -0,1 °C 94 % 1004,2 hPa 0,0 mm 0,0 km/h (0 Bft) W-SW 241 ° 0 min 0,000 mm 0,0 UV-I 0 W/m² -0,9 °C -0,1 °C 0,0 km/h (0 Bft)
07.11.2019 04:08 -0,1 °C 94 % 1004,2 hPa 0,0 mm 0,0 km/h (0 Bft) W-SW 241 ° 0 min 0,000 mm 0,0 UV-I 0 W/m² -0,9 °C -0,1 °C 0,0 km/h (0 Bft)
07.11.2019 04:09 -0,1 °C 94 % 1004,2 hPa 0,0 mm 0,0 km/h (0 Bft) W-SW 241 ° 0 min 0,000 mm 0,0 UV-I 0 W/m² -0,9 °C -0,1 °C 0,0 km/h (0 Bft)
07.11.2019 04:10 -0,1 °C 94 % 1004,2 hPa 0,0 mm 0,0 km/h (0 Bft) W-SW 241 ° 0 min 0,000 mm 0,0 UV-I 0 W/m² -0,9 °C -0,1 °C 0,0 km/h (0 Bft)
07.11.2019 04:11 -0,1 °C 94 % 1004,2 hPa 0,0 mm 0,0 km/h (0 Bft) W-SW 241 ° 0 min 0,000 mm 0,0 UV-I 0 W/m² -0,9 °C -0,1 °C 0,0 km/h (0 Bft)
07.11.2019 04:12 -0,1 °C 94 % 1004,1 hPa 0,0 mm 0,0 km/h (0 Bft) W-SW 241 ° 0 min 0,000 mm 0,0 UV-I 0 W/m² -0,9 °C -0,1 °C 0,0 km/h (0 Bft)
07.11.2019 04:13 -0,1 °C 94 % 1004,1 hPa 0,0 mm 0,0 km/h (0 Bft) W-SW 241 ° 0 min 0,000 mm 0,0 UV-I 0 W/m² -0,9 °C -0,1 °C 0,0 km/h (0 Bft)
07.11.2019 04:14 -0,1 °C 94 % 1004,1 hPa 0,0 mm 0,0 km/h (0 Bft) W-SW 241 ° 0 min 0,000 mm 0,0 UV-I 0 W/m² -0,9 °C -0,1 °C 0,0 km/h (0 Bft)
07.11.2019 04:15 -0,1 °C 93 % 1004,1 hPa 0,0 mm 0,0 km/h (0 Bft) W-SW 241 ° 0 min 0,000 mm 0,0 UV-I 0 W/m² -1,1 °C -0,1 °C 0,0 km/h (0 Bft)
07.11.2019 04:16 -0,1 °C 93 % 1004,1 hPa 0,0 mm 0,0 km/h (0 Bft) W-SW 241 ° 0 min 0,000 mm 0,0 UV-I 0 W/m² -1,1 °C -0,1 °C 0,0 km/h (0 Bft)
07.11.2019 04:17 -0,2 °C 94 % 1004,1 hPa 0,0 mm 0,0 km/h (0 Bft) W-SW 241 ° 0 min 0,000 mm 0,0 UV-I 0 W/m² -1,0 °C -0,2 °C 0,0 km/h (0 Bft)
07.11.2019 04:18 -0,2 °C 94 % 1004,1 hPa 0,0 mm 0,0 km/h (0 Bft) W-SW 241 ° 0 min 0,000 mm 0,0 UV-I 0 W/m² -1,0 °C -0,2 °C 0,0 km/h (0 Bft)
07.11.2019 04:19 -0,2 °C 93 % 1004,1 hPa 0,0 mm 0,0 km/h (0 Bft) W-SW 241 ° 0 min 0,000 mm 0,0 UV-I 0 W/m² -1,2 °C -0,2 °C 0,0 km/h (0 Bft)
07.11.2019 04:20 -0,2 °C 93 % 1004,1 hPa 0,0 mm 0,0 km/h (0 Bft) W-SW 241 ° 0 min 0,000 mm 0,0 UV-I 0 W/m² -1,2 °C -0,2 °C 0,0 km/h (0 Bft)
07.11.2019 04:21 -0,2 °C 93 % 1004,1 hPa 0,0 mm 0,0 km/h (0 Bft) W-SW 241 ° 0 min 0,000 mm 0,0 UV-I 0 W/m² -1,2 °C -0,2 °C 0,0 km/h (0 Bft)
07.11.2019 04:22 -0,2 °C 93 % 1004,1 hPa 0,0 mm 0,0 km/h (0 Bft) W-SW 241 ° 0 min 0,000 mm 0,0 UV-I 0 W/m² -1,2 °C -0,2 °C 0,0 km/h (0 Bft)
07.11.2019 04:23 -0,2 °C 93 % 1004,1 hPa 0,0 mm 0,0 km/h (0 Bft) W-SW 241 ° 0 min 0,000 mm 0,0 UV-I 0 W/m² -1,2 °C -0,2 °C 0,0 km/h (0 Bft)
07.11.2019 04:24 -0,2 °C 93 % 1004,1 hPa 0,0 mm 0,0 km/h (0 Bft) W-SW 241 ° 0 min 0,000 mm 0,0 UV-I 0 W/m² -1,2 °C -0,2 °C 0,0 km/h (0 Bft)
07.11.2019 04:25 -0,2 °C 93 % 1004,1 hPa 0,0 mm 0,0 km/h (0 Bft) W-SW 241 ° 0 min 0,000 mm 0,0 UV-I 0 W/m² -1,2 °C -0,2 °C 0,0 km/h (0 Bft)
07.11.2019 04:26 -0,2 °C 93 % 1004,1 hPa 0,0 mm 0,0 km/h (0 Bft) W-SW 241 ° 0 min 0,000 mm 0,0 UV-I 0 W/m² -1,2 °C -0,2 °C 0,0 km/h (0 Bft)
07.11.2019 04:27 -0,2 °C 93 % 1004,0 hPa 0,0 mm 0,0 km/h (0 Bft) W-SW 241 ° 0 min 0,000 mm 0,0 UV-I 0 W/m² -1,2 °C -0,2 °C 0,0 km/h (0 Bft)
07.11.2019 04:28 -0,2 °C 93 % 1004,0 hPa 0,0 mm 0,0 km/h (0 Bft) W-SW 241 ° 0 min 0,000 mm 0,0 UV-I 0 W/m² -1,2 °C -0,2 °C 0,0 km/h (0 Bft)
07.11.2019 04:29 -0,2 °C 94 % 1004,0 hPa 0,0 mm 0,0 km/h (0 Bft) W-SW 241 ° 0 min 0,000 mm 0,0 UV-I 0 W/m² -1,0 °C -0,2 °C 0,0 km/h (0 Bft)
07.11.2019 04:30 -0,2 °C 94 % 1004,0 hPa 0,0 mm 0,0 km/h (0 Bft) W-SW 241 ° 0 min 0,000 mm 0,0 UV-I 0 W/m² -1,0 °C -0,2 °C 0,0 km/h (0 Bft)
07.11.2019 04:31 -0,1 °C 94 % 1004,0 hPa 0,0 mm 0,0 km/h (0 Bft) W-SW 241 ° 0 min 0,000 mm 0,0 UV-I 0 W/m² -0,9 °C -0,1 °C 0,0 km/h (0 Bft)
07.11.2019 04:32 -0,1 °C 94 % 1004,0 hPa 0,0 mm 0,0 km/h (0 Bft) W-SW 241 ° 0 min 0,000 mm 0,0 UV-I 0 W/m² -0,9 °C -0,1 °C 0,0 km/h (0 Bft)
07.11.2019 04:33 -0,1 °C 94 % 1003,9 hPa 0,0 mm 0,0 km/h (0 Bft) W-SW 241 ° 0 min 0,000 mm 0,0 UV-I 0 W/m² -0,9 °C -0,1 °C 0,0 km/h (0 Bft)
07.11.2019 04:34 -0,1 °C 94 % 1003,8 hPa 0,0 mm 0,0 km/h (0 Bft) W-SW 241 ° 0 min 0,000 mm 0,0 UV-I 0 W/m² -0,9 °C -0,1 °C 0,0 km/h (0 Bft)
07.11.2019 04:35 -0,1 °C 94 % 1003,9 hPa 0,0 mm 0,0 km/h (0 Bft) W-SW 241 ° 0 min 0,000 mm 0,0 UV-I 0 W/m² -0,9 °C -0,1 °C 0,0 km/h (0 Bft)
07.11.2019 04:36 -0,1 °C 94 % 1003,8 hPa 0,0 mm 0,0 km/h (0 Bft) W-SW 241 ° 0 min 0,000 mm 0,0 UV-I 0 W/m² -0,9 °C -0,1 °C 0,0 km/h (0 Bft)
07.11.2019 04:37 -0,1 °C 94 % 1003,8 hPa 0,0 mm 0,0 km/h (0 Bft) W-SW 241 ° 0 min 0,000 mm 0,0 UV-I 0 W/m² -0,9 °C -0,1 °C 0,0 km/h (0 Bft)
07.11.2019 04:38 -0,1 °C 94 % 1003,9 hPa 0,0 mm 0,0 km/h (0 Bft) W-SW 241 ° 0 min 0,000 mm 0,0 UV-I 0 W/m² -0,9 °C -0,1 °C 0,0 km/h (0 Bft)
07.11.2019 04:39 -0,1 °C 94 % 1003,9 hPa 0,0 mm 0,0 km/h (0 Bft) W-SW 241 ° 0 min 0,000 mm 0,0 UV-I 0 W/m² -0,9 °C -0,1 °C 0,0 km/h (0 Bft)
07.11.2019 04:40 -0,1 °C 94 % 1003,8 hPa 0,0 mm 0,0 km/h (0 Bft) W-SW 241 ° 0 min 0,000 mm 0,0 UV-I 0 W/m² -0,9 °C -0,1 °C 0,0 km/h (0 Bft)
07.11.2019 04:41 -0,1 °C 94 % 1003,8 hPa 0,0 mm 0,0 km/h (0 Bft) W-SW 241 ° 0 min 0,000 mm 0,0 UV-I 0 W/m² -0,9 °C -0,1 °C 0,0 km/h (0 Bft)
07.11.2019 04:42 -0,1 °C 94 % 1003,8 hPa 0,0 mm 0,0 km/h (0 Bft) W-SW 241 ° 0 min 0,000 mm 0,0 UV-I 0 W/m² -0,9 °C -0,1 °C 0,0 km/h (0 Bft)
07.11.2019 04:43 -0,1 °C 94 % 1003,9 hPa 0,0 mm 0,0 km/h (0 Bft) W-SW 241 ° 0 min 0,000 mm 0,0 UV-I 0 W/m² -0,9 °C -0,1 °C 0,0 km/h (0 Bft)
07.11.2019 04:44 -0,1 °C 94 % 1003,8 hPa 0,0 mm 0,0 km/h (0 Bft) W-SW 241 ° 0 min 0,000 mm 0,0 UV-I 0 W/m² -0,9 °C -0,1 °C 0,0 km/h (0 Bft)
07.11.2019 04:45 -0,2 °C 94 % 1003,8 hPa 0,0 mm 0,0 km/h (0 Bft) W-SW 241 ° 0 min 0,000 mm 0,0 UV-I 0 W/m² -1,0 °C -0,2 °C 0,0 km/h (0 Bft)
07.11.2019 04:46 -0,2 °C 94 % 1003,8 hPa 0,0 mm 0,0 km/h (0 Bft) W-SW 241 ° 0 min 0,000 mm 0,0 UV-I 0 W/m² -1,0 °C -0,2 °C 0,0 km/h (0 Bft)
07.11.2019 04:47 -0,2 °C 94 % 1003,8 hPa 0,0 mm 0,0 km/h (0 Bft) W-SW 241 ° 0 min 0,000 mm 0,0 UV-I 0 W/m² -1,0 °C -0,2 °C 0,0 km/h (0 Bft)
07.11.2019 04:48 -0,2 °C 94 % 1003,8 hPa 0,0 mm 0,0 km/h (0 Bft) W-SW 241 ° 0 min 0,000 mm 0,0 UV-I 0 W/m² -1,0 °C -0,2 °C 0,0 km/h (0 Bft)
07.11.2019 04:49 -0,2 °C 94 % 1003,7 hPa 0,0 mm 0,0 km/h (0 Bft) W-SW 241 ° 0 min 0,000 mm 0,0 UV-I 0 W/m² -1,0 °C -0,2 °C 0,0 km/h (0 Bft)
07.11.2019 04:50 -0,2 °C 94 % 1003,7 hPa 0,0 mm 0,0 km/h (0 Bft) W-SW 241 ° 0 min 0,000 mm 0,0 UV-I 0 W/m² -1,0 °C -0,2 °C 0,0 km/h (0 Bft)
07.11.2019 04:51 -0,2 °C 94 % 1003,8 hPa 0,0 mm 0,0 km/h (0 Bft) W-SW 241 ° 0 min 0,000 mm 0,0 UV-I 0 W/m² -1,0 °C -0,2 °C 0,0 km/h (0 Bft)
07.11.2019 04:52 -0,2 °C 94 % 1003,8 hPa 0,0 mm 0,0 km/h (0 Bft) W-SW 241 ° 0 min 0,000 mm 0,0 UV-I 0 W/m² -1,0 °C -0,2 °C 0,0 km/h (0 Bft)
07.11.2019 04:53 -0,2 °C 94 % 1003,8 hPa 0,0 mm 0,0 km/h (0 Bft) W-SW 241 ° 0 min 0,000 mm 0,0 UV-I 0 W/m² -1,0 °C -0,2 °C 0,0 km/h (0 Bft)
07.11.2019 04:54 -0,2 °C 94 % 1003,8 hPa 0,0 mm 0,0 km/h (0 Bft) W-SW 241 ° 0 min 0,000 mm 0,0 UV-I 0 W/m² -1,0 °C -0,2 °C 0,0 km/h (0 Bft)
07.11.2019 04:55 -0,2 °C 94 % 1003,8 hPa 0,0 mm 0,0 km/h (0 Bft) W-SW 241 ° 0 min 0,000 mm 0,0 UV-I 0 W/m² -1,0 °C -0,2 °C 0,0 km/h (0 Bft)
07.11.2019 04:56 -0,2 °C 94 % 1003,8 hPa 0,0 mm 0,0 km/h (0 Bft) W-SW 241 ° 0 min 0,000 mm 0,0 UV-I 0 W/m² -1,0 °C -0,2 °C 0,0 km/h (0 Bft)
07.11.2019 04:57 -0,3 °C 94 % 1003,8 hPa 0,0 mm 0,0 km/h (0 Bft) W-SW 241 ° 0 min 0,000 mm 0,0 UV-I 0 W/m² -1,1 °C -0,3 °C 0,0 km/h (0 Bft)
07.11.2019 04:58 -0,3 °C 94 % 1003,8 hPa 0,0 mm 0,0 km/h (0 Bft) W-SW 241 ° 0 min 0,000 mm 0,0 UV-I 0 W/m² -1,1 °C -0,3 °C 0,0 km/h (0 Bft)
07.11.2019 04:59 -0,3 °C 94 % 1003,8 hPa 0,0 mm 0,0 km/h (0 Bft) W-SW 241 ° 0 min 0,000 mm 0,0 UV-I 0 W/m² -1,1 °C -0,3 °C 0,0 km/h (0 Bft)
07.11.2019 05:00 -0,3 °C 94 % 1003,8 hPa 0,0 mm 0,0 km/h (0 Bft) W-SW 241 ° 0 min 0,000 mm 0,0 UV-I 0 W/m² -1,1 °C -0,3 °C 0,0 km/h (0 Bft)
07.11.2019 05:01 -0,3 °C 94 % 1003,8 hPa 0,0 mm 0,0 km/h (0 Bft) W-SW 241 ° 0 min 0,000 mm 0,0 UV-I 0 W/m² -1,1 °C -0,3 °C 0,0 km/h (0 Bft)
07.11.2019 05:02 -0,3 °C 94 % 1003,8 hPa 0,0 mm 0,0 km/h (0 Bft) W-SW 241 ° 0 min 0,000 mm 0,0 UV-I 0 W/m² -1,1 °C -0,3 °C 0,0 km/h (0 Bft)
07.11.2019 05:03 -0,3 °C 94 % 1003,8 hPa 0,0 mm 0,0 km/h (0 Bft) W-SW 241 ° 0 min 0,000 mm 0,0 UV-I 0 W/m² -1,1 °C -0,3 °C 0,0 km/h (0 Bft)
07.11.2019 05:04 -0,3 °C 94 % 1003,8 hPa 0,0 mm 0,0 km/h (0 Bft) W-SW 241 ° 0 min 0,000 mm 0,0 UV-I 0 W/m² -1,1 °C -0,3 °C 0,0 km/h (0 Bft)
07.11.2019 05:05 -0,3 °C 94 % 1003,7 hPa 0,0 mm 0,0 km/h (0 Bft) W-SW 241 ° 0 min 0,000 mm 0,0 UV-I 0 W/m² -1,1 °C -0,3 °C 0,0 km/h (0 Bft)
07.11.2019 05:06 -0,4 °C 94 % 1003,7 hPa 0,0 mm 0,0 km/h (0 Bft) W-SW 241 ° 0 min 0,000 mm 0,0 UV-I 0 W/m² -1,2 °C -0,4 °C 0,0 km/h (0 Bft)
07.11.2019 05:07 -0,3 °C 94 % 1003,7 hPa 0,0 mm 0,0 km/h (0 Bft) W-SW 241 ° 0 min 0,000 mm 0,0 UV-I 0 W/m² -1,1 °C -0,3 °C 0,0 km/h (0 Bft)
07.11.2019 05:08 -0,4 °C 94 % 1003,7 hPa 0,0 mm 0,0 km/h (0 Bft) W-SW 241 ° 0 min 0,000 mm 0,0 UV-I 0 W/m² -1,2 °C -0,4 °C 0,0 km/h (0 Bft)
07.11.2019 05:09 -0,4 °C 94 % 1003,7 hPa 0,0 mm 0,0 km/h (0 Bft) W-SW 241 ° 0 min 0,000 mm 0,0 UV-I 0 W/m² -1,2 °C -0,4 °C 0,0 km/h (0 Bft)
07.11.2019 05:10 -0,4 °C 94 % 1003,7 hPa 0,0 mm 0,0 km/h (0 Bft) W-SW 241 ° 0 min 0,000 mm 0,0 UV-I 0 W/m² -1,2 °C -0,4 °C 0,0 km/h (0 Bft)
07.11.2019 05:11 -0,4 °C 94 % 1003,7 hPa 0,0 mm 0,0 km/h (0 Bft) W-SW 241 ° 0 min 0,000 mm 0,0 UV-I 0 W/m² -1,2 °C -0,4 °C 0,0 km/h (0 Bft)
07.11.2019 05:12 -0,4 °C 94 % 1003,7 hPa 0,0 mm 0,0 km/h (0 Bft) W-SW 241 ° 0 min 0,000 mm 0,0 UV-I 0 W/m² -1,2 °C -0,4 °C 0,0 km/h (0 Bft)
07.11.2019 05:13 -0,4 °C 94 % 1003,7 hPa 0,0 mm 0,0 km/h (0 Bft) W-SW 241 ° 0 min 0,000 mm 0,0 UV-I 0 W/m² -1,2 °C -0,4 °C 0,0 km/h (0 Bft)
07.11.2019 05:14 -0,5 °C 94 % 1003,6 hPa 0,0 mm 0,0 km/h (0 Bft) W-SW 241 ° 0 min 0,000 mm 0,0 UV-I 0 W/m² -1,3 °C -0,5 °C 0,0 km/h (0 Bft)
07.11.2019 05:15 -0,4 °C 94 % 1003,7 hPa 0,0 mm 0,0 km/h (0 Bft) W-SW 241 ° 0 min 0,000 mm 0,0 UV-I 0 W/m² -1,2 °C -0,4 °C 0,0 km/h (0 Bft)
07.11.2019 05:16 -0,5 °C 94 % 1003,7 hPa 0,0 mm 0,0 km/h (0 Bft) W-SW 241 ° 0 min 0,000 mm 0,0 UV-I 0 W/m² -1,3 °C -0,5 °C 0,0 km/h (0 Bft)
07.11.2019 05:17 -0,5 °C 93 % 1003,7 hPa 0,0 mm 0,0 km/h (0 Bft) W-SW 241 ° 0 min 0,000 mm 0,0 UV-I 0 W/m² -1,5 °C -0,5 °C 0,0 km/h (0 Bft)
07.11.2019 05:18 -0,5 °C 93 % 1003,6 hPa 0,0 mm 0,0 km/h (0 Bft) W-SW 241 ° 0 min 0,000 mm 0,0 UV-I 0 W/m² -1,5 °C -0,5 °C 0,0 km/h (0 Bft)
07.11.2019 05:19 -0,5 °C 93 % 1003,7 hPa 0,0 mm 0,0 km/h (0 Bft) W-SW 241 ° 0 min 0,000 mm 0,0 UV-I 0 W/m² -1,5 °C -0,5 °C 0,0 km/h (0 Bft)
07.11.2019 05:20 -0,5 °C 93 % 1003,7 hPa 0,0 mm 0,0 km/h (0 Bft) W-SW 241 ° 0 min 0,000 mm 0,0 UV-I 0 W/m² -1,5 °C -0,5 °C 0,0 km/h (0 Bft)
07.11.2019 05:21 -0,6 °C 93 % 1003,7 hPa 0,0 mm 0,0 km/h (0 Bft) W-SW 241 ° 0 min 0,000 mm 0,0 UV-I 0 W/m² -1,6 °C -0,6 °C 0,0 km/h (0 Bft)
07.11.2019 05:22 -0,6 °C 93 % 1003,6 hPa 0,0 mm 0,0 km/h (0 Bft) W-SW 241 ° 0 min 0,000 mm 0,0 UV-I 0 W/m² -1,6 °C -0,6 °C 0,0 km/h (0 Bft)
07.11.2019 05:23 -0,6 °C 93 % 1003,6 hPa 0,0 mm 0,0 km/h (0 Bft) W-SW 241 ° 0 min 0,000 mm 0,0 UV-I 0 W/m² -1,6 °C -0,6 °C 0,0 km/h (0 Bft)
07.11.2019 05:24 -0,6 °C 93 % 1003,6 hPa 0,0 mm 0,0 km/h (0 Bft) W-SW 241 ° 0 min 0,000 mm 0,0 UV-I 0 W/m² -1,6 °C -0,6 °C 0,0 km/h (0 Bft)
07.11.2019 05:25 -0,6 °C 93 % 1003,6 hPa 0,0 mm 0,0 km/h (0 Bft) W-SW 241 ° 0 min 0,000 mm 0,0 UV-I 0 W/m² -1,6 °C -0,6 °C 0,0 km/h (0 Bft)
07.11.2019 05:26 -0,6 °C 93 % 1003,6 hPa 0,0 mm 0,0 km/h (0 Bft) W-SW 241 ° 0 min 0,000 mm 0,0 UV-I 0 W/m² -1,6 °C -0,6 °C 0,0 km/h (0 Bft)
07.11.2019 05:27 -0,7 °C 93 % 1003,6 hPa 0,0 mm 0,0 km/h (0 Bft) W-SW 241 ° 0 min 0,000 mm 0,0 UV-I 0 W/m² -1,7 °C -0,7 °C 0,0 km/h (0 Bft)
07.11.2019 05:28 -0,7 °C 94 % 1003,6 hPa 0,0 mm 0,0 km/h (0 Bft) W-SW 241 ° 0 min 0,000 mm 0,0 UV-I 0 W/m² -1,5 °C -0,7 °C 0,0 km/h (0 Bft)
07.11.2019 05:29 -0,7 °C 94 % 1003,7 hPa 0,0 mm 0,0 km/h (0 Bft) W-SW 241 ° 0 min 0,000 mm 0,0 UV-I 0 W/m² -1,5 °C -0,7 °C 0,0 km/h (0 Bft)
07.11.2019 05:30 -0,7 °C 94 % 1003,7 hPa 0,0 mm 0,0 km/h (0 Bft) W-SW 241 ° 0 min 0,000 mm 0,0 UV-I 0 W/m² -1,5 °C -0,7 °C 0,0 km/h (0 Bft)
07.11.2019 05:31 -0,7 °C 94 % 1003,7 hPa 0,0 mm 0,0 km/h (0 Bft) W-SW 241 ° 0 min 0,000 mm 0,0 UV-I 0 W/m² -1,5 °C -0,7 °C 0,0 km/h (0 Bft)
07.11.2019 05:32 -0,7 °C 94 % 1003,7 hPa 0,0 mm 0,0 km/h (0 Bft) W-SW 241 ° 0 min 0,000 mm 0,0 UV-I 0 W/m² -1,5 °C -0,7 °C 0,0 km/h (0 Bft)
07.11.2019 05:33 -0,8 °C 94 % 1003,7 hPa 0,0 mm 0,0 km/h (0 Bft) W-SW 241 ° 0 min 0,000 mm 0,0 UV-I 0 W/m² -1,6 °C -0,8 °C 0,0 km/h (0 Bft)
07.11.2019 05:34 -0,8 °C 94 % 1003,8 hPa 0,0 mm 0,0 km/h (0 Bft) W-SW 241 ° 0 min 0,000 mm 0,0 UV-I 0 W/m² -1,6 °C -0,8 °C 0,0 km/h (0 Bft)
07.11.2019 05:35 -0,8 °C 94 % 1003,8 hPa 0,0 mm 0,0 km/h (0 Bft) W-SW 241 ° 0 min 0,000 mm 0,0 UV-I 0 W/m² -1,6 °C -0,8 °C 0,0 km/h (0 Bft)
07.11.2019 05:36 -0,8 °C 94 % 1003,8 hPa 0,0 mm 0,0 km/h (0 Bft) W-SW 241 ° 0 min 0,000 mm 0,0 UV-I 0 W/m² -1,6 °C -0,8 °C 0,0 km/h (0 Bft)
07.11.2019 05:37 -0,8 °C 94 % 1003,8 hPa 0,0 mm 0,0 km/h (0 Bft) W-SW 241 ° 0 min 0,000 mm 0,0 UV-I 0 W/m² -1,6 °C -0,8 °C 0,0 km/h (0 Bft)
07.11.2019 05:38 -0,8 °C 94 % 1003,8 hPa 0,0 mm 0,0 km/h (0 Bft) W-SW 241 ° 0 min 0,000 mm 0,0 UV-I 0 W/m² -1,6 °C -0,8 °C 0,0 km/h (0 Bft)
07.11.2019 05:39 -0,8 °C 93 % 1003,8 hPa 0,0 mm 0,0 km/h (0 Bft) W-SW 241 ° 0 min 0,000 mm 0,0 UV-I 0 W/m² -1,8 °C -0,8 °C 0,0 km/h (0 Bft)
07.11.2019 05:40 -0,8 °C 93 % 1003,8 hPa 0,0 mm 0,0 km/h (0 Bft) W-SW 241 ° 0 min 0,000 mm 0,0 UV-I 0 W/m² -1,8 °C -0,8 °C 0,0 km/h (0 Bft)
07.11.2019 05:41 -0,8 °C 93 % 1003,8 hPa 0,0 mm 0,0 km/h (0 Bft) W-SW 241 ° 0 min 0,000 mm 0,0 UV-I 0 W/m² -1,8 °C -0,8 °C 0,0 km/h (0 Bft)
07.11.2019 05:42 -0,8 °C 93 % 1003,8 hPa 0,0 mm 0,7 km/h (0 Bft) W-SW 241 ° 0 min 0,000 mm 0,0 UV-I 0 W/m² -1,8 °C -0,8 °C 3,2 km/h (1 Bft)
07.11.2019 05:43 -0,7 °C 94 % 1003,7 hPa 0,0 mm 1,9 km/h (1 Bft) W-SW 241 ° 0 min 0,000 mm 0,0 UV-I 0 W/m² -1,5 °C -0,7 °C 3,2 km/h (1 Bft)
07.11.2019 05:44 -0,7 °C 94 % 1003,8 hPa 0,0 mm 0,3 km/h (0 Bft) W-SW 241 ° 0 min 0,000 mm 0,0 UV-I 0 W/m² -1,5 °C -0,7 °C 1,6 km/h (1 Bft)
07.11.2019 05:45 -0,6 °C 94 % 1003,8 hPa 0,0 mm 0,0 km/h (0 Bft) W-SW 241 ° 0 min 0,000 mm 0,0 UV-I 0 W/m² -1,4 °C -0,6 °C 0,0 km/h (0 Bft)
07.11.2019 05:46 -0,6 °C 94 % 1003,7 hPa 0,0 mm 0,0 km/h (0 Bft) W-SW 241 ° 0 min 0,000 mm 0,0 UV-I 0 W/m² -1,4 °C -0,6 °C 0,0 km/h (0 Bft)
07.11.2019 05:47 -0,6 °C 94 % 1003,6 hPa 0,0 mm 0,2 km/h (0 Bft) W-SW 241 ° 0 min 0,000 mm 0,0 UV-I 0 W/m² -1,4 °C -0,6 °C 1,6 km/h (1 Bft)
07.11.2019 05:48 -0,6 °C 94 % 1003,6 hPa 0,0 mm 0,8 km/h (0 Bft) W-SW 241 ° 0 min 0,000 mm 0,0 UV-I 0 W/m² -1,4 °C -0,6 °C 1,6 km/h (1 Bft)
07.11.2019 05:49 -0,6 °C 94 % 1003,6 hPa 0,0 mm 1,1 km/h (1 Bft) W-SW 241 ° 0 min 0,000 mm 0,0 UV-I 0 W/m² -1,4 °C -0,6 °C 3,2 km/h (1 Bft)
07.11.2019 05:50 -0,5 °C 94 % 1003,5 hPa 0,0 mm 0,8 km/h (0 Bft) W-SW 241 ° 0 min 0,000 mm 0,0 UV-I 0 W/m² -1,3 °C -0,5 °C 3,2 km/h (1 Bft)
07.11.2019 05:51 -0,4 °C 94 % 1003,5 hPa 0,0 mm 1,7 km/h (1 Bft) W-SW 241 ° 0 min 0,000 mm 0,0 UV-I 0 W/m² -1,2 °C -0,4 °C 3,2 km/h (1 Bft)
07.11.2019 05:52 -0,4 °C 94 % 1003,5 hPa 0,0 mm 1,9 km/h (1 Bft) W-SW 241 ° 0 min 0,000 mm 0,0 UV-I 0 W/m² -1,2 °C -0,4 °C 3,2 km/h (1 Bft)
07.11.2019 05:53 -0,4 °C 94 % 1003,5 hPa 0,0 mm 0,1 km/h (0 Bft) W-SW 241 ° 0 min 0,000 mm 0,0 UV-I 0 W/m² -1,2 °C -0,4 °C 1,6 km/h (1 Bft)
07.11.2019 05:54 -0,4 °C 94 % 1003,5 hPa 0,0 mm 0,0 km/h (0 Bft) W-SW 241 ° 0 min 0,000 mm 0,0 UV-I 0 W/m² -1,2 °C -0,4 °C 0,0 km/h (0 Bft)
07.11.2019 05:55 -0,3 °C 94 % 1003,5 hPa 0,0 mm 0,0 km/h (0 Bft) W-SW 241 ° 0 min 0,000 mm 0,0 UV-I 0 W/m² -1,1 °C -0,3 °C 0,0 km/h (0 Bft)
07.11.2019 05:56 -0,3 °C 94 % 1003,5 hPa 0,0 mm 0,0 km/h (0 Bft) W-SW 241 ° 0 min 0,000 mm 0,0 UV-I 0 W/m² -1,1 °C -0,3 °C 0,0 km/h (0 Bft)
07.11.2019 05:57 -0,3 °C 94 % 1003,5 hPa 0,0 mm 0,0 km/h (0 Bft) W-SW 241 ° 0 min 0,000 mm 0,0 UV-I 0 W/m² -1,1 °C -0,3 °C 0,0 km/h (0 Bft)
07.11.2019 05:58 -0,3 °C 94 % 1003,5 hPa 0,0 mm 0,0 km/h (0 Bft) W-SW 241 ° 0 min 0,000 mm 0,0 UV-I 0 W/m² -1,1 °C -0,3 °C 0,0 km/h (0 Bft)
07.11.2019 05:59 -0,3 °C 94 % 1003,4 hPa 0,0 mm 0,0 km/h (0 Bft) W-SW 241 ° 0 min 0,000 mm 0,0 UV-I 0 W/m² -1,1 °C -0,3 °C 0,0 km/h (0 Bft)
07.11.2019 06:00 -0,3 °C 94 % 1003,4 hPa 0,0 mm 0,0 km/h (0 Bft) W-SW 241 ° 0 min 0,000 mm 0,0 UV-I 0 W/m² -1,1 °C -0,3 °C 0,0 km/h (0 Bft)
07.11.2019 06:01 -0,4 °C 94 % 1003,5 hPa 0,0 mm 0,5 km/h (0 Bft) W-SW 241 ° 0 min 0,000 mm 0,0 UV-I 0 W/m² -1,2 °C -0,4 °C 3,2 km/h (1 Bft)
07.11.2019 06:02 -0,4 °C 94 % 1003,5 hPa 0,0 mm 0,1 km/h (0 Bft) W-SW 241 ° 0 min 0,000 mm 0,0 UV-I 0 W/m² -1,2 °C -0,4 °C 1,6 km/h (1 Bft)
07.11.2019 06:03 -0,4 °C 94 % 1003,5 hPa 0,0 mm 0,0 km/h (0 Bft) W-SW 241 ° 0 min 0,000 mm 0,0 UV-I 0 W/m² -1,2 °C -0,4 °C 0,0 km/h (0 Bft)
07.11.2019 06:04 -0,4 °C 94 % 1003,5 hPa 0,0 mm 0,0 km/h (0 Bft) W-SW 241 ° 0 min 0,000 mm 0,0 UV-I 0 W/m² -1,2 °C -0,4 °C 0,0 km/h (0 Bft)
07.11.2019 06:05 -0,4 °C 94 % 1003,5 hPa 0,0 mm 0,0 km/h (0 Bft) W-SW 241 ° 0 min 0,000 mm 0,0 UV-I 0 W/m² -1,2 °C -0,4 °C 0,0 km/h (0 Bft)
07.11.2019 06:06 -0,4 °C 94 % 1003,5 hPa 0,0 mm 0,0 km/h (0 Bft) W-SW 241 ° 0 min 0,000 mm 0,0 UV-I 0 W/m² -1,2 °C -0,4 °C 0,0 km/h (0 Bft)
07.11.2019 06:07 -0,4 °C 94 % 1003,4 hPa 0,0 mm 0,0 km/h (0 Bft) W-SW 241 ° 0 min 0,000 mm 0,0 UV-I 0 W/m² -1,2 °C -0,4 °C 0,0 km/h (0 Bft)
07.11.2019 06:08 -0,4 °C 94 % 1003,4 hPa 0,0 mm 0,0 km/h (0 Bft) W-SW 241 ° 0 min 0,000 mm 0,0 UV-I 0 W/m² -1,2 °C -0,4 °C 0,0 km/h (0 Bft)
07.11.2019 06:09 -0,5 °C 94 % 1003,4 hPa 0,0 mm 0,0 km/h (0 Bft) W-SW 241 ° 0 min 0,000 mm 0,0 UV-I 0 W/m² -1,3 °C -0,5 °C 0,0 km/h (0 Bft)
07.11.2019 06:10 -0,4 °C 94 % 1003,5 hPa 0,0 mm 0,0 km/h (0 Bft) W-SW 241 ° 0 min 0,000 mm 0,0 UV-I 0 W/m² -1,2 °C -0,4 °C 0,0 km/h (0 Bft)
07.11.2019 06:11 -0,5 °C 94 % 1003,4 hPa 0,0 mm 0,0 km/h (0 Bft) W-SW 241 ° 0 min 0,000 mm 0,0 UV-I 0 W/m² -1,3 °C -0,5 °C 0,0 km/h (0 Bft)
07.11.2019 06:12 -0,5 °C 94 % 1003,5 hPa 0,0 mm 0,0 km/h (0 Bft) W-SW 241 ° 0 min 0,000 mm 0,0 UV-I 0 W/m² -1,3 °C -0,5 °C 0,0 km/h (0 Bft)
07.11.2019 06:13 -0,5 °C 94 % 1003,5 hPa 0,0 mm 0,5 km/h (0 Bft) W-SW 241 ° 0 min 0,000 mm 0,0 UV-I 0 W/m² -1,3 °C -0,5 °C 3,2 km/h (1 Bft)
07.11.2019 06:14 -0,5 °C 94 % 1003,5 hPa 0,0 mm 1,2 km/h (1 Bft) W-SW 241 ° 0 min 0,000 mm 0,0 UV-I 0 W/m² -1,3 °C -0,5 °C 3,2 km/h (1 Bft)
07.11.2019 06:15 -0,6 °C 94 % 1003,5 hPa 0,0 mm 0,0 km/h (0 Bft) W-SW 241 ° 0 min 0,000 mm 0,0 UV-I 0 W/m² -1,4 °C -0,6 °C 0,0 km/h (0 Bft)
07.11.2019 06:16 -0,6 °C 94 % 1003,5 hPa 0,0 mm 0,0 km/h (0 Bft) W-SW 241 ° 0 min 0,000 mm 0,0 UV-I 0 W/m² -1,4 °C -0,6 °C 0,0 km/h (0 Bft)
07.11.2019 06:17 -0,6 °C 94 % 1003,4 hPa 0,0 mm 0,0 km/h (0 Bft) W-SW 241 ° 0 min 0,000 mm 0,0 UV-I 0 W/m² -1,4 °C -0,6 °C 0,0 km/h (0 Bft)
07.11.2019 06:18 -0,6 °C 94 % 1003,5 hPa 0,0 mm 0,0 km/h (0 Bft) W-SW 241 ° 0 min 0,000 mm 0,0 UV-I 0 W/m² -1,4 °C -0,6 °C 0,0 km/h (0 Bft)
07.11.2019 06:19 -0,6 °C 94 % 1003,5 hPa 0,0 mm 0,0 km/h (0 Bft) W-SW 241 ° 0 min 0,000 mm 0,0 UV-I 0 W/m² -1,4 °C -0,6 °C 0,0 km/h (0 Bft)
07.11.2019 06:20 -0,7 °C 94 % 1003,5 hPa 0,0 mm 0,0 km/h (0 Bft) W-SW 241 ° 0 min 0,000 mm 0,0 UV-I 0 W/m² -1,5 °C -0,7 °C 0,0 km/h (0 Bft)
07.11.2019 06:21 -0,7 °C 94 % 1003,5 hPa 0,0 mm 0,0 km/h (0 Bft) W-SW 241 ° 0 min 0,000 mm 0,0 UV-I 0 W/m² -1,5 °C -0,7 °C 0,0 km/h (0 Bft)
07.11.2019 06:22 -0,7 °C 94 % 1003,5 hPa 0,0 mm 0,0 km/h (0 Bft) W-SW 241 ° 0 min 0,000 mm 0,0 UV-I 0 W/m² -1,5 °C -0,7 °C 0,0 km/h (0 Bft)
07.11.2019 06:23 -0,7 °C 94 % 1003,5 hPa 0,0 mm 0,0 km/h (0 Bft) W-SW 241 ° 0 min 0,000 mm 0,0 UV-I 0 W/m² -1,5 °C -0,7 °C 0,0 km/h (0 Bft)
07.11.2019 06:24 -0,7 °C 94 % 1003,5 hPa 0,0 mm 0,0 km/h (0 Bft) W-SW 241 ° 0 min 0,000 mm 0,0 UV-I 0 W/m² -1,5 °C -0,7 °C 0,0 km/h (0 Bft)
07.11.2019 06:25 -0,7 °C 94 % 1003,4 hPa 0,0 mm 0,0 km/h (0 Bft) W-SW 241 ° 0 min 0,000 mm 0,0 UV-I 0 W/m² -1,5 °C -0,7 °C 0,0 km/h (0 Bft)
07.11.2019 06:26 -0,7 °C 94 % 1003,5 hPa 0,0 mm 0,0 km/h (0 Bft) W-SW 241 ° 0 min 0,000 mm 0,0 UV-I 0 W/m² -1,5 °C -0,7 °C 0,0 km/h (0 Bft)
07.11.2019 06:27 -0,8 °C 94 % 1003,4 hPa 0,0 mm 0,0 km/h (0 Bft) W-SW 241 ° 0 min 0,000 mm 0,0 UV-I 0 W/m² -1,6 °C -0,8 °C 0,0 km/h (0 Bft)
07.11.2019 06:28 -0,8 °C 94 % 1003,4 hPa 0,0 mm 0,0 km/h (0 Bft) W-SW 241 ° 0 min 0,000 mm 0,0 UV-I 0 W/m² -1,6 °C -0,8 °C 0,0 km/h (0 Bft)
07.11.2019 06:29 -0,8 °C 94 % 1003,4 hPa 0,0 mm 0,0 km/h (0 Bft) W-SW 241 ° 0 min 0,000 mm 0,0 UV-I 0 W/m² -1,6 °C -0,8 °C 0,0 km/h (0 Bft)
07.11.2019 06:30 -0,8 °C 94 % 1003,4 hPa 0,0 mm 0,0 km/h (0 Bft) W-SW 241 ° 0 min 0,000 mm 0,0 UV-I 0 W/m² -1,6 °C -0,8 °C 0,0 km/h (0 Bft)
07.11.2019 06:31 -0,8 °C 94 % 1003,4 hPa 0,0 mm 0,0 km/h (0 Bft) W-SW 241 ° 0 min 0,000 mm 0,0 UV-I 0 W/m² -1,6 °C -0,8 °C 0,0 km/h (0 Bft)
07.11.2019 06:32 -0,8 °C 94 % 1003,4 hPa 0,0 mm 0,0 km/h (0 Bft) W-SW 241 ° 0 min 0,000 mm 0,0 UV-I 0 W/m² -1,6 °C -0,8 °C 0,0 km/h (0 Bft)
07.11.2019 06:33 -0,8 °C 94 % 1003,4 hPa 0,0 mm 0,0 km/h (0 Bft) W-SW 241 ° 0 min 0,000 mm 0,0 UV-I 0 W/m² -1,6 °C -0,8 °C 0,0 km/h (0 Bft)
07.11.2019 06:34 -0,8 °C 94 % 1003,4 hPa 0,0 mm 0,0 km/h (0 Bft) W-SW 241 ° 0 min 0,000 mm 0,0 UV-I 0 W/m² -1,6 °C -0,8 °C 0,0 km/h (0 Bft)
07.11.2019 06:35 -0,8 °C 94 % 1003,3 hPa 0,0 mm 0,0 km/h (0 Bft) W-SW 241 ° 0 min 0,000 mm 0,0 UV-I 0 W/m² -1,6 °C -0,8 °C 0,0 km/h (0 Bft)
07.11.2019 06:36 -0,8 °C 94 % 1003,4 hPa 0,0 mm 0,0 km/h (0 Bft) W-SW 241 ° 0 min 0,000 mm 0,0 UV-I 0 W/m² -1,6 °C -0,8 °C 0,0 km/h (0 Bft)
07.11.2019 06:37 -0,8 °C 94 % 1003,4 hPa 0,0 mm 0,0 km/h (0 Bft) W-SW 241 ° 0 min 0,000 mm 0,0 UV-I 0 W/m² -1,6 °C -0,8 °C 0,0 km/h (0 Bft)
07.11.2019 06:38 -0,8 °C 94 % 1003,4 hPa 0,0 mm 0,0 km/h (0 Bft) W-SW 241 ° 0 min 0,000 mm 0,0 UV-I 0 W/m² -1,6 °C -0,8 °C 0,0 km/h (0 Bft)
07.11.2019 06:39 -0,8 °C 94 % 1003,4 hPa 0,0 mm 0,0 km/h (0 Bft) W-SW 241 ° 0 min 0,000 mm 0,0 UV-I 0 W/m² -1,6 °C -0,8 °C 0,0 km/h (0 Bft)
07.11.2019 06:40 -0,9 °C 94 % 1003,4 hPa 0,0 mm 0,0 km/h (0 Bft) W-SW 241 ° 0 min 0,000 mm 0,0 UV-I 0 W/m² -1,7 °C -0,9 °C 0,0 km/h (0 Bft)
07.11.2019 06:41 -0,9 °C 94 % 1003,4 hPa 0,0 mm 0,0 km/h (0 Bft) W-SW 241 ° 0 min 0,000 mm 0,0 UV-I 0 W/m² -1,7 °C -0,9 °C 0,0 km/h (0 Bft)
07.11.2019 06:42 -0,9 °C 94 % 1003,4 hPa 0,0 mm 0,0 km/h (0 Bft) W-SW 241 ° 0 min 0,000 mm 0,0 UV-I 0 W/m² -1,7 °C -0,9 °C 0,0 km/h (0 Bft)
07.11.2019 06:43 -0,9 °C 94 % 1003,3 hPa 0,0 mm 0,0 km/h (0 Bft) W-SW 241 ° 0 min 0,000 mm 0,0 UV-I 0 W/m² -1,7 °C -0,9 °C 0,0 km/h (0 Bft)
07.11.2019 06:44 -0,9 °C 94 % 1003,3 hPa 0,0 mm 0,0 km/h (0 Bft) W-SW 241 ° 0 min 0,000 mm 0,0 UV-I 0 W/m² -1,7 °C -0,9 °C 0,0 km/h (0 Bft)
07.11.2019 06:45 -0,9 °C 94 % 1003,3 hPa 0,0 mm 0,0 km/h (0 Bft) W-SW 241 ° 0 min 0,000 mm 0,0 UV-I 0 W/m² -1,7 °C -0,9 °C 0,0 km/h (0 Bft)
07.11.2019 06:46 -0,9 °C 94 % 1003,3 hPa 0,0 mm 0,0 km/h (0 Bft) W-SW 241 ° 0 min 0,000 mm 0,0 UV-I 0 W/m² -1,7 °C -0,9 °C 0,0 km/h (0 Bft)
07.11.2019 06:47 -0,9 °C 94 % 1003,3 hPa 0,0 mm 0,0 km/h (0 Bft) W-SW 241 ° 0 min 0,000 mm 0,0 UV-I 0 W/m² -1,7 °C -0,9 °C 0,0 km/h (0 Bft)
07.11.2019 06:48 -0,9 °C 94 % 1003,4 hPa 0,0 mm 0,0 km/h (0 Bft) W-SW 241 ° 0 min 0,000 mm 0,0 UV-I 0 W/m² -1,7 °C -0,9 °C 0,0 km/h (0 Bft)
07.11.2019 06:49 -0,9 °C 94 % 1003,3 hPa 0,0 mm 0,0 km/h (0 Bft) W-SW 241 ° 0 min 0,000 mm 0,0 UV-I 0 W/m² -1,7 °C -0,9 °C 0,0 km/h (0 Bft)
07.11.2019 06:50 -0,9 °C 94 % 1003,3 hPa 0,0 mm 0,0 km/h (0 Bft) W-SW 241 ° 0 min 0,000 mm 0,0 UV-I 0 W/m² -1,7 °C -0,9 °C 0,0 km/h (0 Bft)
07.11.2019 06:51 -1,0 °C 94 % 1003,4 hPa 0,0 mm 0,0 km/h (0 Bft) W-SW 241 ° 0 min 0,000 mm 0,0 UV-I 0 W/m² -1,8 °C -1,0 °C 0,0 km/h (0 Bft)
07.11.2019 06:52 -1,1 °C 94 % 1003,4 hPa 0,0 mm 0,0 km/h (0 Bft) W-SW 241 ° 0 min 0,000 mm 0,0 UV-I 0 W/m² -1,9 °C -1,1 °C 0,0 km/h (0 Bft)
07.11.2019 06:53 -1,1 °C 94 % 1003,4 hPa 0,0 mm 0,0 km/h (0 Bft) W-SW 241 ° 0 min 0,000 mm 0,0 UV-I 0 W/m² -1,9 °C -1,1 °C 0,0 km/h (0 Bft)
07.11.2019 06:54 -1,1 °C 94 % 1003,4 hPa 0,0 mm 0,7 km/h (0 Bft) W-SW 241 ° 0 min 0,000 mm 0,0 UV-I 0 W/m² -1,9 °C -1,1 °C 1,6 km/h (1 Bft)
07.11.2019 06:55 -1,2 °C 93 % 1003,3 hPa 0,0 mm 0,2 km/h (0 Bft) W-SW 241 ° 0 min 0,000 mm 0,0 UV-I 0 W/m² -2,2 °C -1,2 °C 1,6 km/h (1 Bft)
07.11.2019 06:56 -1,2 °C 93 % 1003,3 hPa 0,0 mm 0,0 km/h (0 Bft) W-SW 241 ° 0 min 0,000 mm 0,0 UV-I 0 W/m² -2,2 °C -1,2 °C 0,0 km/h (0 Bft)
07.11.2019 06:57 -1,2 °C 94 % 1003,4 hPa 0,0 mm 0,0 km/h (0 Bft) W-SW 241 ° 0 min 0,000 mm 0,0 UV-I 0 W/m² -2,0 °C -1,2 °C 0,0 km/h (0 Bft)
07.11.2019 06:58 -1,2 °C 94 % 1003,3 hPa 0,0 mm 0,0 km/h (0 Bft) W-SW 241 ° 0 min 0,000 mm 0,0 UV-I 0 W/m² -2,0 °C -1,2 °C 0,0 km/h (0 Bft)
07.11.2019 06:59 -1,2 °C 94 % 1003,4 hPa 0,0 mm 0,0 km/h (0 Bft) W-SW 241 ° 0 min 0,000 mm 0,0 UV-I 0 W/m² -2,0 °C -1,2 °C 0,0 km/h (0 Bft)
07.11.2019 07:00 -1,2 °C 94 % 1003,4 hPa 0,0 mm 0,0 km/h (0 Bft) W-SW 241 ° 0 min 0,000 mm 0,0 UV-I 0 W/m² -2,0 °C -1,2 °C 0,0 km/h (0 Bft)
07.11.2019 07:01 -1,3 °C 94 % 1003,4 hPa 0,0 mm 0,0 km/h (0 Bft) W-SW 241 ° 0 min 0,000 mm 0,0 UV-I 0 W/m² -2,1 °C -1,3 °C 0,0 km/h (0 Bft)
07.11.2019 07:02 -1,3 °C 94 % 1003,4 hPa 0,0 mm 0,0 km/h (0 Bft) W-SW 241 ° 0 min 0,000 mm 0,0 UV-I 0 W/m² -2,1 °C -1,3 °C 0,0 km/h (0 Bft)
07.11.2019 07:03 -1,3 °C 94 % 1003,4 hPa 0,0 mm 0,0 km/h (0 Bft) W-SW 241 ° 0 min 0,000 mm 0,0 UV-I 0 W/m² -2,1 °C -1,3 °C 0,0 km/h (0 Bft)
07.11.2019 07:04 -1,3 °C 94 % 1003,5 hPa 0,0 mm 0,0 km/h (0 Bft) W-SW 241 ° 0 min 0,000 mm 0,0 UV-I 0 W/m² -2,1 °C -1,3 °C 0,0 km/h (0 Bft)
07.11.2019 07:05 -1,3 °C 94 % 1003,5 hPa 0,0 mm 0,0 km/h (0 Bft) W-SW 241 ° 0 min 0,000 mm 0,0 UV-I 0 W/m² -2,1 °C -1,3 °C 0,0 km/h (0 Bft)
07.11.2019 07:06 -1,3 °C 94 % 1003,5 hPa 0,0 mm 0,0 km/h (0 Bft) W-SW 241 ° 0 min 0,000 mm 0,0 UV-I 0 W/m² -2,1 °C -1,3 °C 0,0 km/h (0 Bft)
07.11.2019 07:07 -1,3 °C 94 % 1003,5 hPa 0,0 mm 0,0 km/h (0 Bft) W-SW 241 ° 0 min 0,000 mm 0,0 UV-I 0 W/m² -2,1 °C -1,3 °C 0,0 km/h (0 Bft)
07.11.2019 07:08 -1,3 °C 94 % 1003,5 hPa 0,0 mm 0,2 km/h (0 Bft) W-SW 241 ° 0 min 0,000 mm 0,0 UV-I 0 W/m² -2,1 °C -1,3 °C 1,6 km/h (1 Bft)
07.11.2019 07:09 -1,3 °C 94 % 1003,5 hPa 0,0 mm 2,3 km/h (1 Bft) W-SW 241 ° 0 min 0,000 mm 0,0 UV-I 0 W/m² -2,1 °C -1,3 °C 3,2 km/h (1 Bft)
07.11.2019 07:10 -1,3 °C 94 % 1003,5 hPa 0,0 mm 1,4 km/h (1 Bft) W-SW 241 ° 0 min 0,000 mm 0,0 UV-I 5 W/m² -2,1 °C -1,3 °C 3,2 km/h (1 Bft)
07.11.2019 07:11 -1,3 °C 94 % 1003,6 hPa 0,0 mm 2,5 km/h (1 Bft) W-SW 241 ° 0 min 0,000 mm 0,0 UV-I 5 W/m² -2,1 °C -1,3 °C 3,2 km/h (1 Bft)
07.11.2019 07:12 -1,3 °C 94 % 1003,6 hPa 0,0 mm 3,4 km/h (1 Bft) W-SW 241 ° 0 min 0,000 mm 0,0 UV-I 5 W/m² -2,1 °C -1,3 °C 4,8 km/h (1 Bft)
07.11.2019 07:13 -1,3 °C 94 % 1003,7 hPa 0,0 mm 3,2 km/h (1 Bft) W-SW 241 ° 0 min 0,000 mm 0,0 UV-I 5 W/m² -2,1 °C -1,3 °C 4,8 km/h (1 Bft)
07.11.2019 07:14 -1,3 °C 94 % 1003,6 hPa 0,0 mm 2,8 km/h (1 Bft) W-SW 241 ° 0 min 0,000 mm 0,0 UV-I 5 W/m² -2,1 °C -1,3 °C 3,2 km/h (1 Bft)
07.11.2019 07:15 -1,3 °C 94 % 1003,6 hPa 0,0 mm 1,4 km/h (1 Bft) W-SW 241 ° 0 min 0,000 mm 0,0 UV-I 5 W/m² -2,1 °C -1,3 °C 4,8 km/h (1 Bft)
07.11.2019 07:16 -1,3 °C 94 % 1003,7 hPa 0,0 mm 1,2 km/h (1 Bft) W-SW 241 ° 0 min 0,000 mm 0,0 UV-I 7 W/m² -2,1 °C -1,3 °C 3,2 km/h (1 Bft)
07.11.2019 07:17 -1,2 °C 94 % 1003,7 hPa 0,0 mm 2,3 km/h (1 Bft) W-SW 241 ° 0 min 0,000 mm 0,0 UV-I 7 W/m² -2,0 °C -1,2 °C 6,4 km/h (2 Bft)
07.11.2019 07:18 -1,2 °C 94 % 1003,7 hPa 0,0 mm 4,5 km/h (1 Bft) W-SW 238 ° 0 min 0,000 mm 0,0 UV-I 7 W/m² -2,0 °C -1,2 °C 6,4 km/h (2 Bft)
07.11.2019 07:19 -1,2 °C 94 % 1003,7 hPa 0,0 mm 5,0 km/h (1 Bft) S-SO 161 ° 0 min 0,000 mm 0,0 UV-I 7 W/m² -2,0 °C -3,0 °C 6,4 km/h (2 Bft)
07.11.2019 07:20 -1,1 °C 94 % 1003,6 hPa 0,0 mm 4,8 km/h (1 Bft) S-SO 163 ° 0 min 0,000 mm 0,0 UV-I 7 W/m² -1,9 °C -2,7 °C 8,0 km/h (2 Bft)
07.11.2019 07:21 -1,1 °C 94 % 1003,6 hPa 0,0 mm 3,6 km/h (1 Bft) S-SO 163 ° 0 min 0,000 mm 0,0 UV-I 7 W/m² -1,9 °C -1,1 °C 6,4 km/h (2 Bft)
07.11.2019 07:22 -1,0 °C 94 % 1003,6 hPa 0,0 mm 4,2 km/h (1 Bft) S-SO 163 ° 0 min 0,000 mm 0,0 UV-I 9 W/m² -1,8 °C -1,0 °C 6,4 km/h (2 Bft)
07.11.2019 07:23 -0,9 °C 94 % 1003,7 hPa 0,0 mm 5,1 km/h (1 Bft) S-SO 163 ° 0 min 0,000 mm 0,0 UV-I 9 W/m² -1,7 °C -2,7 °C 6,4 km/h (2 Bft)
07.11.2019 07:24 -0,8 °C 94 % 1003,7 hPa 0,0 mm 3,6 km/h (1 Bft) S-SO 163 ° 0 min 0,000 mm 0,0 UV-I 9 W/m² -1,6 °C -0,8 °C 6,4 km/h (2 Bft)
07.11.2019 07:25 -0,8 °C 94 % 1003,7 hPa 0,0 mm 1,7 km/h (1 Bft) S-SO 163 ° 0 min 0,000 mm 0,0 UV-I 9 W/m² -1,6 °C -0,8 °C 6,4 km/h (2 Bft)
07.11.2019 07:26 -0,8 °C 94 % 1003,8 hPa 0,0 mm 0,0 km/h (0 Bft) S-SO 163 ° 0 min 0,000 mm 0,0 UV-I 9 W/m² -1,6 °C -0,8 °C 0,0 km/h (0 Bft)
07.11.2019 07:27 -0,7 °C 94 % 1003,8 hPa 0,0 mm 0,0 km/h (0 Bft) S-SO 163 ° 0 min 0,000 mm 0,0 UV-I 9 W/m² -1,5 °C -0,7 °C 0,0 km/h (0 Bft)
07.11.2019 07:28 -0,7 °C 94 % 1003,8 hPa 0,0 mm 0,0 km/h (0 Bft) S-SO 163 ° 0 min 0,000 mm 0,0 UV-I 11 W/m² -1,5 °C -0,7 °C 0,0 km/h (0 Bft)
07.11.2019 07:29 -0,7 °C 94 % 1003,8 hPa 0,0 mm 0,0 km/h (0 Bft) S-SO 163 ° 0 min 0,000 mm 0,0 UV-I 11 W/m² -1,5 °C -0,7 °C 0,0 km/h (0 Bft)
07.11.2019 07:30 -0,7 °C 94 % 1003,8 hPa 0,0 mm 0,0 km/h (0 Bft) S-SO 163 ° 0 min 0,000 mm 0,0 UV-I 11 W/m² -1,5 °C -0,7 °C 0,0 km/h (0 Bft)
07.11.2019 07:31 -0,7 °C 94 % 1003,8 hPa 0,0 mm 0,1 km/h (0 Bft) S-SO 163 ° 0 min 0,000 mm 0,0 UV-I 11 W/m² -1,5 °C -0,7 °C 1,6 km/h (1 Bft)
07.11.2019 07:32 -0,7 °C 94 % 1003,8 hPa 0,0 mm 0,0 km/h (0 Bft) S-SO 163 ° 0 min 0,000 mm 0,0 UV-I 11 W/m² -1,5 °C -0,7 °C 0,0 km/h (0 Bft)
07.11.2019 07:33 -0,7 °C 94 % 1003,7 hPa 0,0 mm 0,0 km/h (0 Bft) S-SO 163 ° 0 min 0,000 mm 0,0 UV-I 11 W/m² -1,5 °C -0,7 °C 0,0 km/h (0 Bft)
07.11.2019 07:34 -0,7 °C 94 % 1003,8 hPa 0,0 mm 0,0 km/h (0 Bft) S-SO 163 ° 0 min 0,000 mm 0,0 UV-I 12 W/m² -1,5 °C -0,7 °C 0,0 km/h (0 Bft)
07.11.2019 07:35 -0,7 °C 94 % 1003,8 hPa 0,0 mm 0,0 km/h (0 Bft) S-SO 163 ° 0 min 0,000 mm 0,0 UV-I 12 W/m² -1,5 °C -0,7 °C 0,0 km/h (0 Bft)
07.11.2019 07:36 -0,7 °C 94 % 1003,9 hPa 0,0 mm 0,0 km/h (0 Bft) S-SO 163 ° 0 min 0,000 mm 0,0 UV-I 12 W/m² -1,5 °C -0,7 °C 0,0 km/h (0 Bft)
07.11.2019 07:37 -0,8 °C 94 % 1003,9 hPa 0,0 mm 0,0 km/h (0 Bft) S-SO 163 ° 0 min 0,000 mm 0,0 UV-I 12 W/m² -1,6 °C -0,8 °C 0,0 km/h (0 Bft)
07.11.2019 07:38 -0,8 °C 94 % 1003,9 hPa 0,0 mm 1,1 km/h (1 Bft) S-SO 163 ° 0 min 0,000 mm 0,0 UV-I 12 W/m² -1,6 °C -0,8 °C 3,2 km/h (1 Bft)
07.11.2019 07:39 -0,8 °C 94 % 1003,9 hPa 0,0 mm 0,3 km/h (0 Bft) S-SO 163 ° 0 min 0,000 mm 0,0 UV-I 12 W/m² -1,6 °C -0,8 °C 1,6 km/h (1 Bft)
07.11.2019 07:40 -0,8 °C 94 % 1003,9 hPa 0,0 mm 0,0 km/h (0 Bft) S-SO 163 ° 0 min 0,000 mm 0,0 UV-I 14 W/m² -1,6 °C -0,8 °C 0,0 km/h (0 Bft)
07.11.2019 07:41 -0,8 °C 94 % 1004,0 hPa 0,0 mm 0,0 km/h (0 Bft) S-SO 163 ° 0 min 0,000 mm 0,0 UV-I 14 W/m² -1,6 °C -0,8 °C 0,0 km/h (0 Bft)
07.11.2019 07:42 -0,8 °C 94 % 1004,0 hPa 0,0 mm 0,0 km/h (0 Bft) S-SO 163 ° 0 min 0,000 mm 0,0 UV-I 14 W/m² -1,6 °C -0,8 °C 0,0 km/h (0 Bft)
07.11.2019 07:43 -0,8 °C 94 % 1003,9 hPa 0,0 mm 0,0 km/h (0 Bft) S-SO 163 ° 0 min 0,000 mm 0,0 UV-I 14 W/m² -1,6 °C -0,8 °C 0,0 km/h (0 Bft)
07.11.2019 07:44 -0,8 °C 94 % 1003,9 hPa 0,0 mm 0,0 km/h (0 Bft) S-SO 163 ° 0 min 0,000 mm 0,0 UV-I 14 W/m² -1,6 °C -0,8 °C 0,0 km/h (0 Bft)
07.11.2019 07:45 -0,8 °C 94 % 1003,9 hPa 0,0 mm 0,0 km/h (0 Bft) S-SO 163 ° 0 min 0,000 mm 0,0 UV-I 14 W/m² -1,6 °C -0,8 °C 0,0 km/h (0 Bft)
07.11.2019 07:46 -0,8 °C 94 % 1003,9 hPa 0,0 mm 1,6 km/h (1 Bft) S-SO 163 ° 0 min 0,000 mm 0,0 UV-I 14 W/m² -1,6 °C -0,8 °C 3,2 km/h (1 Bft)
07.11.2019 07:47 -0,9 °C 94 % 1003,9 hPa 0,0 mm 0,1 km/h (0 Bft) S-SO 163 ° 0 min 0,000 mm 0,0 UV-I 14 W/m² -1,7 °C -0,9 °C 1,6 km/h (1 Bft)
07.11.2019 07:48 -0,9 °C 94 % 1003,9 hPa 0,0 mm 0,0 km/h (0 Bft) S-SO 163 ° 0 min 0,000 mm 0,0 UV-I 16 W/m² -1,7 °C -0,9 °C 0,0 km/h (0 Bft)
07.11.2019 07:49 -0,8 °C 94 % 1003,9 hPa 0,0 mm 0,0 km/h (0 Bft) S-SO 163 ° 0 min 0,000 mm 0,0 UV-I 16 W/m² -1,6 °C -0,8 °C 0,0 km/h (0 Bft)
07.11.2019 07:50 -0,8 °C 94 % 1003,9 hPa 0,0 mm 0,0 km/h (0 Bft) S-SO 163 ° 0 min 0,000 mm 0,0 UV-I 16 W/m² -1,6 °C -0,8 °C 0,0 km/h (0 Bft)
07.11.2019 07:51 -0,8 °C 94 % 1004,0 hPa 0,0 mm 1,8 km/h (1 Bft) S-SO 163 ° 0 min 0,000 mm 0,0 UV-I 16 W/m² -1,6 °C -0,8 °C 3,2 km/h (1 Bft)
07.11.2019 07:52 -0,8 °C 94 % 1004,0 hPa 0,0 mm 2,5 km/h (1 Bft) S-SO 163 ° 0 min 0,000 mm 0,0 UV-I 16 W/m² -1,6 °C -0,8 °C 3,2 km/h (1 Bft)
07.11.2019 07:53 -0,8 °C 94 % 1003,9 hPa 0,0 mm 1,5 km/h (1 Bft) S-SO 163 ° 0 min 0,000 mm 0,0 UV-I 16 W/m² -1,6 °C -0,8 °C 3,2 km/h (1 Bft)
07.11.2019 07:54 -0,9 °C 94 % 1003,9 hPa 0,0 mm 0,8 km/h (0 Bft) S-SO 163 ° 0 min 0,000 mm 0,0 UV-I 16 W/m² -1,7 °C -0,9 °C 3,2 km/h (1 Bft)
07.11.2019 07:55 -0,8 °C 94 % 1003,9 hPa 0,0 mm 0,3 km/h (0 Bft) S-SO 163 ° 0 min 0,000 mm 0,0 UV-I 16 W/m² -1,6 °C -0,8 °C 1,6 km/h (1 Bft)
07.11.2019 07:56 -0,8 °C 94 % 1003,9 hPa 0,0 mm 0,0 km/h (0 Bft) S-SO 163 ° 0 min 0,000 mm 0,0 UV-I 16 W/m² -1,6 °C -0,8 °C 0,0 km/h (0 Bft)
07.11.2019 07:57 -0,8 °C 94 % 1004,0 hPa 0,0 mm 0,0 km/h (0 Bft) S-SO 163 ° 0 min 0,000 mm 0,0 UV-I 16 W/m² -1,6 °C -0,8 °C 0,0 km/h (0 Bft)
07.11.2019 07:58 -0,8 °C 94 % 1004,0 hPa 0,0 mm 0,0 km/h (0 Bft) S-SO 163 ° 0 min 0,000 mm 0,0 UV-I 16 W/m² -1,6 °C -0,8 °C 0,0 km/h (0 Bft)
07.11.2019 07:59 -0,8 °C 94 % 1003,9 hPa 0,0 mm 0,0 km/h (0 Bft) S-SO 163 ° 0 min 0,000 mm 0,0 UV-I 16 W/m² -1,6 °C -0,8 °C 0,0 km/h (0 Bft)
07.11.2019 08:00 -0,8 °C 94 % 1003,9 hPa 0,0 mm 2,0 km/h (1 Bft) S-SO 163 ° 0 min 0,000 mm 0,0 UV-I 16 W/m² -1,6 °C -0,8 °C 3,2 km/h (1 Bft)
07.11.2019 08:01 -0,8 °C 94 % 1003,9 hPa 0,0 mm 2,7 km/h (1 Bft) S-SO 163 ° 0 min 0,000 mm 0,0 UV-I 16 W/m² -1,6 °C -0,8 °C 3,2 km/h (1 Bft)
07.11.2019 08:02 -0,8 °C 94 % 1003,8 hPa 0,0 mm 1,6 km/h (1 Bft) S-SO 163 ° 0 min 0,000 mm 0,0 UV-I 16 W/m² -1,6 °C -0,8 °C 3,2 km/h (1 Bft)
07.11.2019 08:03 -0,8 °C 94 % 1003,9 hPa 0,0 mm 1,7 km/h (1 Bft) S-SO 163 ° 0 min 0,000 mm 0,0 UV-I 18 W/m² -1,6 °C -0,8 °C 3,2 km/h (1 Bft)
07.11.2019 08:04 -0,9 °C 94 % 1003,8 hPa 0,0 mm 0,4 km/h (0 Bft) S-SO 163 ° 0 min 0,000 mm 0,0 UV-I 18 W/m² -1,7 °C -0,9 °C 1,6 km/h (1 Bft)
07.11.2019 08:05 -0,8 °C 94 % 1003,8 hPa 0,0 mm 0,0 km/h (0 Bft) S-SO 163 ° 0 min 0,000 mm 0,0 UV-I 18 W/m² -1,6 °C -0,8 °C 0,0 km/h (0 Bft)
07.11.2019 08:06 -0,9 °C 94 % 1003,8 hPa 0,0 mm 0,0 km/h (0 Bft) S-SO 163 ° 0 min 0,000 mm 0,0 UV-I 18 W/m² -1,7 °C -0,9 °C 0,0 km/h (0 Bft)
07.11.2019 08:07 -0,9 °C 94 % 1003,8 hPa 0,0 mm 0,0 km/h (0 Bft) S-SO 163 ° 0 min 0,000 mm 0,0 UV-I 18 W/m² -1,7 °C -0,9 °C 0,0 km/h (0 Bft)
07.11.2019 08:08 -0,9 °C 94 % 1003,9 hPa 0,0 mm 0,0 km/h (0 Bft) S-SO 163 ° 0 min 0,000 mm 0,0 UV-I 18 W/m² -1,7 °C -0,9 °C 0,0 km/h (0 Bft)
07.11.2019 08:09 -0,9 °C 94 % 1003,9 hPa 0,0 mm 0,0 km/h (0 Bft) S-SO 163 ° 0 min 0,000 mm 0,0 UV-I 18 W/m² -1,7 °C -0,9 °C 0,0 km/h (0 Bft)
07.11.2019 08:10 -1,0 °C 94 % 1003,8 hPa 0,0 mm 0,0 km/h (0 Bft) S-SO 163 ° 0 min 0,000 mm 0,0 UV-I 18 W/m² -1,8 °C -1,0 °C 0,0 km/h (0 Bft)
07.11.2019 08:11 -0,9 °C 94 % 1003,8 hPa 0,0 mm 0,0 km/h (0 Bft) S-SO 163 ° 0 min 0,000 mm 0,0 UV-I 18 W/m² -1,7 °C -0,9 °C 0,0 km/h (0 Bft)
07.11.2019 08:12 -1,0 °C 94 % 1003,9 hPa 0,0 mm 0,0 km/h (0 Bft) S-SO 163 ° 0 min 0,000 mm 0,0 UV-I 18 W/m² -1,8 °C -1,0 °C 0,0 km/h (0 Bft)
07.11.2019 08:13 -1,0 °C 94 % 1003,8 hPa 0,0 mm 0,0 km/h (0 Bft) S-SO 163 ° 0 min 0,000 mm 0,0 UV-I 18 W/m² -1,8 °C -1,0 °C 0,0 km/h (0 Bft)
07.11.2019 08:14 -1,0 °C 94 % 1003,8 hPa 0,0 mm 0,0 km/h (0 Bft) S-SO 163 ° 0 min 0,000 mm 0,0 UV-I 18 W/m² -1,8 °C -1,0 °C 0,0 km/h (0 Bft)
07.11.2019 08:15 -1,0 °C 94 % 1003,9 hPa 0,0 mm 0,0 km/h (0 Bft) S-SO 163 ° 0 min 0,000 mm 0,0 UV-I 18 W/m² -1,8 °C -1,0 °C 0,0 km/h (0 Bft)
07.11.2019 08:16 -1,0 °C 94 % 1003,9 hPa 0,0 mm 0,0 km/h (0 Bft) S-SO 163 ° 0 min 0,000 mm 0,0 UV-I 19 W/m² -1,8 °C -1,0 °C 0,0 km/h (0 Bft)
07.11.2019 08:17 -1,0 °C 94 % 1003,9 hPa 0,0 mm 0,0 km/h (0 Bft) S-SO 163 ° 0 min 0,000 mm 0,0 UV-I 19 W/m² -1,8 °C -1,0 °C 0,0 km/h (0 Bft)
07.11.2019 08:18 -1,0 °C 94 % 1003,9 hPa 0,0 mm 0,0 km/h (0 Bft) S-SO 163 ° 0 min 0,000 mm 0,0 UV-I 19 W/m² -1,8 °C -1,0 °C 0,0 km/h (0 Bft)
07.11.2019 08:19 -1,0 °C 94 % 1003,9 hPa 0,0 mm 0,4 km/h (0 Bft) S-SO 163 ° 0 min 0,000 mm 0,0 UV-I 19 W/m² -1,8 °C -1,0 °C 3,2 km/h (1 Bft)
07.11.2019 08:20 -1,1 °C 94 % 1003,9 hPa 0,0 mm 2,2 km/h (1 Bft) S-SO 161 ° 0 min 0,000 mm 0,0 UV-I 19 W/m² -1,9 °C -1,1 °C 3,2 km/h (1 Bft)
07.11.2019 08:21 -1,1 °C 94 % 1003,8 hPa 0,0 mm 2,1 km/h (1 Bft) S-SO 161 ° 0 min 0,000 mm 0,0 UV-I 19 W/m² -1,9 °C -1,1 °C 3,2 km/h (1 Bft)
07.11.2019 08:22 -1,1 °C 94 % 1003,8 hPa 0,0 mm 0,7 km/h (0 Bft) S-SO 161 ° 0 min 0,000 mm 0,0 UV-I 19 W/m² -1,9 °C -1,1 °C 1,6 km/h (1 Bft)
07.11.2019 08:23 -1,0 °C 94 % 1003,8 hPa 0,0 mm 0,0 km/h (0 Bft) S-SO 161 ° 0 min 0,000 mm 0,0 UV-I 19 W/m² -1,8 °C -1,0 °C 0,0 km/h (0 Bft)
07.11.2019 08:24 -1,0 °C 94 % 1003,8 hPa 0,0 mm 0,0 km/h (0 Bft) S-SO 161 ° 0 min 0,000 mm 0,0 UV-I 19 W/m² -1,8 °C -1,0 °C 0,0 km/h (0 Bft)
07.11.2019 08:25 -1,0 °C 94 % 1003,8 hPa 0,0 mm 0,0 km/h (0 Bft) S-SO 161 ° 0 min 0,000 mm 0,0 UV-I 19 W/m² -1,8 °C -1,0 °C 0,0 km/h (0 Bft)
07.11.2019 08:26 -1,0 °C 94 % 1003,8 hPa 0,0 mm 0,0 km/h (0 Bft) S-SO 161 ° 0 min 0,000 mm 0,0 UV-I 19 W/m² -1,8 °C -1,0 °C 0,0 km/h (0 Bft)
07.11.2019 08:27 -1,0 °C 94 % 1003,8 hPa 0,0 mm 0,0 km/h (0 Bft) S-SO 161 ° 0 min 0,000 mm 0,0 UV-I 19 W/m² -1,8 °C -1,0 °C 0,0 km/h (0 Bft)
07.11.2019 08:28 -1,1 °C 94 % 1003,8 hPa 0,0 mm 0,0 km/h (0 Bft) S-SO 161 ° 0 min 0,000 mm 0,0 UV-I 19 W/m² -1,9 °C -1,1 °C 0,0 km/h (0 Bft)
07.11.2019 08:29 -1,0 °C 94 % 1003,7 hPa 0,0 mm 0,0 km/h (0 Bft) S-SO 161 ° 0 min 0,000 mm 0,0 UV-I 19 W/m² -1,8 °C -1,0 °C 0,0 km/h (0 Bft)
07.11.2019 08:30 -1,0 °C 94 % 1003,8 hPa 0,0 mm 0,0 km/h (0 Bft) S-SO 161 ° 0 min 0,000 mm 0,0 UV-I 19 W/m² -1,8 °C -1,0 °C 0,0 km/h (0 Bft)
07.11.2019 08:31 -1,1 °C 94 % 1003,7 hPa 0,0 mm 0,0 km/h (0 Bft) S-SO 161 ° 0 min 0,000 mm 0,0 UV-I 19 W/m² -1,9 °C -1,1 °C 0,0 km/h (0 Bft)
07.11.2019 08:32 -1,1 °C 94 % 1003,7 hPa 0,0 mm 0,0 km/h (0 Bft) S-SO 161 ° 0 min 0,000 mm 0,0 UV-I 21 W/m² -1,9 °C -1,1 °C 0,0 km/h (0 Bft)
07.11.2019 08:33 -1,0 °C 94 % 1003,7 hPa 0,0 mm 0,0 km/h (0 Bft) S-SO 161 ° 0 min 0,000 mm 0,0 UV-I 21 W/m² -1,8 °C -1,0 °C 0,0 km/h (0 Bft)
07.11.2019 08:34 -1,0 °C 94 % 1003,7 hPa 0,0 mm 0,0 km/h (0 Bft) S-SO 161 ° 0 min 0,000 mm 0,0 UV-I 21 W/m² -1,8 °C -1,0 °C 0,0 km/h (0 Bft)
07.11.2019 08:35 -0,9 °C 94 % 1003,7 hPa 0,0 mm 0,0 km/h (0 Bft) S-SO 161 ° 0 min 0,000 mm 0,0 UV-I 21 W/m² -1,7 °C -0,9 °C 0,0 km/h (0 Bft)
07.11.2019 08:36 -1,0 °C 94 % 1003,7 hPa 0,0 mm 0,0 km/h (0 Bft) S-SO 161 ° 0 min 0,000 mm 0,0 UV-I 21 W/m² -1,8 °C -1,0 °C 0,0 km/h (0 Bft)
07.11.2019 08:37 -0,9 °C 94 % 1003,7 hPa 0,0 mm 0,0 km/h (0 Bft) S-SO 161 ° 0 min 0,000 mm 0,0 UV-I 21 W/m² -1,7 °C -0,9 °C 0,0 km/h (0 Bft)
07.11.2019 08:38 -0,9 °C 94 % 1003,6 hPa 0,0 mm 0,0 km/h (0 Bft) S-SO 161 ° 0 min 0,000 mm 0,0 UV-I 21 W/m² -1,7 °C -0,9 °C 0,0 km/h (0 Bft)
07.11.2019 08:39 -0,9 °C 94 % 1003,6 hPa 0,0 mm 0,0 km/h (0 Bft) S-SO 161 ° 0 min 0,000 mm 0,0 UV-I 21 W/m² -1,7 °C -0,9 °C 0,0 km/h (0 Bft)
07.11.2019 08:40 -1,0 °C 94 % 1003,6 hPa 0,0 mm 0,0 km/h (0 Bft) S-SO 161 ° 0 min 0,000 mm 0,0 UV-I 21 W/m² -1,8 °C -1,0 °C 0,0 km/h (0 Bft)
07.11.2019 08:41 -0,9 °C 94 % 1003,7 hPa 0,0 mm 0,0 km/h (0 Bft) S-SO 161 ° 0 min 0,000 mm 0,0 UV-I 21 W/m² -1,7 °C -0,9 °C 0,0 km/h (0 Bft)
07.11.2019 08:42 -0,9 °C 94 % 1003,5 hPa 0,0 mm 0,0 km/h (0 Bft) S-SO 161 ° 0 min 0,000 mm 0,0 UV-I 21 W/m² -1,7 °C -0,9 °C 0,0 km/h (0 Bft)
07.11.2019 08:43 -0,9 °C 94 % 1003,5 hPa 0,0 mm 0,0 km/h (0 Bft) S-SO 161 ° 0 min 0,000 mm 0,0 UV-I 21 W/m² -1,7 °C -0,9 °C 0,0 km/h (0 Bft)
07.11.2019 08:44 -0,9 °C 94 % 1003,5 hPa 0,0 mm 0,0 km/h (0 Bft) S-SO 161 ° 0 min 0,000 mm 0,0 UV-I 21 W/m² -1,7 °C -0,9 °C 0,0 km/h (0 Bft)
07.11.2019 08:45 -0,9 °C 94 % 1003,4 hPa 0,0 mm 0,0 km/h (0 Bft) S-SO 161 ° 0 min 0,000 mm 0,0 UV-I 21 W/m² -1,7 °C -0,9 °C 0,0 km/h (0 Bft)
07.11.2019 08:46 -0,8 °C 94 % 1003,4 hPa 0,0 mm 0,0 km/h (0 Bft) S-SO 161 ° 0 min 0,000 mm 0,0 UV-I 21 W/m² -1,6 °C -0,8 °C 0,0 km/h (0 Bft)
07.11.2019 08:47 -0,8 °C 94 % 1003,4 hPa 0,0 mm 0,0 km/h (0 Bft) S-SO 161 ° 0 min 0,000 mm 0,0 UV-I 21 W/m² -1,6 °C -0,8 °C 0,0 km/h (0 Bft)
07.11.2019 08:48 -0,7 °C 94 % 1003,4 hPa 0,0 mm 0,0 km/h (0 Bft) S-SO 161 ° 0 min 0,000 mm 0,0 UV-I 23 W/m² -1,5 °C -0,7 °C 0,0 km/h (0 Bft)
07.11.2019 08:49 -0,7 °C 94 % 1003,3 hPa 0,0 mm 0,0 km/h (0 Bft) S-SO 161 ° 0 min 0,000 mm 0,0 UV-I 23 W/m² -1,5 °C -0,7 °C 0,0 km/h (0 Bft)
07.11.2019 08:50 -0,7 °C 94 % 1003,4 hPa 0,0 mm 0,0 km/h (0 Bft) S-SO 161 ° 0 min 0,000 mm 0,0 UV-I 21 W/m² -1,5 °C -0,7 °C 0,0 km/h (0 Bft)
07.11.2019 08:51 -0,6 °C 94 % 1003,4 hPa 0,0 mm 0,0 km/h (0 Bft) S-SO 161 ° 0 min 0,000 mm 0,0 UV-I 23 W/m² -1,4 °C -0,6 °C 0,0 km/h (0 Bft)
07.11.2019 08:52 -0,6 °C 94 % 1003,4 hPa 0,0 mm 0,0 km/h (0 Bft) S-SO 161 ° 0 min 0,000 mm 0,0 UV-I 23 W/m² -1,4 °C -0,6 °C 0,0 km/h (0 Bft)
07.11.2019 08:53 -0,6 °C 94 % 1003,4 hPa 0,0 mm 0,0 km/h (0 Bft) S-SO 161 ° 0 min 0,000 mm 0,0 UV-I 23 W/m² -1,4 °C -0,6 °C 0,0 km/h (0 Bft)
07.11.2019 08:54 -0,6 °C 94 % 1003,4 hPa 0,0 mm 0,0 km/h (0 Bft) S-SO 161 ° 0 min 0,000 mm 0,0 UV-I 23 W/m² -1,4 °C -0,6 °C 0,0 km/h (0 Bft)
07.11.2019 08:55 -0,6 °C 94 % 1003,4 hPa 0,0 mm 0,0 km/h (0 Bft) S-SO 161 ° 0 min 0,000 mm 0,0 UV-I 23 W/m² -1,4 °C -0,6 °C 0,0 km/h (0 Bft)
07.11.2019 08:56 -0,5 °C 94 % 1003,4 hPa 0,0 mm 0,0 km/h (0 Bft) S-SO 161 ° 0 min 0,000 mm 0,0 UV-I 23 W/m² -1,3 °C -0,5 °C 0,0 km/h (0 Bft)
07.11.2019 08:57 -0,5 °C 94 % 1003,4 hPa 0,0 mm 0,0 km/h (0 Bft) S-SO 161 ° 0 min 0,000 mm 0,0 UV-I 23 W/m² -1,3 °C -0,5 °C 0,0 km/h (0 Bft)
07.11.2019 08:58 -0,5 °C 94 % 1003,4 hPa 0,0 mm 0,0 km/h (0 Bft) S-SO 161 ° 0 min 0,000 mm 0,0 UV-I 25 W/m² -1,3 °C -0,5 °C 0,0 km/h (0 Bft)
07.11.2019 08:59 -0,5 °C 94 % 1003,4 hPa 0,0 mm 0,0 km/h (0 Bft) S-SO 161 ° 0 min 0,000 mm 0,0 UV-I 25 W/m² -1,3 °C -0,5 °C 0,0 km/h (0 Bft)
07.11.2019 09:00 -0,4 °C 94 % 1003,4 hPa 0,0 mm 0,0 km/h (0 Bft) S-SO 161 ° 0 min 0,000 mm 0,0 UV-I 23 W/m² -1,2 °C -0,4 °C 0,0 km/h (0 Bft)
07.11.2019 09:01 -0,4 °C 94 % 1003,4 hPa 0,0 mm 0,0 km/h (0 Bft) S-SO 161 ° 0 min 0,000 mm 0,0 UV-I 23 W/m² -1,2 °C -0,4 °C 0,0 km/h (0 Bft)
07.11.2019 09:02 -0,4 °C 94 % 1003,4 hPa 0,0 mm 0,0 km/h (0 Bft) S-SO 161 ° 0 min 0,000 mm 0,0 UV-I 23 W/m² -1,2 °C -0,4 °C 0,0 km/h (0 Bft)
07.11.2019 09:03 -0,4 °C 94 % 1003,4 hPa 0,0 mm 0,0 km/h (0 Bft) S-SO 161 ° 0 min 0,000 mm 0,0 UV-I 23 W/m² -1,2 °C -0,4 °C 0,0 km/h (0 Bft)
07.11.2019 09:04 -0,4 °C 94 % 1003,4 hPa 0,0 mm 0,0 km/h (0 Bft) S-SO 161 ° 0 min 0,000 mm 0,0 UV-I 23 W/m² -1,2 °C -0,4 °C 0,0 km/h (0 Bft)
07.11.2019 09:05 -0,4 °C 94 % 1003,3 hPa 0,0 mm 0,0 km/h (0 Bft) S-SO 161 ° 0 min 0,000 mm 0,0 UV-I 23 W/m² -1,2 °C -0,4 °C 0,0 km/h (0 Bft)
07.11.2019 09:06 -0,3 °C 95 % 1003,3 hPa 0,0 mm 0,0 km/h (0 Bft) S-SO 161 ° 0 min 0,000 mm 0,0 UV-I 23 W/m² -1,0 °C -0,3 °C 0,0 km/h (0 Bft)
07.11.2019 09:07 -0,3 °C 95 % 1003,3 hPa 0,0 mm 0,0 km/h (0 Bft) S-SO 161 ° 0 min 0,000 mm 0,0 UV-I 23 W/m² -1,0 °C -0,3 °C 0,0 km/h (0 Bft)
07.11.2019 09:08 -0,3 °C 95 % 1003,3 hPa 0,0 mm 0,0 km/h (0 Bft) S-SO 161 ° 0 min 0,000 mm 0,0 UV-I 23 W/m² -1,0 °C -0,3 °C 0,0 km/h (0 Bft)
07.11.2019 09:09 -0,2 °C 94 % 1003,2 hPa 0,0 mm 0,0 km/h (0 Bft) S-SO 161 ° 0 min 0,000 mm 0,0 UV-I 23 W/m² -1,0 °C -0,2 °C 0,0 km/h (0 Bft)
07.11.2019 09:10 -0,2 °C 94 % 1003,3 hPa 0,0 mm 0,0 km/h (0 Bft) S-SO 161 ° 0 min 0,000 mm 0,0 UV-I 23 W/m² -1,0 °C -0,2 °C 0,0 km/h (0 Bft)
07.11.2019 09:11 -0,1 °C 95 % 1003,2 hPa 0,0 mm 0,0 km/h (0 Bft) S-SO 161 ° 0 min 0,000 mm 0,0 UV-I 25 W/m² -0,8 °C -0,1 °C 0,0 km/h (0 Bft)
07.11.2019 09:12 -0,1 °C 95 % 1003,2 hPa 0,0 mm 0,0 km/h (0 Bft) S-SO 161 ° 0 min 0,000 mm 0,0 UV-I 25 W/m² -0,8 °C -0,1 °C 0,0 km/h (0 Bft)
07.11.2019 09:13 0,1 °C 95 % 1003,3 hPa 0,0 mm 0,0 km/h (0 Bft) S-SO 161 ° 0 min 0,000 mm 0,0 UV-I 25 W/m² -0,6 °C 0,1 °C 0,0 km/h (0 Bft)
07.11.2019 09:14 0,1 °C 95 % 1003,2 hPa 0,0 mm 0,0 km/h (0 Bft) S-SO 161 ° 0 min 0,000 mm 0,0 UV-I 25 W/m² -0,6 °C 0,1 °C 0,0 km/h (0 Bft)
07.11.2019 09:15 0,1 °C 95 % 1003,2 hPa 0,0 mm 0,0 km/h (0 Bft) S-SO 161 ° 0 min 0,000 mm 0,0 UV-I 25 W/m² -0,6 °C 0,1 °C 0,0 km/h (0 Bft)
07.11.2019 09:16 0,1 °C 95 % 1003,2 hPa 0,0 mm 0,0 km/h (0 Bft) S-SO 161 ° 0 min 0,000 mm 0,0 UV-I 25 W/m² -0,6 °C 0,1 °C 0,0 km/h (0 Bft)
07.11.2019 09:17 0,2 °C 95 % 1003,2 hPa 0,0 mm 0,0 km/h (0 Bft) S-SO 161 ° 0 min 0,000 mm 0,0 UV-I 25 W/m² -0,5 °C 0,2 °C 0,0 km/h (0 Bft)
07.11.2019 09:18 0,2 °C 95 % 1003,2 hPa 0,0 mm 0,0 km/h (0 Bft) S-SO 161 ° 0 min 0,000 mm 0,0 UV-I 25 W/m² -0,5 °C 0,2 °C 0,0 km/h (0 Bft)
07.11.2019 09:19 0,2 °C 95 % 1003,2 hPa 0,0 mm 0,0 km/h (0 Bft) S-SO 161 ° 0 min 0,000 mm 0,0 UV-I 25 W/m² -0,5 °C 0,2 °C 0,0 km/h (0 Bft)
07.11.2019 09:20 0,2 °C 94 % 1003,2 hPa 0,0 mm 0,0 km/h (0 Bft) S-SO 161 ° 0 min 0,000 mm 0,0 UV-I 25 W/m² -0,6 °C 0,2 °C 0,0 km/h (0 Bft)
07.11.2019 09:21 0,2 °C 94 % 1003,2 hPa 0,0 mm 0,0 km/h (0 Bft) S-SO 161 ° 0 min 0,000 mm 0,0 UV-I 25 W/m² -0,6 °C 0,2 °C 0,0 km/h (0 Bft)
07.11.2019 09:22 0,3 °C 94 % 1003,1 hPa 0,0 mm 0,0 km/h (0 Bft) S-SO 161 ° 0 min 0,000 mm 0,0 UV-I 25 W/m² -0,5 °C 0,3 °C 0,0 km/h (0 Bft)
07.11.2019 09:23 0,3 °C 95 % 1003,1 hPa 0,0 mm 0,0 km/h (0 Bft) S-SO 161 ° 0 min 0,000 mm 0,0 UV-I 25 W/m² -0,4 °C 0,3 °C 0,0 km/h (0 Bft)
07.11.2019 09:24 0,3 °C 95 % 1003,1 hPa 0,0 mm 0,0 km/h (0 Bft) S-SO 161 ° 0 min 0,000 mm 0,0 UV-I 25 W/m² -0,4 °C 0,3 °C 0,0 km/h (0 Bft)
07.11.2019 09:25 0,3 °C 95 % 1003,1 hPa 0,0 mm 0,0 km/h (0 Bft) S-SO 161 ° 0 min 0,000 mm 0,0 UV-I 25 W/m² -0,4 °C 0,3 °C 0,0 km/h (0 Bft)
07.11.2019 09:26 0,3 °C 95 % 1003,1 hPa 0,0 mm 0,0 km/h (0 Bft) S-SO 161 ° 0 min 0,000 mm 0,0 UV-I 25 W/m² -0,4 °C 0,3 °C 0,0 km/h (0 Bft)
07.11.2019 09:27 0,4 °C 95 % 1003,1 hPa 0,0 mm 0,0 km/h (0 Bft) S-SO 161 ° 0 min 0,000 mm 0,0 UV-I 25 W/m² -0,3 °C 0,4 °C 0,0 km/h (0 Bft)
07.11.2019 09:28 0,4 °C 95 % 1003,1 hPa 0,0 mm 0,0 km/h (0 Bft) S-SO 161 ° 0 min 0,000 mm 0,0 UV-I 25 W/m² -0,3 °C 0,4 °C 0,0 km/h (0 Bft)
07.11.2019 09:29 0,4 °C 95 % 1003,1 hPa 0,0 mm 0,0 km/h (0 Bft) S-SO 161 ° 0 min 0,000 mm 0,0 UV-I 25 W/m² -0,3 °C 0,4 °C 0,0 km/h (0 Bft)
07.11.2019 09:30 0,5 °C 95 % 1003,1 hPa 0,0 mm 0,0 km/h (0 Bft) S-SO 161 ° 0 min 0,000 mm 0,0 UV-I 25 W/m² -0,2 °C 0,5 °C 0,0 km/h (0 Bft)
07.11.2019 09:31 0,6 °C 95 % 1003,1 hPa 0,0 mm 0,0 km/h (0 Bft) S-SO 161 ° 0 min 0,000 mm 0,0 UV-I 25 W/m² -0,1 °C 0,6 °C 0,0 km/h (0 Bft)
07.11.2019 09:32 0,6 °C 95 % 1003,1 hPa 0,0 mm 0,0 km/h (0 Bft) S-SO 161 ° 0 min 0,000 mm 0,0 UV-I 25 W/m² -0,1 °C 0,6 °C 0,0 km/h (0 Bft)
07.11.2019 09:33 0,6 °C 95 % 1003,0 hPa 0,0 mm 0,0 km/h (0 Bft) S-SO 161 ° 0 min 0,000 mm 0,0 UV-I 25 W/m² -0,1 °C 0,6 °C 0,0 km/h (0 Bft)
07.11.2019 09:34 0,6 °C 95 % 1003,0 hPa 0,0 mm 0,0 km/h (0 Bft) S-SO 161 ° 0 min 0,000 mm 0,0 UV-I 25 W/m² -0,1 °C 0,6 °C 0,0 km/h (0 Bft)
07.11.2019 09:35 0,7 °C 95 % 1002,9 hPa 0,0 mm 0,0 km/h (0 Bft) S-SO 161 ° 0 min 0,000 mm 0,0 UV-I 26 W/m² -0,0 °C 0,7 °C 0,0 km/h (0 Bft)
07.11.2019 09:36 0,7 °C 95 % 1002,9 hPa 0,0 mm 0,0 km/h (0 Bft) S-SO 161 ° 0 min 0,000 mm 0,0 UV-I 26 W/m² -0,0 °C 0,7 °C 0,0 km/h (0 Bft)
07.11.2019 09:37 0,7 °C 95 % 1002,9 hPa 0,0 mm 0,0 km/h (0 Bft) S-SO 161 ° 0 min 0,000 mm 0,0 UV-I 28 W/m² -0,0 °C 0,7 °C 0,0 km/h (0 Bft)
07.11.2019 09:38 0,8 °C 95 % 1002,9 hPa 0,0 mm 0,0 km/h (0 Bft) S-SO 161 ° 0 min 0,000 mm 0,0 UV-I 28 W/m² 0,1 °C 0,8 °C 0,0 km/h (0 Bft)
07.11.2019 09:39 0,8 °C 95 % 1002,9 hPa 0,0 mm 0,0 km/h (0 Bft) S-SO 161 ° 0 min 0,000 mm 0,0 UV-I 26 W/m² 0,1 °C 0,8 °C 0,0 km/h (0 Bft)
07.11.2019 09:40 0,9 °C 95 % 1002,9 hPa 0,0 mm 0,0 km/h (0 Bft) S-SO 161 ° 0 min 0,000 mm 0,0 UV-I 26 W/m² 0,2 °C 0,9 °C 0,0 km/h (0 Bft)
07.11.2019 09:41 0,9 °C 95 % 1002,9 hPa 0,0 mm 0,0 km/h (0 Bft) S-SO 161 ° 0 min 0,000 mm 0,0 UV-I 26 W/m² 0,2 °C 0,9 °C 0,0 km/h (0 Bft)
07.11.2019 09:42 0,9 °C 95 % 1002,9 hPa 0,0 mm 0,0 km/h (0 Bft) S-SO 161 ° 0 min 0,000 mm 0,0 UV-I 26 W/m² 0,2 °C 0,9 °C 0,0 km/h (0 Bft)
07.11.2019 09:43 1,0 °C 95 % 1002,8 hPa 0,0 mm 0,0 km/h (0 Bft) S-SO 161 ° 0 min 0,000 mm 0,0 UV-I 26 W/m² 0,3 °C 1,0 °C 0,0 km/h (0 Bft)
07.11.2019 09:44 1,0 °C 95 % 1002,8 hPa 0,0 mm 0,0 km/h (0 Bft) S-SO 161 ° 0 min 0,000 mm 0,0 UV-I 26 W/m² 0,3 °C 1,0 °C 0,0 km/h (0 Bft)
07.11.2019 09:45 1,1 °C 95 % 1002,8 hPa 0,0 mm 0,0 km/h (0 Bft) S-SO 161 ° 0 min 0,000 mm 0,0 UV-I 26 W/m² 0,4 °C 1,1 °C 0,0 km/h (0 Bft)
07.11.2019 09:46 1,1 °C 95 % 1002,8 hPa 0,0 mm 0,0 km/h (0 Bft) S-SO 161 ° 0 min 0,000 mm 0,0 UV-I 26 W/m² 0,4 °C 1,1 °C 0,0 km/h (0 Bft)
07.11.2019 09:47 1,1 °C 95 % 1002,8 hPa 0,0 mm 0,0 km/h (0 Bft) S-SO 161 ° 0 min 0,000 mm 0,0 UV-I 26 W/m² 0,4 °C 1,1 °C 0,0 km/h (0 Bft)
07.11.2019 09:48 1,1 °C 95 % 1002,8 hPa 0,0 mm 0,0 km/h (0 Bft) S-SO 161 ° 0 min 0,000 mm 0,0 UV-I 28 W/m² 0,4 °C 1,1 °C 0,0 km/h (0 Bft)
07.11.2019 09:49 1,1 °C 95 % 1002,8 hPa 0,0 mm 0,0 km/h (0 Bft) S-SO 161 ° 0 min 0,000 mm 0,0 UV-I 28 W/m² 0,4 °C 1,1 °C 0,0 km/h (0 Bft)
07.11.2019 09:50 1,2 °C 95 % 1002,7 hPa 0,0 mm 0,0 km/h (0 Bft) S-SO 161 ° 0 min 0,000 mm 0,0 UV-I 28 W/m² 0,5 °C 1,2 °C 0,0 km/h (0 Bft)
07.11.2019 09:51 1,2 °C 95 % 1002,7 hPa 0,0 mm 0,0 km/h (0 Bft) S-SO 161 ° 0 min 0,000 mm 0,0 UV-I 28 W/m² 0,5 °C 1,2 °C 0,0 km/h (0 Bft)
07.11.2019 09:52 1,3 °C 95 % 1002,8 hPa 0,0 mm 0,0 km/h (0 Bft) S-SO 161 ° 0 min 0,000 mm 0,0 UV-I 26 W/m² 0,6 °C 1,3 °C 0,0 km/h (0 Bft)
07.11.2019 09:53 1,3 °C 95 % 1002,8 hPa 0,0 mm 0,0 km/h (0 Bft) S-SO 161 ° 0 min 0,000 mm 0,0 UV-I 26 W/m² 0,6 °C 1,3 °C 0,0 km/h (0 Bft)
07.11.2019 09:54 1,3 °C 95 % 1002,8 hPa 0,0 mm 0,0 km/h (0 Bft) S-SO 161 ° 0 min 0,000 mm 0,0 UV-I 26 W/m² 0,6 °C 1,3 °C 0,0 km/h (0 Bft)
07.11.2019 09:55 1,3 °C 95 % 1002,7 hPa 0,0 mm 0,0 km/h (0 Bft) S-SO 161 ° 0 min 0,000 mm 0,0 UV-I 26 W/m² 0,6 °C 1,3 °C 0,0 km/h (0 Bft)
07.11.2019 09:56 1,4 °C 95 % 1002,7 hPa 0,0 mm 0,0 km/h (0 Bft) S-SO 161 ° 0 min 0,000 mm 0,0 UV-I 26 W/m² 0,7 °C 1,4 °C 0,0 km/h (0 Bft)
07.11.2019 09:57 1,4 °C 95 % 1002,6 hPa 0,0 mm 0,0 km/h (0 Bft) S-SO 161 ° 0 min 0,000 mm 0,0 UV-I 26 W/m² 0,7 °C 1,4 °C 0,0 km/h (0 Bft)
07.11.2019 09:58 1,4 °C 95 % 1002,6 hPa 0,0 mm 0,5 km/h (0 Bft) O-SO 103 ° 0 min 0,000 mm 0,0 UV-I 26 W/m² 0,7 °C 1,4 °C 4,8 km/h (1 Bft)
07.11.2019 09:59 1,4 °C 95 % 1002,6 hPa 0,0 mm 3,2 km/h (1 Bft) O-SO 107 ° 0 min 0,000 mm 0,0 UV-I 26 W/m² 0,7 °C 1,4 °C 6,4 km/h (2 Bft)
07.11.2019 10:00 1,5 °C 95 % 1002,5 hPa 0,0 mm 0,5 km/h (0 Bft) O-SO 107 ° 0 min 0,000 mm 0,0 UV-I 26 W/m² 0,8 °C 1,5 °C 1,6 km/h (1 Bft)
07.11.2019 10:01 1,5 °C 95 % 1002,5 hPa 0,0 mm 0,0 km/h (0 Bft) O-SO 107 ° 0 min 0,000 mm 0,0 UV-I 26 W/m² 0,8 °C 1,5 °C 0,0 km/h (0 Bft)
07.11.2019 10:02 1,6 °C 95 % 1002,5 hPa 0,0 mm 0,0 km/h (0 Bft) O-SO 107 ° 0 min 0,000 mm 0,0 UV-I 26 W/m² 0,9 °C 1,6 °C 0,0 km/h (0 Bft)
07.11.2019 10:03 1,6 °C 95 % 1002,5 hPa 0,0 mm 0,1 km/h (0 Bft) O-SO 107 ° 0 min 0,000 mm 0,0 UV-I 26 W/m² 0,9 °C 1,6 °C 1,6 km/h (1 Bft)
07.11.2019 10:04 1,6 °C 95 % 1002,4 hPa 0,0 mm 0,9 km/h (0 Bft) O-SO 105 ° 0 min 0,000 mm 0,0 UV-I 26 W/m² 0,9 °C 1,6 °C 3,2 km/h (1 Bft)
07.11.2019 10:05 1,7 °C 95 % 1002,4 hPa 0,0 mm 1,3 km/h (1 Bft) O-SO 105 ° 0 min 0,000 mm 0,0 UV-I 26 W/m² 1,0 °C 1,7 °C 3,2 km/h (1 Bft)
07.11.2019 10:06 1,7 °C 95 % 1002,5 hPa 0,0 mm 0,7 km/h (0 Bft) O-SO 104 ° 0 min 0,000 mm 0,0 UV-I 26 W/m² 1,0 °C 1,7 °C 3,2 km/h (1 Bft)
07.11.2019 10:07 1,7 °C 95 % 1002,4 hPa 0,0 mm 0,9 km/h (0 Bft) O-NO 65 ° 0 min 0,000 mm 0,0 UV-I 26 W/m² 1,0 °C 1,7 °C 6,4 km/h (2 Bft)
07.11.2019 10:08 1,7 °C 95 % 1002,4 hPa 0,0 mm 3,6 km/h (1 Bft) O-NO 63 ° 0 min 0,000 mm 0,0 UV-I 26 W/m² 1,0 °C 1,7 °C 6,4 km/h (2 Bft)
07.11.2019 10:09 1,8 °C 95 % 1002,3 hPa 0,0 mm 2,3 km/h (1 Bft) O-NO 71 ° 0 min 0,000 mm 0,0 UV-I 26 W/m² 1,1 °C 1,8 °C 4,8 km/h (1 Bft)
07.11.2019 10:10 1,8 °C 95 % 1002,4 hPa 0,0 mm 4,2 km/h (1 Bft) O 84 ° 0 min 0,000 mm 0,0 UV-I 26 W/m² 1,1 °C 1,8 °C 4,8 km/h (1 Bft)
07.11.2019 10:11 1,8 °C 95 % 1002,4 hPa 0,0 mm 2,8 km/h (1 Bft) O 84 ° 0 min 0,000 mm 0,0 UV-I 26 W/m² 1,1 °C 1,8 °C 4,8 km/h (1 Bft)
07.11.2019 10:12 1,8 °C 95 % 1002,4 hPa 0,0 mm 5,0 km/h (1 Bft) O-NO 78 ° 0 min 0,000 mm 0,0 UV-I 26 W/m² 1,1 °C 0,5 °C 8,0 km/h (2 Bft)
07.11.2019 10:13 1,8 °C 95 % 1002,4 hPa 0,0 mm 4,7 km/h (1 Bft) NO 56 ° 0 min 0,000 mm 0,0 UV-I 28 W/m² 1,1 °C 0,6 °C 8,0 km/h (2 Bft)
07.11.2019 10:14 1,9 °C 95 % 1002,3 hPa 0,0 mm 6,3 km/h (2 Bft) NO 53 ° 0 min 0,000 mm 0,0 UV-I 28 W/m² 1,2 °C 0,0 °C 9,7 km/h (2 Bft)
07.11.2019 10:15 1,9 °C 95 % 1002,3 hPa 0,0 mm 5,1 km/h (1 Bft) NO 53 ° 0 min 0,000 mm 0,0 UV-I 26 W/m² 1,2 °C 0,5 °C 6,4 km/h (2 Bft)
07.11.2019 10:16 1,9 °C 95 % 1002,4 hPa 0,0 mm 4,0 km/h (1 Bft) NO 53 ° 0 min 0,000 mm 0,0 UV-I 28 W/m² 1,2 °C 1,9 °C 4,8 km/h (1 Bft)
07.11.2019 10:17 1,9 °C 95 % 1002,4 hPa 0,0 mm 5,3 km/h (1 Bft) NO 37 ° 0 min 0,000 mm 0,0 UV-I 28 W/m² 1,2 °C 0,4 °C 8,0 km/h (2 Bft)
07.11.2019 10:18 2,0 °C 95 % 1002,4 hPa 0,0 mm 5,8 km/h (2 Bft) O-NO 64 ° 0 min 0,000 mm 0,0 UV-I 28 W/m² 1,3 °C 0,4 °C 9,7 km/h (2 Bft)
07.11.2019 10:19 2,0 °C 95 % 1002,4 hPa 0,0 mm 4,3 km/h (1 Bft) NO 53 ° 0 min 0,000 mm 0,0 UV-I 28 W/m² 1,3 °C 2,0 °C 6,4 km/h (2 Bft)
07.11.2019 10:20 2,1 °C 95 % 1002,4 hPa 0,0 mm 4,7 km/h (1 Bft) O-NO 72 ° 0 min 0,000 mm 0,0 UV-I 28 W/m² 1,4 °C 0,9 °C 6,4 km/h (2 Bft)
07.11.2019 10:21 2,1 °C 95 % 1002,4 hPa 0,0 mm 3,2 km/h (1 Bft) O-NO 72 ° 0 min 0,000 mm 0,0 UV-I 28 W/m² 1,4 °C 2,1 °C 4,8 km/h (1 Bft)
07.11.2019 10:22 2,1 °C 95 % 1002,4 hPa 0,0 mm 4,7 km/h (1 Bft) O-NO 67 ° 0 min 0,000 mm 0,0 UV-I 28 W/m² 1,4 °C 0,9 °C 6,4 km/h (2 Bft)
07.11.2019 10:23 2,2 °C 95 % 1002,3 hPa 0,0 mm 4,0 km/h (1 Bft) O-NO 67 ° 0 min 0,000 mm 0,0 UV-I 30 W/m² 1,5 °C 2,2 °C 6,4 km/h (2 Bft)
07.11.2019 10:24 2,2 °C 95 % 1002,3 hPa 0,0 mm 4,1 km/h (1 Bft) O-NO 77 ° 0 min 0,000 mm 0,0 UV-I 30 W/m² 1,5 °C 2,2 °C 6,4 km/h (2 Bft)
07.11.2019 10:25 2,2 °C 95 % 1002,3 hPa 0,0 mm 6,0 km/h (2 Bft) NO 48 ° 0 min 0,000 mm 0,0 UV-I 30 W/m² 1,5 °C 0,5 °C 9,7 km/h (2 Bft)
07.11.2019 10:26 2,2 °C 95 % 1002,3 hPa 0,0 mm 4,9 km/h (1 Bft) O-NO 66 ° 0 min 0,000 mm 0,0 UV-I 30 W/m² 1,5 °C 1,0 °C 8,0 km/h (2 Bft)
07.11.2019 10:27 2,2 °C 95 % 1002,3 hPa 0,0 mm 5,0 km/h (1 Bft) O 83 ° 0 min 0,000 mm 0,0 UV-I 32 W/m² 1,5 °C 0,9 °C 8,0 km/h (2 Bft)
07.11.2019 10:28 2,3 °C 95 % 1002,3 hPa 0,0 mm 7,0 km/h (2 Bft) O-NO 78 ° 0 min 0,000 mm 0,0 UV-I 32 W/m² 1,6 °C 0,3 °C 9,7 km/h (2 Bft)
07.11.2019 10:29 2,3 °C 95 % 1002,3 hPa 0,0 mm 3,4 km/h (1 Bft) NO 49 ° 0 min 0,000 mm 0,0 UV-I 33 W/m² 1,6 °C 2,3 °C 8,0 km/h (2 Bft)
07.11.2019 10:30 2,3 °C 95 % 1002,3 hPa 0,0 mm 6,2 km/h (2 Bft) NO 53 ° 0 min 0,000 mm 0,0 UV-I 35 W/m² 1,6 °C 0,5 °C 9,7 km/h (2 Bft)
07.11.2019 10:31 2,3 °C 95 % 1002,3 hPa 0,0 mm 3,0 km/h (1 Bft) O-NO 61 ° 0 min 0,000 mm 0,0 UV-I 37 W/m² 1,6 °C 2,3 °C 6,4 km/h (2 Bft)
07.11.2019 10:32 2,4 °C 95 % 1002,3 hPa 0,0 mm 4,5 km/h (1 Bft) O-NO 58 ° 0 min 0,000 mm 0,0 UV-I 37 W/m² 1,7 °C 2,4 °C 6,4 km/h (2 Bft)
07.11.2019 10:33 2,4 °C 95 % 1002,5 hPa 0,0 mm 5,8 km/h (2 Bft) O-NO 62 ° 0 min 0,000 mm 0,0 UV-I 40 W/m² 1,7 °C 0,8 °C 8,0 km/h (2 Bft)
07.11.2019 10:34 2,5 °C 95 % 1002,5 hPa 0,0 mm 4,2 km/h (1 Bft) N-NO 31 ° 0 min 0,000 mm 0,0 UV-I 42 W/m² 1,8 °C 2,5 °C 6,4 km/h (2 Bft)
07.11.2019 10:35 2,4 °C 95 % 1002,5 hPa 0,0 mm 4,8 km/h (1 Bft) NO 40 ° 0 min 0,000 mm 0,0 UV-I 39 W/m² 1,7 °C 1,2 °C 6,4 km/h (2 Bft)
07.11.2019 10:36 2,5 °C 95 % 1002,5 hPa 0,0 mm 5,4 km/h (1 Bft) NO 51 ° 0 min 0,000 mm 0,0 UV-I 40 W/m² 1,8 °C 1,1 °C 8,0 km/h (2 Bft)
07.11.2019 10:37 2,6 °C 95 % 1002,5 hPa 0,0 mm 1,3 km/h (1 Bft) NO 51 ° 0 min 0,000 mm 0,0 UV-I 40 W/m² 1,9 °C 2,6 °C 3,2 km/h (1 Bft)
07.11.2019 10:38 2,6 °C 95 % 1002,5 hPa 0,0 mm 4,5 km/h (1 Bft) O-NO 59 ° 0 min 0,000 mm 0,0 UV-I 40 W/m² 1,9 °C 2,6 °C 8,0 km/h (2 Bft)
07.11.2019 10:39 2,6 °C 95 % 1002,5 hPa 0,0 mm 4,8 km/h (1 Bft) O-NO 66 ° 0 min 0,000 mm 0,0 UV-I 40 W/m² 1,9 °C 1,4 °C 6,4 km/h (2 Bft)
07.11.2019 10:40 2,7 °C 95 % 1002,4 hPa 0,0 mm 4,2 km/h (1 Bft) NO 35 ° 0 min 0,000 mm 0,0 UV-I 40 W/m² 2,0 °C 2,7 °C 6,4 km/h (2 Bft)
07.11.2019 10:41 2,7 °C 95 % 1002,4 hPa 0,0 mm 5,8 km/h (2 Bft) O-NO 78 ° 0 min 0,000 mm 0,0 UV-I 40 W/m² 2,0 °C 1,2 °C 11,3 km/h (2 Bft)
07.11.2019 10:42 2,7 °C 95 % 1002,4 hPa 0,0 mm 3,1 km/h (1 Bft) O 80 ° 0 min 0,000 mm 0,0 UV-I 40 W/m² 2,0 °C 2,7 °C 6,4 km/h (2 Bft)
07.11.2019 10:43 2,7 °C 95 % 1002,4 hPa 0,0 mm 5,8 km/h (2 Bft) NO 56 ° 0 min 0,000 mm 0,0 UV-I 40 W/m² 2,0 °C 1,2 °C 8,0 km/h (2 Bft)
07.11.2019 10:44 2,8 °C 95 % 1002,4 hPa 0,0 mm 7,7 km/h (2 Bft) O-NO 77 ° 0 min 0,000 mm 0,0 UV-I 40 W/m² 2,1 °C 0,6 °C 9,7 km/h (2 Bft)
07.11.2019 10:45 2,8 °C 95 % 1002,4 hPa 0,0 mm 5,6 km/h (1 Bft) NO 55 ° 0 min 0,000 mm 0,0 UV-I 40 W/m² 2,1 °C 1,3 °C 8,0 km/h (2 Bft)
07.11.2019 10:46 2,8 °C 95 % 1002,4 hPa 0,0 mm 0,6 km/h (0 Bft) NO 55 ° 0 min 0,000 mm 0,0 UV-I 40 W/m² 2,1 °C 2,8 °C 1,6 km/h (1 Bft)
07.11.2019 10:47 2,8 °C 95 % 1002,3 hPa 0,0 mm 0,0 km/h (0 Bft) NO 55 ° 0 min 0,000 mm 0,0 UV-I 42 W/m² 2,1 °C 2,8 °C 0,0 km/h (0 Bft)
07.11.2019 10:48 2,8 °C 95 % 1002,3 hPa 0,0 mm 0,2 km/h (0 Bft) NO 55 ° 0 min 0,000 mm 0,0 UV-I 44 W/m² 2,1 °C 2,8 °C 3,2 km/h (1 Bft)
07.11.2019 10:49 2,8 °C 95 % 1002,2 hPa 0,0 mm 4,2 km/h (1 Bft) O-NO 58 ° 0 min 0,000 mm 0,0 UV-I 46 W/m² 2,1 °C 2,8 °C 8,0 km/h (2 Bft)
07.11.2019 10:50 2,9 °C 95 % 1002,2 hPa 0,0 mm 6,2 km/h (2 Bft) O-NO 57 ° 0 min 0,000 mm 0,0 UV-I 47 W/m² 2,2 °C 1,2 °C 8,0 km/h (2 Bft)
07.11.2019 10:51 2,9 °C 95 % 1002,2 hPa 0,0 mm 5,8 km/h (2 Bft) O-NO 67 ° 0 min 0,000 mm 0,0 UV-I 47 W/m² 2,2 °C 1,4 °C 8,0 km/h (2 Bft)
07.11.2019 10:52 2,9 °C 95 % 1002,2 hPa 0,0 mm 6,3 km/h (2 Bft) NO 53 ° 0 min 0,000 mm 0,0 UV-I 49 W/m² 2,2 °C 1,2 °C 8,0 km/h (2 Bft)
07.11.2019 10:53 3,0 °C 95 % 1002,2 hPa 0,0 mm 5,2 km/h (1 Bft) N-NO 28 ° 0 min 0,000 mm 0,0 UV-I 49 W/m² 2,3 °C 1,7 °C 8,0 km/h (2 Bft)
07.11.2019 10:54 3,0 °C 95 % 1002,2 hPa 0,0 mm 3,9 km/h (1 Bft) NO 49 ° 0 min 0,000 mm 0,0 UV-I 51 W/m² 2,3 °C 3,0 °C 6,4 km/h (2 Bft)
07.11.2019 10:55 3,0 °C 95 % 1002,2 hPa 0,0 mm 2,5 km/h (1 Bft) O 93 ° 0 min 0,000 mm 0,0 UV-I 51 W/m² 2,3 °C 3,0 °C 4,8 km/h (1 Bft)
07.11.2019 10:56 3,1 °C 95 % 1002,2 hPa 0,0 mm 0,3 km/h (0 Bft) O 93 ° 0 min 0,000 mm 0,0 UV-I 51 W/m² 2,4 °C 3,1 °C 1,6 km/h (1 Bft)
07.11.2019 10:57 3,1 °C 95 % 1002,2 hPa 0,0 mm 0,5 km/h (0 Bft) O 91 ° 0 min 0,000 mm 0,0 UV-I 53 W/m² 2,4 °C 3,1 °C 3,2 km/h (1 Bft)
07.11.2019 10:58 3,1 °C 95 % 1002,2 hPa 0,0 mm 1,5 km/h (1 Bft) O 91 ° 0 min 0,000 mm 0,0 UV-I 51 W/m² 2,4 °C 3,1 °C 3,2 km/h (1 Bft)
07.11.2019 10:59 3,2 °C 95 % 1002,2 hPa 0,0 mm 3,4 km/h (1 Bft) NO 46 ° 0 min 0,000 mm 0,0 UV-I 54 W/m² 2,5 °C 3,2 °C 4,8 km/h (1 Bft)
07.11.2019 11:00 3,2 °C 95 % 1002,2 hPa 0,0 mm 5,3 km/h (1 Bft) O-NO 62 ° 0 min 0,000 mm 0,0 UV-I 54 W/m² 2,5 °C 1,9 °C 8,0 km/h (2 Bft)
07.11.2019 11:01 3,3 °C 95 % 1002,2 hPa 0,0 mm 1,7 km/h (1 Bft) O-NO 62 ° 0 min 0,025 mm 1,1 UV-I 58 W/m² 2,6 °C 3,3 °C 3,2 km/h (1 Bft)
07.11.2019 11:02 3,3 °C 95 % 1002,3 hPa 0,0 mm 1,9 km/h (1 Bft) O-NO 67 ° 0 min 0,000 mm 1,1 UV-I 60 W/m² 2,6 °C 3,3 °C 3,2 km/h (1 Bft)
07.11.2019 11:03 3,3 °C 95 % 1002,3 hPa 0,0 mm 0,0 km/h (0 Bft) O-NO 67 ° 0 min 0,000 mm 1,1 UV-I 63 W/m² 2,6 °C 3,3 °C 0,0 km/h (0 Bft)
07.11.2019 11:04 3,4 °C 95 % 1002,3 hPa 0,0 mm 0,0 km/h (0 Bft) O-NO 67 ° 0 min 0,000 mm 1,2 UV-I 63 W/m² 2,7 °C 3,4 °C 0,0 km/h (0 Bft)
07.11.2019 11:05 3,4 °C 95 % 1002,3 hPa 0,0 mm 0,7 km/h (0 Bft) O-NO 67 ° 0 min 0,000 mm 1,2 UV-I 65 W/m² 2,7 °C 3,4 °C 1,6 km/h (1 Bft)
07.11.2019 11:06 3,4 °C 94 % 1002,3 hPa 0,0 mm 0,1 km/h (0 Bft) O-NO 67 ° 0 min 0,000 mm 1,2 UV-I 67 W/m² 2,5 °C 3,4 °C 1,6 km/h (1 Bft)
07.11.2019 11:07 3,5 °C 95 % 1002,3 hPa 0,0 mm 0,0 km/h (0 Bft) O-NO 67 ° 0 min 0,000 mm 1,2 UV-I 65 W/m² 2,8 °C 3,5 °C 0,0 km/h (0 Bft)
07.11.2019 11:08 3,6 °C 95 % 1002,3 hPa 0,0 mm 0,0 km/h (0 Bft) O-NO 67 ° 0 min 0,000 mm 1,2 UV-I 65 W/m² 2,9 °C 3,6 °C 0,0 km/h (0 Bft)
07.11.2019 11:09 3,6 °C 95 % 1002,3 hPa 0,0 mm 0,0 km/h (0 Bft) O-NO 67 ° 0 min 0,000 mm 1,2 UV-I 65 W/m² 2,9 °C 3,6 °C 0,0 km/h (0 Bft)
07.11.2019 11:10 3,6 °C 95 % 1002,2 hPa 0,0 mm 2,5 km/h (1 Bft) NO 42 ° 0 min 0,000 mm 1,2 UV-I 65 W/m² 2,9 °C 3,6 °C 4,8 km/h (1 Bft)
07.11.2019 11:11 3,6 °C 95 % 1002,2 hPa 0,0 mm 4,1 km/h (1 Bft) O-NO 67 ° 0 min 0,000 mm 1,2 UV-I 67 W/m² 2,9 °C 3,6 °C 4,8 km/h (1 Bft)
07.11.2019 11:12 3,7 °C 95 % 1002,2 hPa 0,0 mm 3,4 km/h (1 Bft) O-NO 67 ° 0 min 0,000 mm 1,2 UV-I 67 W/m² 3,0 °C 3,7 °C 4,8 km/h (1 Bft)
07.11.2019 11:13 3,7 °C 95 % 1002,1 hPa 0,0 mm 1,8 km/h (1 Bft) O-NO 67 ° 0 min 0,000 mm 1,2 UV-I 70 W/m² 3,0 °C 3,7 °C 3,2 km/h (1 Bft)
07.11.2019 11:14 3,7 °C 95 % 1002,2 hPa 0,0 mm 1,8 km/h (1 Bft) O-NO 67 ° 0 min 0,000 mm 1,2 UV-I 72 W/m² 3,0 °C 3,7 °C 3,2 km/h (1 Bft)
07.11.2019 11:15 3,8 °C 94 % 1002,1 hPa 0,0 mm 0,6 km/h (0 Bft) O-NO 64 ° 0 min 0,000 mm 1,2 UV-I 76 W/m² 2,9 °C 3,8 °C 3,2 km/h (1 Bft)
07.11.2019 11:16 3,8 °C 94 % 1002,2 hPa 0,0 mm 1,0 km/h (0 Bft) O-NO 64 ° 0 min 0,000 mm 1,2 UV-I 88 W/m² 2,9 °C 3,8 °C 3,2 km/h (1 Bft)
07.11.2019 11:17 3,8 °C 94 % 1002,3 hPa 0,0 mm 1,8 km/h (1 Bft) O-NO 64 ° 0 min 0,000 mm 1,2 UV-I 95 W/m² 2,9 °C 3,8 °C 3,2 km/h (1 Bft)
07.11.2019 11:18 3,9 °C 94 % 1002,3 hPa 0,0 mm 3,9 km/h (1 Bft) N-NW 327 ° 0 min 0,000 mm 1,2 UV-I 104 W/m² 3,0 °C 3,9 °C 4,8 km/h (1 Bft)
07.11.2019 11:19 4,2 °C 94 % 1002,2 hPa 0,0 mm 5,2 km/h (1 Bft) N-NW 338 ° 0 min 0,000 mm 1,3 UV-I 113 W/m² 3,3 °C 3,1 °C 6,4 km/h (2 Bft)
07.11.2019 11:20 4,4 °C 94 % 1002,2 hPa 0,0 mm 1,5 km/h (1 Bft) N-NW 338 ° 0 min 0,000 mm 1,3 UV-I 121 W/m² 3,5 °C 4,4 °C 3,2 km/h (1 Bft)
07.11.2019 11:21 4,7 °C 94 % 1002,2 hPa 0,0 mm 1,3 km/h (1 Bft) N-NW 343 ° 0 min 0,000 mm 1,3 UV-I 128 W/m² 3,8 °C 4,7 °C 6,4 km/h (2 Bft)
07.11.2019 11:22 4,9 °C 93 % 1002,1 hPa 0,0 mm 2,1 km/h (1 Bft) N-NW 344 ° 0 min 0,000 mm 1,3 UV-I 141 W/m² 3,9 °C 4,9 °C 3,2 km/h (1 Bft)
07.11.2019 11:23 5,0 °C 93 % 1002,1 hPa 0,0 mm 2,2 km/h (1 Bft) N-NW 344 ° 0 min 0,000 mm 1,4 UV-I 142 W/m² 4,0 °C 5,0 °C 3,2 km/h (1 Bft)
07.11.2019 11:24 5,1 °C 92 % 1002,1 hPa 0,2 mm 2,1 km/h (1 Bft) N-NW 345 ° 0 min 0,000 mm 1,4 UV-I 142 W/m² 3,9 °C 5,1 °C 3,2 km/h (1 Bft)
07.11.2019 11:25 5,2 °C 92 % 1002,1 hPa 0,0 mm 1,5 km/h (1 Bft) N-NW 345 ° 0 min 0,000 mm 1,4 UV-I 144 W/m² 4,0 °C 5,2 °C 3,2 km/h (1 Bft)
07.11.2019 11:26 5,3 °C 90 % 1002,1 hPa 0,0 mm 0,5 km/h (0 Bft) N-NW 345 ° 0 min 0,000 mm 1,4 UV-I 142 W/m² 3,8 °C 5,3 °C 1,6 km/h (1 Bft)
07.11.2019 11:27 5,4 °C 90 % 1002,1 hPa 0,0 mm 2,6 km/h (1 Bft) N-NW 345 ° 0 min 0,000 mm 1,4 UV-I 142 W/m² 3,9 °C 5,4 °C 3,2 km/h (1 Bft)
07.11.2019 11:28 5,6 °C 89 % 1002,1 hPa 0,0 mm 2,1 km/h (1 Bft) N-NO 22 ° 0 min 0,000 mm 1,4 UV-I 139 W/m² 3,9 °C 5,6 °C 3,2 km/h (1 Bft)
07.11.2019 11:29 5,6 °C 88 % 1002,1 hPa 0,0 mm 0,1 km/h (0 Bft) N-NO 22 ° 0 min 0,000 mm 1,4 UV-I 135 W/m² 3,8 °C 5,6 °C 1,6 km/h (1 Bft)
07.11.2019 11:30 5,6 °C 87 % 1002,1 hPa 0,0 mm 0,0 km/h (0 Bft) N-NO 22 ° 0 min 0,000 mm 1,4 UV-I 132 W/m² 3,6 °C 5,6 °C 0,0 km/h (0 Bft)
07.11.2019 11:31 5,6 °C 86 % 1002,2 hPa 0,2 mm 0,0 km/h (0 Bft) NO 49 ° 0 min 0,000 mm 1,4 UV-I 125 W/m² 3,4 °C 5,6 °C 0,0 km/h (0 Bft)
07.11.2019 11:32 5,7 °C 86 % 1002,2 hPa 0,0 mm 0,0 km/h (0 Bft) NO 48 ° 0 min 0,000 mm 1,3 UV-I 120 W/m² 3,5 °C 5,7 °C 0,0 km/h (0 Bft)
07.11.2019 11:33 5,7 °C 86 % 1002,3 hPa 0,0 mm 0,0 km/h (0 Bft) NO 48 ° 0 min 0,000 mm 1,3 UV-I 113 W/m² 3,5 °C 5,7 °C 0,0 km/h (0 Bft)
07.11.2019 11:34 5,8 °C 86 % 1002,3 hPa 0,0 mm 0,0 km/h (0 Bft) NO 48 ° 0 min 0,000 mm 1,3 UV-I 98 W/m² 3,6 °C 5,8 °C 0,0 km/h (0 Bft)
07.11.2019 11:35 5,8 °C 86 % 1002,3 hPa 0,0 mm 0,0 km/h (0 Bft) NO 48 ° 0 min 0,000 mm 1,3 UV-I 93 W/m² 3,6 °C 5,8 °C 0,0 km/h (0 Bft)
07.11.2019 11:36 5,8 °C 86 % 1002,3 hPa 0,0 mm 0,0 km/h (0 Bft) NO 48 ° 0 min 0,000 mm 1,3 UV-I 86 W/m² 3,6 °C 5,8 °C 0,0 km/h (0 Bft)
07.11.2019 11:37 5,8 °C 86 % 1002,3 hPa 0,0 mm 0,0 km/h (0 Bft) NO 48 ° 0 min 0,000 mm 1,3 UV-I 81 W/m² 3,6 °C 5,8 °C 0,0 km/h (0 Bft)
07.11.2019 11:38 5,7 °C 86 % 1002,3 hPa 0,0 mm 0,0 km/h (0 Bft) NO 48 ° 0 min 0,000 mm 1,3 UV-I 76 W/m² 3,5 °C 5,7 °C 0,0 km/h (0 Bft)
07.11.2019 11:39 5,7 °C 86 % 1002,3 hPa 0,0 mm 0,0 km/h (0 Bft) NO 48 ° 0 min 0,000 mm 1,2 UV-I 72 W/m² 3,5 °C 5,7 °C 0,0 km/h (0 Bft)
07.11.2019 11:40 5,7 °C 86 % 1002,2 hPa 0,0 mm 0,0 km/h (0 Bft) NO 48 ° 0 min 0,000 mm 1,2 UV-I 67 W/m² 3,5 °C 5,7 °C 0,0 km/h (0 Bft)
07.11.2019 11:41 5,7 °C 86 % 1002,3 hPa 0,0 mm 0,0 km/h (0 Bft) NO 48 ° 0 min 0,000 mm 1,2 UV-I 65 W/m² 3,5 °C 5,7 °C 0,0 km/h (0 Bft)
07.11.2019 11:42 5,7 °C 85 % 1002,2 hPa 0,0 mm 0,0 km/h (0 Bft) NO 48 ° 0 min 0,000 mm 1,2 UV-I 65 W/m² 3,4 °C 5,7 °C 0,0 km/h (0 Bft)
07.11.2019 11:43 5,7 °C 85 % 1002,2 hPa 0,0 mm 0,0 km/h (0 Bft) NO 48 ° 0 min 0,000 mm 1,2 UV-I 63 W/m² 3,4 °C 5,7 °C 0,0 km/h (0 Bft)
07.11.2019 11:44 5,8 °C 85 % 1002,2 hPa 0,0 mm 0,0 km/h (0 Bft) NO 48 ° 0 min 0,000 mm 1,2 UV-I 63 W/m² 3,5 °C 5,8 °C 0,0 km/h (0 Bft)
07.11.2019 11:45 5,8 °C 85 % 1002,2 hPa 0,0 mm 0,0 km/h (0 Bft) NO 48 ° 0 min 0,000 mm 1,2 UV-I 67 W/m² 3,5 °C 5,8 °C 0,0 km/h (0 Bft)
07.11.2019 11:46 5,8 °C 85 % 1002,2 hPa 0,0 mm 0,0 km/h (0 Bft) NO 48 ° 0 min 0,000 mm 1,2 UV-I 67 W/m² 3,5 °C 5,8 °C 0,0 km/h (0 Bft)
07.11.2019 11:47 5,9 °C 84 % 1002,2 hPa 0,0 mm 0,0 km/h (0 Bft) NO 48 ° 0 min 0,000 mm 1,2 UV-I 69 W/m² 3,4 °C 5,9 °C 0,0 km/h (0 Bft)
07.11.2019 11:48 5,9 °C 84 % 1002,2 hPa 0,0 mm 0,0 km/h (0 Bft) NO 48 ° 0 min 0,000 mm 1,2 UV-I 70 W/m² 3,4 °C 5,9 °C 0,0 km/h (0 Bft)
07.11.2019 11:49 5,9 °C 84 % 1002,2 hPa 0,0 mm 0,0 km/h (0 Bft) NO 48 ° 0 min 0,000 mm 1,2 UV-I 74 W/m² 3,4 °C 5,9 °C 0,0 km/h (0 Bft)
07.11.2019 11:50 5,9 °C 84 % 1002,2 hPa 0,0 mm 0,0 km/h (0 Bft) NO 48 ° 0 min 0,000 mm 1,2 UV-I 77 W/m² 3,4 °C 5,9 °C 0,0 km/h (0 Bft)
07.11.2019 11:51 5,9 °C 84 % 1002,2 hPa 0,0 mm 0,3 km/h (0 Bft) W-NW 293 ° 0 min 0,000 mm 1,1 UV-I 83 W/m² 3,4 °C 5,9 °C 1,6 km/h (1 Bft)
07.11.2019 11:52 5,9 °C 84 % 1002,2 hPa 0,0 mm 0,1 km/h (0 Bft) W-NW 293 ° 0 min 0,000 mm 1,1 UV-I 95 W/m² 3,4 °C 5,9 °C 1,6 km/h (1 Bft)
07.11.2019 11:53 5,9 °C 85 % 1002,2 hPa 0,0 mm 0,6 km/h (0 Bft) W-NW 293 ° 0 min 0,000 mm 1,1 UV-I 100 W/m² 3,6 °C 5,9 °C 3,2 km/h (1 Bft)
07.11.2019 11:54 6,1 °C 85 % 1002,2 hPa 0,0 mm 1,3 km/h (1 Bft) W-NW 293 ° 0 min 0,000 mm 1,2 UV-I 105 W/m² 3,8 °C 6,1 °C 4,8 km/h (1 Bft)
07.11.2019 11:55 6,1 °C 86 % 1002,2 hPa 0,0 mm 4,2 km/h (1 Bft) W-NW 293 ° 0 min 0,000 mm 1,2 UV-I 113 W/m² 3,9 °C 6,1 °C 4,8 km/h (1 Bft)
07.11.2019 11:56 6,2 °C 85 % 1002,1 hPa 0,0 mm 2,1 km/h (1 Bft) W-NW 293 ° 0 min 0,000 mm 1,2 UV-I 113 W/m² 3,9 °C 6,2 °C 4,8 km/h (1 Bft)
07.11.2019 11:57 6,2 °C 85 % 1002,1 hPa 0,0 mm 0,0 km/h (0 Bft) W-NW 293 ° 0 min 0,000 mm 1,2 UV-I 134 W/m² 3,9 °C 6,2 °C 0,0 km/h (0 Bft)
07.11.2019 11:58 6,3 °C 85 % 1002,1 hPa 0,0 mm 0,0 km/h (0 Bft) W-NW 293 ° 0 min 0,000 mm 1,3 UV-I 139 W/m² 4,0 °C 6,3 °C 0,0 km/h (0 Bft)
07.11.2019 11:59 6,3 °C 85 % 1002,0 hPa 0,0 mm 0,0 km/h (0 Bft) W-NW 293 ° 0 min 0,000 mm 1,3 UV-I 144 W/m² 4,0 °C 6,3 °C 0,0 km/h (0 Bft)
07.11.2019 12:00 6,3 °C 85 % 1002,1 hPa 0,2 mm 0,0 km/h (0 Bft) W-NW 293 ° 0 min 0,051 mm 1,3 UV-I 148 W/m² 4,0 °C 6,3 °C 0,0 km/h (0 Bft)
07.11.2019 12:01 6,3 °C 86 % 1002,1 hPa 0,0 mm 0,0 km/h (0 Bft) W-NW 293 ° 0 min 0,000 mm 1,3 UV-I 148 W/m² 4,1 °C 6,3 °C 0,0 km/h (0 Bft)
07.11.2019 12:02 6,2 °C 86 % 1002,1 hPa 0,0 mm 0,0 km/h (0 Bft) W-NW 293 ° 0 min 0,000 mm 1,3 UV-I 149 W/m² 4,0 °C 6,2 °C 0,0 km/h (0 Bft)
07.11.2019 12:03 6,3 °C 85 % 1002,1 hPa 0,0 mm 0,0 km/h (0 Bft) W-NW 293 ° 0 min 0,000 mm 1,3 UV-I 146 W/m² 4,0 °C 6,3 °C 0,0 km/h (0 Bft)
07.11.2019 12:04 6,3 °C 86 % 1002,1 hPa 0,0 mm 0,0 km/h (0 Bft) W-NW 293 ° 0 min 0,000 mm 1,4 UV-I 146 W/m² 4,1 °C 6,3 °C 0,0 km/h (0 Bft)
07.11.2019 12:05 6,3 °C 86 % 1002,1 hPa 0,0 mm 0,0 km/h (0 Bft) W-NW 293 ° 0 min 0,000 mm 1,4 UV-I 132 W/m² 4,1 °C 6,3 °C 0,0 km/h (0 Bft)
07.11.2019 12:06 6,4 °C 85 % 1002,1 hPa 0,0 mm 0,0 km/h (0 Bft) W-NW 293 ° 0 min 0,000 mm 1,4 UV-I 123 W/m² 4,1 °C 6,4 °C 0,0 km/h (0 Bft)
07.11.2019 12:07 6,5 °C 84 % 1002,1 hPa 0,0 mm 0,0 km/h (0 Bft) W-NW 293 ° 0 min 0,000 mm 1,3 UV-I 113 W/m² 4,0 °C 6,5 °C 0,0 km/h (0 Bft)
07.11.2019 12:08 6,6 °C 83 % 1002,1 hPa 0,0 mm 0,0 km/h (0 Bft) W-NW 293 ° 0 min 0,000 mm 1,3 UV-I 102 W/m² 3,9 °C 6,6 °C 0,0 km/h (0 Bft)
07.11.2019 12:09 6,7 °C 83 % 1002,2 hPa 0,0 mm 0,0 km/h (0 Bft) W-NW 293 ° 0 min 0,000 mm 1,3 UV-I 81 W/m² 4,0 °C 6,7 °C 0,0 km/h (0 Bft)
07.11.2019 12:10 6,7 °C 82 % 1002,2 hPa 0,0 mm 0,0 km/h (0 Bft) W-NW 293 ° 0 min 0,000 mm 1,2 UV-I 74 W/m² 3,8 °C 6,7 °C 0,0 km/h (0 Bft)
07.11.2019 12:11 6,7 °C 82 % 1002,2 hPa 0,0 mm 0,0 km/h (0 Bft) W-NW 293 ° 0 min 0,000 mm 1,2 UV-I 70 W/m² 3,8 °C 6,7 °C 0,0 km/h (0 Bft)
07.11.2019 12:12 6,8 °C 81 % 1002,2 hPa 0,0 mm 0,0 km/h (0 Bft) W-NW 293 ° 0 min 0,000 mm 1,2 UV-I 69 W/m² 3,8 °C 6,8 °C 0,0 km/h (0 Bft)
07.11.2019 12:13 6,8 °C 80 % 1002,2 hPa 0,0 mm 0,0 km/h (0 Bft) W-NW 293 ° 0 min 0,000 mm 1,2 UV-I 65 W/m² 3,6 °C 6,8 °C 0,0 km/h (0 Bft)
07.11.2019 12:14 6,9 °C 80 % 1002,2 hPa 0,0 mm 0,0 km/h (0 Bft) W-NW 293 ° 0 min 0,000 mm 1,2 UV-I 63 W/m² 3,7 °C 6,9 °C 0,0 km/h (0 Bft)
07.11.2019 12:15 6,8 °C 80 % 1002,2 hPa 0,0 mm 0,0 km/h (0 Bft) W-NW 293 ° 0 min 0,000 mm 1,2 UV-I 58 W/m² 3,6 °C 6,8 °C 0,0 km/h (0 Bft)
07.11.2019 12:16 6,9 °C 80 % 1002,2 hPa 0,0 mm 0,0 km/h (0 Bft) W-NW 293 ° 0 min 0,000 mm 0,0 UV-I 54 W/m² 3,7 °C 6,9 °C 0,0 km/h (0 Bft)
07.11.2019 12:17 6,9 °C 80 % 1002,2 hPa 0,0 mm 0,0 km/h (0 Bft) W-NW 293 ° 0 min 0,000 mm 0,0 UV-I 53 W/m² 3,7 °C 6,9 °C 0,0 km/h (0 Bft)
07.11.2019 12:18 6,9 °C 80 % 1002,2 hPa 0,0 mm 0,0 km/h (0 Bft) W-NW 293 ° 0 min 0,000 mm 0,0 UV-I 53 W/m² 3,7 °C 6,9 °C 0,0 km/h (0 Bft)
07.11.2019 12:19 6,9 °C 80 % 1002,2 hPa 0,0 mm 0,0 km/h (0 Bft) W-NW 293 ° 0 min 0,000 mm 0,0 UV-I 53 W/m² 3,7 °C 6,9 °C 0,0 km/h (0 Bft)
07.11.2019 12:20 6,9 °C 79 % 1002,2 hPa 0,0 mm 0,0 km/h (0 Bft) W-NW 293 ° 0 min 0,000 mm 0,0 UV-I 53 W/m² 3,5 °C 6,9 °C 0,0 km/h (0 Bft)
07.11.2019 12:21 6,9 °C 79 % 1002,1 hPa 0,0 mm 0,0 km/h (0 Bft) W-NW 293 ° 0 min 0,000 mm 0,0 UV-I 53 W/m² 3,5 °C 6,9 °C 0,0 km/h (0 Bft)
07.11.2019 12:22 6,9 °C 79 % 1002,2 hPa 0,0 mm 0,0 km/h (0 Bft) W-NW 293 ° 0 min 0,000 mm 0,0 UV-I 53 W/m² 3,5 °C 6,9 °C 0,0 km/h (0 Bft)
07.11.2019 12:23 7,0 °C 79 % 1002,2 hPa 0,0 mm 0,0 km/h (0 Bft) W-NW 293 ° 0 min 0,000 mm 0,0 UV-I 54 W/m² 3,6 °C 7,0 °C 0,0 km/h (0 Bft)
07.11.2019 12:24 7,0 °C 78 % 1002,2 hPa 0,0 mm 0,0 km/h (0 Bft) W-NW 293 ° 0 min 0,000 mm 1,2 UV-I 56 W/m² 3,4 °C 7,0 °C 0,0 km/h (0 Bft)
07.11.2019 12:25 7,1 °C 78 % 1002,2 hPa 0,0 mm 0,0 km/h (0 Bft) W-NW 293 ° 0 min 0,000 mm 1,2 UV-I 58 W/m² 3,5 °C 7,1 °C 0,0 km/h (0 Bft)
07.11.2019 12:26 7,1 °C 78 % 1002,2 hPa 0,0 mm 0,0 km/h (0 Bft) W-NW 293 ° 0 min 0,000 mm 1,2 UV-I 56 W/m² 3,5 °C 7,1 °C 0,0 km/h (0 Bft)
07.11.2019 12:27 7,0 °C 79 % 1002,2 hPa 0,0 mm 0,0 km/h (0 Bft) W-NW 293 ° 0 min 0,000 mm 1,2 UV-I 54 W/m² 3,6 °C 7,0 °C 0,0 km/h (0 Bft)
07.11.2019 12:28 6,9 °C 79 % 1002,3 hPa 0,0 mm 0,0 km/h (0 Bft) W-NW 293 ° 0 min 0,000 mm 0,0 UV-I 54 W/m² 3,5 °C 6,9 °C 0,0 km/h (0 Bft)
07.11.2019 12:29 6,9 °C 79 % 1002,3 hPa 0,0 mm 0,0 km/h (0 Bft) W-NW 293 ° 0 min 0,000 mm 0,0 UV-I 53 W/m² 3,5 °C 6,9 °C 0,0 km/h (0 Bft)
07.11.2019 12:30 6,9 °C 79 % 1002,3 hPa 0,0 mm 0,0 km/h (0 Bft) W-NW 293 ° 0 min 0,000 mm 0,0 UV-I 49 W/m² 3,5 °C 6,9 °C 0,0 km/h (0 Bft)
07.11.2019 12:31 7,0 °C 79 % 1002,4 hPa 0,0 mm 0,0 km/h (0 Bft) W-NW 293 ° 0 min 0,000 mm 0,0 UV-I 49 W/m² 3,6 °C 7,0 °C 0,0 km/h (0 Bft)
07.11.2019 12:32 7,1 °C 78 % 1002,3 hPa 0,0 mm 0,0 km/h (0 Bft) W-NW 293 ° 0 min 0,000 mm 0,0 UV-I 44 W/m² 3,5 °C 7,1 °C 0,0 km/h (0 Bft)
07.11.2019 12:33 7,1 °C 78 % 1002,4 hPa 0,0 mm 0,0 km/h (0 Bft) W-NW 293 ° 0 min 0,000 mm 0,0 UV-I 42 W/m² 3,5 °C 7,1 °C 0,0 km/h (0 Bft)
07.11.2019 12:34 7,1 °C 79 % 1002,4 hPa 0,0 mm 0,0 km/h (0 Bft) W-NW 293 ° 0 min 0,000 mm 0,0 UV-I 40 W/m² 3,7 °C 7,1 °C 0,0 km/h (0 Bft)
07.11.2019 12:35 7,1 °C 78 % 1002,4 hPa 0,0 mm 0,3 km/h (0 Bft) W-SW 257 ° 0 min 0,000 mm 0,0 UV-I 40 W/m² 3,5 °C 7,1 °C 3,2 km/h (1 Bft)
07.11.2019 12:36 7,1 °C 78 % 1002,4 hPa 0,0 mm 2,0 km/h (1 Bft) W-SW 257 ° 0 min 0,000 mm 0,0 UV-I 39 W/m² 3,5 °C 7,1 °C 3,2 km/h (1 Bft)
07.11.2019 12:37 7,2 °C 78 % 1002,5 hPa 0,0 mm 0,0 km/h (0 Bft) W-SW 257 ° 0 min 0,000 mm 0,0 UV-I 39 W/m² 3,6 °C 7,2 °C 0,0 km/h (0 Bft)
07.11.2019 12:38 7,2 °C 78 % 1002,5 hPa 0,0 mm 0,0 km/h (0 Bft) W-SW 257 ° 0 min 0,000 mm 0,0 UV-I 37 W/m² 3,6 °C 7,2 °C 0,0 km/h (0 Bft)
07.11.2019 12:39 7,2 °C 77 % 1002,5 hPa 0,0 mm 0,1 km/h (0 Bft) W-SW 257 ° 0 min 0,000 mm 0,0 UV-I 37 W/m² 3,4 °C 7,2 °C 1,6 km/h (1 Bft)
07.11.2019 12:40 7,3 °C 77 % 1002,5 hPa 0,0 mm 0,0 km/h (0 Bft) W-SW 257 ° 0 min 0,000 mm 0,0 UV-I 37 W/m² 3,5 °C 7,3 °C 0,0 km/h (0 Bft)
07.11.2019 12:41 7,3 °C 77 % 1002,6 hPa 0,0 mm 0,0 km/h (0 Bft) W-SW 257 ° 0 min 0,000 mm 0,0 UV-I 37 W/m² 3,5 °C 7,3 °C 0,0 km/h (0 Bft)
07.11.2019 12:42 7,4 °C 77 % 1002,6 hPa 0,0 mm 0,0 km/h (0 Bft) W-SW 257 ° 0 min 0,000 mm 0,0 UV-I 37 W/m² 3,6 °C 7,4 °C 0,0 km/h (0 Bft)
07.11.2019 12:43 7,4 °C 77 % 1002,7 hPa 0,0 mm 0,0 km/h (0 Bft) W-SW 257 ° 0 min 0,000 mm 0,0 UV-I 37 W/m² 3,6 °C 7,4 °C 0,0 km/h (0 Bft)
07.11.2019 12:44 7,4 °C 78 % 1002,7 hPa 0,0 mm 3,0 km/h (1 Bft) W 259 ° 0 min 0,000 mm 0,0 UV-I 39 W/m² 3,8 °C 7,4 °C 4,8 km/h (1 Bft)
07.11.2019 12:45 7,4 °C 78 % 1002,7 hPa 0,0 mm 2,9 km/h (1 Bft) W 259 ° 0 min 0,000 mm 0,0 UV-I 40 W/m² 3,8 °C 7,4 °C 3,2 km/h (1 Bft)
07.11.2019 12:46 7,4 °C 78 % 1002,7 hPa 0,0 mm 2,8 km/h (1 Bft) W 259 ° 0 min 0,000 mm 0,0 UV-I 42 W/m² 3,8 °C 7,4 °C 3,2 km/h (1 Bft)
07.11.2019 12:47 7,5 °C 78 % 1002,7 hPa 0,0 mm 2,7 km/h (1 Bft) W 259 ° 0 min 0,000 mm 0,0 UV-I 46 W/m² 3,9 °C 7,5 °C 4,8 km/h (1 Bft)
07.11.2019 12:48 7,6 °C 77 % 1002,8 hPa 0,0 mm 0,8 km/h (0 Bft) SW 228 ° 0 min 0,000 mm 0,0 UV-I 47 W/m² 3,8 °C 7,6 °C 3,2 km/h (1 Bft)
07.11.2019 12:49 7,6 °C 77 % 1002,8 hPa 0,0 mm 4,6 km/h (1 Bft) W 278 ° 0 min 0,000 mm 0,0 UV-I 49 W/m² 3,8 °C 7,2 °C 6,4 km/h (2 Bft)
07.11.2019 12:50 7,6 °C 77 % 1002,8 hPa 0,0 mm 4,2 km/h (1 Bft) NW 304 ° 0 min 0,000 mm 0,0 UV-I 56 W/m² 3,8 °C 7,6 °C 6,4 km/h (2 Bft)
07.11.2019 12:51 7,7 °C 77 % 1002,8 hPa 0,0 mm 4,2 km/h (1 Bft) W-NW 295 ° 0 min 0,000 mm 1,1 UV-I 65 W/m² 3,9 °C 7,7 °C 6,4 km/h (2 Bft)
07.11.2019 12:52 7,7 °C 77 % 1002,8 hPa 0,0 mm 2,3 km/h (1 Bft) W-NW 298 ° 0 min 0,000 mm 1,1 UV-I 76 W/m² 3,9 °C 7,7 °C 4,8 km/h (1 Bft)
07.11.2019 12:53 7,8 °C 77 % 1002,8 hPa 0,0 mm 3,8 km/h (1 Bft) W-NW 283 ° 0 min 0,000 mm 1,1 UV-I 84 W/m² 4,0 °C 7,8 °C 6,4 km/h (2 Bft)
07.11.2019 12:54 7,8 °C 76 % 1002,8 hPa 0,0 mm 5,0 km/h (1 Bft) W-NW 284 ° 0 min 0,000 mm 1,1 UV-I 91 W/m² 3,8 °C 7,3 °C 6,4 km/h (2 Bft)
07.11.2019 12:55 7,7 °C 76 % 1002,9 hPa 0,0 mm 3,7 km/h (1 Bft) W 280 ° 0 min 0,000 mm 1,1 UV-I 97 W/m² 3,7 °C 7,7 °C 4,8 km/h (1 Bft)
07.11.2019 12:56 7,8 °C 77 % 1002,9 hPa 0,0 mm 2,2 km/h (1 Bft) W 280 ° 0 min 0,000 mm 1,1 UV-I 105 W/m² 4,0 °C 7,8 °C 3,2 km/h (1 Bft)
07.11.2019 12:57 7,8 °C 77 % 1002,9 hPa 0,0 mm 1,3 km/h (1 Bft) W 280 ° 0 min 0,000 mm 1,1 UV-I 109 W/m² 4,0 °C 7,8 °C 3,2 km/h (1 Bft)
07.11.2019 12:58 7,7 °C 77 % 1002,9 hPa 0,0 mm 0,6 km/h (0 Bft) W 280 ° 0 min 0,000 mm 1,1 UV-I 111 W/m² 3,9 °C 7,7 °C 3,2 km/h (1 Bft)
07.11.2019 12:59 7,7 °C 78 % 1003,0 hPa 0,0 mm 2,3 km/h (1 Bft) W 280 ° 0 min 0,000 mm 1,1 UV-I 113 W/m² 4,1 °C 7,7 °C 3,2 km/h (1 Bft)
07.11.2019 13:00 7,7 °C 78 % 1003,0 hPa 0,0 mm 3,2 km/h (1 Bft) W 280 ° 0 min 0,000 mm 1,1 UV-I 114 W/m² 4,1 °C 7,7 °C 4,8 km/h (1 Bft)
07.11.2019 13:01 7,8 °C 78 % 1003,0 hPa 0,0 mm 2,4 km/h (1 Bft) W 280 ° 0 min 0,026 mm 1,1 UV-I 118 W/m² 4,2 °C 7,8 °C 3,2 km/h (1 Bft)
07.11.2019 13:02 7,8 °C 79 % 1003,0 hPa 0,0 mm 3,0 km/h (1 Bft) W 280 ° 0 min 0,000 mm 1,1 UV-I 118 W/m² 4,4 °C 7,8 °C 4,8 km/h (1 Bft)
07.11.2019 13:03 7,8 °C 79 % 1003,0 hPa 0,0 mm 1,7 km/h (1 Bft) W 280 ° 0 min 0,000 mm 1,1 UV-I 118 W/m² 4,4 °C 7,8 °C 3,2 km/h (1 Bft)
07.11.2019 13:04 7,9 °C 80 % 1003,1 hPa 0,0 mm 0,4 km/h (0 Bft) W 280 ° 0 min 0,000 mm 1,1 UV-I 116 W/m² 4,7 °C 7,9 °C 1,6 km/h (1 Bft)
07.11.2019 13:05 7,9 °C 77 % 1003,0 hPa 0,0 mm 2,9 km/h (1 Bft) W 280 ° 0 min 0,000 mm 1,1 UV-I 116 W/m² 4,1 °C 7,9 °C 4,8 km/h (1 Bft)
07.11.2019 13:06 8,0 °C 76 % 1003,1 hPa 0,0 mm 0,9 km/h (0 Bft) W 280 ° 0 min 0,000 mm 1,1 UV-I 116 W/m² 4,0 °C 8,0 °C 1,6 km/h (1 Bft)
07.11.2019 13:07 8,1 °C 75 % 1003,1 hPa 0,0 mm 0,1 km/h (0 Bft) W 280 ° 0 min 0,000 mm 1,1 UV-I 120 W/m² 3,9 °C 8,1 °C 1,6 km/h (1 Bft)
07.11.2019 13:08 8,1 °C 75 % 1003,1 hPa 0,0 mm 1,4 km/h (1 Bft) W 280 ° 0 min 0,000 mm 1,1 UV-I 125 W/m² 3,9 °C 8,1 °C 3,2 km/h (1 Bft)
07.11.2019 13:09 8,2 °C 75 % 1003,1 hPa 0,0 mm 1,8 km/h (1 Bft) W 280 ° 0 min 0,000 mm 1,1 UV-I 128 W/m² 4,0 °C 8,2 °C 3,2 km/h (1 Bft)
07.11.2019 13:10 8,2 °C 75 % 1003,1 hPa 0,0 mm 1,3 km/h (1 Bft) W 280 ° 0 min 0,000 mm 1,1 UV-I 135 W/m² 4,0 °C 8,2 °C 3,2 km/h (1 Bft)
07.11.2019 13:11 8,2 °C 76 % 1003,1 hPa 0,0 mm 3,9 km/h (1 Bft) W 280 ° 0 min 0,000 mm 1,1 UV-I 141 W/m² 4,2 °C 8,2 °C 6,4 km/h (2 Bft)
07.11.2019 13:12 8,3 °C 76 % 1003,1 hPa 0,0 mm 4,9 km/h (1 Bft) W 280 ° 0 min 0,000 mm 1,1 UV-I 146 W/m² 4,3 °C 7,9 °C 6,4 km/h (2 Bft)
07.11.2019 13:13 8,3 °C 76 % 1003,2 hPa 0,0 mm 2,5 km/h (1 Bft) W 280 ° 0 min 0,000 mm 1,1 UV-I 158 W/m² 4,3 °C 8,3 °C 6,4 km/h (2 Bft)
07.11.2019 13:14 8,3 °C 76 % 1003,2 hPa 0,0 mm 3,5 km/h (1 Bft) W 280 ° 0 min 0,000 mm 1,1 UV-I 163 W/m² 4,3 °C 8,3 °C 6,4 km/h (2 Bft)
07.11.2019 13:15 8,3 °C 75 % 1003,2 hPa 0,0 mm 3,6 km/h (1 Bft) W 280 ° 0 min 0,000 mm 1,2 UV-I 171 W/m² 4,1 °C 8,3 °C 4,8 km/h (1 Bft)
07.11.2019 13:16 8,4 °C 75 % 1003,2 hPa 0,0 mm 3,4 km/h (1 Bft) W-NW 293 ° 0 min 0,000 mm 1,2 UV-I 176 W/m² 4,2 °C 8,4 °C 4,8 km/h (1 Bft)
07.11.2019 13:17 8,4 °C 77 % 1003,2 hPa 0,2 mm 8,3 km/h (2 Bft) W 279 ° 0 min 0,000 mm 1,2 UV-I 183 W/m² 4,6 °C 7,1 °C 11,3 km/h (2 Bft)
07.11.2019 13:18 8,6 °C 77 % 1003,2 hPa 0,0 mm 5,8 km/h (2 Bft) W 259 ° 0 min 0,000 mm 1,2 UV-I 190 W/m² 4,8 °C 7,9 °C 11,3 km/h (2 Bft)
07.11.2019 13:19 8,6 °C 77 % 1003,2 hPa 0,0 mm 11,1 km/h (2 Bft) NW 312 ° 0 min 0,000 mm 1,2 UV-I 188 W/m² 4,8 °C 6,8 °C 14,5 km/h (3 Bft)
07.11.2019 13:20 8,6 °C 77 % 1003,2 hPa 0,0 mm 4,9 km/h (1 Bft) NW 307 ° 0 min 0,000 mm 1,1 UV-I 181 W/m² 4,8 °C 8,2 °C 6,4 km/h (2 Bft)
07.11.2019 13:21 8,6 °C 78 % 1003,2 hPa 0,0 mm 3,9 km/h (1 Bft) W 278 ° 0 min 0,000 mm 1,1 UV-I 176 W/m² 5,0 °C 8,6 °C 6,4 km/h (2 Bft)
07.11.2019 13:22 8,6 °C 78 % 1003,2 hPa 0,0 mm 7,0 km/h (2 Bft) W 275 ° 0 min 0,000 mm 1,1 UV-I 169 W/m² 5,0 °C 7,6 °C 11,3 km/h (2 Bft)
07.11.2019 13:23 8,5 °C 78 % 1003,2 hPa 0,0 mm 9,1 km/h (2 Bft) W 278 ° 0 min 0,000 mm 1,1 UV-I 158 W/m² 4,9 °C 7,0 °C 12,9 km/h (3 Bft)
07.11.2019 13:24 8,4 °C 78 % 1003,2 hPa 0,0 mm 7,0 km/h (2 Bft) W 269 ° 0 min 0,000 mm 1,0 UV-I 149 W/m² 4,8 °C 7,4 °C 12,9 km/h (3 Bft)
07.11.2019 13:25 8,4 °C 78 % 1003,3 hPa 0,0 mm 3,8 km/h (1 Bft) NW 317 ° 0 min 0,000 mm 1,0 UV-I 137 W/m² 4,8 °C 8,4 °C 9,7 km/h (2 Bft)
07.11.2019 13:26 8,4 °C 78 % 1003,2 hPa 0,0 mm 4,0 km/h (1 Bft) NW 314 ° 0 min 0,000 mm 1,0 UV-I 137 W/m² 4,8 °C 8,4 °C 6,4 km/h (2 Bft)
07.11.2019 13:27 8,4 °C 79 % 1003,2 hPa 0,0 mm 4,0 km/h (1 Bft) W 269 ° 0 min 0,000 mm 1,0 UV-I 141 W/m² 5,0 °C 8,4 °C 4,8 km/h (1 Bft)
07.11.2019 13:28 8,3 °C 79 % 1003,2 hPa 0,0 mm 4,6 km/h (1 Bft) NW 319 ° 0 min 0,000 mm 1,0 UV-I 146 W/m² 4,9 °C 8,0 °C 6,4 km/h (2 Bft)
07.11.2019 13:29 8,3 °C 79 % 1003,2 hPa 0,0 mm 5,4 km/h (1 Bft) W 277 ° 0 min 0,000 mm 1,0 UV-I 146 W/m² 4,9 °C 7,7 °C 6,4 km/h (2 Bft)
07.11.2019 13:30 8,3 °C 79 % 1003,2 hPa 0,0 mm 4,8 km/h (1 Bft) W 268 ° 0 min 0,000 mm 1,1 UV-I 172 W/m² 4,9 °C 7,9 °C 9,7 km/h (2 Bft)
07.11.2019 13:31 8,3 °C 77 % 1003,2 hPa 0,0 mm 4,7 km/h (1 Bft) W 269 ° 0 min 0,000 mm 1,1 UV-I 204 W/m² 4,5 °C 7,9 °C 6,4 km/h (2 Bft)
07.11.2019 13:32 8,3 °C 76 % 1003,2 hPa 0,0 mm 4,2 km/h (1 Bft) W-SW 258 ° 0 min 0,000 mm 1,5 UV-I 427 W/m² 4,3 °C 8,3 °C 6,4 km/h (2 Bft)
07.11.2019 13:33 8,3 °C 74 % 1003,1 hPa 0,0 mm 3,6 km/h (1 Bft) W 275 ° 0 min 0,000 mm 1,5 UV-I 411 W/m² 3,9 °C 8,3 °C 6,4 km/h (2 Bft)
07.11.2019 13:34 8,4 °C 77 % 1003,1 hPa 0,0 mm 5,5 km/h (1 Bft) W-NW 291 ° 0 min 0,000 mm 1,5 UV-I 413 W/m² 4,6 °C 7,8 °C 11,3 km/h (2 Bft)
07.11.2019 13:35 8,6 °C 77 % 1003,2 hPa 0,0 mm 8,3 km/h (2 Bft) W 270 ° 0 min 0,000 mm 1,5 UV-I 441 W/m² 4,8 °C 7,3 °C 11,3 km/h (2 Bft)
07.11.2019 13:36 8,7 °C 77 % 1003,2 hPa 0,0 mm 7,5 km/h (2 Bft) W-SW 252 ° 0 min 0,000 mm 1,5 UV-I 427 W/m² 4,9 °C 7,6 °C 11,3 km/h (2 Bft)
07.11.2019 13:37 8,7 °C 77 % 1003,2 hPa 0,0 mm 5,8 km/h (2 Bft) W 277 ° 0 min 0,000 mm 1,6 UV-I 427 W/m² 4,9 °C 8,0 °C 9,7 km/h (2 Bft)
07.11.2019 13:38 8,8 °C 77 % 1003,2 hPa 0,0 mm 5,7 km/h (1 Bft) W-NW 288 ° 0 min 0,000 mm 1,6 UV-I 438 W/m² 5,0 °C 8,2 °C 9,7 km/h (2 Bft)
07.11.2019 13:39 8,8 °C 76 % 1003,2 hPa 0,0 mm 5,2 km/h (1 Bft) W-NW 290 ° 0 min 0,000 mm 1,6 UV-I 469 W/m² 4,8 °C 8,3 °C 8,0 km/h (2 Bft)
07.11.2019 13:40 8,9 °C 77 % 1003,3 hPa 0,0 mm 3,9 km/h (1 Bft) NW 315 ° 0 min 0,000 mm 1,5 UV-I 469 W/m² 5,1 °C 8,9 °C 6,4 km/h (2 Bft)
07.11.2019 13:41 8,9 °C 76 % 1003,3 hPa 0,0 mm 2,7 km/h (1 Bft) NW 315 ° 0 min 0,000 mm 1,3 UV-I 267 W/m² 4,9 °C 8,9 °C 4,8 km/h (1 Bft)
07.11.2019 13:42 8,9 °C 76 % 1003,2 hPa 0,0 mm 0,7 km/h (0 Bft) NW 316 ° 0 min 0,000 mm 1,4 UV-I 318 W/m² 4,9 °C 8,9 °C 3,2 km/h (1 Bft)
07.11.2019 13:43 8,9 °C 76 % 1003,3 hPa 0,0 mm 4,3 km/h (1 Bft) NW 319 ° 0 min 0,000 mm 1,4 UV-I 408 W/m² 4,9 °C 8,9 °C 4,8 km/h (1 Bft)
07.11.2019 13:44 8,9 °C 76 % 1003,3 hPa 0,0 mm 1,1 km/h (1 Bft) NW 318 ° 0 min 0,000 mm 1,6 UV-I 425 W/m² 4,9 °C 8,9 °C 3,2 km/h (1 Bft)
07.11.2019 13:45 8,9 °C 74 % 1003,3 hPa 0,0 mm 0,9 km/h (0 Bft) NW 318 ° 0 min 0,000 mm 1,6 UV-I 434 W/m² 4,5 °C 8,9 °C 3,2 km/h (1 Bft)
07.11.2019 13:46 9,0 °C 75 % 1003,3 hPa 0,0 mm 0,2 km/h (0 Bft) NW 318 ° 0 min 0,000 mm 1,6 UV-I 406 W/m² 4,8 °C 9,0 °C 1,6 km/h (1 Bft)
07.11.2019 13:47 9,1 °C 75 % 1003,3 hPa 0,0 mm 1,5 km/h (1 Bft) NW 318 ° 0 min 0,000 mm 1,6 UV-I 404 W/m² 4,9 °C 9,1 °C 3,2 km/h (1 Bft)
07.11.2019 13:48 9,1 °C 75 % 1003,3 hPa 0,0 mm 3,5 km/h (1 Bft) NW 318 ° 0 min 0,000 mm 1,5 UV-I 283 W/m² 4,9 °C 9,1 °C 4,8 km/h (1 Bft)
07.11.2019 13:49 9,2 °C 76 % 1003,3 hPa 0,0 mm 5,1 km/h (1 Bft) NW 306 ° 0 min 0,000 mm 1,4 UV-I 308 W/m² 5,2 °C 8,8 °C 6,4 km/h (2 Bft)
07.11.2019 13:50 9,2 °C 75 % 1003,3 hPa 0,0 mm 5,6 km/h (1 Bft) W-NW 283 ° 0 min 0,000 mm 1,3 UV-I 269 W/m² 5,0 °C 8,7 °C 9,7 km/h (2 Bft)
07.11.2019 13:51 9,1 °C 74 % 1003,2 hPa 0,0 mm 3,3 km/h (1 Bft) W-NW 282 ° 0 min 0,000 mm 1,3 UV-I 246 W/m² 4,7 °C 9,1 °C 4,8 km/h (1 Bft)
07.11.2019 13:52 9,1 °C 73 % 1003,2 hPa 0,0 mm 1,9 km/h (1 Bft) W-NW 283 ° 0 min 0,000 mm 1,3 UV-I 246 W/m² 4,5 °C 9,1 °C 4,8 km/h (1 Bft)
07.11.2019 13:53 9,1 °C 73 % 1003,2 hPa 0,0 mm 1,6 km/h (1 Bft) W-NW 283 ° 0 min 0,000 mm 1,3 UV-I 285 W/m² 4,5 °C 9,1 °C 3,2 km/h (1 Bft)
07.11.2019 13:54 9,0 °C 74 % 1003,3 hPa 0,0 mm 2,2 km/h (1 Bft) W-NW 283 ° 0 min 0,000 mm 1,3 UV-I 223 W/m² 4,6 °C 9,0 °C 3,2 km/h (1 Bft)
07.11.2019 13:55 9,0 °C 74 % 1003,2 hPa 0,0 mm 2,6 km/h (1 Bft) W-NW 283 ° 0 min 0,000 mm 1,2 UV-I 218 W/m² 4,6 °C 9,0 °C 3,2 km/h (1 Bft)
07.11.2019 13:56 9,1 °C 76 % 1003,2 hPa 0,0 mm 0,9 km/h (0 Bft) W-NW 283 ° 0 min 0,000 mm 1,1 UV-I 169 W/m² 5,1 °C 9,1 °C 3,2 km/h (1 Bft)
07.11.2019 13:57 9,1 °C 75 % 1003,3 hPa 0,0 mm 2,0 km/h (1 Bft) W-NW 283 ° 0 min 0,000 mm 1,1 UV-I 167 W/m² 4,9 °C 9,1 °C 3,2 km/h (1 Bft)
07.11.2019 13:58 9,1 °C 73 % 1003,3 hPa 0,0 mm 4,1 km/h (1 Bft) W-NW 284 ° 0 min 0,000 mm 1,1 UV-I 176 W/m² 4,5 °C 9,1 °C 4,8 km/h (1 Bft)
07.11.2019 13:59 8,9 °C 72 % 1003,3 hPa 0,0 mm 4,1 km/h (1 Bft) NW 325 ° 0 min 0,000 mm 1,1 UV-I 183 W/m² 4,1 °C 8,9 °C 8,0 km/h (2 Bft)
07.11.2019 14:00 8,9 °C 73 % 1003,3 hPa 0,0 mm 9,9 km/h (2 Bft) NW 316 ° 0 min 0,000 mm 1,1 UV-I 209 W/m² 4,3 °C 7,3 °C 12,9 km/h (3 Bft)
07.11.2019 14:01 8,9 °C 73 % 1003,3 hPa 0,0 mm 6,4 km/h (2 Bft) W-NW 291 ° 0 min 0,127 mm 1,1 UV-I 216 W/m² 4,3 °C 8,1 °C 12,9 km/h (3 Bft)
07.11.2019 14:02 8,9 °C 73 % 1003,3 hPa 0,0 mm 3,2 km/h (1 Bft) W-NW 298 ° 0 min 0,000 mm 1,2 UV-I 244 W/m² 4,3 °C 8,9 °C 6,4 km/h (2 Bft)
07.11.2019 14:03 8,9 °C 73 % 1003,4 hPa 0,0 mm 7,5 km/h (2 Bft) W-NW 296 ° 0 min 0,000 mm 1,3 UV-I 308 W/m² 4,3 °C 7,8 °C 11,3 km/h (2 Bft)
07.11.2019 14:04 8,9 °C 73 % 1003,4 hPa 0,0 mm 6,6 km/h (2 Bft) W 269 ° 0 min 0,000 mm 1,2 UV-I 285 W/m² 4,3 °C 8,0 °C 11,3 km/h (2 Bft)
07.11.2019 14:05 9,0 °C 73 % 1003,4 hPa 0,0 mm 5,1 km/h (1 Bft) W 278 ° 0 min 0,000 mm 1,2 UV-I 315 W/m² 4,4 °C 8,6 °C 6,4 km/h (2 Bft)
07.11.2019 14:06 9,0 °C 73 % 1003,4 hPa 0,0 mm 8,1 km/h (2 Bft) NW 319 ° 0 min 0,000 mm 1,3 UV-I 309 W/m² 4,4 °C 7,8 °C 12,9 km/h (3 Bft)
07.11.2019 14:07 9,1 °C 73 % 1003,4 hPa 0,0 mm 5,8 km/h (2 Bft) NW 309 ° 0 min 0,000 mm 1,3 UV-I 323 W/m² 4,5 °C 8,5 °C 8,0 km/h (2 Bft)
07.11.2019 14:08 9,1 °C 73 % 1003,5 hPa 0,0 mm 6,5 km/h (2 Bft) W-NW 283 ° 0 min 0,000 mm 1,2 UV-I 257 W/m² 4,5 °C 8,3 °C 11,3 km/h (2 Bft)
07.11.2019 14:09 9,1 °C 73 % 1003,5 hPa 0,0 mm 9,7 km/h (2 Bft) W 267 ° 0 min 0,000 mm 1,2 UV-I 237 W/m² 4,5 °C 7,6 °C 16,1 km/h (3 Bft)
07.11.2019 14:10 9,1 °C 72 % 1003,5 hPa 0,0 mm 10,6 km/h (2 Bft) W-NW 293 ° 0 min 0,000 mm 1,2 UV-I 258 W/m² 4,3 °C 7,5 °C 16,1 km/h (3 Bft)
07.11.2019 14:11 9,1 °C 71 % 1003,6 hPa 0,0 mm 12,1 km/h (2 Bft) W-NW 292 ° 0 min 0,000 mm 1,1 UV-I 207 W/m² 4,1 °C 7,2 °C 19,3 km/h (3 Bft)
07.11.2019 14:12 9,1 °C 71 % 1003,6 hPa 0,0 mm 10,7 km/h (2 Bft) W-NW 284 ° 0 min 0,000 mm 1,0 UV-I 169 W/m² 4,1 °C 7,4 °C 16,1 km/h (3 Bft)
07.11.2019 14:13 9,1 °C 71 % 1003,6 hPa 0,0 mm 8,7 km/h (2 Bft) W-NW 298 ° 0 min 0,000 mm 1,0 UV-I 149 W/m² 4,1 °C 7,8 °C 14,5 km/h (3 Bft)
07.11.2019 14:14 9,1 °C 72 % 1003,6 hPa 0,0 mm 5,1 km/h (1 Bft) NW 306 ° 0 min 0,000 mm 0,9 UV-I 134 W/m² 4,3 °C 8,7 °C 6,4 km/h (2 Bft)
07.11.2019 14:15 9,0 °C 72 % 1003,6 hPa 0,0 mm 7,6 km/h (2 Bft) NW 317 ° 0 min 0,000 mm 0,9 UV-I 114 W/m² 4,2 °C 7,9 °C 11,3 km/h (2 Bft)
07.11.2019 14:16 9,0 °C 71 % 1003,7 hPa 0,0 mm 9,1 km/h (2 Bft) W-NW 300 ° 0 min 0,000 mm 0,9 UV-I 102 W/m² 4,0 °C 7,6 °C 16,1 km/h (3 Bft)
07.11.2019 14:17 8,9 °C 72 % 1003,7 hPa 0,0 mm 7,7 km/h (2 Bft) N-NW 341 ° 0 min 0,000 mm 0,8 UV-I 90 W/m² 4,1 °C 7,8 °C 11,3 km/h (2 Bft)
07.11.2019 14:18 8,9 °C 72 % 1003,7 hPa 0,0 mm 8,6 km/h (2 Bft) W-NW 284 ° 0 min 0,000 mm 0,8 UV-I 74 W/m² 4,1 °C 7,6 °C 14,5 km/h (3 Bft)
07.11.2019 14:19 8,8 °C 72 % 1003,7 hPa 0,0 mm 5,0 km/h (1 Bft) NW 315 ° 0 min 0,000 mm 0,8 UV-I 67 W/m² 4,0 °C 8,4 °C 6,4 km/h (2 Bft)
07.11.2019 14:20 8,8 °C 73 % 1003,6 hPa 0,0 mm 5,2 km/h (1 Bft) NW 306 ° 0 min 0,000 mm 0,7 UV-I 63 W/m² 4,2 °C 8,3 °C 6,4 km/h (2 Bft)
07.11.2019 14:21 8,7 °C 73 % 1003,7 hPa 0,0 mm 7,0 km/h (2 Bft) NW 307 ° 0 min 0,000 mm 0,7 UV-I 62 W/m² 4,1 °C 7,7 °C 12,9 km/h (3 Bft)
07.11.2019 14:22 8,6 °C 73 % 1003,7 hPa 0,0 mm 4,9 km/h (1 Bft) W-NW 292 ° 0 min 0,000 mm 0,7 UV-I 62 W/m² 4,0 °C 8,2 °C 6,4 km/h (2 Bft)
07.11.2019 14:23 8,6 °C 74 % 1003,7 hPa 0,0 mm 6,2 km/h (2 Bft) W 269 ° 0 min 0,000 mm 0,7 UV-I 62 W/m² 4,2 °C 7,8 °C 9,7 km/h (2 Bft)
07.11.2019 14:24 8,4 °C 73 % 1003,7 hPa 0,0 mm 4,8 km/h (1 Bft) W-SW 251 ° 0 min 0,000 mm 0,7 UV-I 65 W/m² 3,8 °C 8,0 °C 6,4 km/h (2 Bft)
07.11.2019 14:25 8,4 °C 74 % 1003,8 hPa 0,0 mm 6,8 km/h (2 Bft) W 263 ° 0 min 0,000 mm 0,7 UV-I 69 W/m² 4,0 °C 7,4 °C 11,3 km/h (2 Bft)
07.11.2019 14:26 8,4 °C 74 % 1003,8 hPa 0,0 mm 4,7 km/h (1 Bft) W-NW 303 ° 0 min 0,000 mm 0,7 UV-I 72 W/m² 4,0 °C 8,0 °C 9,7 km/h (2 Bft)
07.11.2019 14:27 8,3 °C 73 % 1003,8 hPa 0,0 mm 6,2 km/h (2 Bft) W 259 ° 0 min 0,000 mm 0,7 UV-I 77 W/m² 3,8 °C 7,5 °C 9,7 km/h (2 Bft)
07.11.2019 14:28 8,3 °C 73 % 1003,9 hPa 0,0 mm 5,4 km/h (1 Bft) W 265 ° 0 min 0,000 mm 0,7 UV-I 83 W/m² 3,8 °C 7,7 °C 9,7 km/h (2 Bft)
07.11.2019 14:29 8,3 °C 74 % 1003,9 hPa 0,0 mm 4,0 km/h (1 Bft) W 277 ° 0 min 0,000 mm 0,7 UV-I 93 W/m² 3,9 °C 8,3 °C 6,4 km/h (2 Bft)
07.11.2019 14:30 8,3 °C 74 % 1003,9 hPa 0,0 mm 1,7 km/h (1 Bft) W 276 ° 0 min 0,000 mm 0,7 UV-I 97 W/m² 3,9 °C 8,3 °C 4,8 km/h (1 Bft)
07.11.2019 14:31 8,3 °C 74 % 1003,9 hPa 0,0 mm 0,0 km/h (0 Bft) W 276 ° 0 min 0,000 mm 0,7 UV-I 98 W/m² 3,9 °C 8,3 °C 0,0 km/h (0 Bft)
07.11.2019 14:32 8,3 °C 75 % 1003,9 hPa 0,0 mm 1,4 km/h (1 Bft) W 276 ° 0 min 0,000 mm 0,7 UV-I 100 W/m² 4,1 °C 8,3 °C 3,2 km/h (1 Bft)
07.11.2019 14:33 8,3 °C 75 % 1003,9 hPa 0,0 mm 2,0 km/h (1 Bft) W 276 ° 0 min 0,000 mm 0,7 UV-I 100 W/m² 4,1 °C 8,3 °C 3,2 km/h (1 Bft)
07.11.2019 14:34 8,3 °C 75 % 1003,9 hPa 0,0 mm 1,2 km/h (1 Bft) W 276 ° 0 min 0,000 mm 0,7 UV-I 98 W/m² 4,1 °C 8,3 °C 4,8 km/h (1 Bft)
07.11.2019 14:35 8,3 °C 75 % 1003,9 hPa 0,0 mm 4,8 km/h (1 Bft) W-SW 255 ° 0 min 0,000 mm 0,7 UV-I 95 W/m² 4,1 °C 7,9 °C 6,4 km/h (2 Bft)
07.11.2019 14:36 8,3 °C 74 % 1003,9 hPa 0,0 mm 1,3 km/h (1 Bft) W-SW 255 ° 0 min 0,000 mm 0,6 UV-I 91 W/m² 3,9 °C 8,3 °C 3,2 km/h (1 Bft)
07.11.2019 14:37 8,3 °C 75 % 1003,8 hPa 0,0 mm 2,9 km/h (1 Bft) SW 233 ° 0 min 0,000 mm 0,6 UV-I 90 W/m² 4,1 °C 8,3 °C 6,4 km/h (2 Bft)
07.11.2019 14:38 8,3 °C 75 % 1003,8 hPa 0,0 mm 3,2 km/h (1 Bft) SW 232 ° 0 min 0,000 mm 0,6 UV-I 88 W/m² 4,1 °C 8,3 °C 4,8 km/h (1 Bft)
07.11.2019 14:39 8,4 °C 74 % 1003,9 hPa 0,0 mm 3,1 km/h (1 Bft) W-SW 238 ° 0 min 0,000 mm 0,6 UV-I 86 W/m² 4,0 °C 8,4 °C 6,4 km/h (2 Bft)
07.11.2019 14:40 8,4 °C 74 % 1003,8 hPa 0,0 mm 3,8 km/h (1 Bft) W-SW 238 ° 0 min 0,000 mm 0,6 UV-I 86 W/m² 4,0 °C 8,4 °C 4,8 km/h (1 Bft)
07.11.2019 14:41 8,4 °C 74 % 1003,8 hPa 0,0 mm 3,2 km/h (1 Bft) W-SW 238 ° 0 min 0,000 mm 0,6 UV-I 86 W/m² 4,0 °C 8,4 °C 4,8 km/h (1 Bft)
07.11.2019 14:42 8,4 °C 76 % 1003,8 hPa 0,0 mm 3,1 km/h (1 Bft) W-SW 238 ° 0 min 0,000 mm 0,5 UV-I 86 W/m² 4,4 °C 8,4 °C 4,8 km/h (1 Bft)
07.11.2019 14:43 8,4 °C 75 % 1003,8 hPa 0,0 mm 3,7 km/h (1 Bft) W-SW 238 ° 0 min 0,000 mm 0,5 UV-I 88 W/m² 4,2 °C 8,4 °C 4,8 km/h (1 Bft)
07.11.2019 14:44 8,4 °C 76 % 1003,9 hPa 0,0 mm 3,6 km/h (1 Bft) W-SW 238 ° 0 min 0,000 mm 0,5 UV-I 88 W/m² 4,4 °C 8,4 °C 4,8 km/h (1 Bft)
07.11.2019 14:45 8,4 °C 76 % 1003,9 hPa 0,0 mm 3,2 km/h (1 Bft) W-SW 238 ° 0 min 0,000 mm 0,5 UV-I 88 W/m² 4,4 °C 8,4 °C 4,8 km/h (1 Bft)
07.11.2019 14:46 8,3 °C 76 % 1003,9 hPa 0,0 mm 5,5 km/h (1 Bft) W 274 ° 0 min 0,000 mm 0,5 UV-I 88 W/m² 4,3 °C 7,7 °C 9,7 km/h (2 Bft)
07.11.2019 14:47 8,3 °C 76 % 1003,9 hPa 0,0 mm 3,8 km/h (1 Bft) W 270 ° 0 min 0,000 mm 0,5 UV-I 88 W/m² 4,3 °C 8,3 °C 4,8 km/h (1 Bft)
07.11.2019 14:48 8,3 °C 74 % 1003,8 hPa 0,2 mm 3,2 km/h (1 Bft) SW 230 ° 0 min 0,000 mm 0,5 UV-I 88 W/m² 3,9 °C 8,3 °C 4,8 km/h (1 Bft)
07.11.2019 14:49 8,4 °C 74 % 1003,8 hPa 0,0 mm 0,6 km/h (0 Bft) SW 230 ° 0 min 0,000 mm 0,5 UV-I 88 W/m² 4,0 °C 8,4 °C 3,2 km/h (1 Bft)
07.11.2019 14:50 8,4 °C 74 % 1003,7 hPa 0,0 mm 0,0 km/h (0 Bft) SW 230 ° 0 min 0,000 mm 0,5 UV-I 88 W/m² 4,0 °C 8,4 °C 0,0 km/h (0 Bft)
07.11.2019 14:51 8,4 °C 75 % 1003,7 hPa 0,0 mm 0,0 km/h (0 Bft) SW 230 ° 0 min 0,000 mm 0,5 UV-I 90 W/m² 4,2 °C 8,4 °C 0,0 km/h (0 Bft)
07.11.2019 14:52 8,4 °C 76 % 1003,7 hPa 0,0 mm 0,0 km/h (0 Bft) SW 230 ° 0 min 0,000 mm 0,5 UV-I 90 W/m² 4,4 °C 8,4 °C 0,0 km/h (0 Bft)
07.11.2019 14:53 8,4 °C 76 % 1003,7 hPa 0,0 mm 0,0 km/h (0 Bft) SW 230 ° 0 min 0,000 mm 0,5 UV-I 90 W/m² 4,4 °C 8,4 °C 0,0 km/h (0 Bft)
07.11.2019 14:54 8,4 °C 76 % 1003,7 hPa 0,0 mm 0,0 km/h (0 Bft) SW 230 ° 0 min 0,000 mm 0,5 UV-I 91 W/m² 4,4 °C 8,4 °C 0,0 km/h (0 Bft)
07.11.2019 14:55 8,4 °C 75 % 1003,7 hPa 0,0 mm 0,0 km/h (0 Bft) SW 230 ° 0 min 0,000 mm 0,5 UV-I 97 W/m² 4,2 °C 8,4 °C 0,0 km/h (0 Bft)
07.11.2019 14:56 8,4 °C 75 % 1003,7 hPa 0,0 mm 0,0 km/h (0 Bft) SW 230 ° 0 min 0,000 mm 0,5 UV-I 102 W/m² 4,2 °C 8,4 °C 0,0 km/h (0 Bft)
07.11.2019 14:57 8,4 °C 76 % 1003,7 hPa 0,0 mm 0,0 km/h (0 Bft) SW 230 ° 0 min 0,000 mm 0,5 UV-I 107 W/m² 4,4 °C 8,4 °C 0,0 km/h (0 Bft)
07.11.2019 14:58 8,4 °C 76 % 1003,8 hPa 0,0 mm 0,0 km/h (0 Bft) SW 230 ° 0 min 0,000 mm 0,5 UV-I 114 W/m² 4,4 °C 8,4 °C 0,0 km/h (0 Bft)
07.11.2019 14:59 8,4 °C 75 % 1003,8 hPa 0,0 mm 0,0 km/h (0 Bft) SW 230 ° 0 min 0,000 mm 0,5 UV-I 114 W/m² 4,2 °C 8,4 °C 0,0 km/h (0 Bft)
07.11.2019 15:00 8,4 °C 76 % 1003,8 hPa 0,0 mm 0,0 km/h (0 Bft) SW 230 ° 0 min 0,000 mm 0,5 UV-I 113 W/m² 4,4 °C 8,4 °C 0,0 km/h (0 Bft)
07.11.2019 15:01 8,4 °C 74 % 1003,9 hPa 0,0 mm 0,0 km/h (0 Bft) SW 230 ° 0 min 0,076 mm 0,5 UV-I 118 W/m² 4,0 °C 8,4 °C 0,0 km/h (0 Bft)
07.11.2019 15:02 8,4 °C 75 % 1003,9 hPa 0,0 mm 0,0 km/h (0 Bft) SW 230 ° 0 min 0,000 mm 0,5 UV-I 121 W/m² 4,2 °C 8,4 °C 0,0 km/h (0 Bft)
07.11.2019 15:03 8,4 °C 76 % 1003,9 hPa 0,0 mm 0,0 km/h (0 Bft) SW 230 ° 0 min 0,000 mm 0,5 UV-I 134 W/m² 4,4 °C 8,4 °C 0,0 km/h (0 Bft)
07.11.2019 15:04 8,4 °C 76 % 1003,9 hPa 0,0 mm 0,0 km/h (0 Bft) SW 230 ° 0 min 0,000 mm 0,5 UV-I 125 W/m² 4,4 °C 8,4 °C 0,0 km/h (0 Bft)
07.11.2019 15:05 8,4 °C 77 % 1003,9 hPa 0,0 mm 0,0 km/h (0 Bft) SW 230 ° 0 min 0,000 mm 0,5 UV-I 116 W/m² 4,6 °C 8,4 °C 0,0 km/h (0 Bft)
07.11.2019 15:06 8,4 °C 76 % 1003,9 hPa 0,0 mm 0,0 km/h (0 Bft) SW 230 ° 0 min 0,000 mm 0,5 UV-I 116 W/m² 4,4 °C 8,4 °C 0,0 km/h (0 Bft)
07.11.2019 15:07 8,4 °C 77 % 1003,9 hPa 0,0 mm 0,0 km/h (0 Bft) SW 230 ° 0 min 0,000 mm 0,5 UV-I 116 W/m² 4,6 °C 8,4 °C 0,0 km/h (0 Bft)
07.11.2019 15:08 8,3 °C 78 % 1003,9 hPa 0,0 mm 0,0 km/h (0 Bft) SW 230 ° 0 min 0,000 mm 0,5 UV-I 116 W/m² 4,7 °C 8,3 °C 0,0 km/h (0 Bft)
07.11.2019 15:09 8,3 °C 76 % 1003,9 hPa 0,0 mm 0,0 km/h (0 Bft) SW 230 ° 0 min 0,000 mm 0,5 UV-I 114 W/m² 4,3 °C 8,3 °C 0,0 km/h (0 Bft)
07.11.2019 15:10 8,3 °C 77 % 1003,9 hPa 0,0 mm 0,0 km/h (0 Bft) SW 230 ° 0 min 0,000 mm 0,5 UV-I 111 W/m² 4,5 °C 8,3 °C 0,0 km/h (0 Bft)
07.11.2019 15:11 8,3 °C 76 % 1003,9 hPa 0,0 mm 0,0 km/h (0 Bft) SW 230 ° 0 min 0,000 mm 0,5 UV-I 111 W/m² 4,3 °C 8,3 °C 0,0 km/h (0 Bft)
07.11.2019 15:12 8,4 °C 76 % 1003,9 hPa 0,0 mm 0,0 km/h (0 Bft) SW 230 ° 0 min 0,000 mm 0,5 UV-I 107 W/m² 4,4 °C 8,4 °C 0,0 km/h (0 Bft)
07.11.2019 15:13 8,4 °C 76 % 1003,9 hPa 0,0 mm 0,0 km/h (0 Bft) SW 230 ° 0 min 0,000 mm 0,5 UV-I 104 W/m² 4,4 °C 8,4 °C 0,0 km/h (0 Bft)
07.11.2019 15:14 8,4 °C 77 % 1003,9 hPa 0,0 mm 0,0 km/h (0 Bft) SW 230 ° 0 min 0,000 mm 0,5 UV-I 102 W/m² 4,6 °C 8,4 °C 0,0 km/h (0 Bft)
07.11.2019 15:15 8,3 °C 80 % 1003,8 hPa 0,0 mm 0,0 km/h (0 Bft) SW 230 ° 0 min 0,000 mm 0,5 UV-I 100 W/m² 5,1 °C 8,3 °C 0,0 km/h (0 Bft)
07.11.2019 15:16 8,3 °C 79 % 1004,0 hPa 0,0 mm 0,0 km/h (0 Bft) SW 230 ° 0 min 0,000 mm 0,5 UV-I 98 W/m² 4,9 °C 8,3 °C 0,0 km/h (0 Bft)
07.11.2019 15:17 8,3 °C 79 % 1003,9 hPa 0,0 mm 0,0 km/h (0 Bft) SW 230 ° 0 min 0,000 mm 0,5 UV-I 91 W/m² 4,9 °C 8,3 °C 0,0 km/h (0 Bft)
07.11.2019 15:18 8,3 °C 77 % 1003,9 hPa 0,0 mm 0,0 km/h (0 Bft) SW 230 ° 0 min 0,000 mm 0,5 UV-I 88 W/m² 4,5 °C 8,3 °C 0,0 km/h (0 Bft)
07.11.2019 15:19 8,3 °C 78 % 1004,0 hPa 0,0 mm 2,3 km/h (1 Bft) SW 230 ° 0 min 0,000 mm 0,5 UV-I 84 W/m² 4,7 °C 8,3 °C 3,2 km/h (1 Bft)
07.11.2019 15:20 8,3 °C 77 % 1004,0 hPa 0,0 mm 2,3 km/h (1 Bft) SW 230 ° 0 min 0,000 mm 0,5 UV-I 81 W/m² 4,5 °C 8,3 °C 3,2 km/h (1 Bft)
07.11.2019 15:21 8,3 °C 76 % 1004,0 hPa 0,0 mm 0,3 km/h (0 Bft) SW 230 ° 0 min 0,000 mm 0,5 UV-I 77 W/m² 4,3 °C 8,3 °C 1,6 km/h (1 Bft)
07.11.2019 15:22 8,3 °C 76 % 1004,1 hPa 0,0 mm 1,5 km/h (1 Bft) SW 230 ° 0 min 0,000 mm 0,5 UV-I 72 W/m² 4,3 °C 8,3 °C 4,8 km/h (1 Bft)
07.11.2019 15:23 8,4 °C 76 % 1004,0 hPa 0,0 mm 2,3 km/h (1 Bft) SW 230 ° 0 min 0,000 mm 0,5 UV-I 70 W/m² 4,4 °C 8,4 °C 3,2 km/h (1 Bft)
07.11.2019 15:24 8,4 °C 75 % 1004,0 hPa 0,0 mm 0,0 km/h (0 Bft) SW 230 ° 0 min 0,000 mm 0,5 UV-I 69 W/m² 4,2 °C 8,4 °C 0,0 km/h (0 Bft)
07.11.2019 15:25 8,3 °C 76 % 1004,1 hPa 0,0 mm 0,0 km/h (0 Bft) SW 230 ° 0 min 0,000 mm 0,0 UV-I 69 W/m² 4,3 °C 8,3 °C 0,0 km/h (0 Bft)
07.11.2019 15:26 8,3 °C 76 % 1004,1 hPa 0,0 mm 0,8 km/h (0 Bft) SW 230 ° 0 min 0,000 mm 0,0 UV-I 67 W/m² 4,3 °C 8,3 °C 4,8 km/h (1 Bft)
07.11.2019 15:27 8,3 °C 76 % 1004,0 hPa 0,0 mm 2,8 km/h (1 Bft) SW 230 ° 0 min 0,000 mm 0,0 UV-I 65 W/m² 4,3 °C 8,3 °C 6,4 km/h (2 Bft)
07.11.2019 15:28 8,2 °C 77 % 1004,1 hPa 0,0 mm 3,3 km/h (1 Bft) SW 231 ° 0 min 0,000 mm 0,0 UV-I 62 W/m² 4,4 °C 8,2 °C 4,8 km/h (1 Bft)
07.11.2019 15:29 8,1 °C 77 % 1004,0 hPa 0,0 mm 1,6 km/h (1 Bft) SW 231 ° 0 min 0,000 mm 0,0 UV-I 62 W/m² 4,3 °C 8,1 °C 3,2 km/h (1 Bft)
07.11.2019 15:30 8,1 °C 76 % 1004,0 hPa 0,0 mm 1,0 km/h (0 Bft) SW 231 ° 0 min 0,000 mm 0,0 UV-I 60 W/m² 4,1 °C 8,1 °C 3,2 km/h (1 Bft)
07.11.2019 15:31 8,1 °C 77 % 1003,9 hPa 0,0 mm 0,0 km/h (0 Bft) SW 231 ° 0 min 0,000 mm 0,0 UV-I 60 W/m² 4,3 °C 8,1 °C 0,0 km/h (0 Bft)
07.11.2019 15:32 8,0 °C 77 % 1003,9 hPa 0,0 mm 0,0 km/h (0 Bft) SW 231 ° 0 min 0,000 mm 0,0 UV-I 60 W/m² 4,2 °C 8,0 °C 0,0 km/h (0 Bft)
07.11.2019 15:33 8,0 °C 76 % 1003,9 hPa 0,0 mm 0,0 km/h (0 Bft) SW 231 ° 0 min 0,000 mm 0,0 UV-I 60 W/m² 4,0 °C 8,0 °C 0,0 km/h (0 Bft)
07.11.2019 15:34 7,9 °C 76 % 1003,9 hPa 0,0 mm 0,0 km/h (0 Bft) SW 230 ° 0 min 0,000 mm 0,0 UV-I 60 W/m² 3,9 °C 7,9 °C 0,0 km/h (0 Bft)
07.11.2019 15:35 7,9 °C 76 % 1003,9 hPa 0,0 mm 0,0 km/h (0 Bft) SW 231 ° 0 min 0,000 mm 0,0 UV-I 60 W/m² 3,9 °C 7,9 °C 0,0 km/h (0 Bft)
07.11.2019 15:36 7,9 °C 76 % 1003,9 hPa 0,0 mm 0,0 km/h (0 Bft) SW 231 ° 0 min 0,000 mm 0,0 UV-I 58 W/m² 3,9 °C 7,9 °C 0,0 km/h (0 Bft)
07.11.2019 15:37 7,9 °C 76 % 1003,9 hPa 0,0 mm 0,0 km/h (0 Bft) SW 231 ° 0 min 0,000 mm 0,0 UV-I 58 W/m² 3,9 °C 7,9 °C 0,0 km/h (0 Bft)
07.11.2019 15:38 7,9 °C 76 % 1003,9 hPa 0,0 mm 0,0 km/h (0 Bft) SW 231 ° 0 min 0,000 mm 0,0 UV-I 56 W/m² 3,9 °C 7,9 °C 0,0 km/h (0 Bft)
07.11.2019 15:39 7,9 °C 76 % 1003,9 hPa 0,0 mm 0,0 km/h (0 Bft) SW 231 ° 0 min 0,000 mm 0,0 UV-I 54 W/m² 3,9 °C 7,9 °C 0,0 km/h (0 Bft)
07.11.2019 15:40 7,9 °C 75 % 1003,9 hPa 0,0 mm 0,0 km/h (0 Bft) SW 231 ° 0 min 0,000 mm 0,0 UV-I 53 W/m² 3,7 °C 7,9 °C 0,0 km/h (0 Bft)
07.11.2019 15:41 7,9 °C 76 % 1003,9 hPa 0,0 mm 0,0 km/h (0 Bft) SW 231 ° 0 min 0,000 mm 0,0 UV-I 51 W/m² 3,9 °C 7,9 °C 0,0 km/h (0 Bft)
07.11.2019 15:42 7,8 °C 76 % 1003,9 hPa 0,0 mm 0,0 km/h (0 Bft) SW 230 ° 0 min 0,000 mm 0,0 UV-I 51 W/m² 3,8 °C 7,8 °C 0,0 km/h (0 Bft)
07.11.2019 15:43 7,8 °C 76 % 1003,9 hPa 0,0 mm 0,0 km/h (0 Bft) SW 231 ° 0 min 0,000 mm 0,0 UV-I 49 W/m² 3,8 °C 7,8 °C 0,0 km/h (0 Bft)
07.11.2019 15:44 7,8 °C 76 % 1003,9 hPa 0,0 mm 0,0 km/h (0 Bft) SW 230 ° 0 min 0,000 mm 0,0 UV-I 49 W/m² 3,8 °C 7,8 °C 0,0 km/h (0 Bft)
07.11.2019 15:45 7,8 °C 77 % 1003,9 hPa 0,0 mm 0,0 km/h (0 Bft) SW 230 ° 0 min 0,000 mm 0,0 UV-I 46 W/m² 4,0 °C 7,8 °C 0,0 km/h (0 Bft)
07.11.2019 15:46 7,8 °C 78 % 1003,9 hPa 0,0 mm 0,0 km/h (0 Bft) SW 229 ° 0 min 0,000 mm 0,0 UV-I 46 W/m² 4,2 °C 7,8 °C 0,0 km/h (0 Bft)
07.11.2019 15:47 7,7 °C 78 % 1003,9 hPa 0,0 mm 0,0 km/h (0 Bft) SW 228 ° 0 min 0,000 mm 0,0 UV-I 44 W/m² 4,1 °C 7,7 °C 0,0 km/h (0 Bft)
07.11.2019 15:48 7,7 °C 79 % 1003,9 hPa 0,0 mm 0,0 km/h (0 Bft) SW 228 ° 0 min 0,000 mm 0,0 UV-I 44 W/m² 4,3 °C 7,7 °C 0,0 km/h (0 Bft)
07.11.2019 15:49 7,7 °C 79 % 1003,9 hPa 0,0 mm 0,0 km/h (0 Bft) SW 228 ° 0 min 0,000 mm 0,0 UV-I 42 W/m² 4,3 °C 7,7 °C 0,0 km/h (0 Bft)
07.11.2019 15:50 7,6 °C 79 % 1004,0 hPa 0,0 mm 0,6 km/h (0 Bft) SW 228 ° 0 min 0,000 mm 0,0 UV-I 42 W/m² 4,2 °C 7,6 °C 3,2 km/h (1 Bft)
07.11.2019 15:51 7,6 °C 79 % 1003,9 hPa 0,0 mm 0,2 km/h (0 Bft) SW 228 ° 0 min 0,000 mm 0,0 UV-I 42 W/m² 4,2 °C 7,6 °C 1,6 km/h (1 Bft)
07.11.2019 15:52 7,6 °C 79 % 1003,9 hPa 0,0 mm 0,0 km/h (0 Bft) SW 228 ° 0 min 0,000 mm 0,0 UV-I 42 W/m² 4,2 °C 7,6 °C 0,0 km/h (0 Bft)
07.11.2019 15:53 7,5 °C 79 % 1004,0 hPa 0,0 mm 0,0 km/h (0 Bft) SW 228 ° 0 min 0,000 mm 0,0 UV-I 40 W/m² 4,1 °C 7,5 °C 0,0 km/h (0 Bft)
07.11.2019 15:54 7,4 °C 79 % 1004,0 hPa 0,0 mm 0,0 km/h (0 Bft) SW 228 ° 0 min 0,000 mm 0,0 UV-I 40 W/m² 4,0 °C 7,4 °C 0,0 km/h (0 Bft)
07.11.2019 15:55 7,4 °C 79 % 1004,0 hPa 0,0 mm 0,0 km/h (0 Bft) SW 228 ° 0 min 0,000 mm 0,0 UV-I 40 W/m² 4,0 °C 7,4 °C 0,0 km/h (0 Bft)
07.11.2019 15:56 7,4 °C 80 % 1004,0 hPa 0,0 mm 0,0 km/h (0 Bft) SW 228 ° 0 min 0,000 mm 0,0 UV-I 40 W/m² 4,2 °C 7,4 °C 0,0 km/h (0 Bft)
07.11.2019 15:57 7,4 °C 79 % 1004,0 hPa 0,0 mm 0,0 km/h (0 Bft) SW 228 ° 0 min 0,000 mm 0,0 UV-I 40 W/m² 4,0 °C 7,4 °C 0,0 km/h (0 Bft)
07.11.2019 15:58 7,3 °C 80 % 1003,9 hPa 0,0 mm 0,0 km/h (0 Bft) SW 228 ° 0 min 0,000 mm 0,0 UV-I 39 W/m² 4,1 °C 7,3 °C 0,0 km/h (0 Bft)
07.11.2019 15:59 7,3 °C 80 % 1004,0 hPa 0,0 mm 0,0 km/h (0 Bft) SW 228 ° 0 min 0,000 mm 0,0 UV-I 39 W/m² 4,1 °C 7,3 °C 0,0 km/h (0 Bft)
07.11.2019 16:00 7,2 °C 80 % 1004,0 hPa 0,0 mm 0,0 km/h (0 Bft) SW 228 ° 0 min 0,000 mm 0,0 UV-I 39 W/m² 4,0 °C 7,2 °C 0,0 km/h (0 Bft)
07.11.2019 16:01 7,2 °C 81 % 1004,0 hPa 0,0 mm 0,0 km/h (0 Bft) SW 228 ° 0 min 0,025 mm 0,0 UV-I 37 W/m² 4,2 °C 7,2 °C 0,0 km/h (0 Bft)
07.11.2019 16:02 7,2 °C 80 % 1004,1 hPa 0,0 mm 0,0 km/h (0 Bft) SW 228 ° 0 min 0,000 mm 0,0 UV-I 37 W/m² 4,0 °C 7,2 °C 0,0 km/h (0 Bft)
07.11.2019 16:03 7,2 °C 80 % 1004,1 hPa 0,0 mm 0,0 km/h (0 Bft) SW 228 ° 0 min 0,000 mm 0,0 UV-I 35 W/m² 4,0 °C 7,2 °C 0,0 km/h (0 Bft)
07.11.2019 16:04 7,2 °C 81 % 1004,1 hPa 0,0 mm 0,0 km/h (0 Bft) SW 228 ° 0 min 0,000 mm 0,0 UV-I 35 W/m² 4,2 °C 7,2 °C 0,0 km/h (0 Bft)
07.11.2019 16:05 7,1 °C 81 % 1004,1 hPa 0,0 mm 0,0 km/h (0 Bft) SW 228 ° 0 min 0,000 mm 0,0 UV-I 35 W/m² 4,1 °C 7,1 °C 0,0 km/h (0 Bft)
07.11.2019 16:06 7,1 °C 81 % 1004,1 hPa 0,0 mm 0,0 km/h (0 Bft) SW 228 ° 0 min 0,000 mm 0,0 UV-I 33 W/m² 4,1 °C 7,1 °C 0,0 km/h (0 Bft)
07.11.2019 16:07 7,1 °C 81 % 1004,0 hPa 0,0 mm 0,0 km/h (0 Bft) SW 228 ° 0 min 0,000 mm 0,0 UV-I 33 W/m² 4,1 °C 7,1 °C 0,0 km/h (0 Bft)
07.11.2019 16:08 7,0 °C 82 % 1004,1 hPa 0,0 mm 0,0 km/h (0 Bft) SW 228 ° 0 min 0,000 mm 0,0 UV-I 33 W/m² 4,1 °C 7,0 °C 0,0 km/h (0 Bft)
07.11.2019 16:09 6,9 °C 82 % 1004,1 hPa 0,0 mm 0,0 km/h (0 Bft) SW 228 ° 0 min 0,000 mm 0,0 UV-I 32 W/m² 4,0 °C 6,9 °C 0,0 km/h (0 Bft)
07.11.2019 16:10 6,9 °C 83 % 1004,1 hPa 0,0 mm 0,0 km/h (0 Bft) SW 227 ° 0 min 0,000 mm 0,0 UV-I 32 W/m² 4,2 °C 6,9 °C 0,0 km/h (0 Bft)
07.11.2019 16:11 6,9 °C 82 % 1004,1 hPa 0,0 mm 0,0 km/h (0 Bft) SW 227 ° 0 min 0,000 mm 0,0 UV-I 32 W/m² 4,0 °C 6,9 °C 0,0 km/h (0 Bft)
07.11.2019 16:12 6,9 °C 82 % 1004,1 hPa 0,0 mm 0,0 km/h (0 Bft) SW 227 ° 0 min 0,000 mm 0,0 UV-I 30 W/m² 4,0 °C 6,9 °C 0,0 km/h (0 Bft)
07.11.2019 16:13 6,8 °C 82 % 1004,1 hPa 0,0 mm 0,0 km/h (0 Bft) SW 227 ° 0 min 0,000 mm 0,0 UV-I 30 W/m² 3,9 °C 6,8 °C 0,0 km/h (0 Bft)
07.11.2019 16:14 6,8 °C 82 % 1004,1 hPa 0,0 mm 0,0 km/h (0 Bft) SW 227 ° 0 min 0,000 mm 0,0 UV-I 28 W/m² 3,9 °C 6,8 °C 0,0 km/h (0 Bft)
07.11.2019 16:15 6,7 °C 82 % 1004,1 hPa 0,0 mm 0,0 km/h (0 Bft) SW 227 ° 0 min 0,000 mm 0,0 UV-I 26 W/m² 3,8 °C 6,7 °C 0,0 km/h (0 Bft)
07.11.2019 16:16 6,7 °C 82 % 1004,1 hPa 0,0 mm 0,0 km/h (0 Bft) SW 227 ° 0 min 0,000 mm 0,0 UV-I 26 W/m² 3,8 °C 6,7 °C 0,0 km/h (0 Bft)
07.11.2019 16:17 6,7 °C 82 % 1004,1 hPa 0,0 mm 0,0 km/h (0 Bft) SW 228 ° 0 min 0,000 mm 0,0 UV-I 25 W/m² 3,8 °C 6,7 °C 0,0 km/h (0 Bft)
07.11.2019 16:18 6,7 °C 82 % 1004,1 hPa 0,0 mm 0,0 km/h (0 Bft) SW 227 ° 0 min 0,000 mm 0,0 UV-I 23 W/m² 3,8 °C 6,7 °C 0,0 km/h (0 Bft)
07.11.2019 16:19 6,7 °C 82 % 1004,1 hPa 0,0 mm 0,0 km/h (0 Bft) SW 227 ° 0 min 0,000 mm 0,0 UV-I 23 W/m² 3,8 °C 6,7 °C 0,0 km/h (0 Bft)
07.11.2019 16:20 6,8 °C 82 % 1004,1 hPa 0,0 mm 0,0 km/h (0 Bft) SW 227 ° 0 min 0,000 mm 0,0 UV-I 21 W/m² 3,9 °C 6,8 °C 0,0 km/h (0 Bft)
07.11.2019 16:21 6,7 °C 82 % 1004,1 hPa 0,0 mm 0,0 km/h (0 Bft) SW 227 ° 0 min 0,000 mm 0,0 UV-I 19 W/m² 3,8 °C 6,7 °C 0,0 km/h (0 Bft)
07.11.2019 16:22 6,7 °C 82 % 1004,1 hPa 0,0 mm 0,0 km/h (0 Bft) SW 227 ° 0 min 0,000 mm 0,0 UV-I 19 W/m² 3,8 °C 6,7 °C 0,0 km/h (0 Bft)
07.11.2019 16:23 6,7 °C 82 % 1004,1 hPa 0,0 mm 0,0 km/h (0 Bft) SW 227 ° 0 min 0,000 mm 0,0 UV-I 18 W/m² 3,8 °C 6,7 °C 0,0 km/h (0 Bft)
07.11.2019 16:24 6,7 °C 83 % 1004,1 hPa 0,0 mm 0,0 km/h (0 Bft) SW 228 ° 0 min 0,000 mm 0,0 UV-I 18 W/m² 4,0 °C 6,7 °C 0,0 km/h (0 Bft)
07.11.2019 16:25 6,7 °C 83 % 1004,2 hPa 0,0 mm 0,0 km/h (0 Bft) SW 227 ° 0 min 0,000 mm 0,0 UV-I 16 W/m² 4,0 °C 6,7 °C 0,0 km/h (0 Bft)
07.11.2019 16:26 6,8 °C 83 % 1004,2 hPa 0,0 mm 0,0 km/h (0 Bft) SW 227 ° 0 min 0,000 mm 0,0 UV-I 16 W/m² 4,1 °C 6,8 °C 0,0 km/h (0 Bft)
07.11.2019 16:27 6,7 °C 83 % 1004,3 hPa 0,0 mm 0,0 km/h (0 Bft) SW 227 ° 0 min 0,000 mm 0,0 UV-I 14 W/m² 4,0 °C 6,7 °C 0,0 km/h (0 Bft)
07.11.2019 16:28 6,7 °C 82 % 1004,3 hPa 0,0 mm 0,0 km/h (0 Bft) SW 227 ° 0 min 0,000 mm 0,0 UV-I 14 W/m² 3,8 °C 6,7 °C 0,0 km/h (0 Bft)
07.11.2019 16:29 6,7 °C 82 % 1004,3 hPa 0,0 mm 0,0 km/h (0 Bft) SW 228 ° 0 min 0,000 mm 0,0 UV-I 14 W/m² 3,8 °C 6,7 °C 0,0 km/h (0 Bft)
07.11.2019 16:30 6,7 °C 82 % 1004,2 hPa 0,0 mm 0,0 km/h (0 Bft) SW 227 ° 0 min 0,000 mm 0,0 UV-I 14 W/m² 3,8 °C 6,7 °C 0,0 km/h (0 Bft)
07.11.2019 16:31 6,7 °C 82 % 1004,3 hPa 0,0 mm 0,0 km/h (0 Bft) SW 227 ° 0 min 0,000 mm 0,0 UV-I 14 W/m² 3,8 °C 6,7 °C 0,0 km/h (0 Bft)
07.11.2019 16:32 6,7 °C 83 % 1004,4 hPa 0,2 mm 0,0 km/h (0 Bft) SW 227 ° 0 min 0,000 mm 0,0 UV-I 14 W/m² 4,0 °C 6,7 °C 0,0 km/h (0 Bft)
07.11.2019 16:33 6,7 °C 83 % 1004,4 hPa 0,0 mm 0,0 km/h (0 Bft) SW 227 ° 0 min 0,000 mm 0,0 UV-I 12 W/m² 4,0 °C 6,7 °C 0,0 km/h (0 Bft)
07.11.2019 16:34 6,6 °C 83 % 1004,3 hPa 0,0 mm 0,0 km/h (0 Bft) SW 227 ° 0 min 0,000 mm 0,0 UV-I 12 W/m² 3,9 °C 6,6 °C 0,0 km/h (0 Bft)
07.11.2019 16:35 6,6 °C 83 % 1004,3 hPa 0,0 mm 0,0 km/h (0 Bft) SW 227 ° 0 min 0,000 mm 0,0 UV-I 12 W/m² 3,9 °C 6,6 °C 0,0 km/h (0 Bft)
07.11.2019 16:36 6,6 °C 83 % 1004,3 hPa 0,0 mm 0,0 km/h (0 Bft) SW 227 ° 0 min 0,000 mm 0,0 UV-I 12 W/m² 3,9 °C 6,6 °C 0,0 km/h (0 Bft)
07.11.2019 16:37 6,6 °C 83 % 1004,3 hPa 0,0 mm 0,0 km/h (0 Bft) SW 228 ° 0 min 0,000 mm 0,0 UV-I 12 W/m² 3,9 °C 6,6 °C 0,0 km/h (0 Bft)
07.11.2019 16:38 6,6 °C 83 % 1004,3 hPa 0,0 mm 0,0 km/h (0 Bft) SW 227 ° 0 min 0,000 mm 0,0 UV-I 11 W/m² 3,9 °C 6,6 °C 0,0 km/h (0 Bft)
07.11.2019 16:39 6,5 °C 83 % 1004,4 hPa 0,0 mm 0,0 km/h (0 Bft) SW 227 ° 0 min 0,000 mm 0,0 UV-I 11 W/m² 3,8 °C 6,5 °C 0,0 km/h (0 Bft)
07.11.2019 16:40 6,5 °C 83 % 1004,4 hPa 0,0 mm 0,0 km/h (0 Bft) SW 227 ° 0 min 0,000 mm 0,0 UV-I 9 W/m² 3,8 °C 6,5 °C 0,0 km/h (0 Bft)
07.11.2019 16:41 6,4 °C 83 % 1004,3 hPa 0,0 mm 0,0 km/h (0 Bft) SW 227 ° 0 min 0,000 mm 0,0 UV-I 9 W/m² 3,7 °C 6,4 °C 0,0 km/h (0 Bft)
07.11.2019 16:42 6,4 °C 83 % 1004,4 hPa 0,0 mm 0,0 km/h (0 Bft) SW 227 ° 0 min 0,000 mm 0,0 UV-I 9 W/m² 3,7 °C 6,4 °C 0,0 km/h (0 Bft)
07.11.2019 16:43 6,4 °C 83 % 1004,4 hPa 0,0 mm 0,0 km/h (0 Bft) SW 227 ° 0 min 0,000 mm 0,0 UV-I 7 W/m² 3,7 °C 6,4 °C 0,0 km/h (0 Bft)
07.11.2019 16:44 6,3 °C 83 % 1004,3 hPa 0,0 mm 0,0 km/h (0 Bft) SW 227 ° 0 min 0,000 mm 0,0 UV-I 5 W/m² 3,6 °C 6,3 °C 0,0 km/h (0 Bft)
07.11.2019 16:45 6,3 °C 83 % 1004,3 hPa 0,0 mm 0,0 km/h (0 Bft) SW 227 ° 0 min 0,000 mm 0,0 UV-I 5 W/m² 3,6 °C 6,3 °C 0,0 km/h (0 Bft)
07.11.2019 16:46 6,3 °C 84 % 1004,4 hPa 0,0 mm 0,0 km/h (0 Bft) SW 227 ° 0 min 0,000 mm 0,0 UV-I 5 W/m² 3,8 °C 6,3 °C 0,0 km/h (0 Bft)
07.11.2019 16:47 6,2 °C 84 % 1004,4 hPa 0,0 mm 0,0 km/h (0 Bft) SW 227 ° 0 min 0,000 mm 0,0 UV-I 0 W/m² 3,7 °C 6,2 °C 0,0 km/h (0 Bft)
07.11.2019 16:48 6,2 °C 83 % 1004,3 hPa 0,0 mm 0,0 km/h (0 Bft) SW 227 ° 0 min 0,000 mm 0,0 UV-I 0 W/m² 3,5 °C 6,2 °C 0,0 km/h (0 Bft)
07.11.2019 16:49 6,2 °C 84 % 1004,4 hPa 0,0 mm 0,0 km/h (0 Bft) SW 227 ° 0 min 0,000 mm 0,0 UV-I 0 W/m² 3,7 °C 6,2 °C 0,0 km/h (0 Bft)
07.11.2019 16:50 6,2 °C 84 % 1004,3 hPa 0,0 mm 0,0 km/h (0 Bft) SW 227 ° 0 min 0,000 mm 0,0 UV-I 0 W/m² 3,7 °C 6,2 °C 0,0 km/h (0 Bft)
07.11.2019 16:51 6,1 °C 84 % 1004,3 hPa 0,0 mm 0,1 km/h (0 Bft) SW 227 ° 0 min 0,000 mm 0,0 UV-I 0 W/m² 3,6 °C 6,1 °C 1,6 km/h (1 Bft)
07.11.2019 16:52 6,1 °C 84 % 1004,3 hPa 0,0 mm 0,1 km/h (0 Bft) SW 227 ° 0 min 0,000 mm 0,0 UV-I 0 W/m² 3,6 °C 6,1 °C 1,6 km/h (1 Bft)
07.11.2019 16:53 6,1 °C 84 % 1004,3 hPa 0,0 mm 0,0 km/h (0 Bft) SW 227 ° 0 min 0,000 mm 0,0 UV-I 0 W/m² 3,6 °C 6,1 °C 0,0 km/h (0 Bft)
07.11.2019 16:54 6,1 °C 84 % 1004,4 hPa 0,0 mm 2,1 km/h (1 Bft) SW 227 ° 0 min 0,000 mm 0,0 UV-I 0 W/m² 3,6 °C 6,1 °C 3,2 km/h (1 Bft)
07.11.2019 16:55 6,0 °C 84 % 1004,4 hPa 0,0 mm 0,7 km/h (0 Bft) SW 227 ° 0 min 0,000 mm 0,0 UV-I 0 W/m² 3,5 °C 6,0 °C 1,6 km/h (1 Bft)
07.11.2019 16:56 6,0 °C 84 % 1004,3 hPa 0,0 mm 0,0 km/h (0 Bft) SW 227 ° 0 min 0,000 mm 0,0 UV-I 0 W/m² 3,5 °C 6,0 °C 0,0 km/h (0 Bft)
07.11.2019 16:57 5,9 °C 84 % 1004,3 hPa 0,0 mm 0,0 km/h (0 Bft) SW 227 ° 0 min 0,000 mm 0,0 UV-I 0 W/m² 3,4 °C 5,9 °C 0,0 km/h (0 Bft)
07.11.2019 16:58 5,9 °C 85 % 1004,4 hPa 0,0 mm 0,0 km/h (0 Bft) SW 227 ° 0 min 0,000 mm 0,0 UV-I 0 W/m² 3,6 °C 5,9 °C 0,0 km/h (0 Bft)
07.11.2019 16:59 5,9 °C 85 % 1004,3 hPa 0,0 mm 0,0 km/h (0 Bft) SW 227 ° 0 min 0,000 mm 0,0 UV-I 0 W/m² 3,6 °C 5,9 °C 0,0 km/h (0 Bft)
07.11.2019 17:00 5,9 °C 85 % 1004,4 hPa 0,0 mm 0,0 km/h (0 Bft) SW 227 ° 0 min 0,000 mm 0,0 UV-I 0 W/m² 3,6 °C 5,9 °C 0,0 km/h (0 Bft)
07.11.2019 17:01 5,9 °C 85 % 1004,4 hPa 0,0 mm 0,0 km/h (0 Bft) SW 227 ° 0 min 0,000 mm 0,0 UV-I 0 W/m² 3,6 °C 5,9 °C 0,0 km/h (0 Bft)
07.11.2019 17:02 5,9 °C 85 % 1004,4 hPa 0,0 mm 0,0 km/h (0 Bft) SW 227 ° 0 min 0,000 mm 0,0 UV-I 0 W/m² 3,6 °C 5,9 °C 0,0 km/h (0 Bft)
07.11.2019 17:03 5,9 °C 85 % 1004,4 hPa 0,0 mm 0,0 km/h (0 Bft) SW 227 ° 0 min 0,000 mm 0,0 UV-I 0 W/m² 3,6 °C 5,9 °C 0,0 km/h (0 Bft)
07.11.2019 17:04 5,8 °C 85 % 1004,5 hPa 0,0 mm 0,0 km/h (0 Bft) SW 227 ° 0 min 0,000 mm 0,0 UV-I 0 W/m² 3,5 °C 5,8 °C 0,0 km/h (0 Bft)
07.11.2019 17:05 5,8 °C 85 % 1004,5 hPa 0,0 mm 0,0 km/h (0 Bft) SW 227 ° 0 min 0,000 mm 0,0 UV-I 0 W/m² 3,5 °C 5,8 °C 0,0 km/h (0 Bft)
07.11.2019 17:06 5,8 °C 85 % 1004,5 hPa 0,0 mm 0,0 km/h (0 Bft) SW 227 ° 0 min 0,000 mm 0,0 UV-I 0 W/m² 3,5 °C 5,8 °C 0,0 km/h (0 Bft)
07.11.2019 17:07 5,8 °C 85 % 1004,5 hPa 0,0 mm 0,0 km/h (0 Bft) SW 227 ° 0 min 0,000 mm 0,0 UV-I 0 W/m² 3,5 °C 5,8 °C 0,0 km/h (0 Bft)
07.11.2019 17:08 5,8 °C 85 % 1004,5 hPa 0,0 mm 0,0 km/h (0 Bft) SW 227 ° 0 min 0,000 mm 0,0 UV-I 0 W/m² 3,5 °C 5,8 °C 0,0 km/h (0 Bft)
07.11.2019 17:09 5,7 °C 85 % 1004,5 hPa 0,0 mm 0,0 km/h (0 Bft) SW 227 ° 0 min 0,000 mm 0,0 UV-I 0 W/m² 3,4 °C 5,7 °C 0,0 km/h (0 Bft)
07.11.2019 17:10 5,7 °C 85 % 1004,5 hPa 0,0 mm 0,0 km/h (0 Bft) SW 227 ° 0 min 0,000 mm 0,0 UV-I 0 W/m² 3,4 °C 5,7 °C 0,0 km/h (0 Bft)
07.11.2019 17:11 5,6 °C 85 % 1004,5 hPa 0,0 mm 0,0 km/h (0 Bft) SW 227 ° 0 min 0,000 mm 0,0 UV-I 0 W/m² 3,3 °C 5,6 °C 0,0 km/h (0 Bft)
07.11.2019 17:12 5,6 °C 85 % 1004,6 hPa 0,0 mm 0,0 km/h (0 Bft) SW 227 ° 0 min 0,000 mm 0,0 UV-I 0 W/m² 3,3 °C 5,6 °C 0,0 km/h (0 Bft)
07.11.2019 17:13 5,6 °C 85 % 1004,6 hPa 0,0 mm 0,0 km/h (0 Bft) SW 227 ° 0 min 0,000 mm 0,0 UV-I 0 W/m² 3,3 °C 5,6 °C 0,0 km/h (0 Bft)
07.11.2019 17:14 5,6 °C 85 % 1004,6 hPa 0,0 mm 0,0 km/h (0 Bft) SW 227 ° 0 min 0,000 mm 0,0 UV-I 0 W/m² 3,3 °C 5,6 °C 0,0 km/h (0 Bft)
07.11.2019 17:15 5,6 °C 85 % 1004,6 hPa 0,0 mm 0,3 km/h (0 Bft) SW 227 ° 0 min 0,000 mm 0,0 UV-I 0 W/m² 3,3 °C 5,6 °C 1,6 km/h (1 Bft)
07.11.2019 17:16 5,5 °C 86 % 1004,6 hPa 0,0 mm 2,9 km/h (1 Bft) SW 227 ° 0 min 0,000 mm 0,0 UV-I 0 W/m² 3,3 °C 5,5 °C 4,8 km/h (1 Bft)
07.11.2019 17:17 5,5 °C 86 % 1004,7 hPa 0,0 mm 3,3 km/h (1 Bft) SW 227 ° 0 min 0,000 mm 0,0 UV-I 0 W/m² 3,3 °C 5,5 °C 4,8 km/h (1 Bft)
07.11.2019 17:18 5,4 °C 86 % 1004,7 hPa 0,0 mm 3,7 km/h (1 Bft) SW 227 ° 0 min 0,000 mm 0,0 UV-I 0 W/m² 3,3 °C 5,4 °C 4,8 km/h (1 Bft)
07.11.2019 17:19 5,4 °C 86 % 1004,7 hPa 0,0 mm 3,5 km/h (1 Bft) SW 227 ° 0 min 0,000 mm 0,0 UV-I 0 W/m² 3,3 °C 5,4 °C 4,8 km/h (1 Bft)
07.11.2019 17:20 5,4 °C 86 % 1004,7 hPa 0,0 mm 1,1 km/h (1 Bft) SW 227 ° 0 min 0,000 mm 0,0 UV-I 0 W/m² 3,3 °C 5,4 °C 3,2 km/h (1 Bft)
07.11.2019 17:21 5,4 °C 86 % 1004,7 hPa 0,0 mm 0,3 km/h (0 Bft) SW 227 ° 0 min 0,000 mm 0,0 UV-I 0 W/m² 3,3 °C 5,4 °C 1,6 km/h (1 Bft)
07.11.2019 17:22 5,4 °C 86 % 1004,7 hPa 0,0 mm 0,0 km/h (0 Bft) SW 227 ° 0 min 0,000 mm 0,0 UV-I 0 W/m² 3,3 °C 5,4 °C 0,0 km/h (0 Bft)
07.11.2019 17:23 5,4 °C 86 % 1004,6 hPa 0,0 mm 0,0 km/h (0 Bft) SW 227 ° 0 min 0,000 mm 0,0 UV-I 0 W/m² 3,3 °C 5,4 °C 0,0 km/h (0 Bft)
07.11.2019 17:24 5,4 °C 86 % 1004,7 hPa 0,0 mm 0,0 km/h (0 Bft) SW 227 ° 0 min 0,000 mm 0,0 UV-I 0 W/m² 3,3 °C 5,4 °C 0,0 km/h (0 Bft)
07.11.2019 17:25 5,4 °C 86 % 1004,6 hPa 0,0 mm 0,0 km/h (0 Bft) SW 227 ° 0 min 0,000 mm 0,0 UV-I 0 W/m² 3,3 °C 5,4 °C 0,0 km/h (0 Bft)
07.11.2019 17:26 5,4 °C 86 % 1004,6 hPa 0,0 mm 0,0 km/h (0 Bft) SW 227 ° 0 min 0,000 mm 0,0 UV-I 0 W/m² 3,3 °C 5,4 °C 0,0 km/h (0 Bft)
07.11.2019 17:27 5,3 °C 86 % 1004,6 hPa 0,0 mm 0,0 km/h (0 Bft) SW 227 ° 0 min 0,000 mm 0,0 UV-I 0 W/m² 3,2 °C 5,3 °C 0,0 km/h (0 Bft)
07.11.2019 17:28 5,3 °C 86 % 1004,6 hPa 0,0 mm 0,0 km/h (0 Bft) SW 227 ° 0 min 0,000 mm 0,0 UV-I 0 W/m² 3,2 °C 5,3 °C 0,0 km/h (0 Bft)
07.11.2019 17:29 5,4 °C 86 % 1004,6 hPa 0,0 mm 0,0 km/h (0 Bft) SW 227 ° 0 min 0,000 mm 0,0 UV-I 0 W/m² 3,3 °C 5,4 °C 0,0 km/h (0 Bft)
07.11.2019 17:30 5,3 °C 86 % 1004,6 hPa 0,0 mm 0,0 km/h (0 Bft) SW 227 ° 0 min 0,000 mm 0,0 UV-I 0 W/m² 3,2 °C 5,3 °C 0,0 km/h (0 Bft)
07.11.2019 17:31 5,3 °C 86 % 1004,6 hPa 0,0 mm 0,0 km/h (0 Bft) SW 227 ° 0 min 0,000 mm 0,0 UV-I 0 W/m² 3,2 °C 5,3 °C 0,0 km/h (0 Bft)
07.11.2019 17:32 5,3 °C 86 % 1004,6 hPa 0,0 mm 0,0 km/h (0 Bft) SW 227 ° 0 min 0,000 mm 0,0 UV-I 0 W/m² 3,2 °C 5,3 °C 0,0 km/h (0 Bft)
07.11.2019 17:33 5,3 °C 86 % 1004,6 hPa 0,0 mm 1,1 km/h (1 Bft) SW 227 ° 0 min 0,000 mm 0,0 UV-I 0 W/m² 3,2 °C 5,3 °C 3,2 km/h (1 Bft)
07.11.2019 17:34 5,3 °C 86 % 1004,6 hPa 0,0 mm 3,4 km/h (1 Bft) SW 227 ° 0 min 0,000 mm 0,0 UV-I 0 W/m² 3,2 °C 5,3 °C 4,8 km/h (1 Bft)
07.11.2019 17:35 5,3 °C 87 % 1004,6 hPa 0,0 mm 1,9 km/h (1 Bft) SW 227 ° 0 min 0,000 mm 0,0 UV-I 0 W/m² 3,3 °C 5,3 °C 3,2 km/h (1 Bft)
07.11.2019 17:36 5,3 °C 87 % 1004,7 hPa 0,0 mm 2,3 km/h (1 Bft) SW 227 ° 0 min 0,000 mm 0,0 UV-I 0 W/m² 3,3 °C 5,3 °C 3,2 km/h (1 Bft)
07.11.2019 17:37 5,3 °C 87 % 1004,8 hPa 0,0 mm 1,7 km/h (1 Bft) SW 227 ° 0 min 0,000 mm 0,0 UV-I 0 W/m² 3,3 °C 5,3 °C 3,2 km/h (1 Bft)
07.11.2019 17:38 5,3 °C 87 % 1004,8 hPa 0,0 mm 0,2 km/h (0 Bft) SW 228 ° 0 min 0,000 mm 0,0 UV-I 0 W/m² 3,3 °C 5,3 °C 1,6 km/h (1 Bft)
07.11.2019 17:39 5,3 °C 87 % 1004,8 hPa 0,0 mm 3,0 km/h (1 Bft) SW 228 ° 0 min 0,000 mm 0,0 UV-I 0 W/m² 3,3 °C 5,3 °C 3,2 km/h (1 Bft)
07.11.2019 17:40 5,2 °C 87 % 1004,8 hPa 0,0 mm 1,4 km/h (1 Bft) SW 228 ° 0 min 0,000 mm 0,0 UV-I 0 W/m² 3,2 °C 5,2 °C 1,6 km/h (1 Bft)
07.11.2019 17:41 5,2 °C 87 % 1004,8 hPa 0,0 mm 0,6 km/h (0 Bft) SW 228 ° 0 min 0,000 mm 0,0 UV-I 0 W/m² 3,2 °C 5,2 °C 1,6 km/h (1 Bft)
07.11.2019 17:42 5,2 °C 87 % 1004,8 hPa 0,0 mm 0,0 km/h (0 Bft) SW 228 ° 0 min 0,000 mm 0,0 UV-I 0 W/m² 3,2 °C 5,2 °C 0,0 km/h (0 Bft)
07.11.2019 17:43 5,2 °C 87 % 1004,8 hPa 0,0 mm 0,1 km/h (0 Bft) SW 228 ° 0 min 0,000 mm 0,0 UV-I 0 W/m² 3,2 °C 5,2 °C 1,6 km/h (1 Bft)
07.11.2019 17:44 5,2 °C 87 % 1004,9 hPa 0,0 mm 0,0 km/h (0 Bft) SW 228 ° 0 min 0,000 mm 0,0 UV-I 0 W/m² 3,2 °C 5,2 °C 0,0 km/h (0 Bft)
07.11.2019 17:45 5,2 °C 87 % 1004,9 hPa 0,0 mm 0,0 km/h (0 Bft) SW 228 ° 0 min 0,000 mm 0,0 UV-I 0 W/m² 3,2 °C 5,2 °C 0,0 km/h (0 Bft)
07.11.2019 17:46 5,2 °C 87 % 1004,8 hPa 0,0 mm 0,0 km/h (0 Bft) SW 228 ° 0 min 0,000 mm 0,0 UV-I 0 W/m² 3,2 °C 5,2 °C 0,0 km/h (0 Bft)
07.11.2019 17:47 5,2 °C 87 % 1004,9 hPa 0,0 mm 0,0 km/h (0 Bft) SW 228 ° 0 min 0,000 mm 0,0 UV-I 0 W/m² 3,2 °C 5,2 °C 0,0 km/h (0 Bft)
07.11.2019 17:48 5,2 °C 87 % 1004,9 hPa 0,0 mm 0,0 km/h (0 Bft) SW 228 ° 0 min 0,000 mm 0,0 UV-I 0 W/m² 3,2 °C 5,2 °C 0,0 km/h (0 Bft)
07.11.2019 17:49 5,2 °C 87 % 1004,9 hPa 0,0 mm 0,0 km/h (0 Bft) SW 228 ° 0 min 0,000 mm 0,0 UV-I 0 W/m² 3,2 °C 5,2 °C 0,0 km/h (0 Bft)
07.11.2019 17:50 5,1 °C 88 % 1004,9 hPa 0,0 mm 0,0 km/h (0 Bft) SW 228 ° 0 min 0,000 mm 0,0 UV-I 0 W/m² 3,3 °C 5,1 °C 0,0 km/h (0 Bft)
07.11.2019 17:51 5,1 °C 88 % 1004,9 hPa 0,0 mm 0,0 km/h (0 Bft) SW 228 ° 0 min 0,000 mm 0,0 UV-I 0 W/m² 3,3 °C 5,1 °C 0,0 km/h (0 Bft)
07.11.2019 17:52 5,1 °C 88 % 1004,9 hPa 0,0 mm 0,0 km/h (0 Bft) SW 228 ° 0 min 0,000 mm 0,0 UV-I 0 W/m² 3,3 °C 5,1 °C 0,0 km/h (0 Bft)
07.11.2019 17:53 5,1 °C 88 % 1004,9 hPa 0,0 mm 0,0 km/h (0 Bft) SW 228 ° 0 min 0,000 mm 0,0 UV-I 0 W/m² 3,3 °C 5,1 °C 0,0 km/h (0 Bft)
07.11.2019 17:54 5,1 °C 87 % 1004,9 hPa 0,0 mm 0,0 km/h (0 Bft) SW 228 ° 0 min 0,000 mm 0,0 UV-I 0 W/m² 3,1 °C 5,1 °C 0,0 km/h (0 Bft)
07.11.2019 17:55 5,1 °C 88 % 1004,9 hPa 0,0 mm 0,0 km/h (0 Bft) SW 228 ° 0 min 0,000 mm 0,0 UV-I 0 W/m² 3,3 °C 5,1 °C 0,0 km/h (0 Bft)
07.11.2019 17:56 5,1 °C 88 % 1004,9 hPa 0,0 mm 0,0 km/h (0 Bft) SW 228 ° 0 min 0,000 mm 0,0 UV-I 0 W/m² 3,3 °C 5,1 °C 0,0 km/h (0 Bft)
07.11.2019 17:57 5,0 °C 88 % 1004,9 hPa 0,0 mm 0,0 km/h (0 Bft) SW 228 ° 0 min 0,000 mm 0,0 UV-I 0 W/m² 3,2 °C 5,0 °C 0,0 km/h (0 Bft)
07.11.2019 17:58 5,0 °C 88 % 1004,9 hPa 0,0 mm 0,0 km/h (0 Bft) SW 228 ° 0 min 0,000 mm 0,0 UV-I 0 W/m² 3,2 °C 5,0 °C 0,0 km/h (0 Bft)
07.11.2019 17:59 5,0 °C 88 % 1004,9 hPa 0,0 mm 0,0 km/h (0 Bft) SW 228 ° 0 min 0,000 mm 0,0 UV-I 0 W/m² 3,2 °C 5,0 °C 0,0 km/h (0 Bft)
07.11.2019 18:00 4,9 °C 88 % 1004,9 hPa 0,0 mm 0,0 km/h (0 Bft) SW 228 ° 0 min 0,000 mm 0,0 UV-I 0 W/m² 3,1 °C 4,9 °C 0,0 km/h (0 Bft)
07.11.2019 18:01 5,0 °C 88 % 1005,0 hPa 0,0 mm 0,0 km/h (0 Bft) SW 228 ° 0 min 0,000 mm 0,0 UV-I 0 W/m² 3,2 °C 5,0 °C 0,0 km/h (0 Bft)
07.11.2019 18:02 4,9 °C 88 % 1005,1 hPa 0,0 mm 0,0 km/h (0 Bft) SW 228 ° 0 min 0,000 mm 0,0 UV-I 0 W/m² 3,1 °C 4,9 °C 0,0 km/h (0 Bft)
07.11.2019 18:03 4,9 °C 88 % 1005,1 hPa 0,0 mm 0,0 km/h (0 Bft) SW 228 ° 0 min 0,000 mm 0,0 UV-I 0 W/m² 3,1 °C 4,9 °C 0,0 km/h (0 Bft)
07.11.2019 18:04 4,9 °C 89 % 1005,0 hPa 0,0 mm 0,0 km/h (0 Bft) SW 228 ° 0 min 0,000 mm 0,0 UV-I 0 W/m² 3,2 °C 4,9 °C 0,0 km/h (0 Bft)
07.11.2019 18:05 4,9 °C 88 % 1005,0 hPa 0,0 mm 0,0 km/h (0 Bft) SW 228 ° 0 min 0,000 mm 0,0 UV-I 0 W/m² 3,1 °C 4,9 °C 0,0 km/h (0 Bft)
07.11.2019 18:06 4,9 °C 89 % 1005,1 hPa 0,0 mm 0,0 km/h (0 Bft) SW 228 ° 0 min 0,000 mm 0,0 UV-I 0 W/m² 3,2 °C 4,9 °C 0,0 km/h (0 Bft)
07.11.2019 18:07 4,9 °C 89 % 1005,1 hPa 0,0 mm 0,0 km/h (0 Bft) SW 228 ° 0 min 0,000 mm 0,0 UV-I 0 W/m² 3,2 °C 4,9 °C 0,0 km/h (0 Bft)
07.11.2019 18:08 4,9 °C 89 % 1005,1 hPa 0,0 mm 0,0 km/h (0 Bft) SW 228 ° 0 min 0,000 mm 0,0 UV-I 0 W/m² 3,2 °C 4,9 °C 0,0 km/h (0 Bft)
07.11.2019 18:09 4,9 °C 89 % 1005,1 hPa 0,0 mm 0,0 km/h (0 Bft) SW 228 ° 0 min 0,000 mm 0,0 UV-I 0 W/m² 3,2 °C 4,9 °C 0,0 km/h (0 Bft)
07.11.2019 18:10 4,9 °C 89 % 1005,1 hPa 0,0 mm 0,0 km/h (0 Bft) SW 228 ° 0 min 0,000 mm 0,0 UV-I 0 W/m² 3,2 °C 4,9 °C 0,0 km/h (0 Bft)
07.11.2019 18:11 4,9 °C 89 % 1005,1 hPa 0,0 mm 0,0 km/h (0 Bft) SW 227 ° 0 min 0,000 mm 0,0 UV-I 0 W/m² 3,2 °C 4,9 °C 0,0 km/h (0 Bft)
07.11.2019 18:12 4,9 °C 89 % 1005,1 hPa 0,0 mm 0,0 km/h (0 Bft) SW 227 ° 0 min 0,000 mm 0,0 UV-I 0 W/m² 3,2 °C 4,9 °C 0,0 km/h (0 Bft)
07.11.2019 18:13 4,9 °C 89 % 1005,1 hPa 0,0 mm 2,3 km/h (1 Bft) SW 227 ° 0 min 0,000 mm 0,0 UV-I 0 W/m² 3,2 °C 4,9 °C 4,8 km/h (1 Bft)
07.11.2019 18:14 4,9 °C 89 % 1005,1 hPa 0,0 mm 1,2 km/h (1 Bft) SW 227 ° 0 min 0,000 mm 0,0 UV-I 0 W/m² 3,2 °C 4,9 °C 4,8 km/h (1 Bft)
07.11.2019 18:15 4,9 °C 89 % 1005,1 hPa 0,0 mm 0,1 km/h (0 Bft) SW 227 ° 0 min 0,000 mm 0,0 UV-I 0 W/m² 3,2 °C 4,9 °C 1,6 km/h (1 Bft)
07.11.2019 18:16 4,9 °C 89 % 1005,1 hPa 0,0 mm 2,4 km/h (1 Bft) SW 227 ° 0 min 0,000 mm 0,0 UV-I 0 W/m² 3,2 °C 4,9 °C 4,8 km/h (1 Bft)
07.11.2019 18:17 4,9 °C 89 % 1005,1 hPa 0,0 mm 1,8 km/h (1 Bft) SW 227 ° 0 min 0,000 mm 0,0 UV-I 0 W/m² 3,2 °C 4,9 °C 3,2 km/h (1 Bft)
07.11.2019 18:18 4,9 °C 89 % 1005,1 hPa 0,0 mm 1,2 km/h (1 Bft) SW 227 ° 0 min 0,000 mm 0,0 UV-I 0 W/m² 3,2 °C 4,9 °C 3,2 km/h (1 Bft)
07.11.2019 18:19 4,9 °C 89 % 1005,0 hPa 0,0 mm 1,6 km/h (1 Bft) SW 227 ° 0 min 0,000 mm 0,0 UV-I 0 W/m² 3,2 °C 4,9 °C 3,2 km/h (1 Bft)
07.11.2019 18:20 5,0 °C 89 % 1005,1 hPa 0,0 mm 1,6 km/h (1 Bft) SW 227 ° 0 min 0,000 mm 0,0 UV-I 0 W/m² 3,3 °C 5,0 °C 3,2 km/h (1 Bft)
07.11.2019 18:21 4,9 °C 89 % 1005,0 hPa 0,0 mm 2,0 km/h (1 Bft) SW 227 ° 0 min 0,000 mm 0,0 UV-I 0 W/m² 3,2 °C 4,9 °C 4,8 km/h (1 Bft)
07.11.2019 18:22 5,0 °C 89 % 1005,1 hPa 0,0 mm 3,9 km/h (1 Bft) SW 227 ° 0 min 0,000 mm 0,0 UV-I 0 W/m² 3,3 °C 5,0 °C 4,8 km/h (1 Bft)
07.11.2019 18:23 5,0 °C 89 % 1005,1 hPa 0,0 mm 2,9 km/h (1 Bft) SW 227 ° 0 min 0,000 mm 0,0 UV-I 0 W/m² 3,3 °C 5,0 °C 3,2 km/h (1 Bft)
07.11.2019 18:24 5,1 °C 89 % 1005,1 hPa 0,0 mm 2,1 km/h (1 Bft) SW 227 ° 0 min 0,000 mm 0,0 UV-I 0 W/m² 3,4 °C 5,1 °C 3,2 km/h (1 Bft)
07.11.2019 18:25 5,1 °C 89 % 1005,1 hPa 0,0 mm 3,0 km/h (1 Bft) SW 227 ° 0 min 0,000 mm 0,0 UV-I 0 W/m² 3,4 °C 5,1 °C 3,2 km/h (1 Bft)
07.11.2019 18:26 5,1 °C 89 % 1005,1 hPa 0,0 mm 2,8 km/h (1 Bft) SW 227 ° 0 min 0,000 mm 0,0 UV-I 0 W/m² 3,4 °C 5,1 °C 3,2 km/h (1 Bft)
07.11.2019 18:27 5,1 °C 89 % 1005,1 hPa 0,0 mm 2,8 km/h (1 Bft) SW 227 ° 0 min 0,000 mm 0,0 UV-I 0 W/m² 3,4 °C 5,1 °C 4,8 km/h (1 Bft)
07.11.2019 18:28 5,1 °C 89 % 1005,1 hPa 0,0 mm 2,5 km/h (1 Bft) SW 227 ° 0 min 0,000 mm 0,0 UV-I 0 W/m² 3,4 °C 5,1 °C 3,2 km/h (1 Bft)
07.11.2019 18:29 5,1 °C 89 % 1005,1 hPa 0,0 mm 2,3 km/h (1 Bft) SW 227 ° 0 min 0,000 mm 0,0 UV-I 0 W/m² 3,4 °C 5,1 °C 3,2 km/h (1 Bft)
07.11.2019 18:30 5,1 °C 89 % 1005,1 hPa 0,0 mm 2,1 km/h (1 Bft) SW 227 ° 0 min 0,000 mm 0,0 UV-I 0 W/m² 3,4 °C 5,1 °C 3,2 km/h (1 Bft)
07.11.2019 18:31 5,1 °C 89 % 1005,1 hPa 0,0 mm 2,0 km/h (1 Bft) SW 227 ° 0 min 0,000 mm 0,0 UV-I 0 W/m² 3,4 °C 5,1 °C 3,2 km/h (1 Bft)
07.11.2019 18:32 5,1 °C 89 % 1005,2 hPa 0,0 mm 0,9 km/h (0 Bft) SW 227 ° 0 min 0,000 mm 0,0 UV-I 0 W/m² 3,4 °C 5,1 °C 1,6 km/h (1 Bft)
07.11.2019 18:33 5,1 °C 89 % 1005,1 hPa 0,0 mm 0,1 km/h (0 Bft) SW 227 ° 0 min 0,000 mm 0,0 UV-I 0 W/m² 3,4 °C 5,1 °C 1,6 km/h (1 Bft)
07.11.2019 18:34 5,1 °C 89 % 1005,1 hPa 0,0 mm 0,0 km/h (0 Bft) SW 227 ° 0 min 0,000 mm 0,0 UV-I 0 W/m² 3,4 °C 5,1 °C 0,0 km/h (0 Bft)
07.11.2019 18:35 5,1 °C 89 % 1005,1 hPa 0,0 mm 0,0 km/h (0 Bft) SW 227 ° 0 min 0,000 mm 0,0 UV-I 0 W/m² 3,4 °C 5,1 °C 0,0 km/h (0 Bft)
07.11.2019 18:36 5,1 °C 89 % 1005,1 hPa 0,0 mm 0,0 km/h (0 Bft) SW 227 ° 0 min 0,000 mm 0,0 UV-I 0 W/m² 3,4 °C 5,1 °C 0,0 km/h (0 Bft)
07.11.2019 18:37 5,1 °C 89 % 1005,1 hPa 0,2 mm 0,0 km/h (0 Bft) SW 227 ° 0 min 0,000 mm 0,0 UV-I 0 W/m² 3,4 °C 5,1 °C 0,0 km/h (0 Bft)
07.11.2019 18:38 5,1 °C 89 % 1005,1 hPa 0,0 mm 0,0 km/h (0 Bft) SW 227 ° 0 min 0,000 mm 0,0 UV-I 0 W/m² 3,4 °C 5,1 °C 0,0 km/h (0 Bft)
07.11.2019 18:39 5,1 °C 89 % 1005,1 hPa 0,0 mm 0,0 km/h (0 Bft) SW 227 ° 0 min 0,000 mm 0,0 UV-I 0 W/m² 3,4 °C 5,1 °C 0,0 km/h (0 Bft)
07.11.2019 18:40 5,1 °C 89 % 1005,1 hPa 0,0 mm 0,0 km/h (0 Bft) SW 227 ° 0 min 0,000 mm 0,0 UV-I 0 W/m² 3,4 °C 5,1 °C 0,0 km/h (0 Bft)
07.11.2019 18:41 5,1 °C 89 % 1005,1 hPa 0,0 mm 0,0 km/h (0 Bft) SW 227 ° 0 min 0,000 mm 0,0 UV-I 0 W/m² 3,4 °C 5,1 °C 0,0 km/h (0 Bft)
07.11.2019 18:42 5,1 °C 88 % 1005,1 hPa 0,0 mm 0,0 km/h (0 Bft) SW 227 ° 0 min 0,000 mm 0,0 UV-I 0 W/m² 3,3 °C 5,1 °C 0,0 km/h (0 Bft)
07.11.2019 18:43 5,1 °C 88 % 1005,1 hPa 0,0 mm 0,0 km/h (0 Bft) SW 227 ° 0 min 0,000 mm 0,0 UV-I 0 W/m² 3,3 °C 5,1 °C 0,0 km/h (0 Bft)
07.11.2019 18:44 5,1 °C 88 % 1005,1 hPa 0,0 mm 0,0 km/h (0 Bft) SW 227 ° 0 min 0,000 mm 0,0 UV-I 0 W/m² 3,3 °C 5,1 °C 0,0 km/h (0 Bft)
07.11.2019 18:45 5,1 °C 88 % 1005,1 hPa 0,0 mm 0,0 km/h (0 Bft) SW 227 ° 0 min 0,000 mm 0,0 UV-I 0 W/m² 3,3 °C 5,1 °C 0,0 km/h (0 Bft)
07.11.2019 18:46 5,1 °C 88 % 1005,1 hPa 0,0 mm 0,0 km/h (0 Bft) SW 227 ° 0 min 0,000 mm 0,0 UV-I 0 W/m² 3,3 °C 5,1 °C 0,0 km/h (0 Bft)
07.11.2019 18:47 5,1 °C 88 % 1005,1 hPa 0,0 mm 0,0 km/h (0 Bft) SW 227 ° 0 min 0,000 mm 0,0 UV-I 0 W/m² 3,3 °C 5,1 °C 0,0 km/h (0 Bft)
07.11.2019 18:48 5,1 °C 88 % 1005,1 hPa 0,0 mm 0,0 km/h (0 Bft) SW 227 ° 0 min 0,000 mm 0,0 UV-I 0 W/m² 3,3 °C 5,1 °C 0,0 km/h (0 Bft)
07.11.2019 18:49 5,1 °C 88 % 1005,1 hPa 0,0 mm 0,0 km/h (0 Bft) SW 227 ° 0 min 0,000 mm 0,0 UV-I 0 W/m² 3,3 °C 5,1 °C 0,0 km/h (0 Bft)
07.11.2019 18:50 5,1 °C 88 % 1005,1 hPa 0,0 mm 0,0 km/h (0 Bft) SW 227 ° 0 min 0,000 mm 0,0 UV-I 0 W/m² 3,3 °C 5,1 °C 0,0 km/h (0 Bft)
07.11.2019 18:51 5,1 °C 88 % 1005,1 hPa 0,0 mm 0,0 km/h (0 Bft) SW 227 ° 0 min 0,000 mm 0,0 UV-I 0 W/m² 3,3 °C 5,1 °C 0,0 km/h (0 Bft)
07.11.2019 18:52 5,1 °C 88 % 1005,1 hPa 0,0 mm 0,0 km/h (0 Bft) SW 227 ° 0 min 0,000 mm 0,0 UV-I 0 W/m² 3,3 °C 5,1 °C 0,0 km/h (0 Bft)
07.11.2019 18:53 5,1 °C 88 % 1005,1 hPa 0,0 mm 0,0 km/h (0 Bft) SW 227 ° 0 min 0,000 mm 0,0 UV-I 0 W/m² 3,3 °C 5,1 °C 0,0 km/h (0 Bft)
07.11.2019 18:54 5,1 °C 88 % 1005,1 hPa 0,0 mm 0,0 km/h (0 Bft) SW 227 ° 0 min 0,000 mm 0,0 UV-I 0 W/m² 3,3 °C 5,1 °C 0,0 km/h (0 Bft)
07.11.2019 18:55 5,1 °C 88 % 1005,1 hPa 0,0 mm 0,0 km/h (0 Bft) SW 227 ° 0 min 0,000 mm 0,0 UV-I 0 W/m² 3,3 °C 5,1 °C 0,0 km/h (0 Bft)
07.11.2019 18:56 5,0 °C 88 % 1005,1 hPa 0,0 mm 0,0 km/h (0 Bft) SW 227 ° 0 min 0,000 mm 0,0 UV-I 0 W/m² 3,2 °C 5,0 °C 0,0 km/h (0 Bft)
07.11.2019 18:57 5,0 °C 88 % 1005,1 hPa 0,0 mm 0,0 km/h (0 Bft) SW 227 ° 0 min 0,000 mm 0,0 UV-I 0 W/m² 3,2 °C 5,0 °C 0,0 km/h (0 Bft)
07.11.2019 18:58 5,0 °C 88 % 1005,0 hPa 0,0 mm 0,0 km/h (0 Bft) SW 227 ° 0 min 0,000 mm 0,0 UV-I 0 W/m² 3,2 °C 5,0 °C 0,0 km/h (0 Bft)
07.11.2019 18:59 5,0 °C 88 % 1005,0 hPa 0,0 mm 0,0 km/h (0 Bft) SW 227 ° 0 min 0,000 mm 0,0 UV-I 0 W/m² 3,2 °C 5,0 °C 0,0 km/h (0 Bft)
07.11.2019 19:00 4,9 °C 88 % 1004,9 hPa 0,0 mm 0,0 km/h (0 Bft) SW 227 ° 0 min 0,000 mm 0,0 UV-I 0 W/m² 3,1 °C 4,9 °C 0,0 km/h (0 Bft)
07.11.2019 19:01 4,9 °C 88 % 1005,0 hPa 0,0 mm 0,0 km/h (0 Bft) SW 227 ° 0 min 0,000 mm 0,0 UV-I 0 W/m² 3,1 °C 4,9 °C 0,0 km/h (0 Bft)
07.11.2019 19:02 4,9 °C 88 % 1005,0 hPa 0,0 mm 0,0 km/h (0 Bft) SW 227 ° 0 min 0,000 mm 0,0 UV-I 0 W/m² 3,1 °C 4,9 °C 0,0 km/h (0 Bft)
07.11.2019 19:03 4,9 °C 88 % 1005,0 hPa 0,0 mm 0,0 km/h (0 Bft) SW 227 ° 0 min 0,000 mm 0,0 UV-I 0 W/m² 3,1 °C 4,9 °C 0,0 km/h (0 Bft)
07.11.2019 19:04 4,9 °C 88 % 1005,0 hPa 0,0 mm 0,0 km/h (0 Bft) SW 227 ° 0 min 0,000 mm 0,0 UV-I 0 W/m² 3,1 °C 4,9 °C 0,0 km/h (0 Bft)
07.11.2019 19:05 4,9 °C 88 % 1005,0 hPa 0,0 mm 0,0 km/h (0 Bft) SW 227 ° 0 min 0,000 mm 0,0 UV-I 0 W/m² 3,1 °C 4,9 °C 0,0 km/h (0 Bft)
07.11.2019 19:06 4,9 °C 88 % 1005,0 hPa 0,0 mm 0,0 km/h (0 Bft) SW 227 ° 0 min 0,000 mm 0,0 UV-I 0 W/m² 3,1 °C 4,9 °C 0,0 km/h (0 Bft)
07.11.2019 19:07 4,9 °C 88 % 1005,0 hPa 0,0 mm 0,0 km/h (0 Bft) SW 227 ° 0 min 0,000 mm 0,0 UV-I 0 W/m² 3,1 °C 4,9 °C 0,0 km/h (0 Bft)
07.11.2019 19:08 4,9 °C 88 % 1005,1 hPa 0,0 mm 0,0 km/h (0 Bft) SW 227 ° 0 min 0,000 mm 0,0 UV-I 0 W/m² 3,1 °C 4,9 °C 0,0 km/h (0 Bft)
07.11.2019 19:09 4,9 °C 88 % 1005,0 hPa 0,0 mm 0,0 km/h (0 Bft) SW 227 ° 0 min 0,000 mm 0,0 UV-I 0 W/m² 3,1 °C 4,9 °C 0,0 km/h (0 Bft)
07.11.2019 19:10 4,9 °C 88 % 1005,0 hPa 0,0 mm 0,0 km/h (0 Bft) SW 227 ° 0 min 0,000 mm 0,0 UV-I 0 W/m² 3,1 °C 4,9 °C 0,0 km/h (0 Bft)
07.11.2019 19:11 4,8 °C 88 % 1005,0 hPa 0,0 mm 0,0 km/h (0 Bft) SW 227 ° 0 min 0,000 mm 0,0 UV-I 0 W/m² 3,0 °C 4,8 °C 0,0 km/h (0 Bft)
07.11.2019 19:12 4,8 °C 88 % 1005,0 hPa 0,0 mm 0,0 km/h (0 Bft) SW 227 ° 0 min 0,000 mm 0,0 UV-I 0 W/m² 3,0 °C 4,8 °C 0,0 km/h (0 Bft)
07.11.2019 19:13 4,8 °C 88 % 1005,0 hPa 0,0 mm 0,0 km/h (0 Bft) SW 227 ° 0 min 0,000 mm 0,0 UV-I 0 W/m² 3,0 °C 4,8 °C 0,0 km/h (0 Bft)
07.11.2019 19:14 4,8 °C 88 % 1005,0 hPa 0,0 mm 0,0 km/h (0 Bft) SW 227 ° 0 min 0,000 mm 0,0 UV-I 0 W/m² 3,0 °C 4,8 °C 0,0 km/h (0 Bft)
07.11.2019 19:15 4,8 °C 88 % 1005,0 hPa 0,0 mm 0,0 km/h (0 Bft) SW 227 ° 0 min 0,000 mm 0,0 UV-I 0 W/m² 3,0 °C 4,8 °C 0,0 km/h (0 Bft)
07.11.2019 19:16 4,8 °C 88 % 1005,0 hPa 0,0 mm 0,0 km/h (0 Bft) SW 227 ° 0 min 0,000 mm 0,0 UV-I 0 W/m² 3,0 °C 4,8 °C 0,0 km/h (0 Bft)
07.11.2019 19:17 4,7 °C 88 % 1004,9 hPa 0,0 mm 0,0 km/h (0 Bft) SW 227 ° 0 min 0,000 mm 0,0 UV-I 0 W/m² 2,9 °C 4,7 °C 0,0 km/h (0 Bft)
07.11.2019 19:18 4,7 °C 88 % 1004,9 hPa 0,0 mm 0,0 km/h (0 Bft) SW 227 ° 0 min 0,000 mm 0,0 UV-I 0 W/m² 2,9 °C 4,7 °C 0,0 km/h (0 Bft)
07.11.2019 19:19 4,7 °C 88 % 1005,0 hPa 0,0 mm 0,0 km/h (0 Bft) SW 227 ° 0 min 0,000 mm 0,0 UV-I 0 W/m² 2,9 °C 4,7 °C 0,0 km/h (0 Bft)
07.11.2019 19:20 4,7 °C 88 % 1004,9 hPa 0,0 mm 0,0 km/h (0 Bft) SW 227 ° 0 min 0,000 mm 0,0 UV-I 0 W/m² 2,9 °C 4,7 °C 0,0 km/h (0 Bft)
07.11.2019 19:21 4,7 °C 88 % 1004,9 hPa 0,0 mm 0,0 km/h (0 Bft) SW 227 ° 0 min 0,000 mm 0,0 UV-I 0 W/m² 2,9 °C 4,7 °C 0,0 km/h (0 Bft)
07.11.2019 19:22 4,7 °C 88 % 1004,9 hPa 0,0 mm 0,0 km/h (0 Bft) SW 227 ° 0 min 0,000 mm 0,0 UV-I 0 W/m² 2,9 °C 4,7 °C 0,0 km/h (0 Bft)
07.11.2019 19:23 4,7 °C 88 % 1005,0 hPa 0,0 mm 0,0 km/h (0 Bft) SW 227 ° 0 min 0,000 mm 0,0 UV-I 0 W/m² 2,9 °C 4,7 °C 0,0 km/h (0 Bft)
07.11.2019 19:24 4,7 °C 89 % 1005,0 hPa 0,0 mm 0,0 km/h (0 Bft) SW 227 ° 0 min 0,000 mm 0,0 UV-I 0 W/m² 3,0 °C 4,7 °C 0,0 km/h (0 Bft)
07.11.2019 19:25 4,7 °C 89 % 1005,0 hPa 0,0 mm 0,0 km/h (0 Bft) SW 227 ° 0 min 0,000 mm 0,0 UV-I 0 W/m² 3,0 °C 4,7 °C 0,0 km/h (0 Bft)
07.11.2019 19:26 4,7 °C 89 % 1005,1 hPa 0,0 mm 0,0 km/h (0 Bft) SW 227 ° 0 min 0,000 mm 0,0 UV-I 0 W/m² 3,0 °C 4,7 °C 0,0 km/h (0 Bft)
07.11.2019 19:27 4,7 °C 88 % 1005,1 hPa 0,0 mm 0,0 km/h (0 Bft) SW 227 ° 0 min 0,000 mm 0,0 UV-I 0 W/m² 2,9 °C 4,7 °C 0,0 km/h (0 Bft)
07.11.2019 19:28 4,6 °C 89 % 1005,0 hPa 0,0 mm 0,0 km/h (0 Bft) SW 227 ° 0 min 0,000 mm 0,0 UV-I 0 W/m² 2,9 °C 4,6 °C 0,0 km/h (0 Bft)
07.11.2019 19:29 4,7 °C 89 % 1005,1 hPa 0,0 mm 0,0 km/h (0 Bft) SW 227 ° 0 min 0,000 mm 0,0 UV-I 0 W/m² 3,0 °C 4,7 °C 0,0 km/h (0 Bft)
07.11.2019 19:30 4,6 °C 89 % 1005,1 hPa 0,0 mm 0,0 km/h (0 Bft) SW 227 ° 0 min 0,000 mm 0,0 UV-I 0 W/m² 2,9 °C 4,6 °C 0,0 km/h (0 Bft)
07.11.2019 19:31 4,6 °C 89 % 1005,1 hPa 0,0 mm 0,0 km/h (0 Bft) SW 227 ° 0 min 0,000 mm 0,0 UV-I 0 W/m² 2,9 °C 4,6 °C 0,0 km/h (0 Bft)
07.11.2019 19:32 4,6 °C 89 % 1005,0 hPa 0,0 mm 0,0 km/h (0 Bft) SW 227 ° 0 min 0,000 mm 0,0 UV-I 0 W/m² 2,9 °C 4,6 °C 0,0 km/h (0 Bft)
07.11.2019 19:33 4,6 °C 88 % 1005,1 hPa 0,0 mm 0,0 km/h (0 Bft) SW 227 ° 0 min 0,000 mm 0,0 UV-I 0 W/m² 2,8 °C 4,6 °C 0,0 km/h (0 Bft)
07.11.2019 19:34 4,6 °C 89 % 1005,0 hPa 0,0 mm 0,0 km/h (0 Bft) SW 227 ° 0 min 0,000 mm 0,0 UV-I 0 W/m² 2,9 °C 4,6 °C 0,0 km/h (0 Bft)
07.11.2019 19:35 4,6 °C 89 % 1005,0 hPa 0,0 mm 0,0 km/h (0 Bft) SW 227 ° 0 min 0,000 mm 0,0 UV-I 0 W/m² 2,9 °C 4,6 °C 0,0 km/h (0 Bft)
07.11.2019 19:36 4,6 °C 89 % 1005,1 hPa 0,0 mm 0,0 km/h (0 Bft) SW 227 ° 0 min 0,000 mm 0,0 UV-I 0 W/m² 2,9 °C 4,6 °C 0,0 km/h (0 Bft)
07.11.2019 19:37 4,6 °C 89 % 1005,0 hPa 0,0 mm 0,0 km/h (0 Bft) SW 227 ° 0 min 0,000 mm 0,0 UV-I 0 W/m² 2,9 °C 4,6 °C 0,0 km/h (0 Bft)
07.11.2019 19:38 4,5 °C 89 % 1005,0 hPa 0,0 mm 0,0 km/h (0 Bft) SW 227 ° 0 min 0,000 mm 0,0 UV-I 0 W/m² 2,8 °C 4,5 °C 0,0 km/h (0 Bft)
07.11.2019 19:39 4,5 °C 89 % 1005,1 hPa 0,0 mm 0,0 km/h (0 Bft) SW 227 ° 0 min 0,000 mm 0,0 UV-I 0 W/m² 2,8 °C 4,5 °C 0,0 km/h (0 Bft)
07.11.2019 19:40 4,5 °C 89 % 1005,1 hPa 0,0 mm 0,0 km/h (0 Bft) SW 227 ° 0 min 0,000 mm 0,0 UV-I 0 W/m² 2,8 °C 4,5 °C 0,0 km/h (0 Bft)
07.11.2019 19:41 4,5 °C 89 % 1005,1 hPa 0,0 mm 0,0 km/h (0 Bft) SW 227 ° 0 min 0,000 mm 0,0 UV-I 0 W/m² 2,8 °C 4,5 °C 0,0 km/h (0 Bft)
07.11.2019 19:42 4,5 °C 89 % 1005,1 hPa 0,0 mm 0,0 km/h (0 Bft) SW 227 ° 0 min 0,000 mm 0,0 UV-I 0 W/m² 2,8 °C 4,5 °C 0,0 km/h (0 Bft)
07.11.2019 19:43 4,5 °C 89 % 1005,1 hPa 0,0 mm 0,0 km/h (0 Bft) SW 227 ° 0 min 0,000 mm 0,0 UV-I 0 W/m² 2,8 °C 4,5 °C 0,0 km/h (0 Bft)
07.11.2019 19:44 4,5 °C 89 % 1005,1 hPa 0,0 mm 0,0 km/h (0 Bft) SW 227 ° 0 min 0,000 mm 0,0 UV-I 0 W/m² 2,8 °C 4,5 °C 0,0 km/h (0 Bft)
07.11.2019 19:45 4,5 °C 89 % 1005,0 hPa 0,0 mm 0,0 km/h (0 Bft) SW 227 ° 0 min 0,000 mm 0,0 UV-I 0 W/m² 2,8 °C 4,5 °C 0,0 km/h (0 Bft)
07.11.2019 19:46 4,4 °C 89 % 1005,1 hPa 0,0 mm 0,0 km/h (0 Bft) SW 227 ° 0 min 0,000 mm 0,0 UV-I 0 W/m² 2,7 °C 4,4 °C 0,0 km/h (0 Bft)
07.11.2019 19:47 4,4 °C 89 % 1005,0 hPa 0,0 mm 0,0 km/h (0 Bft) SW 227 ° 0 min 0,000 mm 0,0 UV-I 0 W/m² 2,7 °C 4,4 °C 0,0 km/h (0 Bft)
07.11.2019 19:48 4,4 °C 89 % 1005,1 hPa 0,0 mm 2,3 km/h (1 Bft) SW 227 ° 0 min 0,000 mm 0,0 UV-I 0 W/m² 2,7 °C 4,4 °C 3,2 km/h (1 Bft)
07.11.2019 19:49 4,4 °C 89 % 1005,1 hPa 0,0 mm 3,2 km/h (1 Bft) SW 227 ° 0 min 0,000 mm 0,0 UV-I 0 W/m² 2,7 °C 4,4 °C 4,8 km/h (1 Bft)
07.11.2019 19:50 4,4 °C 89 % 1005,1 hPa 0,0 mm 3,0 km/h (1 Bft) SW 227 ° 0 min 0,000 mm 0,0 UV-I 0 W/m² 2,7 °C 4,4 °C 4,8 km/h (1 Bft)
07.11.2019 19:51 4,4 °C 89 % 1005,1 hPa 0,0 mm 2,7 km/h (1 Bft) SW 227 ° 0 min 0,000 mm 0,0 UV-I 0 W/m² 2,7 °C 4,4 °C 3,2 km/h (1 Bft)
07.11.2019 19:52 4,4 °C 89 % 1005,1 hPa 0,0 mm 2,4 km/h (1 Bft) SW 227 ° 0 min 0,000 mm 0,0 UV-I 0 W/m² 2,7 °C 4,4 °C 3,2 km/h (1 Bft)
07.11.2019 19:53 4,4 °C 90 % 1005,1 hPa 0,0 mm 2,7 km/h (1 Bft) SW 227 ° 0 min 0,000 mm 0,0 UV-I 0 W/m² 2,9 °C 4,4 °C 3,2 km/h (1 Bft)
07.11.2019 19:54 4,4 °C 90 % 1005,1 hPa 0,0 mm 2,7 km/h (1 Bft) SW 227 ° 0 min 0,000 mm 0,0 UV-I 0 W/m² 2,9 °C 4,4 °C 3,2 km/h (1 Bft)
07.11.2019 19:55 4,4 °C 90 % 1005,1 hPa 0,0 mm 2,0 km/h (1 Bft) SW 227 ° 0 min 0,000 mm 0,0 UV-I 0 W/m² 2,9 °C 4,4 °C 3,2 km/h (1 Bft)
07.11.2019 19:56 4,4 °C 90 % 1005,1 hPa 0,0 mm 1,2 km/h (1 Bft) SW 227 ° 0 min 0,000 mm 0,0 UV-I 0 W/m² 2,9 °C 4,4 °C 1,6 km/h (1 Bft)
07.11.2019 19:57 4,4 °C 90 % 1005,1 hPa 0,0 mm 1,3 km/h (1 Bft) SW 227 ° 0 min 0,000 mm 0,0 UV-I 0 W/m² 2,9 °C 4,4 °C 1,6 km/h (1 Bft)
07.11.2019 19:58 4,4 °C 90 % 1005,1 hPa 0,0 mm 1,2 km/h (1 Bft) SW 227 ° 0 min 0,000 mm 0,0 UV-I 0 W/m² 2,9 °C 4,4 °C 1,6 km/h (1 Bft)
07.11.2019 19:59 4,4 °C 90 % 1005,2 hPa 0,0 mm 0,9 km/h (0 Bft) SW 227 ° 0 min 0,000 mm 0,0 UV-I 0 W/m² 2,9 °C 4,4 °C 1,6 km/h (1 Bft)
07.11.2019 20:00 4,4 °C 90 % 1005,2 hPa 0,0 mm 0,5 km/h (0 Bft) SW 227 ° 0 min 0,000 mm 0,0 UV-I 0 W/m² 2,9 °C 4,4 °C 1,6 km/h (1 Bft)
07.11.2019 20:01 4,4 °C 90 % 1005,2 hPa 0,0 mm 0,0 km/h (0 Bft) SW 227 ° 0 min 0,000 mm 0,0 UV-I 0 W/m² 2,9 °C 4,4 °C 0,0 km/h (0 Bft)
07.11.2019 20:02 4,4 °C 90 % 1005,2 hPa 0,0 mm 0,0 km/h (0 Bft) SW 227 ° 0 min 0,000 mm 0,0 UV-I 0 W/m² 2,9 °C 4,4 °C 0,0 km/h (0 Bft)
07.11.2019 20:03 4,4 °C 90 % 1005,2 hPa 0,0 mm 0,0 km/h (0 Bft) SW 227 ° 0 min 0,000 mm 0,0 UV-I 0 W/m² 2,9 °C 4,4 °C 0,0 km/h (0 Bft)
07.11.2019 20:04 4,4 °C 90 % 1005,1 hPa 0,0 mm 0,0 km/h (0 Bft) SW 227 ° 0 min 0,000 mm 0,0 UV-I 0 W/m² 2,9 °C 4,4 °C 0,0 km/h (0 Bft)
07.11.2019 20:05 4,4 °C 90 % 1005,1 hPa 0,0 mm 0,0 km/h (0 Bft) SW 227 ° 0 min 0,000 mm 0,0 UV-I 0 W/m² 2,9 °C 4,4 °C 0,0 km/h (0 Bft)
07.11.2019 20:06 4,4 °C 90 % 1005,1 hPa 0,0 mm 0,0 km/h (0 Bft) SW 227 ° 0 min 0,000 mm 0,0 UV-I 0 W/m² 2,9 °C 4,4 °C 0,0 km/h (0 Bft)
07.11.2019 20:07 4,4 °C 90 % 1005,1 hPa 0,0 mm 0,0 km/h (0 Bft) SW 227 ° 0 min 0,000 mm 0,0 UV-I 0 W/m² 2,9 °C 4,4 °C 0,0 km/h (0 Bft)
07.11.2019 20:08 4,4 °C 90 % 1005,1 hPa 0,0 mm 0,0 km/h (0 Bft) SW 227 ° 0 min 0,000 mm 0,0 UV-I 0 W/m² 2,9 °C 4,4 °C 0,0 km/h (0 Bft)
07.11.2019 20:09 4,4 °C 90 % 1005,1 hPa 0,0 mm 0,0 km/h (0 Bft) SW 227 ° 0 min 0,000 mm 0,0 UV-I 0 W/m² 2,9 °C 4,4 °C 0,0 km/h (0 Bft)
07.11.2019 20:10 4,4 °C 90 % 1005,1 hPa 0,0 mm 0,0 km/h (0 Bft) SW 227 ° 0 min 0,000 mm 0,0 UV-I 0 W/m² 2,9 °C 4,4 °C 0,0 km/h (0 Bft)
07.11.2019 20:11 4,4 °C 90 % 1005,0 hPa 0,0 mm 0,0 km/h (0 Bft) SW 227 ° 0 min 0,000 mm 0,0 UV-I 0 W/m² 2,9 °C 4,4 °C 0,0 km/h (0 Bft)
07.11.2019 20:12 4,4 °C 90 % 1005,1 hPa 0,0 mm 0,0 km/h (0 Bft) SW 227 ° 0 min 0,000 mm 0,0 UV-I 0 W/m² 2,9 °C 4,4 °C 0,0 km/h (0 Bft)
07.11.2019 20:13 4,4 °C 90 % 1005,1 hPa 0,0 mm 0,0 km/h (0 Bft) SW 227 ° 0 min 0,000 mm 0,0 UV-I 0 W/m² 2,9 °C 4,4 °C 0,0 km/h (0 Bft)
07.11.2019 20:14 4,4 °C 90 % 1005,1 hPa 0,0 mm 0,0 km/h (0 Bft) SW 227 ° 0 min 0,000 mm 0,0 UV-I 0 W/m² 2,9 °C 4,4 °C 0,0 km/h (0 Bft)
07.11.2019 20:15 4,4 °C 90 % 1005,1 hPa 0,0 mm 0,0 km/h (0 Bft) SW 227 ° 0 min 0,000 mm 0,0 UV-I 0 W/m² 2,9 °C 4,4 °C 0,0 km/h (0 Bft)
07.11.2019 20:16 4,4 °C 90 % 1005,1 hPa 0,0 mm 0,0 km/h (0 Bft) SW 227 ° 0 min 0,000 mm 0,0 UV-I 0 W/m² 2,9 °C 4,4 °C 0,0 km/h (0 Bft)
07.11.2019 20:17 4,4 °C 90 % 1005,1 hPa 0,0 mm 0,0 km/h (0 Bft) SW 227 ° 0 min 0,000 mm 0,0 UV-I 0 W/m² 2,9 °C 4,4 °C 0,0 km/h (0 Bft)
07.11.2019 20:18 4,4 °C 90 % 1005,0 hPa 0,0 mm 0,0 km/h (0 Bft) SW 227 ° 0 min 0,000 mm 0,0 UV-I 0 W/m² 2,9 °C 4,4 °C 0,0 km/h (0 Bft)
07.11.2019 20:19 4,4 °C 90 % 1005,1 hPa 0,0 mm 0,0 km/h (0 Bft) SW 227 ° 0 min 0,000 mm 0,0 UV-I 0 W/m² 2,9 °C 4,4 °C 0,0 km/h (0 Bft)
07.11.2019 20:20 4,4 °C 90 % 1005,0 hPa 0,0 mm 0,0 km/h (0 Bft) SW 227 ° 0 min 0,000 mm 0,0 UV-I 0 W/m² 2,9 °C 4,4 °C 0,0 km/h (0 Bft)
07.11.2019 20:21 4,4 °C 90 % 1005,0 hPa 0,0 mm 0,0 km/h (0 Bft) SW 227 ° 0 min 0,000 mm 0,0 UV-I 0 W/m² 2,9 °C 4,4 °C 0,0 km/h (0 Bft)
07.11.2019 20:22 4,4 °C 90 % 1005,0 hPa 0,0 mm 0,0 km/h (0 Bft) SW 227 ° 0 min 0,000 mm 0,0 UV-I 0 W/m² 2,9 °C 4,4 °C 0,0 km/h (0 Bft)
07.11.2019 20:23 4,4 °C 90 % 1005,0 hPa 0,0 mm 0,0 km/h (0 Bft) SW 227 ° 0 min 0,000 mm 0,0 UV-I 0 W/m² 2,9 °C 4,4 °C 0,0 km/h (0 Bft)
07.11.2019 20:24 4,4 °C 90 % 1005,0 hPa 0,0 mm 0,0 km/h (0 Bft) SW 227 ° 0 min 0,000 mm 0,0 UV-I 0 W/m² 2,9 °C 4,4 °C 0,0 km/h (0 Bft)
07.11.2019 20:25 4,4 °C 90 % 1005,0 hPa 0,0 mm 0,0 km/h (0 Bft) SW 227 ° 0 min 0,000 mm 0,0 UV-I 0 W/m² 2,9 °C 4,4 °C 0,0 km/h (0 Bft)
07.11.2019 20:26 4,4 °C 90 % 1004,9 hPa 0,0 mm 0,0 km/h (0 Bft) SW 227 ° 0 min 0,000 mm 0,0 UV-I 0 W/m² 2,9 °C 4,4 °C 0,0 km/h (0 Bft)
07.11.2019 20:27 4,4 °C 90 % 1004,9 hPa 0,0 mm 0,0 km/h (0 Bft) SW 227 ° 0 min 0,000 mm 0,0 UV-I 0 W/m² 2,9 °C 4,4 °C 0,0 km/h (0 Bft)
07.11.2019 20:28 4,4 °C 90 % 1005,0 hPa 0,0 mm 0,0 km/h (0 Bft) SW 227 ° 0 min 0,000 mm 0,0 UV-I 0 W/m² 2,9 °C 4,4 °C 0,0 km/h (0 Bft)
07.11.2019 20:29 4,4 °C 90 % 1004,9 hPa 0,0 mm 0,0 km/h (0 Bft) SW 227 ° 0 min 0,000 mm 0,0 UV-I 0 W/m² 2,9 °C 4,4 °C 0,0 km/h (0 Bft)
07.11.2019 20:30 4,4 °C 90 % 1004,9 hPa 0,0 mm 0,0 km/h (0 Bft) SW 227 ° 0 min 0,000 mm 0,0 UV-I 0 W/m² 2,9 °C 4,4 °C 0,0 km/h (0 Bft)
07.11.2019 20:31 4,4 °C 90 % 1005,0 hPa 0,0 mm 0,0 km/h (0 Bft) SW 227 ° 0 min 0,000 mm 0,0 UV-I 0 W/m² 2,9 °C 4,4 °C 0,0 km/h (0 Bft)
07.11.2019 20:32 4,4 °C 90 % 1005,0 hPa 0,2 mm 0,0 km/h (0 Bft) SW 227 ° 0 min 0,000 mm 0,0 UV-I 0 W/m² 2,9 °C 4,4 °C 0,0 km/h (0 Bft)
07.11.2019 20:33 4,4 °C 90 % 1005,0 hPa 0,0 mm 0,0 km/h (0 Bft) SW 227 ° 0 min 0,000 mm 0,0 UV-I 0 W/m² 2,9 °C 4,4 °C 0,0 km/h (0 Bft)
07.11.2019 20:34 4,4 °C 90 % 1005,0 hPa 0,0 mm 0,0 km/h (0 Bft) SW 227 ° 0 min 0,000 mm 0,0 UV-I 0 W/m² 2,9 °C 4,4 °C 0,0 km/h (0 Bft)
07.11.2019 20:35 4,4 °C 90 % 1005,0 hPa 0,0 mm 0,0 km/h (0 Bft) SW 227 ° 0 min 0,000 mm 0,0 UV-I 0 W/m² 2,9 °C 4,4 °C 0,0 km/h (0 Bft)
07.11.2019 20:36 4,4 °C 90 % 1005,1 hPa 0,0 mm 0,0 km/h (0 Bft) SW 227 ° 0 min 0,000 mm 0,0 UV-I 0 W/m² 2,9 °C 4,4 °C 0,0 km/h (0 Bft)
07.11.2019 20:37 4,4 °C 90 % 1005,1 hPa 0,0 mm 0,0 km/h (0 Bft) SW 227 ° 0 min 0,000 mm 0,0 UV-I 0 W/m² 2,9 °C 4,4 °C 0,0 km/h (0 Bft)
07.11.2019 20:38 4,4 °C 90 % 1005,1 hPa 0,0 mm 0,0 km/h (0 Bft) SW 227 ° 0 min 0,000 mm 0,0 UV-I 0 W/m² 2,9 °C 4,4 °C 0,0 km/h (0 Bft)
07.11.2019 20:39 4,4 °C 90 % 1005,0 hPa 0,0 mm 0,0 km/h (0 Bft) SW 227 ° 0 min 0,000 mm 0,0 UV-I 0 W/m² 2,9 °C 4,4 °C 0,0 km/h (0 Bft)
07.11.2019 20:40 4,4 °C 90 % 1005,0 hPa 0,0 mm 0,0 km/h (0 Bft) SW 227 ° 0 min 0,000 mm 0,0 UV-I 0 W/m² 2,9 °C 4,4 °C 0,0 km/h (0 Bft)
07.11.2019 20:41 4,4 °C 90 % 1005,0 hPa 0,0 mm 0,0 km/h (0 Bft) SW 227 ° 0 min 0,000 mm 0,0 UV-I 0 W/m² 2,9 °C 4,4 °C 0,0 km/h (0 Bft)
07.11.2019 20:42 4,4 °C 90 % 1005,0 hPa 0,0 mm 0,0 km/h (0 Bft) SW 227 ° 0 min 0,000 mm 0,0 UV-I 0 W/m² 2,9 °C 4,4 °C 0,0 km/h (0 Bft)
07.11.2019 20:43 4,4 °C 90 % 1005,0 hPa 0,0 mm 0,0 km/h (0 Bft) SW 227 ° 0 min 0,000 mm 0,0 UV-I 0 W/m² 2,9 °C 4,4 °C 0,0 km/h (0 Bft)
07.11.2019 20:44 4,3 °C 90 % 1005,0 hPa 0,0 mm 0,0 km/h (0 Bft) SW 227 ° 0 min 0,000 mm 0,0 UV-I 0 W/m² 2,8 °C 4,3 °C 0,0 km/h (0 Bft)
07.11.2019 20:45 4,4 °C 90 % 1005,0 hPa 0,0 mm 0,0 km/h (0 Bft) SW 227 ° 0 min 0,000 mm 0,0 UV-I 0 W/m² 2,9 °C 4,4 °C 0,0 km/h (0 Bft)
07.11.2019 20:46 4,3 °C 90 % 1005,0 hPa 0,0 mm 0,0 km/h (0 Bft) SW 227 ° 0 min 0,000 mm 0,0 UV-I 0 W/m² 2,8 °C 4,3 °C 0,0 km/h (0 Bft)
07.11.2019 20:47 4,3 °C 90 % 1005,0 hPa 0,0 mm 0,0 km/h (0 Bft) SW 227 ° 0 min 0,000 mm 0,0 UV-I 0 W/m² 2,8 °C 4,3 °C 0,0 km/h (0 Bft)
07.11.2019 20:48 4,3 °C 90 % 1005,0 hPa 0,0 mm 0,0 km/h (0 Bft) SW 227 ° 0 min 0,000 mm 0,0 UV-I 0 W/m² 2,8 °C 4,3 °C 0,0 km/h (0 Bft)
07.11.2019 20:49 4,3 °C 90 % 1005,0 hPa 0,0 mm 0,0 km/h (0 Bft) SW 227 ° 0 min 0,000 mm 0,0 UV-I 0 W/m² 2,8 °C 4,3 °C 0,0 km/h (0 Bft)
07.11.2019 20:50 4,3 °C 90 % 1005,1 hPa 0,0 mm 0,0 km/h (0 Bft) SW 227 ° 0 min 0,000 mm 0,0 UV-I 0 W/m² 2,8 °C 4,3 °C 0,0 km/h (0 Bft)
07.11.2019 20:51 4,3 °C 90 % 1005,1 hPa 0,0 mm 0,0 km/h (0 Bft) SW 227 ° 0 min 0,000 mm 0,0 UV-I 0 W/m² 2,8 °C 4,3 °C 0,0 km/h (0 Bft)
07.11.2019 20:52 4,3 °C 90 % 1005,1 hPa 0,0 mm 0,0 km/h (0 Bft) SW 227 ° 0 min 0,000 mm 0,0 UV-I 0 W/m² 2,8 °C 4,3 °C 0,0 km/h (0 Bft)
07.11.2019 20:53 4,3 °C 90 % 1005,1 hPa 0,0 mm 0,0 km/h (0 Bft) SW 227 ° 0 min 0,000 mm 0,0 UV-I 0 W/m² 2,8 °C 4,3 °C 0,0 km/h (0 Bft)
07.11.2019 20:54 4,3 °C 90 % 1005,1 hPa 0,0 mm 0,0 km/h (0 Bft) SW 227 ° 0 min 0,000 mm 0,0 UV-I 0 W/m² 2,8 °C 4,3 °C 0,0 km/h (0 Bft)
07.11.2019 20:55 4,3 °C 90 % 1005,1 hPa 0,0 mm 0,0 km/h (0 Bft) SW 227 ° 0 min 0,000 mm 0,0 UV-I 0 W/m² 2,8 °C 4,3 °C 0,0 km/h (0 Bft)
07.11.2019 20:56 4,3 °C 90 % 1005,1 hPa 0,0 mm 0,0 km/h (0 Bft) SW 227 ° 0 min 0,000 mm 0,0 UV-I 0 W/m² 2,8 °C 4,3 °C 0,0 km/h (0 Bft)
07.11.2019 20:57 4,3 °C 90 % 1005,1 hPa 0,0 mm 0,0 km/h (0 Bft) SW 227 ° 0 min 0,000 mm 0,0 UV-I 0 W/m² 2,8 °C 4,3 °C 0,0 km/h (0 Bft)
07.11.2019 20:58 4,3 °C 90 % 1005,1 hPa 0,0 mm 0,0 km/h (0 Bft) SW 227 ° 0 min 0,000 mm 0,0 UV-I 0 W/m² 2,8 °C 4,3 °C 0,0 km/h (0 Bft)
07.11.2019 20:59 4,2 °C 90 % 1005,1 hPa 0,0 mm 0,0 km/h (0 Bft) SW 227 ° 0 min 0,000 mm 0,0 UV-I 0 W/m² 2,7 °C 4,2 °C 0,0 km/h (0 Bft)
07.11.2019 21:00 4,2 °C 90 % 1005,1 hPa 0,0 mm 0,0 km/h (0 Bft) SW 227 ° 0 min 0,000 mm 0,0 UV-I 0 W/m² 2,7 °C 4,2 °C 0,0 km/h (0 Bft)
07.11.2019 21:01 4,2 °C 91 % 1005,1 hPa 0,0 mm 0,0 km/h (0 Bft) SW 227 ° 0 min 0,000 mm 0,0 UV-I 0 W/m² 2,9 °C 4,2 °C 0,0 km/h (0 Bft)
07.11.2019 21:02 4,2 °C 90 % 1005,0 hPa 0,0 mm 0,0 km/h (0 Bft) SW 227 ° 0 min 0,000 mm 0,0 UV-I 0 W/m² 2,7 °C 4,2 °C 0,0 km/h (0 Bft)
07.11.2019 21:03 4,2 °C 91 % 1005,1 hPa 0,0 mm 0,0 km/h (0 Bft) SW 227 ° 0 min 0,000 mm 0,0 UV-I 0 W/m² 2,9 °C 4,2 °C 0,0 km/h (0 Bft)
07.11.2019 21:04 4,2 °C 91 % 1005,1 hPa 0,0 mm 0,0 km/h (0 Bft) SW 227 ° 0 min 0,000 mm 0,0 UV-I 0 W/m² 2,9 °C 4,2 °C 0,0 km/h (0 Bft)
07.11.2019 21:05 4,2 °C 91 % 1005,1 hPa 0,0 mm 0,0 km/h (0 Bft) SW 227 ° 0 min 0,000 mm 0,0 UV-I 0 W/m² 2,9 °C 4,2 °C 0,0 km/h (0 Bft)
07.11.2019 21:06 4,2 °C 91 % 1005,1 hPa 0,0 mm 0,0 km/h (0 Bft) SW 227 ° 0 min 0,000 mm 0,0 UV-I 0 W/m² 2,9 °C 4,2 °C 0,0 km/h (0 Bft)
07.11.2019 21:07 4,2 °C 91 % 1005,0 hPa 0,0 mm 0,0 km/h (0 Bft) SW 227 ° 0 min 0,000 mm 0,0 UV-I 0 W/m² 2,9 °C 4,2 °C 0,0 km/h (0 Bft)
07.11.2019 21:08 4,2 °C 91 % 1005,0 hPa 0,0 mm 0,0 km/h (0 Bft) SW 227 ° 0 min 0,000 mm 0,0 UV-I 0 W/m² 2,9 °C 4,2 °C 0,0 km/h (0 Bft)
07.11.2019 21:09 4,2 °C 91 % 1005,0 hPa 0,0 mm 0,0 km/h (0 Bft) SW 227 ° 0 min 0,000 mm 0,0 UV-I 0 W/m² 2,9 °C 4,2 °C 0,0 km/h (0 Bft)
07.11.2019 21:10 4,2 °C 91 % 1005,0 hPa 0,0 mm 0,0 km/h (0 Bft) SW 227 ° 0 min 0,000 mm 0,0 UV-I 0 W/m² 2,9 °C 4,2 °C 0,0 km/h (0 Bft)
07.11.2019 21:11 4,2 °C 91 % 1005,0 hPa 0,0 mm 0,0 km/h (0 Bft) SW 227 ° 0 min 0,000 mm 0,0 UV-I 0 W/m² 2,9 °C 4,2 °C 0,0 km/h (0 Bft)
07.11.2019 21:12 4,2 °C 91 % 1005,0 hPa 0,0 mm 0,0 km/h (0 Bft) SW 227 ° 0 min 0,000 mm 0,0 UV-I 0 W/m² 2,9 °C 4,2 °C 0,0 km/h (0 Bft)
07.11.2019 21:13 4,2 °C 91 % 1005,0 hPa 0,0 mm 0,0 km/h (0 Bft) SW 227 ° 0 min 0,000 mm 0,0 UV-I 0 W/m² 2,9 °C 4,2 °C 0,0 km/h (0 Bft)
07.11.2019 21:14 4,2 °C 91 % 1005,0 hPa 0,0 mm 0,0 km/h (0 Bft) SW 227 ° 0 min 0,000 mm 0,0 UV-I 0 W/m² 2,9 °C 4,2 °C 0,0 km/h (0 Bft)
07.11.2019 21:15 4,2 °C 91 % 1004,9 hPa 0,0 mm 0,0 km/h (0 Bft) SW 227 ° 0 min 0,000 mm 0,0 UV-I 0 W/m² 2,9 °C 4,2 °C 0,0 km/h (0 Bft)
07.11.2019 21:16 4,2 °C 91 % 1004,9 hPa 0,0 mm 0,0 km/h (0 Bft) SW 227 ° 0 min 0,000 mm 0,0 UV-I 0 W/m² 2,9 °C 4,2 °C 0,0 km/h (0 Bft)
07.11.2019 21:17 4,1 °C 91 % 1005,0 hPa 0,0 mm 1,6 km/h (1 Bft) SW 227 ° 0 min 0,000 mm 0,0 UV-I 0 W/m² 2,8 °C 4,1 °C 3,2 km/h (1 Bft)
07.11.2019 21:18 4,1 °C 91 % 1005,0 hPa 0,0 mm 1,3 km/h (1 Bft) SW 227 ° 0 min 0,000 mm 0,0 UV-I 0 W/m² 2,8 °C 4,1 °C 1,6 km/h (1 Bft)
07.11.2019 21:19 4,1 °C 91 % 1005,0 hPa 0,0 mm 0,7 km/h (0 Bft) SW 227 ° 0 min 0,000 mm 0,0 UV-I 0 W/m² 2,8 °C 4,1 °C 1,6 km/h (1 Bft)
07.11.2019 21:20 4,1 °C 91 % 1005,0 hPa 0,0 mm 0,0 km/h (0 Bft) SW 227 ° 0 min 0,000 mm 0,0 UV-I 0 W/m² 2,8 °C 4,1 °C 0,0 km/h (0 Bft)
07.11.2019 21:21 4,1 °C 91 % 1005,0 hPa 0,0 mm 0,1 km/h (0 Bft) SW 227 ° 0 min 0,000 mm 0,0 UV-I 0 W/m² 2,8 °C 4,1 °C 1,6 km/h (1 Bft)
07.11.2019 21:22 4,2 °C 91 % 1005,0 hPa 0,0 mm 0,0 km/h (0 Bft) SW 227 ° 0 min 0,000 mm 0,0 UV-I 0 W/m² 2,9 °C 4,2 °C 0,0 km/h (0 Bft)
07.11.2019 21:23 4,1 °C 91 % 1005,0 hPa 0,0 mm 0,0 km/h (0 Bft) SW 227 ° 0 min 0,000 mm 0,0 UV-I 0 W/m² 2,8 °C 4,1 °C 0,0 km/h (0 Bft)
07.11.2019 21:24 4,1 °C 91 % 1005,0 hPa 0,0 mm 0,0 km/h (0 Bft) SW 227 ° 0 min 0,000 mm 0,0 UV-I 0 W/m² 2,8 °C 4,1 °C 0,0 km/h (0 Bft)
07.11.2019 21:25 4,1 °C 91 % 1005,1 hPa 0,0 mm 0,0 km/h (0 Bft) SW 227 ° 0 min 0,000 mm 0,0 UV-I 0 W/m² 2,8 °C 4,1 °C 0,0 km/h (0 Bft)
07.11.2019 21:26 4,1 °C 91 % 1005,1 hPa 0,0 mm 0,0 km/h (0 Bft) SW 227 ° 0 min 0,000 mm 0,0 UV-I 0 W/m² 2,8 °C 4,1 °C 0,0 km/h (0 Bft)
07.11.2019 21:27 4,1 °C 91 % 1005,1 hPa 0,0 mm 0,0 km/h (0 Bft) SW 227 ° 0 min 0,000 mm 0,0 UV-I 0 W/m² 2,8 °C 4,1 °C 0,0 km/h (0 Bft)
07.11.2019 21:28 4,1 °C 91 % 1005,1 hPa 0,0 mm 0,1 km/h (0 Bft) SW 227 ° 0 min 0,000 mm 0,0 UV-I 0 W/m² 2,8 °C 4,1 °C 1,6 km/h (1 Bft)
07.11.2019 21:29 4,1 °C 91 % 1005,1 hPa 0,0 mm 0,0 km/h (0 Bft) SW 227 ° 0 min 0,000 mm 0,0 UV-I 0 W/m² 2,8 °C 4,1 °C 0,0 km/h (0 Bft)
07.11.2019 21:30 4,1 °C 91 % 1005,1 hPa 0,0 mm 0,0 km/h (0 Bft) SW 227 ° 0 min 0,000 mm 0,0 UV-I 0 W/m² 2,8 °C 4,1 °C 0,0 km/h (0 Bft)
07.11.2019 21:31 4,1 °C 91 % 1005,1 hPa 0,0 mm 0,0 km/h (0 Bft) SW 227 ° 0 min 0,000 mm 0,0 UV-I 0 W/m² 2,8 °C 4,1 °C 0,0 km/h (0 Bft)
07.11.2019 21:32 4,1 °C 91 % 1005,1 hPa 0,0 mm 0,0 km/h (0 Bft) SW 227 ° 0 min 0,000 mm 0,0 UV-I 0 W/m² 2,8 °C 4,1 °C 0,0 km/h (0 Bft)
07.11.2019 21:33 4,1 °C 91 % 1005,1 hPa 0,0 mm 0,0 km/h (0 Bft) SW 227 ° 0 min 0,000 mm 0,0 UV-I 0 W/m² 2,8 °C 4,1 °C 0,0 km/h (0 Bft)
07.11.2019 21:34 4,1 °C 91 % 1005,1 hPa 0,0 mm 0,0 km/h (0 Bft) SW 227 ° 0 min 0,000 mm 0,0 UV-I 0 W/m² 2,8 °C 4,1 °C 0,0 km/h (0 Bft)
07.11.2019 21:35 4,1 °C 91 % 1005,1 hPa 0,0 mm 0,0 km/h (0 Bft) SW 227 ° 0 min 0,000 mm 0,0 UV-I 0 W/m² 2,8 °C 4,1 °C 0,0 km/h (0 Bft)
07.11.2019 21:36 4,1 °C 91 % 1005,0 hPa 0,0 mm 0,0 km/h (0 Bft) SW 227 ° 0 min 0,000 mm 0,0 UV-I 0 W/m² 2,8 °C 4,1 °C 0,0 km/h (0 Bft)
07.11.2019 21:37 4,1 °C 91 % 1005,0 hPa 0,0 mm 0,0 km/h (0 Bft) SW 227 ° 0 min 0,000 mm 0,0 UV-I 0 W/m² 2,8 °C 4,1 °C 0,0 km/h (0 Bft)
07.11.2019 21:38 4,1 °C 91 % 1005,0 hPa 0,0 mm 0,0 km/h (0 Bft) SW 227 ° 0 min 0,000 mm 0,0 UV-I 0 W/m² 2,8 °C 4,1 °C 0,0 km/h (0 Bft)
07.11.2019 21:39 4,1 °C 91 % 1005,0 hPa 0,0 mm 0,0 km/h (0 Bft) SW 227 ° 0 min 0,000 mm 0,0 UV-I 0 W/m² 2,8 °C 4,1 °C 0,0 km/h (0 Bft)
07.11.2019 21:40 4,1 °C 91 % 1005,0 hPa 0,0 mm 0,0 km/h (0 Bft) SW 227 ° 0 min 0,000 mm 0,0 UV-I 0 W/m² 2,8 °C 4,1 °C 0,0 km/h (0 Bft)
07.11.2019 21:41 4,1 °C 91 % 1004,9 hPa 0,0 mm 0,0 km/h (0 Bft) SW 227 ° 0 min 0,000 mm 0,0 UV-I 0 W/m² 2,8 °C 4,1 °C 0,0 km/h (0 Bft)
07.11.2019 21:42 4,1 °C 91 % 1004,9 hPa 0,0 mm 0,0 km/h (0 Bft) SW 227 ° 0 min 0,000 mm 0,0 UV-I 0 W/m² 2,8 °C 4,1 °C 0,0 km/h (0 Bft)
07.11.2019 21:43 4,1 °C 91 % 1004,9 hPa 0,0 mm 0,0 km/h (0 Bft) SW 227 ° 0 min 0,000 mm 0,0 UV-I 0 W/m² 2,8 °C 4,1 °C 0,0 km/h (0 Bft)
07.11.2019 21:44 4,1 °C 91 % 1004,9 hPa 0,0 mm 0,0 km/h (0 Bft) SW 227 ° 0 min 0,000 mm 0,0 UV-I 0 W/m² 2,8 °C 4,1 °C 0,0 km/h (0 Bft)
07.11.2019 21:45 4,1 °C 91 % 1004,9 hPa 0,0 mm 0,0 km/h (0 Bft) SW 227 ° 0 min 0,000 mm 0,0 UV-I 0 W/m² 2,8 °C 4,1 °C 0,0 km/h (0 Bft)
07.11.2019 21:46 4,1 °C 91 % 1004,9 hPa 0,0 mm 0,0 km/h (0 Bft) SW 227 ° 0 min 0,000 mm 0,0 UV-I 0 W/m² 2,8 °C 4,1 °C 0,0 km/h (0 Bft)
07.11.2019 21:47 4,1 °C 91 % 1004,9 hPa 0,0 mm 0,0 km/h (0 Bft) SW 227 ° 0 min 0,000 mm 0,0 UV-I 0 W/m² 2,8 °C 4,1 °C 0,0 km/h (0 Bft)
07.11.2019 21:48 4,1 °C 91 % 1005,0 hPa 0,0 mm 0,0 km/h (0 Bft) SW 227 ° 0 min 0,000 mm 0,0 UV-I 0 W/m² 2,8 °C 4,1 °C 0,0 km/h (0 Bft)
07.11.2019 21:49 4,1 °C 91 % 1005,0 hPa 0,0 mm 0,0 km/h (0 Bft) SW 227 ° 0 min 0,000 mm 0,0 UV-I 0 W/m² 2,8 °C 4,1 °C 0,0 km/h (0 Bft)
07.11.2019 21:50 4,1 °C 91 % 1005,1 hPa 0,0 mm 0,0 km/h (0 Bft) SW 227 ° 0 min 0,000 mm 0,0 UV-I 0 W/m² 2,8 °C 4,1 °C 0,0 km/h (0 Bft)
07.11.2019 21:51 4,1 °C 91 % 1005,1 hPa 0,0 mm 0,0 km/h (0 Bft) SW 227 ° 0 min 0,000 mm 0,0 UV-I 0 W/m² 2,8 °C 4,1 °C 0,0 km/h (0 Bft)
07.11.2019 21:52 4,1 °C 91 % 1005,1 hPa 0,0 mm 0,0 km/h (0 Bft) SW 227 ° 0 min 0,000 mm 0,0 UV-I 0 W/m² 2,8 °C 4,1 °C 0,0 km/h (0 Bft)
07.11.2019 21:53 4,1 °C 91 % 1005,2 hPa 0,0 mm 0,0 km/h (0 Bft) SW 227 ° 0 min 0,000 mm 0,0 UV-I 0 W/m² 2,8 °C 4,1 °C 0,0 km/h (0 Bft)
07.11.2019 21:54 4,1 °C 91 % 1005,1 hPa 0,0 mm 0,0 km/h (0 Bft) SW 227 ° 0 min 0,000 mm 0,0 UV-I 0 W/m² 2,8 °C 4,1 °C 0,0 km/h (0 Bft)
07.11.2019 21:55 4,1 °C 91 % 1005,2 hPa 0,0 mm 0,0 km/h (0 Bft) SW 227 ° 0 min 0,000 mm 0,0 UV-I 0 W/m² 2,8 °C 4,1 °C 0,0 km/h (0 Bft)
07.11.2019 21:56 4,0 °C 91 % 1005,2 hPa 0,0 mm 0,0 km/h (0 Bft) SW 227 ° 0 min 0,000 mm 0,0 UV-I 0 W/m² 2,7 °C 4,0 °C 0,0 km/h (0 Bft)
07.11.2019 21:57 4,0 °C 91 % 1005,1 hPa 0,0 mm 0,0 km/h (0 Bft) SW 227 ° 0 min 0,000 mm 0,0 UV-I 0 W/m² 2,7 °C 4,0 °C 0,0 km/h (0 Bft)
07.11.2019 21:58 4,0 °C 91 % 1005,1 hPa 0,0 mm 0,0 km/h (0 Bft) SW 227 ° 0 min 0,000 mm 0,0 UV-I 0 W/m² 2,7 °C 4,0 °C 0,0 km/h (0 Bft)
07.11.2019 21:59 4,0 °C 91 % 1005,1 hPa 0,0 mm 0,0 km/h (0 Bft) SW 227 ° 0 min 0,000 mm 0,0 UV-I 0 W/m² 2,7 °C 4,0 °C 0,0 km/h (0 Bft)
07.11.2019 22:00 4,0 °C 91 % 1005,1 hPa 0,0 mm 0,0 km/h (0 Bft) SW 227 ° 0 min 0,000 mm 0,0 UV-I 0 W/m² 2,7 °C 4,0 °C 0,0 km/h (0 Bft)
07.11.2019 22:01 4,0 °C 91 % 1005,1 hPa 0,0 mm 0,0 km/h (0 Bft) SW 227 ° 0 min 0,000 mm 0,0 UV-I 0 W/m² 2,7 °C 4,0 °C 0,0 km/h (0 Bft)
07.11.2019 22:02 4,0 °C 91 % 1005,1 hPa 0,0 mm 0,0 km/h (0 Bft) SW 227 ° 0 min 0,000 mm 0,0 UV-I 0 W/m² 2,7 °C 4,0 °C 0,0 km/h (0 Bft)
07.11.2019 22:03 3,9 °C 91 % 1005,2 hPa 0,0 mm 0,5 km/h (0 Bft) SW 227 ° 0 min 0,000 mm 0,0 UV-I 0 W/m² 2,6 °C 3,9 °C 3,2 km/h (1 Bft)
07.11.2019 22:04 3,9 °C 91 % 1005,2 hPa 0,0 mm 2,7 km/h (1 Bft) SW 227 ° 0 min 0,000 mm 0,0 UV-I 0 W/m² 2,6 °C 3,9 °C 3,2 km/h (1 Bft)
07.11.2019 22:05 3,9 °C 91 % 1005,2 hPa 0,0 mm 2,2 km/h (1 Bft) SW 223 ° 0 min 0,000 mm 0,0 UV-I 0 W/m² 2,6 °C 3,9 °C 3,2 km/h (1 Bft)
07.11.2019 22:06 3,9 °C 91 % 1005,2 hPa 0,0 mm 0,5 km/h (0 Bft) SW 223 ° 0 min 0,000 mm 0,0 UV-I 0 W/m² 2,6 °C 3,9 °C 1,6 km/h (1 Bft)
07.11.2019 22:07 3,9 °C 91 % 1005,2 hPa 0,0 mm 0,0 km/h (0 Bft) SW 223 ° 0 min 0,000 mm 0,0 UV-I 0 W/m² 2,6 °C 3,9 °C 0,0 km/h (0 Bft)
07.11.2019 22:08 3,9 °C 91 % 1005,2 hPa 0,0 mm 0,0 km/h (0 Bft) SW 223 ° 0 min 0,000 mm 0,0 UV-I 0 W/m² 2,6 °C 3,9 °C 0,0 km/h (0 Bft)
07.11.2019 22:09 3,9 °C 91 % 1005,2 hPa 0,0 mm 0,0 km/h (0 Bft) SW 223 ° 0 min 0,000 mm 0,0 UV-I 0 W/m² 2,6 °C 3,9 °C 0,0 km/h (0 Bft)
07.11.2019 22:10 3,8 °C 91 % 1005,3 hPa 0,0 mm 0,0 km/h (0 Bft) SW 223 ° 0 min 0,000 mm 0,0 UV-I 0 W/m² 2,5 °C 3,8 °C 0,0 km/h (0 Bft)
07.11.2019 22:11 3,8 °C 91 % 1005,4 hPa 0,0 mm 0,0 km/h (0 Bft) SW 223 ° 0 min 0,000 mm 0,0 UV-I 0 W/m² 2,5 °C 3,8 °C 0,0 km/h (0 Bft)
07.11.2019 22:12 3,8 °C 91 % 1005,4 hPa 0,0 mm 0,0 km/h (0 Bft) SW 223 ° 0 min 0,000 mm 0,0 UV-I 0 W/m² 2,5 °C 3,8 °C 0,0 km/h (0 Bft)
07.11.2019 22:13 3,8 °C 91 % 1005,4 hPa 0,0 mm 0,0 km/h (0 Bft) SW 223 ° 0 min 0,000 mm 0,0 UV-I 0 W/m² 2,5 °C 3,8 °C 0,0 km/h (0 Bft)
07.11.2019 22:14 3,8 °C 91 % 1005,4 hPa 0,0 mm 0,0 km/h (0 Bft) SW 223 ° 0 min 0,000 mm 0,0 UV-I 0 W/m² 2,5 °C 3,8 °C 0,0 km/h (0 Bft)
07.11.2019 22:15 3,8 °C 91 % 1005,4 hPa 0,0 mm 0,0 km/h (0 Bft) SW 223 ° 0 min 0,000 mm 0,0 UV-I 0 W/m² 2,5 °C 3,8 °C 0,0 km/h (0 Bft)
07.11.2019 22:16 3,8 °C 91 % 1005,4 hPa 0,0 mm 0,0 km/h (0 Bft) SW 223 ° 0 min 0,000 mm 0,0 UV-I 0 W/m² 2,5 °C 3,8 °C 0,0 km/h (0 Bft)
07.11.2019 22:17 3,7 °C 91 % 1005,3 hPa 0,0 mm 2,1 km/h (1 Bft) SW 223 ° 0 min 0,000 mm 0,0 UV-I 0 W/m² 2,4 °C 3,7 °C 3,2 km/h (1 Bft)
07.11.2019 22:18 3,7 °C 91 % 1005,4 hPa 0,0 mm 1,5 km/h (1 Bft) SW 223 ° 0 min 0,000 mm 0,0 UV-I 0 W/m² 2,4 °C 3,7 °C 1,6 km/h (1 Bft)
07.11.2019 22:19 3,7 °C 91 % 1005,3 hPa 0,0 mm 1,7 km/h (1 Bft) SW 223 ° 0 min 0,000 mm 0,0 UV-I 0 W/m² 2,4 °C 3,7 °C 3,2 km/h (1 Bft)
07.11.2019 22:20 3,7 °C 91 % 1005,3 hPa 0,0 mm 1,5 km/h (1 Bft) SW 223 ° 0 min 0,000 mm 0,0 UV-I 0 W/m² 2,4 °C 3,7 °C 3,2 km/h (1 Bft)
07.11.2019 22:21 3,7 °C 91 % 1005,2 hPa 0,0 mm 0,9 km/h (0 Bft) SW 223 ° 0 min 0,000 mm 0,0 UV-I 0 W/m² 2,4 °C 3,7 °C 1,6 km/h (1 Bft)
07.11.2019 22:22 3,7 °C 91 % 1005,2 hPa 0,0 mm 1,8 km/h (1 Bft) SW 223 ° 0 min 0,000 mm 0,0 UV-I 0 W/m² 2,4 °C 3,7 °C 3,2 km/h (1 Bft)
07.11.2019 22:23 3,7 °C 91 % 1005,2 hPa 0,0 mm 0,4 km/h (0 Bft) SW 223 ° 0 min 0,000 mm 0,0 UV-I 0 W/m² 2,4 °C 3,7 °C 1,6 km/h (1 Bft)
07.11.2019 22:24 3,6 °C 91 % 1005,3 hPa 0,0 mm 0,0 km/h (0 Bft) SW 223 ° 0 min 0,000 mm 0,0 UV-I 0 W/m² 2,3 °C 3,6 °C 0,0 km/h (0 Bft)
07.11.2019 22:25 3,6 °C 91 % 1005,3 hPa 0,0 mm 1,3 km/h (1 Bft) SW 223 ° 0 min 0,000 mm 0,0 UV-I 0 W/m² 2,3 °C 3,6 °C 4,8 km/h (1 Bft)
07.11.2019 22:26 3,6 °C 91 % 1005,3 hPa 0,0 mm 3,4 km/h (1 Bft) SW 223 ° 0 min 0,000 mm 0,0 UV-I 0 W/m² 2,3 °C 3,6 °C 4,8 km/h (1 Bft)
07.11.2019 22:27 3,6 °C 91 % 1005,3 hPa 0,0 mm 3,7 km/h (1 Bft) SW 223 ° 0 min 0,000 mm 0,0 UV-I 0 W/m² 2,3 °C 3,6 °C 4,8 km/h (1 Bft)
07.11.2019 22:28 3,6 °C 91 % 1005,4 hPa 0,0 mm 2,4 km/h (1 Bft) SW 223 ° 0 min 0,000 mm 0,0 UV-I 0 W/m² 2,3 °C 3,6 °C 4,8 km/h (1 Bft)
07.11.2019 22:29 3,6 °C 91 % 1005,4 hPa 0,0 mm 0,1 km/h (0 Bft) SW 223 ° 0 min 0,000 mm 0,0 UV-I 0 W/m² 2,3 °C 3,6 °C 1,6 km/h (1 Bft)
07.11.2019 22:30 3,6 °C 91 % 1005,4 hPa 0,0 mm 0,0 km/h (0 Bft) SW 223 ° 0 min 0,000 mm 0,0 UV-I 0 W/m² 2,3 °C 3,6 °C 0,0 km/h (0 Bft)
07.11.2019 22:31 3,6 °C 91 % 1005,3 hPa 0,0 mm 0,0 km/h (0 Bft) SW 223 ° 0 min 0,000 mm 0,0 UV-I 0 W/m² 2,3 °C 3,6 °C 0,0 km/h (0 Bft)
07.11.2019 22:32 3,6 °C 91 % 1005,3 hPa 0,0 mm 0,0 km/h (0 Bft) SW 223 ° 0 min 0,000 mm 0,0 UV-I 0 W/m² 2,3 °C 3,6 °C 0,0 km/h (0 Bft)
07.11.2019 22:33 3,5 °C 91 % 1005,3 hPa 0,0 mm 0,0 km/h (0 Bft) SW 223 ° 0 min 0,000 mm 0,0 UV-I 0 W/m² 2,2 °C 3,5 °C 0,0 km/h (0 Bft)
07.11.2019 22:34 3,5 °C 91 % 1005,3 hPa 0,0 mm 0,0 km/h (0 Bft) SW 223 ° 0 min 0,000 mm 0,0 UV-I 0 W/m² 2,2 °C 3,5 °C 0,0 km/h (0 Bft)
07.11.2019 22:35 3,5 °C 91 % 1005,2 hPa 0,0 mm 0,0 km/h (0 Bft) SW 223 ° 0 min 0,000 mm 0,0 UV-I 0 W/m² 2,2 °C 3,5 °C 0,0 km/h (0 Bft)
07.11.2019 22:36 3,5 °C 91 % 1005,2 hPa 0,0 mm 0,0 km/h (0 Bft) SW 223 ° 0 min 0,000 mm 0,0 UV-I 0 W/m² 2,2 °C 3,5 °C 0,0 km/h (0 Bft)
07.11.2019 22:37 3,4 °C 91 % 1005,2 hPa 0,0 mm 0,0 km/h (0 Bft) SW 223 ° 0 min 0,000 mm 0,0 UV-I 0 W/m² 2,1 °C 3,4 °C 0,0 km/h (0 Bft)
07.11.2019 22:38 3,5 °C 91 % 1005,3 hPa 0,0 mm 0,0 km/h (0 Bft) SW 223 ° 0 min 0,000 mm 0,0 UV-I 0 W/m² 2,2 °C 3,5 °C 0,0 km/h (0 Bft)
07.11.2019 22:39 3,4 °C 91 % 1005,3 hPa 0,0 mm 0,0 km/h (0 Bft) SW 223 ° 0 min 0,000 mm 0,0 UV-I 0 W/m² 2,1 °C 3,4 °C 0,0 km/h (0 Bft)
07.11.2019 22:40 3,4 °C 91 % 1005,4 hPa 0,0 mm 0,0 km/h (0 Bft) SW 223 ° 0 min 0,000 mm 0,0 UV-I 0 W/m² 2,1 °C 3,4 °C 0,0 km/h (0 Bft)
07.11.2019 22:41 3,4 °C 91 % 1005,4 hPa 0,0 mm 0,0 km/h (0 Bft) SW 223 ° 0 min 0,000 mm 0,0 UV-I 0 W/m² 2,1 °C 3,4 °C 0,0 km/h (0 Bft)
07.11.2019 22:42 3,4 °C 91 % 1005,3 hPa 0,0 mm 0,0 km/h (0 Bft) SW 223 ° 0 min 0,000 mm 0,0 UV-I 0 W/m² 2,1 °C 3,4 °C 0,0 km/h (0 Bft)
07.11.2019 22:43 3,4 °C 91 % 1005,2 hPa 0,0 mm 0,0 km/h (0 Bft) SW 223 ° 0 min 0,000 mm 0,0 UV-I 0 W/m² 2,1 °C 3,4 °C 0,0 km/h (0 Bft)
07.11.2019 22:44 3,4 °C 91 % 1005,2 hPa 0,0 mm 0,7 km/h (0 Bft) SW 223 ° 0 min 0,000 mm 0,0 UV-I 0 W/m² 2,1 °C 3,4 °C 3,2 km/h (1 Bft)
07.11.2019 22:45 3,3 °C 91 % 1005,2 hPa 0,0 mm 0,0 km/h (0 Bft) SW 223 ° 0 min 0,000 mm 0,0 UV-I 0 W/m² 2,0 °C 3,3 °C 0,0 km/h (0 Bft)
07.11.2019 22:46 3,3 °C 91 % 1005,2 hPa 0,0 mm 0,0 km/h (0 Bft) SW 223 ° 0 min 0,000 mm 0,0 UV-I 0 W/m² 2,0 °C 3,3 °C 0,0 km/h (0 Bft)
07.11.2019 22:47 3,3 °C 91 % 1005,1 hPa 0,0 mm 0,0 km/h (0 Bft) SW 223 ° 0 min 0,000 mm 0,0 UV-I 0 W/m² 2,0 °C 3,3 °C 0,0 km/h (0 Bft)
07.11.2019 22:48 3,3 °C 91 % 1005,2 hPa 0,0 mm 0,0 km/h (0 Bft) SW 223 ° 0 min 0,000 mm 0,0 UV-I 0 W/m² 2,0 °C 3,3 °C 0,0 km/h (0 Bft)
07.11.2019 22:49 3,3 °C 91 % 1005,2 hPa 0,0 mm 0,0 km/h (0 Bft) SW 223 ° 0 min 0,000 mm 0,0 UV-I 0 W/m² 2,0 °C 3,3 °C 0,0 km/h (0 Bft)
07.11.2019 22:50 3,3 °C 91 % 1005,3 hPa 0,0 mm 0,0 km/h (0 Bft) SW 223 ° 0 min 0,000 mm 0,0 UV-I 0 W/m² 2,0 °C 3,3 °C 0,0 km/h (0 Bft)
07.11.2019 22:51 3,3 °C 91 % 1005,3 hPa 0,0 mm 0,0 km/h (0 Bft) SW 223 ° 0 min 0,000 mm 0,0 UV-I 0 W/m² 2,0 °C 3,3 °C 0,0 km/h (0 Bft)
07.11.2019 22:52 3,3 °C 91 % 1005,3 hPa 0,0 mm 0,0 km/h (0 Bft) SW 223 ° 0 min 0,000 mm 0,0 UV-I 0 W/m² 2,0 °C 3,3 °C 0,0 km/h (0 Bft)
07.11.2019 22:53 3,3 °C 91 % 1005,3 hPa 0,0 mm 0,0 km/h (0 Bft) SW 223 ° 0 min 0,000 mm 0,0 UV-I 0 W/m² 2,0 °C 3,3 °C 0,0 km/h (0 Bft)
07.11.2019 22:54 3,2 °C 91 % 1005,3 hPa 0,0 mm 0,0 km/h (0 Bft) SW 223 ° 0 min 0,000 mm 0,0 UV-I 0 W/m² 1,9 °C 3,2 °C 0,0 km/h (0 Bft)
07.11.2019 22:55 3,2 °C 91 % 1005,3 hPa 0,0 mm 0,0 km/h (0 Bft) SW 223 ° 0 min 0,000 mm 0,0 UV-I 0 W/m² 1,9 °C 3,2 °C 0,0 km/h (0 Bft)
07.11.2019 22:56 3,2 °C 91 % 1005,4 hPa 0,0 mm 0,0 km/h (0 Bft) SW 223 ° 0 min 0,000 mm 0,0 UV-I 0 W/m² 1,9 °C 3,2 °C 0,0 km/h (0 Bft)
07.11.2019 22:57 3,2 °C 91 % 1005,4 hPa 0,0 mm 0,0 km/h (0 Bft) SW 223 ° 0 min 0,000 mm 0,0 UV-I 0 W/m² 1,9 °C 3,2 °C 0,0 km/h (0 Bft)
07.11.2019 22:58 3,2 °C 91 % 1005,5 hPa 0,0 mm 0,0 km/h (0 Bft) SW 223 ° 0 min 0,000 mm 0,0 UV-I 0 W/m² 1,9 °C 3,2 °C 0,0 km/h (0 Bft)
07.11.2019 22:59 3,2 °C 91 % 1005,5 hPa 0,0 mm 0,0 km/h (0 Bft) SW 223 ° 0 min 0,000 mm 0,0 UV-I 0 W/m² 1,9 °C 3,2 °C 0,0 km/h (0 Bft)
07.11.2019 23:00 3,2 °C 91 % 1005,5 hPa 0,0 mm 0,0 km/h (0 Bft) SW 223 ° 0 min 0,000 mm 0,0 UV-I 0 W/m² 1,9 °C 3,2 °C 0,0 km/h (0 Bft)
07.11.2019 23:01 3,2 °C 91 % 1005,5 hPa 0,0 mm 0,0 km/h (0 Bft) SW 223 ° 0 min 0,000 mm 0,0 UV-I 0 W/m² 1,9 °C 3,2 °C 0,0 km/h (0 Bft)
07.11.2019 23:02 3,2 °C 91 % 1005,5 hPa 0,0 mm 1,3 km/h (1 Bft) SW 223 ° 0 min 0,000 mm 0,0 UV-I 0 W/m² 1,9 °C 3,2 °C 1,6 km/h (1 Bft)
07.11.2019 23:03 3,2 °C 91 % 1005,6 hPa 0,0 mm 1,5 km/h (1 Bft) SW 223 ° 0 min 0,000 mm 0,0 UV-I 0 W/m² 1,9 °C 3,2 °C 3,2 km/h (1 Bft)
07.11.2019 23:04 3,2 °C 91 % 1005,6 hPa 0,0 mm 0,0 km/h (0 Bft) SW 223 ° 0 min 0,000 mm 0,0 UV-I 0 W/m² 1,9 °C 3,2 °C 0,0 km/h (0 Bft)
07.11.2019 23:05 3,2 °C 91 % 1005,7 hPa 0,0 mm 0,0 km/h (0 Bft) SW 223 ° 0 min 0,000 mm 0,0 UV-I 0 W/m² 1,9 °C 3,2 °C 0,0 km/h (0 Bft)
07.11.2019 23:06 3,1 °C 91 % 1005,7 hPa 0,0 mm 0,0 km/h (0 Bft) SW 223 ° 0 min 0,000 mm 0,0 UV-I 0 W/m² 1,8 °C 3,1 °C 0,0 km/h (0 Bft)
07.11.2019 23:07 3,1 °C 91 % 1005,6 hPa 0,0 mm 0,0 km/h (0 Bft) SW 223 ° 0 min 0,000 mm 0,0 UV-I 0 W/m² 1,8 °C 3,1 °C 0,0 km/h (0 Bft)
07.11.2019 23:08 3,2 °C 91 % 1005,6 hPa 0,0 mm 0,0 km/h (0 Bft) SW 223 ° 0 min 0,000 mm 0,0 UV-I 0 W/m² 1,9 °C 3,2 °C 0,0 km/h (0 Bft)
07.11.2019 23:09 3,2 °C 92 % 1005,5 hPa 0,0 mm 0,0 km/h (0 Bft) SW 223 ° 0 min 0,000 mm 0,0 UV-I 0 W/m² 2,0 °C 3,2 °C 0,0 km/h (0 Bft)
07.11.2019 23:10 3,2 °C 92 % 1005,5 hPa 0,0 mm 0,0 km/h (0 Bft) SW 223 ° 0 min 0,000 mm 0,0 UV-I 0 W/m² 2,0 °C 3,2 °C 0,0 km/h (0 Bft)
07.11.2019 23:11 3,2 °C 92 % 1005,5 hPa 0,0 mm 0,0 km/h (0 Bft) SW 223 ° 0 min 0,000 mm 0,0 UV-I 0 W/m² 2,0 °C 3,2 °C 0,0 km/h (0 Bft)
07.11.2019 23:12 3,2 °C 92 % 1005,5 hPa 0,0 mm 0,0 km/h (0 Bft) SW 223 ° 0 min 0,000 mm 0,0 UV-I 0 W/m² 2,0 °C 3,2 °C 0,0 km/h (0 Bft)
07.11.2019 23:13 3,2 °C 92 % 1005,5 hPa 0,0 mm 0,0 km/h (0 Bft) SW 223 ° 0 min 0,000 mm 0,0 UV-I 0 W/m² 2,0 °C 3,2 °C 0,0 km/h (0 Bft)
07.11.2019 23:14 3,1 °C 92 % 1005,5 hPa 0,0 mm 0,0 km/h (0 Bft) SW 223 ° 0 min 0,000 mm 0,0 UV-I 0 W/m² 1,9 °C 3,1 °C 0,0 km/h (0 Bft)
07.11.2019 23:15 3,2 °C 92 % 1005,5 hPa 0,0 mm 0,0 km/h (0 Bft) SW 223 ° 0 min 0,000 mm 0,0 UV-I 0 W/m² 2,0 °C 3,2 °C 0,0 km/h (0 Bft)
07.11.2019 23:16 3,2 °C 92 % 1005,5 hPa 0,0 mm 0,0 km/h (0 Bft) SW 223 ° 0 min 0,000 mm 0,0 UV-I 0 W/m² 2,0 °C 3,2 °C 0,0 km/h (0 Bft)
07.11.2019 23:17 3,2 °C 92 % 1005,6 hPa 0,0 mm 0,0 km/h (0 Bft) SW 223 ° 0 min 0,000 mm 0,0 UV-I 0 W/m² 2,0 °C 3,2 °C 0,0 km/h (0 Bft)
07.11.2019 23:18 3,2 °C 92 % 1005,5 hPa 0,0 mm 0,0 km/h (0 Bft) SW 223 ° 0 min 0,000 mm 0,0 UV-I 0 W/m² 2,0 °C 3,2 °C 0,0 km/h (0 Bft)
07.11.2019 23:19 3,1 °C 92 % 1005,6 hPa 0,0 mm 0,0 km/h (0 Bft) SW 223 ° 0 min 0,000 mm 0,0 UV-I 0 W/m² 1,9 °C 3,1 °C 0,0 km/h (0 Bft)
07.11.2019 23:20 3,2 °C 92 % 1005,6 hPa 0,2 mm 0,0 km/h (0 Bft) SW 223 ° 0 min 0,000 mm 0,0 UV-I 0 W/m² 2,0 °C 3,2 °C 0,0 km/h (0 Bft)
07.11.2019 23:21 3,2 °C 92 % 1005,5 hPa 0,0 mm 0,0 km/h (0 Bft) SW 223 ° 0 min 0,000 mm 0,0 UV-I 0 W/m² 2,0 °C 3,2 °C 0,0 km/h (0 Bft)
07.11.2019 23:22 3,2 °C 92 % 1005,5 hPa 0,0 mm 0,0 km/h (0 Bft) SW 223 ° 0 min 0,000 mm 0,0 UV-I 0 W/m² 2,0 °C 3,2 °C 0,0 km/h (0 Bft)
07.11.2019 23:23 3,1 °C 92 % 1005,5 hPa 0,0 mm 0,0 km/h (0 Bft) SW 223 ° 0 min 0,000 mm 0,0 UV-I 0 W/m² 1,9 °C 3,1 °C 0,0 km/h (0 Bft)
07.11.2019 23:24 3,2 °C 92 % 1005,4 hPa 0,0 mm 0,0 km/h (0 Bft) SW 223 ° 0 min 0,000 mm 0,0 UV-I 0 W/m² 2,0 °C 3,2 °C 0,0 km/h (0 Bft)
07.11.2019 23:25 3,1 °C 92 % 1005,4 hPa 0,0 mm 0,0 km/h (0 Bft) SW 223 ° 0 min 0,000 mm 0,0 UV-I 0 W/m² 1,9 °C 3,1 °C 0,0 km/h (0 Bft)
07.11.2019 23:26 3,1 °C 92 % 1005,4 hPa 0,0 mm 0,0 km/h (0 Bft) SW 223 ° 0 min 0,000 mm 0,0 UV-I 0 W/m² 1,9 °C 3,1 °C 0,0 km/h (0 Bft)
07.11.2019 23:27 3,1 °C 92 % 1005,5 hPa 0,0 mm 0,0 km/h (0 Bft) SW 223 ° 0 min 0,000 mm 0,0 UV-I 0 W/m² 1,9 °C 3,1 °C 0,0 km/h (0 Bft)
07.11.2019 23:28 3,1 °C 92 % 1005,5 hPa 0,0 mm 0,0 km/h (0 Bft) SW 223 ° 0 min 0,000 mm 0,0 UV-I 0 W/m² 1,9 °C 3,1 °C 0,0 km/h (0 Bft)
07.11.2019 23:29 3,1 °C 92 % 1005,5 hPa 0,0 mm 0,0 km/h (0 Bft) SW 223 ° 0 min 0,000 mm 0,0 UV-I 0 W/m² 1,9 °C 3,1 °C 0,0 km/h (0 Bft)
07.11.2019 23:30 3,1 °C 92 % 1005,6 hPa 0,0 mm 0,0 km/h (0 Bft) SW 223 ° 0 min 0,000 mm 0,0 UV-I 0 W/m² 1,9 °C 3,1 °C 0,0 km/h (0 Bft)
07.11.2019 23:31 3,1 °C 92 % 1005,6 hPa 0,0 mm 0,0 km/h (0 Bft) SW 223 ° 0 min 0,000 mm 0,0 UV-I 0 W/m² 1,9 °C 3,1 °C 0,0 km/h (0 Bft)
07.11.2019 23:32 3,1 °C 92 % 1005,5 hPa 0,0 mm 0,0 km/h (0 Bft) SW 223 ° 0 min 0,000 mm 0,0 UV-I 0 W/m² 1,9 °C 3,1 °C 0,0 km/h (0 Bft)
07.11.2019 23:33 3,1 °C 92 % 1005,6 hPa 0,0 mm 0,0 km/h (0 Bft) SW 223 ° 0 min 0,000 mm 0,0 UV-I 0 W/m² 1,9 °C 3,1 °C 0,0 km/h (0 Bft)
07.11.2019 23:34 3,1 °C 92 % 1005,6 hPa 0,0 mm 0,0 km/h (0 Bft) SW 223 ° 0 min 0,000 mm 0,0 UV-I 0 W/m² 1,9 °C 3,1 °C 0,0 km/h (0 Bft)
07.11.2019 23:35 3,1 °C 92 % 1005,6 hPa 0,0 mm 0,0 km/h (0 Bft) SW 223 ° 0 min 0,000 mm 0,0 UV-I 0 W/m² 1,9 °C 3,1 °C 0,0 km/h (0 Bft)
07.11.2019 23:36 3,1 °C 92 % 1005,7 hPa 0,0 mm 0,0 km/h (0 Bft) SW 223 ° 0 min 0,000 mm 0,0 UV-I 0 W/m² 1,9 °C 3,1 °C 0,0 km/h (0 Bft)
07.11.2019 23:37 3,1 °C 92 % 1005,6 hPa 0,0 mm 0,0 km/h (0 Bft) SW 223 ° 0 min 0,000 mm 0,0 UV-I 0 W/m² 1,9 °C 3,1 °C 0,0 km/h (0 Bft)
07.11.2019 23:38 3,1 °C 92 % 1005,7 hPa 0,0 mm 0,0 km/h (0 Bft) SW 223 ° 0 min 0,000 mm 0,0 UV-I 0 W/m² 1,9 °C 3,1 °C 0,0 km/h (0 Bft)
07.11.2019 23:39 3,1 °C 92 % 1005,7 hPa 0,0 mm 0,0 km/h (0 Bft) SW 223 ° 0 min 0,000 mm 0,0 UV-I 0 W/m² 1,9 °C 3,1 °C 0,0 km/h (0 Bft)
07.11.2019 23:40 3,1 °C 92 % 1005,7 hPa 0,0 mm 0,0 km/h (0 Bft) SW 223 ° 0 min 0,000 mm 0,0 UV-I 0 W/m² 1,9 °C 3,1 °C 0,0 km/h (0 Bft)
07.11.2019 23:41 3,1 °C 92 % 1005,7 hPa 0,0 mm 0,0 km/h (0 Bft) SW 223 ° 0 min 0,000 mm 0,0 UV-I 0 W/m² 1,9 °C 3,1 °C 0,0 km/h (0 Bft)
07.11.2019 23:42 3,1 °C 92 % 1005,7 hPa 0,0 mm 0,0 km/h (0 Bft) SW 223 ° 0 min 0,000 mm 0,0 UV-I 0 W/m² 1,9 °C 3,1 °C 0,0 km/h (0 Bft)
07.11.2019 23:43 3,1 °C 92 % 1005,7 hPa 0,0 mm 0,0 km/h (0 Bft) SW 223 ° 0 min 0,000 mm 0,0 UV-I 0 W/m² 1,9 °C 3,1 °C 0,0 km/h (0 Bft)
07.11.2019 23:44 3,1 °C 92 % 1005,7 hPa 0,0 mm 0,0 km/h (0 Bft) SW 223 ° 0 min 0,000 mm 0,0 UV-I 0 W/m² 1,9 °C 3,1 °C 0,0 km/h (0 Bft)
07.11.2019 23:45 3,1 °C 92 % 1005,7 hPa 0,0 mm 0,0 km/h (0 Bft) SW 223 ° 0 min 0,000 mm 0,0 UV-I 0 W/m² 1,9 °C 3,1 °C 0,0 km/h (0 Bft)
07.11.2019 23:46 3,1 °C 92 % 1005,7 hPa 0,0 mm 0,0 km/h (0 Bft) SW 223 ° 0 min 0,000 mm 0,0 UV-I 0 W/m² 1,9 °C 3,1 °C 0,0 km/h (0 Bft)
07.11.2019 23:47 3,1 °C 92 % 1005,7 hPa 0,0 mm 0,0 km/h (0 Bft) SW 223 ° 0 min 0,000 mm 0,0 UV-I 0 W/m² 1,9 °C 3,1 °C 0,0 km/h (0 Bft)
07.11.2019 23:48 3,1 °C 92 % 1005,8 hPa 0,0 mm 0,0 km/h (0 Bft) SW 223 ° 0 min 0,000 mm 0,0 UV-I 0 W/m² 1,9 °C 3,1 °C 0,0 km/h (0 Bft)
07.11.2019 23:49 3,1 °C 92 % 1005,8 hPa 0,0 mm 0,0 km/h (0 Bft) SW 223 ° 0 min 0,000 mm 0,0 UV-I 0 W/m² 1,9 °C 3,1 °C 0,0 km/h (0 Bft)
07.11.2019 23:50 3,1 °C 92 % 1005,8 hPa 0,0 mm 0,0 km/h (0 Bft) SW 223 ° 0 min 0,000 mm 0,0 UV-I 0 W/m² 1,9 °C 3,1 °C 0,0 km/h (0 Bft)
07.11.2019 23:51 3,1 °C 92 % 1005,8 hPa 0,0 mm 0,0 km/h (0 Bft) SW 223 ° 0 min 0,000 mm 0,0 UV-I 0 W/m² 1,9 °C 3,1 °C 0,0 km/h (0 Bft)
07.11.2019 23:52 3,1 °C 92 % 1005,8 hPa 0,0 mm 0,0 km/h (0 Bft) SW 223 ° 0 min 0,000 mm 0,0 UV-I 0 W/m² 1,9 °C 3,1 °C 0,0 km/h (0 Bft)
07.11.2019 23:53 3,1 °C 92 % 1005,8 hPa 0,0 mm 0,0 km/h (0 Bft) SW 223 ° 0 min 0,000 mm 0,0 UV-I 0 W/m² 1,9 °C 3,1 °C 0,0 km/h (0 Bft)
07.11.2019 23:54 3,2 °C 92 % 1005,8 hPa 0,0 mm 0,0 km/h (0 Bft) SW 223 ° 0 min 0,000 mm 0,0 UV-I 0 W/m² 2,0 °C 3,2 °C 0,0 km/h (0 Bft)
07.11.2019 23:55 3,1 °C 92 % 1005,8 hPa 0,0 mm 0,0 km/h (0 Bft) SW 223 ° 0 min 0,000 mm 0,0 UV-I 0 W/m² 1,9 °C 3,1 °C 0,0 km/h (0 Bft)
07.11.2019 23:56 3,2 °C 92 % 1005,8 hPa 0,0 mm 0,0 km/h (0 Bft) SW 223 ° 0 min 0,000 mm 0,0 UV-I 0 W/m² 2,0 °C 3,2 °C 0,0 km/h (0 Bft)
07.11.2019 23:57 3,1 °C 92 % 1005,8 hPa 0,0 mm 0,0 km/h (0 Bft) SW 223 ° 0 min 0,000 mm 0,0 UV-I 0 W/m² 1,9 °C 3,1 °C 0,0 km/h (0 Bft)
07.11.2019 23:58 3,2 °C 92 % 1005,8 hPa 0,0 mm 0,0 km/h (0 Bft) SW 223 ° 0 min 0,000 mm 0,0 UV-I 0 W/m² 2,0 °C 3,2 °C 0,0 km/h (0 Bft)
07.11.2019 23:59 3,2 °C 92 % 1005,8 hPa 0,0 mm 0,0 km/h (0 Bft) SW 223 ° 0 min 0,000 mm 0,0 UV-I 0 W/m² 2,0 °C 3,2 °C 0,0 km/h (0 Bft)
_ Min-Zeit 07:16 14:16 11:59 - 23:59 - - - - - - 06:56 07:19 23:59
Minimum _ -1,3 °C 71 % 1002,0 hPa - 0,0 km/h (0 Bft) - - - - - - -2,2 °C -3,0 °C 0,0 km/h (0 Bft)
_ Max-Zeit 13:50 11:14 00:13 23:20 14:11 - - 23:59 14:01 13:47 13:40 13:49 13:58 14:11
Maximum _ 9,2 °C 95 % 1006,5 hPa 0,2 mm 12,1 km/h
W-NW (2 Bft)
- - 0 min 0,127 mm 1,6 UV-I 469 W/m² 5,2 °C 9,1 °C 19,3 km/h
W-NW (3 Bft)
Durchschnitt _ 3,2 °C 89 % 1004,2 hPa #1,8 mm 0,8 km/h (0 Bft) SW - #0 min. #0,330 mm 1,0 UV-I 29 W/m² 1,5 °C 3,1 °C 1,4 km/h (1 Bft)